<?xml version="1.0" encoding="UTF-8" standalone="no" ?>
<gpx xmlns="http://www.topografix.com/GPX/1/1" xmlns:xsi="http://www.w3.org/2001/XMLSchema-instance" xsi:schemaLocation="http://www.topografix.com/GPX/1/1 http://www.topografix.com/GPX/1/1/gpx.xsd" version="1.1" creator="VisuGPX - https://www.visugpx.com">
  <metadata>
    <name>Charly-Pélussin-Chavanay-2021-09-18</name>
  </metadata>
  <trk>
    <name><![CDATA[Charly-Pélussin-Chavanay-2021-09-18_1]]></name>
    <trkseg>
      <trkpt lat="45.65772" lon="4.79584">
        <ele>261.41</ele>
        <time>2021-09-18T09:00:21Z</time>
      </trkpt>
      <trkpt lat="45.65775" lon="4.79584">
        <ele>261.44</ele>
        <time>2021-09-18T09:00:22Z</time>
      </trkpt>
      <trkpt lat="45.65778" lon="4.79584">
        <ele>261.47</ele>
        <time>2021-09-18T09:00:23Z</time>
      </trkpt>
      <trkpt lat="45.65782" lon="4.79585">
        <ele>261.51</ele>
        <time>2021-09-18T09:00:24Z</time>
      </trkpt>
      <trkpt lat="45.65785" lon="4.79586">
        <ele>261.52</ele>
        <time>2021-09-18T09:00:25Z</time>
      </trkpt>
      <trkpt lat="45.65788" lon="4.79587">
        <ele>261.54</ele>
        <time>2021-09-18T09:00:26Z</time>
      </trkpt>
      <trkpt lat="45.65791" lon="4.79588">
        <ele>261.55</ele>
        <time>2021-09-18T09:00:27Z</time>
      </trkpt>
      <trkpt lat="45.65812" lon="4.79588">
        <ele>261.66</ele>
        <time>2021-09-18T09:00:33Z</time>
      </trkpt>
      <trkpt lat="45.65842" lon="4.79595">
        <ele>261.89</ele>
        <time>2021-09-18T09:00:41Z</time>
      </trkpt>
      <trkpt lat="45.65847" lon="4.79596">
        <ele>261.9</ele>
        <time>2021-09-18T09:00:42Z</time>
      </trkpt>
      <trkpt lat="45.65851" lon="4.79598">
        <ele>261.9</ele>
        <time>2021-09-18T09:00:43Z</time>
      </trkpt>
      <trkpt lat="45.6588" lon="4.79608">
        <ele>261.88</ele>
        <time>2021-09-18T09:00:51Z</time>
      </trkpt>
      <trkpt lat="45.65901" lon="4.79618">
        <ele>261.9</ele>
        <time>2021-09-18T09:00:58Z</time>
      </trkpt>
      <trkpt lat="45.65903" lon="4.79618">
        <ele>262.27</ele>
        <time>2021-09-18T09:01:03Z</time>
      </trkpt>
      <trkpt lat="45.65903" lon="4.79618">
        <ele>262.32</ele>
        <time>2021-09-18T09:01:04Z</time>
      </trkpt>
      <trkpt lat="45.6591" lon="4.79609">
        <ele>263.55</ele>
        <time>2021-09-18T09:01:14Z</time>
      </trkpt>
      <trkpt lat="45.65911" lon="4.79607">
        <ele>263.57</ele>
        <time>2021-09-18T09:01:15Z</time>
      </trkpt>
      <trkpt lat="45.6591" lon="4.79604">
        <ele>263.59</ele>
        <time>2021-09-18T09:01:16Z</time>
      </trkpt>
      <trkpt lat="45.65909" lon="4.79604">
        <ele>263.6</ele>
        <time>2021-09-18T09:01:17Z</time>
      </trkpt>
      <trkpt lat="45.65907" lon="4.79606">
        <ele>263.61</ele>
        <time>2021-09-18T09:01:18Z</time>
      </trkpt>
      <trkpt lat="45.65907" lon="4.7961">
        <ele>263.61</ele>
        <time>2021-09-18T09:01:19Z</time>
      </trkpt>
      <trkpt lat="45.65906" lon="4.79613">
        <ele>263.61</ele>
        <time>2021-09-18T09:01:20Z</time>
      </trkpt>
      <trkpt lat="45.65905" lon="4.79617">
        <ele>263.61</ele>
        <time>2021-09-18T09:01:21Z</time>
      </trkpt>
      <trkpt lat="45.65898" lon="4.79648">
        <ele>263.49</ele>
        <time>2021-09-18T09:01:27Z</time>
      </trkpt>
      <trkpt lat="45.65894" lon="4.79668">
        <ele>263.33</ele>
        <time>2021-09-18T09:01:30Z</time>
      </trkpt>
      <trkpt lat="45.65892" lon="4.79674">
        <ele>263.29</ele>
        <time>2021-09-18T09:01:31Z</time>
      </trkpt>
      <trkpt lat="45.65884" lon="4.79699">
        <ele>262.9</ele>
        <time>2021-09-18T09:01:35Z</time>
      </trkpt>
      <trkpt lat="45.6587" lon="4.79745">
        <ele>262.22</ele>
        <time>2021-09-18T09:01:42Z</time>
      </trkpt>
      <trkpt lat="45.65849" lon="4.79797">
        <ele>261.98</ele>
        <time>2021-09-18T09:01:49Z</time>
      </trkpt>
      <trkpt lat="45.65844" lon="4.79813">
        <ele>261.77</ele>
        <time>2021-09-18T09:01:51Z</time>
      </trkpt>
      <trkpt lat="45.65843" lon="4.79821">
        <ele>261.64</ele>
        <time>2021-09-18T09:01:52Z</time>
      </trkpt>
      <trkpt lat="45.65845" lon="4.79828">
        <ele>261.39</ele>
        <time>2021-09-18T09:01:53Z</time>
      </trkpt>
      <trkpt lat="45.65849" lon="4.79834">
        <ele>260.66</ele>
        <time>2021-09-18T09:01:54Z</time>
      </trkpt>
      <trkpt lat="45.65852" lon="4.7984">
        <ele>260.14</ele>
        <time>2021-09-18T09:01:55Z</time>
      </trkpt>
      <trkpt lat="45.65854" lon="4.79847">
        <ele>259.88</ele>
        <time>2021-09-18T09:01:56Z</time>
      </trkpt>
      <trkpt lat="45.65857" lon="4.79854">
        <ele>259.74</ele>
        <time>2021-09-18T09:01:57Z</time>
      </trkpt>
      <trkpt lat="45.65858" lon="4.79861">
        <ele>259.68</ele>
        <time>2021-09-18T09:01:58Z</time>
      </trkpt>
      <trkpt lat="45.6586" lon="4.79868">
        <ele>259.64</ele>
        <time>2021-09-18T09:01:59Z</time>
      </trkpt>
      <trkpt lat="45.65868" lon="4.79936">
        <ele>259.73</ele>
        <time>2021-09-18T09:02:08Z</time>
      </trkpt>
      <trkpt lat="45.65874" lon="4.79969">
        <ele>259.85</ele>
        <time>2021-09-18T09:02:12Z</time>
      </trkpt>
      <trkpt lat="45.65877" lon="4.79977">
        <ele>259.87</ele>
        <time>2021-09-18T09:02:13Z</time>
      </trkpt>
      <trkpt lat="45.6588" lon="4.79984">
        <ele>259.88</ele>
        <time>2021-09-18T09:02:14Z</time>
      </trkpt>
      <trkpt lat="45.65884" lon="4.79991">
        <ele>259.89</ele>
        <time>2021-09-18T09:02:15Z</time>
      </trkpt>
      <trkpt lat="45.65887" lon="4.79998">
        <ele>259.89</ele>
        <time>2021-09-18T09:02:16Z</time>
      </trkpt>
      <trkpt lat="45.65918" lon="4.80047">
        <ele>259.86</ele>
        <time>2021-09-18T09:02:24Z</time>
      </trkpt>
      <trkpt lat="45.65949" lon="4.80113">
        <ele>259.78</ele>
        <time>2021-09-18T09:02:33Z</time>
      </trkpt>
      <trkpt lat="45.65987" lon="4.80174">
        <ele>259.34</ele>
        <time>2021-09-18T09:02:41Z</time>
      </trkpt>
      <trkpt lat="45.65993" lon="4.8018">
        <ele>259.01</ele>
        <time>2021-09-18T09:02:42Z</time>
      </trkpt>
      <trkpt lat="45.66014" lon="4.80197">
        <ele>257.93</ele>
        <time>2021-09-18T09:02:45Z</time>
      </trkpt>
      <trkpt lat="45.6602" lon="4.80202">
        <ele>257.6</ele>
        <time>2021-09-18T09:02:46Z</time>
      </trkpt>
      <trkpt lat="45.66026" lon="4.80209">
        <ele>257.14</ele>
        <time>2021-09-18T09:02:47Z</time>
      </trkpt>
      <trkpt lat="45.66028" lon="4.80218">
        <ele>256.68</ele>
        <time>2021-09-18T09:02:48Z</time>
      </trkpt>
      <trkpt lat="45.66027" lon="4.80228">
        <ele>256.22</ele>
        <time>2021-09-18T09:02:49Z</time>
      </trkpt>
      <trkpt lat="45.66025" lon="4.80238">
        <ele>255.76</ele>
        <time>2021-09-18T09:02:50Z</time>
      </trkpt>
      <trkpt lat="45.66022" lon="4.80249">
        <ele>255.38</ele>
        <time>2021-09-18T09:02:51Z</time>
      </trkpt>
      <trkpt lat="45.66019" lon="4.8026">
        <ele>254.98</ele>
        <time>2021-09-18T09:02:52Z</time>
      </trkpt>
      <trkpt lat="45.66016" lon="4.80271">
        <ele>254.46</ele>
        <time>2021-09-18T09:02:53Z</time>
      </trkpt>
      <trkpt lat="45.65991" lon="4.80374">
        <ele>251.39</ele>
        <time>2021-09-18T09:03:02Z</time>
      </trkpt>
      <trkpt lat="45.65965" lon="4.80429">
        <ele>248.38</ele>
        <time>2021-09-18T09:03:08Z</time>
      </trkpt>
      <trkpt lat="45.65926" lon="4.80507">
        <ele>248.28</ele>
        <time>2021-09-18T09:03:18Z</time>
      </trkpt>
      <trkpt lat="45.65894" lon="4.80579">
        <ele>248.54</ele>
        <time>2021-09-18T09:03:27Z</time>
      </trkpt>
      <trkpt lat="45.65857" lon="4.80661">
        <ele>247.44</ele>
        <time>2021-09-18T09:03:36Z</time>
      </trkpt>
      <trkpt lat="45.65811" lon="4.80769">
        <ele>243.96</ele>
        <time>2021-09-18T09:03:46Z</time>
      </trkpt>
      <trkpt lat="45.65772" lon="4.80866">
        <ele>240.57</ele>
        <time>2021-09-18T09:03:55Z</time>
      </trkpt>
      <trkpt lat="45.65746" lon="4.80929">
        <ele>239.29</ele>
        <time>2021-09-18T09:04:02Z</time>
      </trkpt>
      <trkpt lat="45.6574" lon="4.80934">
        <ele>239.29</ele>
        <time>2021-09-18T09:04:03Z</time>
      </trkpt>
      <trkpt lat="45.65734" lon="4.80935">
        <ele>239.29</ele>
        <time>2021-09-18T09:04:04Z</time>
      </trkpt>
      <trkpt lat="45.65728" lon="4.80934">
        <ele>239.29</ele>
        <time>2021-09-18T09:04:05Z</time>
      </trkpt>
      <trkpt lat="45.65722" lon="4.80932">
        <ele>239.44</ele>
        <time>2021-09-18T09:04:06Z</time>
      </trkpt>
      <trkpt lat="45.65716" lon="4.8093">
        <ele>239.73</ele>
        <time>2021-09-18T09:04:07Z</time>
      </trkpt>
      <trkpt lat="45.65638" lon="4.80901">
        <ele>240.64</ele>
        <time>2021-09-18T09:04:19Z</time>
      </trkpt>
      <trkpt lat="45.65553" lon="4.80872">
        <ele>240.55</ele>
        <time>2021-09-18T09:04:32Z</time>
      </trkpt>
      <trkpt lat="45.65472" lon="4.80845">
        <ele>240.93</ele>
        <time>2021-09-18T09:04:45Z</time>
      </trkpt>
      <trkpt lat="45.65465" lon="4.80845">
        <ele>240.94</ele>
        <time>2021-09-18T09:04:46Z</time>
      </trkpt>
      <trkpt lat="45.65459" lon="4.80847">
        <ele>240.88</ele>
        <time>2021-09-18T09:04:47Z</time>
      </trkpt>
      <trkpt lat="45.65452" lon="4.8085">
        <ele>240.84</ele>
        <time>2021-09-18T09:04:48Z</time>
      </trkpt>
      <trkpt lat="45.65445" lon="4.80854">
        <ele>240.82</ele>
        <time>2021-09-18T09:04:49Z</time>
      </trkpt>
      <trkpt lat="45.6542" lon="4.8087">
        <ele>240.76</ele>
        <time>2021-09-18T09:04:53Z</time>
      </trkpt>
      <trkpt lat="45.65415" lon="4.80876">
        <ele>240.65</ele>
        <time>2021-09-18T09:04:54Z</time>
      </trkpt>
      <trkpt lat="45.6541" lon="4.80884">
        <ele>240.41</ele>
        <time>2021-09-18T09:04:55Z</time>
      </trkpt>
      <trkpt lat="45.65406" lon="4.80894">
        <ele>240.15</ele>
        <time>2021-09-18T09:04:56Z</time>
      </trkpt>
      <trkpt lat="45.65402" lon="4.80904">
        <ele>239.68</ele>
        <time>2021-09-18T09:04:57Z</time>
      </trkpt>
      <trkpt lat="45.65372" lon="4.80962">
        <ele>237.14</ele>
        <time>2021-09-18T09:05:02Z</time>
      </trkpt>
      <trkpt lat="45.6535" lon="4.81003">
        <ele>233.43</ele>
        <time>2021-09-18T09:05:06Z</time>
      </trkpt>
      <trkpt lat="45.65347" lon="4.81014">
        <ele>232.12</ele>
        <time>2021-09-18T09:05:07Z</time>
      </trkpt>
      <trkpt lat="45.65345" lon="4.81026">
        <ele>230.58</ele>
        <time>2021-09-18T09:05:08Z</time>
      </trkpt>
      <trkpt lat="45.65342" lon="4.8105">
        <ele>227.55</ele>
        <time>2021-09-18T09:05:10Z</time>
      </trkpt>
      <trkpt lat="45.6534" lon="4.81062">
        <ele>226.4</ele>
        <time>2021-09-18T09:05:11Z</time>
      </trkpt>
      <trkpt lat="45.65337" lon="4.81072">
        <ele>225.14</ele>
        <time>2021-09-18T09:05:12Z</time>
      </trkpt>
      <trkpt lat="45.65333" lon="4.81082">
        <ele>223.98</ele>
        <time>2021-09-18T09:05:13Z</time>
      </trkpt>
      <trkpt lat="45.65328" lon="4.81091">
        <ele>222.89</ele>
        <time>2021-09-18T09:05:14Z</time>
      </trkpt>
      <trkpt lat="45.65321" lon="4.811">
        <ele>222.05</ele>
        <time>2021-09-18T09:05:15Z</time>
      </trkpt>
      <trkpt lat="45.65313" lon="4.81109">
        <ele>221.36</ele>
        <time>2021-09-18T09:05:16Z</time>
      </trkpt>
      <trkpt lat="45.65296" lon="4.8113">
        <ele>218.02</ele>
        <time>2021-09-18T09:05:18Z</time>
      </trkpt>
      <trkpt lat="45.6528" lon="4.81152">
        <ele>215.75</ele>
        <time>2021-09-18T09:05:20Z</time>
      </trkpt>
      <trkpt lat="45.65261" lon="4.81184">
        <ele>211.48</ele>
        <time>2021-09-18T09:05:23Z</time>
      </trkpt>
      <trkpt lat="45.65247" lon="4.81206">
        <ele>207.43</ele>
        <time>2021-09-18T09:05:25Z</time>
      </trkpt>
      <trkpt lat="45.65233" lon="4.8123">
        <ele>203.77</ele>
        <time>2021-09-18T09:05:27Z</time>
      </trkpt>
      <trkpt lat="45.65216" lon="4.81267">
        <ele>199.51</ele>
        <time>2021-09-18T09:05:30Z</time>
      </trkpt>
      <trkpt lat="45.65203" lon="4.81298">
        <ele>195.86</ele>
        <time>2021-09-18T09:05:33Z</time>
      </trkpt>
      <trkpt lat="45.65198" lon="4.81314">
        <ele>193.34</ele>
        <time>2021-09-18T09:05:35Z</time>
      </trkpt>
      <trkpt lat="45.65195" lon="4.81318">
        <ele>191.82</ele>
        <time>2021-09-18T09:05:36Z</time>
      </trkpt>
      <trkpt lat="45.65185" lon="4.81327">
        <ele>189.03</ele>
        <time>2021-09-18T09:05:40Z</time>
      </trkpt>
      <trkpt lat="45.65181" lon="4.81326">
        <ele>188.57</ele>
        <time>2021-09-18T09:05:41Z</time>
      </trkpt>
      <trkpt lat="45.65176" lon="4.81324">
        <ele>188.38</ele>
        <time>2021-09-18T09:05:42Z</time>
      </trkpt>
      <trkpt lat="45.65135" lon="4.81301">
        <ele>187.62</ele>
        <time>2021-09-18T09:05:49Z</time>
      </trkpt>
      <trkpt lat="45.65081" lon="4.81273">
        <ele>184.43</ele>
        <time>2021-09-18T09:05:57Z</time>
      </trkpt>
      <trkpt lat="45.65032" lon="4.81241">
        <ele>183.37</ele>
        <time>2021-09-18T09:06:05Z</time>
      </trkpt>
      <trkpt lat="45.65011" lon="4.81221">
        <ele>183.04</ele>
        <time>2021-09-18T09:06:09Z</time>
      </trkpt>
      <trkpt lat="45.65007" lon="4.81215">
        <ele>183.02</ele>
        <time>2021-09-18T09:06:10Z</time>
      </trkpt>
      <trkpt lat="45.65003" lon="4.81208">
        <ele>183</ele>
        <time>2021-09-18T09:06:11Z</time>
      </trkpt>
      <trkpt lat="45.64998" lon="4.81205">
        <ele>182.99</ele>
        <time>2021-09-18T09:06:12Z</time>
      </trkpt>
      <trkpt lat="45.64992" lon="4.81205">
        <ele>182.99</ele>
        <time>2021-09-18T09:06:13Z</time>
      </trkpt>
      <trkpt lat="45.64986" lon="4.81205">
        <ele>182.99</ele>
        <time>2021-09-18T09:06:14Z</time>
      </trkpt>
      <trkpt lat="45.6494" lon="4.81201">
        <ele>183.03</ele>
        <time>2021-09-18T09:06:21Z</time>
      </trkpt>
      <trkpt lat="45.64887" lon="4.81202">
        <ele>183.16</ele>
        <time>2021-09-18T09:06:29Z</time>
      </trkpt>
      <trkpt lat="45.64826" lon="4.81201">
        <ele>182.34</ele>
        <time>2021-09-18T09:06:37Z</time>
      </trkpt>
      <trkpt lat="45.64775" lon="4.81191">
        <ele>179.17</ele>
        <time>2021-09-18T09:06:44Z</time>
      </trkpt>
      <trkpt lat="45.64743" lon="4.81175">
        <ele>178.36</ele>
        <time>2021-09-18T09:06:49Z</time>
      </trkpt>
      <trkpt lat="45.64689" lon="4.81149">
        <ele>178.31</ele>
        <time>2021-09-18T09:06:57Z</time>
      </trkpt>
      <trkpt lat="45.64656" lon="4.81134">
        <ele>178.45</ele>
        <time>2021-09-18T09:07:02Z</time>
      </trkpt>
      <trkpt lat="45.64601" lon="4.81107">
        <ele>178.73</ele>
        <time>2021-09-18T09:07:11Z</time>
      </trkpt>
      <trkpt lat="45.64554" lon="4.81083">
        <ele>180.14</ele>
        <time>2021-09-18T09:07:20Z</time>
      </trkpt>
      <trkpt lat="45.64527" lon="4.81065">
        <ele>182.06</ele>
        <time>2021-09-18T09:07:26Z</time>
      </trkpt>
      <trkpt lat="45.64482" lon="4.81016">
        <ele>184.22</ele>
        <time>2021-09-18T09:07:37Z</time>
      </trkpt>
      <trkpt lat="45.64478" lon="4.81013">
        <ele>184.57</ele>
        <time>2021-09-18T09:07:38Z</time>
      </trkpt>
      <trkpt lat="45.64468" lon="4.81007">
        <ele>184.99</ele>
        <time>2021-09-18T09:07:40Z</time>
      </trkpt>
      <trkpt lat="45.64462" lon="4.81006">
        <ele>185.05</ele>
        <time>2021-09-18T09:07:41Z</time>
      </trkpt>
      <trkpt lat="45.64457" lon="4.81005">
        <ele>185.09</ele>
        <time>2021-09-18T09:07:42Z</time>
      </trkpt>
      <trkpt lat="45.64451" lon="4.81004">
        <ele>185.11</ele>
        <time>2021-09-18T09:07:43Z</time>
      </trkpt>
      <trkpt lat="45.64446" lon="4.81004">
        <ele>185.12</ele>
        <time>2021-09-18T09:07:44Z</time>
      </trkpt>
      <trkpt lat="45.6444" lon="4.81005">
        <ele>185.13</ele>
        <time>2021-09-18T09:07:45Z</time>
      </trkpt>
      <trkpt lat="45.64435" lon="4.81006">
        <ele>185.13</ele>
        <time>2021-09-18T09:07:46Z</time>
      </trkpt>
      <trkpt lat="45.64413" lon="4.81009">
        <ele>185.13</ele>
        <time>2021-09-18T09:07:50Z</time>
      </trkpt>
      <trkpt lat="45.64374" lon="4.81007">
        <ele>185.13</ele>
        <time>2021-09-18T09:07:58Z</time>
      </trkpt>
      <trkpt lat="45.64332" lon="4.81004">
        <ele>187.6</ele>
        <time>2021-09-18T09:08:08Z</time>
      </trkpt>
      <trkpt lat="45.64297" lon="4.80996">
        <ele>189.25</ele>
        <time>2021-09-18T09:08:16Z</time>
      </trkpt>
      <trkpt lat="45.64246" lon="4.80976">
        <ele>189.6</ele>
        <time>2021-09-18T09:08:27Z</time>
      </trkpt>
      <trkpt lat="45.64208" lon="4.80952">
        <ele>189.76</ele>
        <time>2021-09-18T09:08:36Z</time>
      </trkpt>
      <trkpt lat="45.64189" lon="4.80934">
        <ele>190.38</ele>
        <time>2021-09-18T09:08:41Z</time>
      </trkpt>
      <trkpt lat="45.64186" lon="4.8093">
        <ele>190.54</ele>
        <time>2021-09-18T09:08:42Z</time>
      </trkpt>
      <trkpt lat="45.64159" lon="4.80893">
        <ele>191.71</ele>
        <time>2021-09-18T09:08:50Z</time>
      </trkpt>
      <trkpt lat="45.64123" lon="4.80849">
        <ele>193.24</ele>
        <time>2021-09-18T09:09:00Z</time>
      </trkpt>
      <trkpt lat="45.64082" lon="4.80812">
        <ele>193.86</ele>
        <time>2021-09-18T09:09:10Z</time>
      </trkpt>
      <trkpt lat="45.64036" lon="4.8078">
        <ele>194.4</ele>
        <time>2021-09-18T09:09:21Z</time>
      </trkpt>
      <trkpt lat="45.63997" lon="4.80761">
        <ele>194.67</ele>
        <time>2021-09-18T09:09:30Z</time>
      </trkpt>
      <trkpt lat="45.6398" lon="4.80754">
        <ele>195.15</ele>
        <time>2021-09-18T09:09:34Z</time>
      </trkpt>
      <trkpt lat="45.63975" lon="4.80752">
        <ele>195.23</ele>
        <time>2021-09-18T09:09:35Z</time>
      </trkpt>
      <trkpt lat="45.63927" lon="4.80731">
        <ele>196.55</ele>
        <time>2021-09-18T09:09:46Z</time>
      </trkpt>
      <trkpt lat="45.63888" lon="4.80714">
        <ele>197.87</ele>
        <time>2021-09-18T09:09:55Z</time>
      </trkpt>
      <trkpt lat="45.63847" lon="4.80695">
        <ele>199.42</ele>
        <time>2021-09-18T09:10:05Z</time>
      </trkpt>
      <trkpt lat="45.63842" lon="4.80693">
        <ele>199.63</ele>
        <time>2021-09-18T09:10:06Z</time>
      </trkpt>
      <trkpt lat="45.63838" lon="4.80692">
        <ele>199.88</ele>
        <time>2021-09-18T09:10:07Z</time>
      </trkpt>
      <trkpt lat="45.63833" lon="4.80691">
        <ele>200.12</ele>
        <time>2021-09-18T09:10:08Z</time>
      </trkpt>
      <trkpt lat="45.63829" lon="4.8069">
        <ele>200.26</ele>
        <time>2021-09-18T09:10:09Z</time>
      </trkpt>
      <trkpt lat="45.63824" lon="4.80688">
        <ele>200.36</ele>
        <time>2021-09-18T09:10:10Z</time>
      </trkpt>
      <trkpt lat="45.6382" lon="4.80686">
        <ele>200.54</ele>
        <time>2021-09-18T09:10:11Z</time>
      </trkpt>
      <trkpt lat="45.63815" lon="4.80684">
        <ele>200.64</ele>
        <time>2021-09-18T09:10:12Z</time>
      </trkpt>
      <trkpt lat="45.63811" lon="4.80683">
        <ele>200.71</ele>
        <time>2021-09-18T09:10:13Z</time>
      </trkpt>
      <trkpt lat="45.63767" lon="4.80671">
        <ele>200.76</ele>
        <time>2021-09-18T09:10:22Z</time>
      </trkpt>
      <trkpt lat="45.63711" lon="4.80656">
        <ele>200.13</ele>
        <time>2021-09-18T09:10:32Z</time>
      </trkpt>
      <trkpt lat="45.63668" lon="4.80645">
        <ele>199.63</ele>
        <time>2021-09-18T09:10:39Z</time>
      </trkpt>
      <trkpt lat="45.63662" lon="4.8064">
        <ele>199.61</ele>
        <time>2021-09-18T09:10:40Z</time>
      </trkpt>
      <trkpt lat="45.63657" lon="4.80635">
        <ele>199.59</ele>
        <time>2021-09-18T09:10:41Z</time>
      </trkpt>
      <trkpt lat="45.63652" lon="4.80628">
        <ele>199.54</ele>
        <time>2021-09-18T09:10:42Z</time>
      </trkpt>
      <trkpt lat="45.63647" lon="4.8062">
        <ele>199.51</ele>
        <time>2021-09-18T09:10:43Z</time>
      </trkpt>
      <trkpt lat="45.63643" lon="4.80611">
        <ele>199.49</ele>
        <time>2021-09-18T09:10:44Z</time>
      </trkpt>
      <trkpt lat="45.63624" lon="4.80574">
        <ele>199.09</ele>
        <time>2021-09-18T09:10:48Z</time>
      </trkpt>
      <trkpt lat="45.63617" lon="4.80565">
        <ele>198.83</ele>
        <time>2021-09-18T09:10:49Z</time>
      </trkpt>
      <trkpt lat="45.6361" lon="4.80559">
        <ele>198.46</ele>
        <time>2021-09-18T09:10:50Z</time>
      </trkpt>
      <trkpt lat="45.63601" lon="4.80557">
        <ele>198.09</ele>
        <time>2021-09-18T09:10:51Z</time>
      </trkpt>
      <trkpt lat="45.63592" lon="4.80558">
        <ele>197.8</ele>
        <time>2021-09-18T09:10:52Z</time>
      </trkpt>
      <trkpt lat="45.63584" lon="4.80562">
        <ele>197.22</ele>
        <time>2021-09-18T09:10:53Z</time>
      </trkpt>
      <trkpt lat="45.63577" lon="4.80567">
        <ele>196.04</ele>
        <time>2021-09-18T09:10:54Z</time>
      </trkpt>
      <trkpt lat="45.63569" lon="4.80571">
        <ele>195.55</ele>
        <time>2021-09-18T09:10:55Z</time>
      </trkpt>
      <trkpt lat="45.63561" lon="4.80574">
        <ele>195.11</ele>
        <time>2021-09-18T09:10:56Z</time>
      </trkpt>
      <trkpt lat="45.63553" lon="4.80576">
        <ele>194.45</ele>
        <time>2021-09-18T09:10:57Z</time>
      </trkpt>
      <trkpt lat="45.63545" lon="4.80576">
        <ele>193.44</ele>
        <time>2021-09-18T09:10:58Z</time>
      </trkpt>
      <trkpt lat="45.63538" lon="4.80575">
        <ele>192.51</ele>
        <time>2021-09-18T09:10:59Z</time>
      </trkpt>
      <trkpt lat="45.6353" lon="4.80573">
        <ele>191.97</ele>
        <time>2021-09-18T09:11:00Z</time>
      </trkpt>
      <trkpt lat="45.63523" lon="4.8057">
        <ele>191.69</ele>
        <time>2021-09-18T09:11:01Z</time>
      </trkpt>
      <trkpt lat="45.63516" lon="4.80565">
        <ele>191.55</ele>
        <time>2021-09-18T09:11:02Z</time>
      </trkpt>
      <trkpt lat="45.6351" lon="4.8056">
        <ele>191.49</ele>
        <time>2021-09-18T09:11:03Z</time>
      </trkpt>
      <trkpt lat="45.63503" lon="4.80555">
        <ele>191.45</ele>
        <time>2021-09-18T09:11:04Z</time>
      </trkpt>
      <trkpt lat="45.63491" lon="4.80543">
        <ele>191.42</ele>
        <time>2021-09-18T09:11:06Z</time>
      </trkpt>
      <trkpt lat="45.63442" lon="4.80482">
        <ele>191.9</ele>
        <time>2021-09-18T09:11:15Z</time>
      </trkpt>
      <trkpt lat="45.63406" lon="4.80435">
        <ele>191.97</ele>
        <time>2021-09-18T09:11:22Z</time>
      </trkpt>
      <trkpt lat="45.634" lon="4.80431">
        <ele>191.95</ele>
        <time>2021-09-18T09:11:23Z</time>
      </trkpt>
      <trkpt lat="45.63394" lon="4.80427">
        <ele>191.87</ele>
        <time>2021-09-18T09:11:24Z</time>
      </trkpt>
      <trkpt lat="45.63387" lon="4.80425">
        <ele>191.83</ele>
        <time>2021-09-18T09:11:25Z</time>
      </trkpt>
      <trkpt lat="45.63381" lon="4.80423">
        <ele>191.75</ele>
        <time>2021-09-18T09:11:26Z</time>
      </trkpt>
      <trkpt lat="45.63323" lon="4.80401">
        <ele>191.39</ele>
        <time>2021-09-18T09:11:34Z</time>
      </trkpt>
      <trkpt lat="45.6329" lon="4.80392">
        <ele>191.02</ele>
        <time>2021-09-18T09:11:38Z</time>
      </trkpt>
      <trkpt lat="45.63281" lon="4.80391">
        <ele>190.84</ele>
        <time>2021-09-18T09:11:39Z</time>
      </trkpt>
      <trkpt lat="45.63273" lon="4.80392">
        <ele>190.75</ele>
        <time>2021-09-18T09:11:40Z</time>
      </trkpt>
      <trkpt lat="45.63247" lon="4.80394">
        <ele>189.97</ele>
        <time>2021-09-18T09:11:43Z</time>
      </trkpt>
      <trkpt lat="45.63189" lon="4.80384">
        <ele>186.99</ele>
        <time>2021-09-18T09:11:50Z</time>
      </trkpt>
      <trkpt lat="45.63148" lon="4.8039">
        <ele>185.69</ele>
        <time>2021-09-18T09:11:55Z</time>
      </trkpt>
      <trkpt lat="45.63098" lon="4.80393">
        <ele>184.52</ele>
        <time>2021-09-18T09:12:01Z</time>
      </trkpt>
      <trkpt lat="45.6308" lon="4.8039">
        <ele>183.9</ele>
        <time>2021-09-18T09:12:04Z</time>
      </trkpt>
      <trkpt lat="45.63076" lon="4.80388">
        <ele>183.61</ele>
        <time>2021-09-18T09:12:05Z</time>
      </trkpt>
      <trkpt lat="45.63074" lon="4.80388">
        <ele>183.42</ele>
        <time>2021-09-18T09:12:06Z</time>
      </trkpt>
      <trkpt lat="45.63073" lon="4.80387">
        <ele>182.62</ele>
        <time>2021-09-18T09:12:11Z</time>
      </trkpt>
      <trkpt lat="45.63064" lon="4.80382">
        <ele>182.41</ele>
        <time>2021-09-18T09:12:18Z</time>
      </trkpt>
      <trkpt lat="45.63035" lon="4.80368">
        <ele>182.38</ele>
        <time>2021-09-18T09:12:24Z</time>
      </trkpt>
      <trkpt lat="45.63018" lon="4.80359">
        <ele>181.91</ele>
        <time>2021-09-18T09:12:27Z</time>
      </trkpt>
      <trkpt lat="45.63012" lon="4.80359">
        <ele>181.68</ele>
        <time>2021-09-18T09:12:28Z</time>
      </trkpt>
      <trkpt lat="45.63007" lon="4.80359">
        <ele>181.41</ele>
        <time>2021-09-18T09:12:29Z</time>
      </trkpt>
      <trkpt lat="45.62974" lon="4.80365">
        <ele>180.58</ele>
        <time>2021-09-18T09:12:35Z</time>
      </trkpt>
      <trkpt lat="45.62965" lon="4.80364">
        <ele>180.55</ele>
        <time>2021-09-18T09:12:37Z</time>
      </trkpt>
      <trkpt lat="45.6296" lon="4.80362">
        <ele>180.55</ele>
        <time>2021-09-18T09:12:38Z</time>
      </trkpt>
      <trkpt lat="45.62955" lon="4.80361">
        <ele>180.55</ele>
        <time>2021-09-18T09:12:39Z</time>
      </trkpt>
      <trkpt lat="45.6293" lon="4.8035">
        <ele>181.78</ele>
        <time>2021-09-18T09:12:45Z</time>
      </trkpt>
      <trkpt lat="45.62926" lon="4.8035">
        <ele>181.97</ele>
        <time>2021-09-18T09:12:46Z</time>
      </trkpt>
      <trkpt lat="45.62917" lon="4.80352">
        <ele>182.22</ele>
        <time>2021-09-18T09:12:48Z</time>
      </trkpt>
      <trkpt lat="45.62913" lon="4.80354">
        <ele>182.46</ele>
        <time>2021-09-18T09:12:49Z</time>
      </trkpt>
      <trkpt lat="45.62909" lon="4.80357">
        <ele>182.76</ele>
        <time>2021-09-18T09:12:50Z</time>
      </trkpt>
      <trkpt lat="45.62906" lon="4.8036">
        <ele>183.04</ele>
        <time>2021-09-18T09:12:51Z</time>
      </trkpt>
      <trkpt lat="45.62902" lon="4.80364">
        <ele>183.29</ele>
        <time>2021-09-18T09:12:52Z</time>
      </trkpt>
      <trkpt lat="45.62899" lon="4.80368">
        <ele>183.57</ele>
        <time>2021-09-18T09:12:53Z</time>
      </trkpt>
      <trkpt lat="45.62897" lon="4.80371">
        <ele>183.82</ele>
        <time>2021-09-18T09:12:54Z</time>
      </trkpt>
      <trkpt lat="45.62894" lon="4.80375">
        <ele>183.96</ele>
        <time>2021-09-18T09:12:55Z</time>
      </trkpt>
      <trkpt lat="45.6289" lon="4.80379">
        <ele>184.12</ele>
        <time>2021-09-18T09:12:56Z</time>
      </trkpt>
      <trkpt lat="45.62884" lon="4.80385">
        <ele>184.38</ele>
        <time>2021-09-18T09:12:58Z</time>
      </trkpt>
      <trkpt lat="45.62876" lon="4.8039">
        <ele>184.71</ele>
        <time>2021-09-18T09:13:00Z</time>
      </trkpt>
      <trkpt lat="45.62872" lon="4.80392">
        <ele>184.85</ele>
        <time>2021-09-18T09:13:01Z</time>
      </trkpt>
      <trkpt lat="45.62841" lon="4.80394">
        <ele>186.48</ele>
        <time>2021-09-18T09:13:09Z</time>
      </trkpt>
      <trkpt lat="45.62809" lon="4.80384">
        <ele>188.2</ele>
        <time>2021-09-18T09:13:17Z</time>
      </trkpt>
      <trkpt lat="45.62773" lon="4.80373">
        <ele>189.76</ele>
        <time>2021-09-18T09:13:26Z</time>
      </trkpt>
      <trkpt lat="45.62735" lon="4.80361">
        <ele>189.95</ele>
        <time>2021-09-18T09:13:34Z</time>
      </trkpt>
      <trkpt lat="45.62703" lon="4.80352">
        <ele>189.87</ele>
        <time>2021-09-18T09:13:40Z</time>
      </trkpt>
      <trkpt lat="45.62657" lon="4.80337">
        <ele>189.31</ele>
        <time>2021-09-18T09:13:49Z</time>
      </trkpt>
      <trkpt lat="45.62616" lon="4.80327">
        <ele>189.51</ele>
        <time>2021-09-18T09:13:58Z</time>
      </trkpt>
      <trkpt lat="45.62574" lon="4.80319">
        <ele>190.32</ele>
        <time>2021-09-18T09:14:06Z</time>
      </trkpt>
      <trkpt lat="45.6254" lon="4.80315">
        <ele>190.74</ele>
        <time>2021-09-18T09:14:13Z</time>
      </trkpt>
      <trkpt lat="45.62536" lon="4.80313">
        <ele>190.77</ele>
        <time>2021-09-18T09:14:14Z</time>
      </trkpt>
      <trkpt lat="45.62532" lon="4.80312">
        <ele>190.82</ele>
        <time>2021-09-18T09:14:15Z</time>
      </trkpt>
      <trkpt lat="45.62487" lon="4.80303">
        <ele>191.13</ele>
        <time>2021-09-18T09:14:24Z</time>
      </trkpt>
      <trkpt lat="45.62433" lon="4.80288">
        <ele>191.09</ele>
        <time>2021-09-18T09:14:33Z</time>
      </trkpt>
      <trkpt lat="45.62373" lon="4.80269">
        <ele>190.25</ele>
        <time>2021-09-18T09:14:42Z</time>
      </trkpt>
      <trkpt lat="45.62309" lon="4.80247">
        <ele>189.19</ele>
        <time>2021-09-18T09:14:51Z</time>
      </trkpt>
      <trkpt lat="45.6224" lon="4.80217">
        <ele>187.98</ele>
        <time>2021-09-18T09:15:00Z</time>
      </trkpt>
      <trkpt lat="45.6218" lon="4.80193">
        <ele>185.58</ele>
        <time>2021-09-18T09:15:08Z</time>
      </trkpt>
      <trkpt lat="45.62086" lon="4.80161">
        <ele>183.21</ele>
        <time>2021-09-18T09:15:20Z</time>
      </trkpt>
      <trkpt lat="45.61999" lon="4.80147">
        <ele>180.44</ele>
        <time>2021-09-18T09:15:30Z</time>
      </trkpt>
      <trkpt lat="45.61926" lon="4.80135">
        <ele>176.88</ele>
        <time>2021-09-18T09:15:38Z</time>
      </trkpt>
      <trkpt lat="45.61918" lon="4.80133">
        <ele>176.64</ele>
        <time>2021-09-18T09:15:39Z</time>
      </trkpt>
      <trkpt lat="45.6185" lon="4.8011">
        <ele>174.52</ele>
        <time>2021-09-18T09:15:47Z</time>
      </trkpt>
      <trkpt lat="45.61791" lon="4.80077">
        <ele>172.87</ele>
        <time>2021-09-18T09:15:55Z</time>
      </trkpt>
      <trkpt lat="45.61725" lon="4.80035">
        <ele>172.75</ele>
        <time>2021-09-18T09:16:06Z</time>
      </trkpt>
      <trkpt lat="45.61691" lon="4.80017">
        <ele>174.31</ele>
        <time>2021-09-18T09:16:12Z</time>
      </trkpt>
      <trkpt lat="45.61686" lon="4.80013">
        <ele>174.38</ele>
        <time>2021-09-18T09:16:13Z</time>
      </trkpt>
      <trkpt lat="45.61683" lon="4.80006">
        <ele>174.48</ele>
        <time>2021-09-18T09:16:14Z</time>
      </trkpt>
      <trkpt lat="45.6168" lon="4.79998">
        <ele>174.55</ele>
        <time>2021-09-18T09:16:15Z</time>
      </trkpt>
      <trkpt lat="45.61678" lon="4.79989">
        <ele>174.72</ele>
        <time>2021-09-18T09:16:16Z</time>
      </trkpt>
      <trkpt lat="45.61675" lon="4.79982">
        <ele>174.95</ele>
        <time>2021-09-18T09:16:17Z</time>
      </trkpt>
      <trkpt lat="45.6167" lon="4.79977">
        <ele>175.14</ele>
        <time>2021-09-18T09:16:18Z</time>
      </trkpt>
      <trkpt lat="45.61664" lon="4.79975">
        <ele>175.34</ele>
        <time>2021-09-18T09:16:19Z</time>
      </trkpt>
      <trkpt lat="45.61658" lon="4.79975">
        <ele>175.5</ele>
        <time>2021-09-18T09:16:20Z</time>
      </trkpt>
      <trkpt lat="45.61652" lon="4.79976">
        <ele>175.58</ele>
        <time>2021-09-18T09:16:21Z</time>
      </trkpt>
      <trkpt lat="45.61645" lon="4.79977">
        <ele>175.63</ele>
        <time>2021-09-18T09:16:22Z</time>
      </trkpt>
      <trkpt lat="45.61638" lon="4.79976">
        <ele>175.65</ele>
        <time>2021-09-18T09:16:23Z</time>
      </trkpt>
      <trkpt lat="45.61632" lon="4.79973">
        <ele>175.69</ele>
        <time>2021-09-18T09:16:24Z</time>
      </trkpt>
      <trkpt lat="45.61569" lon="4.79935">
        <ele>175.7</ele>
        <time>2021-09-18T09:16:34Z</time>
      </trkpt>
      <trkpt lat="45.6149" lon="4.79893">
        <ele>175.03</ele>
        <time>2021-09-18T09:16:47Z</time>
      </trkpt>
      <trkpt lat="45.61436" lon="4.79874">
        <ele>174.59</ele>
        <time>2021-09-18T09:16:56Z</time>
      </trkpt>
      <trkpt lat="45.6143" lon="4.79872">
        <ele>174.59</ele>
        <time>2021-09-18T09:16:57Z</time>
      </trkpt>
      <trkpt lat="45.6137" lon="4.79857">
        <ele>174.89</ele>
        <time>2021-09-18T09:17:07Z</time>
      </trkpt>
      <trkpt lat="45.61321" lon="4.79842">
        <ele>175.23</ele>
        <time>2021-09-18T09:17:15Z</time>
      </trkpt>
      <trkpt lat="45.61268" lon="4.79818">
        <ele>175.41</ele>
        <time>2021-09-18T09:17:24Z</time>
      </trkpt>
      <trkpt lat="45.61218" lon="4.79792">
        <ele>175.43</ele>
        <time>2021-09-18T09:17:32Z</time>
      </trkpt>
      <trkpt lat="45.61161" lon="4.7976">
        <ele>174.04</ele>
        <time>2021-09-18T09:17:40Z</time>
      </trkpt>
      <trkpt lat="45.61122" lon="4.79737">
        <ele>172.26</ele>
        <time>2021-09-18T09:17:46Z</time>
      </trkpt>
      <trkpt lat="45.61073" lon="4.79702">
        <ele>169.97</ele>
        <time>2021-09-18T09:17:56Z</time>
      </trkpt>
      <trkpt lat="45.61014" lon="4.79646">
        <ele>168.78</ele>
        <time>2021-09-18T09:18:07Z</time>
      </trkpt>
      <trkpt lat="45.60944" lon="4.79576">
        <ele>167.96</ele>
        <time>2021-09-18T09:18:20Z</time>
      </trkpt>
      <trkpt lat="45.60892" lon="4.79518">
        <ele>167.6</ele>
        <time>2021-09-18T09:18:30Z</time>
      </trkpt>
      <trkpt lat="45.60861" lon="4.79476">
        <ele>167.49</ele>
        <time>2021-09-18T09:18:37Z</time>
      </trkpt>
      <trkpt lat="45.60826" lon="4.79427">
        <ele>167.4</ele>
        <time>2021-09-18T09:18:46Z</time>
      </trkpt>
      <trkpt lat="45.60821" lon="4.7942">
        <ele>167.4</ele>
        <time>2021-09-18T09:18:50Z</time>
      </trkpt>
      <trkpt lat="45.60822" lon="4.7942">
        <ele>167.44</ele>
        <time>2021-09-18T09:18:53Z</time>
      </trkpt>
      <trkpt lat="45.60816" lon="4.79411">
        <ele>167.88</ele>
        <time>2021-09-18T09:18:59Z</time>
      </trkpt>
      <trkpt lat="45.60797" lon="4.79388">
        <ele>167.91</ele>
        <time>2021-09-18T09:19:06Z</time>
      </trkpt>
      <trkpt lat="45.60766" lon="4.79345">
        <ele>167.72</ele>
        <time>2021-09-18T09:19:15Z</time>
      </trkpt>
      <trkpt lat="45.60731" lon="4.79287">
        <ele>167.6</ele>
        <time>2021-09-18T09:19:25Z</time>
      </trkpt>
      <trkpt lat="45.60703" lon="4.79219">
        <ele>167.62</ele>
        <time>2021-09-18T09:19:35Z</time>
      </trkpt>
      <trkpt lat="45.60687" lon="4.79166">
        <ele>167.64</ele>
        <time>2021-09-18T09:19:42Z</time>
      </trkpt>
      <trkpt lat="45.60663" lon="4.79071">
        <ele>167.4</ele>
        <time>2021-09-18T09:19:54Z</time>
      </trkpt>
      <trkpt lat="45.60652" lon="4.79033">
        <ele>167.15</ele>
        <time>2021-09-18T09:19:59Z</time>
      </trkpt>
      <trkpt lat="45.60649" lon="4.79027">
        <ele>167.15</ele>
        <time>2021-09-18T09:20:00Z</time>
      </trkpt>
      <trkpt lat="45.60645" lon="4.79021">
        <ele>167.14</ele>
        <time>2021-09-18T09:20:01Z</time>
      </trkpt>
      <trkpt lat="45.60638" lon="4.79008">
        <ele>167.14</ele>
        <time>2021-09-18T09:20:03Z</time>
      </trkpt>
      <trkpt lat="45.60635" lon="4.79001">
        <ele>167.14</ele>
        <time>2021-09-18T09:20:04Z</time>
      </trkpt>
      <trkpt lat="45.60634" lon="4.78993">
        <ele>167.13</ele>
        <time>2021-09-18T09:20:05Z</time>
      </trkpt>
      <trkpt lat="45.60634" lon="4.78985">
        <ele>167.11</ele>
        <time>2021-09-18T09:20:06Z</time>
      </trkpt>
      <trkpt lat="45.60634" lon="4.78977">
        <ele>167.1</ele>
        <time>2021-09-18T09:20:07Z</time>
      </trkpt>
      <trkpt lat="45.60631" lon="4.7897">
        <ele>167.1</ele>
        <time>2021-09-18T09:20:08Z</time>
      </trkpt>
      <trkpt lat="45.60627" lon="4.78965">
        <ele>167.1</ele>
        <time>2021-09-18T09:20:09Z</time>
      </trkpt>
      <trkpt lat="45.60622" lon="4.78964">
        <ele>167.14</ele>
        <time>2021-09-18T09:20:10Z</time>
      </trkpt>
      <trkpt lat="45.60617" lon="4.78966">
        <ele>167.17</ele>
        <time>2021-09-18T09:20:11Z</time>
      </trkpt>
      <trkpt lat="45.60611" lon="4.78969">
        <ele>167.19</ele>
        <time>2021-09-18T09:20:12Z</time>
      </trkpt>
      <trkpt lat="45.606" lon="4.78975">
        <ele>167.21</ele>
        <time>2021-09-18T09:20:14Z</time>
      </trkpt>
      <trkpt lat="45.60594" lon="4.78975">
        <ele>167.21</ele>
        <time>2021-09-18T09:20:15Z</time>
      </trkpt>
      <trkpt lat="45.60589" lon="4.78974">
        <ele>167.21</ele>
        <time>2021-09-18T09:20:16Z</time>
      </trkpt>
      <trkpt lat="45.60583" lon="4.78975">
        <ele>167.21</ele>
        <time>2021-09-18T09:20:17Z</time>
      </trkpt>
      <trkpt lat="45.60577" lon="4.78977">
        <ele>167.21</ele>
        <time>2021-09-18T09:20:18Z</time>
      </trkpt>
      <trkpt lat="45.60572" lon="4.78979">
        <ele>167.21</ele>
        <time>2021-09-18T09:20:19Z</time>
      </trkpt>
      <trkpt lat="45.60568" lon="4.78983">
        <ele>167.21</ele>
        <time>2021-09-18T09:20:20Z</time>
      </trkpt>
      <trkpt lat="45.60564" lon="4.78987">
        <ele>167.21</ele>
        <time>2021-09-18T09:20:21Z</time>
      </trkpt>
      <trkpt lat="45.6056" lon="4.78993">
        <ele>167.22</ele>
        <time>2021-09-18T09:20:22Z</time>
      </trkpt>
      <trkpt lat="45.60557" lon="4.78998">
        <ele>167.22</ele>
        <time>2021-09-18T09:20:23Z</time>
      </trkpt>
      <trkpt lat="45.60555" lon="4.79003">
        <ele>167.24</ele>
        <time>2021-09-18T09:20:24Z</time>
      </trkpt>
      <trkpt lat="45.60529" lon="4.79065">
        <ele>169.34</ele>
        <time>2021-09-18T09:20:36Z</time>
      </trkpt>
      <trkpt lat="45.60503" lon="4.79103">
        <ele>172.24</ele>
        <time>2021-09-18T09:20:45Z</time>
      </trkpt>
      <trkpt lat="45.605" lon="4.79106">
        <ele>172.49</ele>
        <time>2021-09-18T09:20:46Z</time>
      </trkpt>
      <trkpt lat="45.60496" lon="4.79108">
        <ele>172.7</ele>
        <time>2021-09-18T09:20:47Z</time>
      </trkpt>
      <trkpt lat="45.60493" lon="4.7911">
        <ele>173.14</ele>
        <time>2021-09-18T09:20:48Z</time>
      </trkpt>
      <trkpt lat="45.60489" lon="4.79112">
        <ele>173.25</ele>
        <time>2021-09-18T09:20:49Z</time>
      </trkpt>
      <trkpt lat="45.60485" lon="4.79113">
        <ele>173.35</ele>
        <time>2021-09-18T09:20:50Z</time>
      </trkpt>
      <trkpt lat="45.60434" lon="4.79126">
        <ele>174.71</ele>
        <time>2021-09-18T09:21:01Z</time>
      </trkpt>
      <trkpt lat="45.60384" lon="4.79135">
        <ele>174.42</ele>
        <time>2021-09-18T09:21:10Z</time>
      </trkpt>
      <trkpt lat="45.60378" lon="4.79135">
        <ele>174.23</ele>
        <time>2021-09-18T09:21:11Z</time>
      </trkpt>
      <trkpt lat="45.60372" lon="4.79132">
        <ele>174.04</ele>
        <time>2021-09-18T09:21:12Z</time>
      </trkpt>
      <trkpt lat="45.60367" lon="4.79127">
        <ele>173.86</ele>
        <time>2021-09-18T09:21:13Z</time>
      </trkpt>
      <trkpt lat="45.60362" lon="4.7912">
        <ele>173.83</ele>
        <time>2021-09-18T09:21:14Z</time>
      </trkpt>
      <trkpt lat="45.60358" lon="4.79112">
        <ele>173.79</ele>
        <time>2021-09-18T09:21:15Z</time>
      </trkpt>
      <trkpt lat="45.60314" lon="4.7902">
        <ele>171.31</ele>
        <time>2021-09-18T09:21:25Z</time>
      </trkpt>
      <trkpt lat="45.60279" lon="4.7895">
        <ele>168.54</ele>
        <time>2021-09-18T09:21:32Z</time>
      </trkpt>
      <trkpt lat="45.60245" lon="4.78875">
        <ele>166.34</ele>
        <time>2021-09-18T09:21:40Z</time>
      </trkpt>
      <trkpt lat="45.60218" lon="4.78799">
        <ele>166.28</ele>
        <time>2021-09-18T09:21:49Z</time>
      </trkpt>
      <trkpt lat="45.60189" lon="4.7875">
        <ele>166.54</ele>
        <time>2021-09-18T09:21:56Z</time>
      </trkpt>
      <trkpt lat="45.6015" lon="4.78714">
        <ele>166.91</ele>
        <time>2021-09-18T09:22:03Z</time>
      </trkpt>
      <trkpt lat="45.60076" lon="4.7865">
        <ele>166.18</ele>
        <time>2021-09-18T09:22:16Z</time>
      </trkpt>
      <trkpt lat="45.60021" lon="4.78605">
        <ele>166.1</ele>
        <time>2021-09-18T09:22:26Z</time>
      </trkpt>
      <trkpt lat="45.59977" lon="4.78568">
        <ele>166.16</ele>
        <time>2021-09-18T09:22:34Z</time>
      </trkpt>
      <trkpt lat="45.59918" lon="4.78509">
        <ele>165.85</ele>
        <time>2021-09-18T09:22:45Z</time>
      </trkpt>
      <trkpt lat="45.59887" lon="4.78459">
        <ele>165.74</ele>
        <time>2021-09-18T09:22:52Z</time>
      </trkpt>
      <trkpt lat="45.59852" lon="4.78385">
        <ele>165.96</ele>
        <time>2021-09-18T09:23:02Z</time>
      </trkpt>
      <trkpt lat="45.59812" lon="4.78301">
        <ele>167.39</ele>
        <time>2021-09-18T09:23:14Z</time>
      </trkpt>
      <trkpt lat="45.59791" lon="4.78255">
        <ele>167.84</ele>
        <time>2021-09-18T09:23:21Z</time>
      </trkpt>
      <trkpt lat="45.59779" lon="4.78233">
        <ele>167.99</ele>
        <time>2021-09-18T09:23:25Z</time>
      </trkpt>
      <trkpt lat="45.59768" lon="4.78214">
        <ele>168.37</ele>
        <time>2021-09-18T09:23:30Z</time>
      </trkpt>
      <trkpt lat="45.59766" lon="4.78215">
        <ele>168.63</ele>
        <time>2021-09-18T09:23:35Z</time>
      </trkpt>
      <trkpt lat="45.59759" lon="4.78208">
        <ele>168.92</ele>
        <time>2021-09-18T09:23:52Z</time>
      </trkpt>
      <trkpt lat="45.59745" lon="4.78184">
        <ele>168.85</ele>
        <time>2021-09-18T09:23:58Z</time>
      </trkpt>
      <trkpt lat="45.59738" lon="4.78174">
        <ele>168.79</ele>
        <time>2021-09-18T09:24:00Z</time>
      </trkpt>
      <trkpt lat="45.59735" lon="4.78169">
        <ele>168.75</ele>
        <time>2021-09-18T09:24:01Z</time>
      </trkpt>
      <trkpt lat="45.59709" lon="4.78117">
        <ele>167.74</ele>
        <time>2021-09-18T09:24:09Z</time>
      </trkpt>
      <trkpt lat="45.59696" lon="4.78082">
        <ele>167.32</ele>
        <time>2021-09-18T09:24:14Z</time>
      </trkpt>
      <trkpt lat="45.59666" lon="4.78025">
        <ele>167.08</ele>
        <time>2021-09-18T09:24:22Z</time>
      </trkpt>
      <trkpt lat="45.59627" lon="4.77938">
        <ele>166.77</ele>
        <time>2021-09-18T09:24:33Z</time>
      </trkpt>
      <trkpt lat="45.59592" lon="4.77858">
        <ele>166.49</ele>
        <time>2021-09-18T09:24:43Z</time>
      </trkpt>
      <trkpt lat="45.5957" lon="4.77783">
        <ele>166.47</ele>
        <time>2021-09-18T09:24:52Z</time>
      </trkpt>
      <trkpt lat="45.59546" lon="4.77693">
        <ele>166.81</ele>
        <time>2021-09-18T09:25:03Z</time>
      </trkpt>
      <trkpt lat="45.59513" lon="4.77599">
        <ele>166.52</ele>
        <time>2021-09-18T09:25:15Z</time>
      </trkpt>
      <trkpt lat="45.5948" lon="4.77527">
        <ele>166.46</ele>
        <time>2021-09-18T09:25:25Z</time>
      </trkpt>
      <trkpt lat="45.59452" lon="4.7747">
        <ele>166.83</ele>
        <time>2021-09-18T09:25:33Z</time>
      </trkpt>
      <trkpt lat="45.59418" lon="4.77399">
        <ele>167.23</ele>
        <time>2021-09-18T09:25:43Z</time>
      </trkpt>
      <trkpt lat="45.59378" lon="4.77333">
        <ele>166.96</ele>
        <time>2021-09-18T09:25:53Z</time>
      </trkpt>
      <trkpt lat="45.59373" lon="4.77328">
        <ele>166.9</ele>
        <time>2021-09-18T09:25:54Z</time>
      </trkpt>
      <trkpt lat="45.59368" lon="4.77323">
        <ele>166.79</ele>
        <time>2021-09-18T09:25:55Z</time>
      </trkpt>
      <trkpt lat="45.59315" lon="4.77291">
        <ele>166.01</ele>
        <time>2021-09-18T09:26:04Z</time>
      </trkpt>
      <trkpt lat="45.59259" lon="4.77272">
        <ele>165.47</ele>
        <time>2021-09-18T09:26:13Z</time>
      </trkpt>
      <trkpt lat="45.59247" lon="4.77273">
        <ele>165.42</ele>
        <time>2021-09-18T09:26:15Z</time>
      </trkpt>
      <trkpt lat="45.59199" lon="4.77284">
        <ele>165.29</ele>
        <time>2021-09-18T09:26:23Z</time>
      </trkpt>
      <trkpt lat="45.59154" lon="4.773">
        <ele>165.35</ele>
        <time>2021-09-18T09:26:32Z</time>
      </trkpt>
      <trkpt lat="45.5915" lon="4.773">
        <ele>165.35</ele>
        <time>2021-09-18T09:26:33Z</time>
      </trkpt>
      <trkpt lat="45.59145" lon="4.773">
        <ele>165.36</ele>
        <time>2021-09-18T09:26:34Z</time>
      </trkpt>
      <trkpt lat="45.5914" lon="4.77299">
        <ele>165.37</ele>
        <time>2021-09-18T09:26:35Z</time>
      </trkpt>
      <trkpt lat="45.59136" lon="4.77298">
        <ele>165.38</ele>
        <time>2021-09-18T09:26:36Z</time>
      </trkpt>
      <trkpt lat="45.59131" lon="4.77294">
        <ele>165.39</ele>
        <time>2021-09-18T09:26:37Z</time>
      </trkpt>
      <trkpt lat="45.59127" lon="4.7729">
        <ele>165.42</ele>
        <time>2021-09-18T09:26:38Z</time>
      </trkpt>
      <trkpt lat="45.59122" lon="4.77285">
        <ele>165.43</ele>
        <time>2021-09-18T09:26:39Z</time>
      </trkpt>
      <trkpt lat="45.59118" lon="4.77279">
        <ele>165.44</ele>
        <time>2021-09-18T09:26:40Z</time>
      </trkpt>
      <trkpt lat="45.59115" lon="4.77272">
        <ele>165.44</ele>
        <time>2021-09-18T09:26:41Z</time>
      </trkpt>
      <trkpt lat="45.59112" lon="4.77264">
        <ele>165.45</ele>
        <time>2021-09-18T09:26:42Z</time>
      </trkpt>
      <trkpt lat="45.59111" lon="4.77256">
        <ele>165.47</ele>
        <time>2021-09-18T09:26:43Z</time>
      </trkpt>
      <trkpt lat="45.5911" lon="4.77248">
        <ele>165.49</ele>
        <time>2021-09-18T09:26:44Z</time>
      </trkpt>
      <trkpt lat="45.5911" lon="4.77239">
        <ele>165.55</ele>
        <time>2021-09-18T09:26:45Z</time>
      </trkpt>
      <trkpt lat="45.59103" lon="4.77179">
        <ele>166</ele>
        <time>2021-09-18T09:26:52Z</time>
      </trkpt>
      <trkpt lat="45.59098" lon="4.77112">
        <ele>166.27</ele>
        <time>2021-09-18T09:27:01Z</time>
      </trkpt>
      <trkpt lat="45.59098" lon="4.77099">
        <ele>166.87</ele>
        <time>2021-09-18T09:27:06Z</time>
      </trkpt>
      <trkpt lat="45.59097" lon="4.77074">
        <ele>167.64</ele>
        <time>2021-09-18T09:27:12Z</time>
      </trkpt>
      <trkpt lat="45.59097" lon="4.77068">
        <ele>167.7</ele>
        <time>2021-09-18T09:27:13Z</time>
      </trkpt>
      <trkpt lat="45.59095" lon="4.77056">
        <ele>167.72</ele>
        <time>2021-09-18T09:27:15Z</time>
      </trkpt>
      <trkpt lat="45.59093" lon="4.7705">
        <ele>167.72</ele>
        <time>2021-09-18T09:27:16Z</time>
      </trkpt>
      <trkpt lat="45.5909" lon="4.77047">
        <ele>167.72</ele>
        <time>2021-09-18T09:27:17Z</time>
      </trkpt>
      <trkpt lat="45.59086" lon="4.77045">
        <ele>167.72</ele>
        <time>2021-09-18T09:27:18Z</time>
      </trkpt>
      <trkpt lat="45.59081" lon="4.77045">
        <ele>167.72</ele>
        <time>2021-09-18T09:27:19Z</time>
      </trkpt>
      <trkpt lat="45.59076" lon="4.77045">
        <ele>167.59</ele>
        <time>2021-09-18T09:27:20Z</time>
      </trkpt>
      <trkpt lat="45.59071" lon="4.77046">
        <ele>167.44</ele>
        <time>2021-09-18T09:27:21Z</time>
      </trkpt>
      <trkpt lat="45.59022" lon="4.77055">
        <ele>166.87</ele>
        <time>2021-09-18T09:27:31Z</time>
      </trkpt>
      <trkpt lat="45.58973" lon="4.77062">
        <ele>168.07</ele>
        <time>2021-09-18T09:27:41Z</time>
      </trkpt>
      <trkpt lat="45.58918" lon="4.77075">
        <ele>168.3</ele>
        <time>2021-09-18T09:27:51Z</time>
      </trkpt>
      <trkpt lat="45.58899" lon="4.77083">
        <ele>167.76</ele>
        <time>2021-09-18T09:27:56Z</time>
      </trkpt>
      <trkpt lat="45.58888" lon="4.77083">
        <ele>167.59</ele>
        <time>2021-09-18T09:27:59Z</time>
      </trkpt>
      <trkpt lat="45.58873" lon="4.77083">
        <ele>167.35</ele>
        <time>2021-09-18T09:28:02Z</time>
      </trkpt>
      <trkpt lat="45.58868" lon="4.77084">
        <ele>167.31</ele>
        <time>2021-09-18T09:28:03Z</time>
      </trkpt>
      <trkpt lat="45.58858" lon="4.77084">
        <ele>167.01</ele>
        <time>2021-09-18T09:28:05Z</time>
      </trkpt>
      <trkpt lat="45.58853" lon="4.77085">
        <ele>166.9</ele>
        <time>2021-09-18T09:28:06Z</time>
      </trkpt>
      <trkpt lat="45.58806" lon="4.77098">
        <ele>166.41</ele>
        <time>2021-09-18T09:28:15Z</time>
      </trkpt>
      <trkpt lat="45.58754" lon="4.77111">
        <ele>166.55</ele>
        <time>2021-09-18T09:28:25Z</time>
      </trkpt>
      <trkpt lat="45.58717" lon="4.77116">
        <ele>166.6</ele>
        <time>2021-09-18T09:28:32Z</time>
      </trkpt>
      <trkpt lat="45.58669" lon="4.77127">
        <ele>166.69</ele>
        <time>2021-09-18T09:28:41Z</time>
      </trkpt>
      <trkpt lat="45.58641" lon="4.77129">
        <ele>166.59</ele>
        <time>2021-09-18T09:28:46Z</time>
      </trkpt>
      <trkpt lat="45.58636" lon="4.77127">
        <ele>166.58</ele>
        <time>2021-09-18T09:28:47Z</time>
      </trkpt>
      <trkpt lat="45.58632" lon="4.77123">
        <ele>166.57</ele>
        <time>2021-09-18T09:28:48Z</time>
      </trkpt>
      <trkpt lat="45.58628" lon="4.77118">
        <ele>166.56</ele>
        <time>2021-09-18T09:28:49Z</time>
      </trkpt>
      <trkpt lat="45.58625" lon="4.77111">
        <ele>166.55</ele>
        <time>2021-09-18T09:28:50Z</time>
      </trkpt>
      <trkpt lat="45.58623" lon="4.77103">
        <ele>166.55</ele>
        <time>2021-09-18T09:28:51Z</time>
      </trkpt>
      <trkpt lat="45.58622" lon="4.77094">
        <ele>166.55</ele>
        <time>2021-09-18T09:28:52Z</time>
      </trkpt>
      <trkpt lat="45.5862" lon="4.77086">
        <ele>166.48</ele>
        <time>2021-09-18T09:28:53Z</time>
      </trkpt>
      <trkpt lat="45.58608" lon="4.77021">
        <ele>166.29</ele>
        <time>2021-09-18T09:29:01Z</time>
      </trkpt>
      <trkpt lat="45.58602" lon="4.76991">
        <ele>166.37</ele>
        <time>2021-09-18T09:29:05Z</time>
      </trkpt>
      <trkpt lat="45.58589" lon="4.7694">
        <ele>166.59</ele>
        <time>2021-09-18T09:29:12Z</time>
      </trkpt>
      <trkpt lat="45.58586" lon="4.76933">
        <ele>166.59</ele>
        <time>2021-09-18T09:29:13Z</time>
      </trkpt>
      <trkpt lat="45.58583" lon="4.76927">
        <ele>166.59</ele>
        <time>2021-09-18T09:29:14Z</time>
      </trkpt>
      <trkpt lat="45.58579" lon="4.76921">
        <ele>166.59</ele>
        <time>2021-09-18T09:29:15Z</time>
      </trkpt>
      <trkpt lat="45.58575" lon="4.76914">
        <ele>166.59</ele>
        <time>2021-09-18T09:29:16Z</time>
      </trkpt>
      <trkpt lat="45.58557" lon="4.76878">
        <ele>166.58</ele>
        <time>2021-09-18T09:29:21Z</time>
      </trkpt>
      <trkpt lat="45.58554" lon="4.7687">
        <ele>166.46</ele>
        <time>2021-09-18T09:29:22Z</time>
      </trkpt>
      <trkpt lat="45.58551" lon="4.76862">
        <ele>166.43</ele>
        <time>2021-09-18T09:29:23Z</time>
      </trkpt>
      <trkpt lat="45.58546" lon="4.76838">
        <ele>166.22</ele>
        <time>2021-09-18T09:29:26Z</time>
      </trkpt>
      <trkpt lat="45.58545" lon="4.76829">
        <ele>166.18</ele>
        <time>2021-09-18T09:29:27Z</time>
      </trkpt>
      <trkpt lat="45.58545" lon="4.76821">
        <ele>166.17</ele>
        <time>2021-09-18T09:29:28Z</time>
      </trkpt>
      <trkpt lat="45.58539" lon="4.76789">
        <ele>166.16</ele>
        <time>2021-09-18T09:29:32Z</time>
      </trkpt>
      <trkpt lat="45.58536" lon="4.76782">
        <ele>166.16</ele>
        <time>2021-09-18T09:29:33Z</time>
      </trkpt>
      <trkpt lat="45.58533" lon="4.76775">
        <ele>166.13</ele>
        <time>2021-09-18T09:29:34Z</time>
      </trkpt>
      <trkpt lat="45.58523" lon="4.76757">
        <ele>166.12</ele>
        <time>2021-09-18T09:29:37Z</time>
      </trkpt>
      <trkpt lat="45.58491" lon="4.76704">
        <ele>166.6</ele>
        <time>2021-09-18T09:29:46Z</time>
      </trkpt>
      <trkpt lat="45.5847" lon="4.76656">
        <ele>167.7</ele>
        <time>2021-09-18T09:29:54Z</time>
      </trkpt>
      <trkpt lat="45.58462" lon="4.76633">
        <ele>168.34</ele>
        <time>2021-09-18T09:30:00Z</time>
      </trkpt>
      <trkpt lat="45.58461" lon="4.76628">
        <ele>168.73</ele>
        <time>2021-09-18T09:30:02Z</time>
      </trkpt>
      <trkpt lat="45.58458" lon="4.76627">
        <ele>168.97</ele>
        <time>2021-09-18T09:30:03Z</time>
      </trkpt>
      <trkpt lat="45.58456" lon="4.76627">
        <ele>169.24</ele>
        <time>2021-09-18T09:30:04Z</time>
      </trkpt>
      <trkpt lat="45.58453" lon="4.76628">
        <ele>169.51</ele>
        <time>2021-09-18T09:30:05Z</time>
      </trkpt>
      <trkpt lat="45.5845" lon="4.7663">
        <ele>169.64</ele>
        <time>2021-09-18T09:30:06Z</time>
      </trkpt>
      <trkpt lat="45.58447" lon="4.76631">
        <ele>169.71</ele>
        <time>2021-09-18T09:30:07Z</time>
      </trkpt>
      <trkpt lat="45.58444" lon="4.76634">
        <ele>169.78</ele>
        <time>2021-09-18T09:30:08Z</time>
      </trkpt>
      <trkpt lat="45.58431" lon="4.76654">
        <ele>170.15</ele>
        <time>2021-09-18T09:30:14Z</time>
      </trkpt>
      <trkpt lat="45.58419" lon="4.76677">
        <ele>170.82</ele>
        <time>2021-09-18T09:30:21Z</time>
      </trkpt>
      <trkpt lat="45.58408" lon="4.76698">
        <ele>172.07</ele>
        <time>2021-09-18T09:30:27Z</time>
      </trkpt>
      <trkpt lat="45.58398" lon="4.76715">
        <ele>173.39</ele>
        <time>2021-09-18T09:30:33Z</time>
      </trkpt>
      <trkpt lat="45.58387" lon="4.76734">
        <ele>174.88</ele>
        <time>2021-09-18T09:30:39Z</time>
      </trkpt>
      <trkpt lat="45.58374" lon="4.76756">
        <ele>176.3</ele>
        <time>2021-09-18T09:30:46Z</time>
      </trkpt>
      <trkpt lat="45.58361" lon="4.76777">
        <ele>177.82</ele>
        <time>2021-09-18T09:30:53Z</time>
      </trkpt>
      <trkpt lat="45.58345" lon="4.76789">
        <ele>178.9</ele>
        <time>2021-09-18T09:31:00Z</time>
      </trkpt>
      <trkpt lat="45.58321" lon="4.76807">
        <ele>181.21</ele>
        <time>2021-09-18T09:31:11Z</time>
      </trkpt>
      <trkpt lat="45.58301" lon="4.76823">
        <ele>182.52</ele>
        <time>2021-09-18T09:31:19Z</time>
      </trkpt>
      <trkpt lat="45.58282" lon="4.76837">
        <ele>183.92</ele>
        <time>2021-09-18T09:31:26Z</time>
      </trkpt>
      <trkpt lat="45.58268" lon="4.76842">
        <ele>185.04</ele>
        <time>2021-09-18T09:31:31Z</time>
      </trkpt>
      <trkpt lat="45.58266" lon="4.76843">
        <ele>185.04</ele>
        <time>2021-09-18T09:31:32Z</time>
      </trkpt>
      <trkpt lat="45.58263" lon="4.76844">
        <ele>185.41</ele>
        <time>2021-09-18T09:31:33Z</time>
      </trkpt>
      <trkpt lat="45.58261" lon="4.76845">
        <ele>185.56</ele>
        <time>2021-09-18T09:31:34Z</time>
      </trkpt>
      <trkpt lat="45.58259" lon="4.76847">
        <ele>185.76</ele>
        <time>2021-09-18T09:31:35Z</time>
      </trkpt>
      <trkpt lat="45.58257" lon="4.76849">
        <ele>185.92</ele>
        <time>2021-09-18T09:31:36Z</time>
      </trkpt>
      <trkpt lat="45.58255" lon="4.76851">
        <ele>186.17</ele>
        <time>2021-09-18T09:31:37Z</time>
      </trkpt>
      <trkpt lat="45.58246" lon="4.76864">
        <ele>187.49</ele>
        <time>2021-09-18T09:31:42Z</time>
      </trkpt>
      <trkpt lat="45.58237" lon="4.769">
        <ele>189.1</ele>
        <time>2021-09-18T09:31:51Z</time>
      </trkpt>
      <trkpt lat="45.58223" lon="4.76922">
        <ele>190.22</ele>
        <time>2021-09-18T09:31:59Z</time>
      </trkpt>
      <trkpt lat="45.58203" lon="4.76932">
        <ele>191.48</ele>
        <time>2021-09-18T09:32:07Z</time>
      </trkpt>
      <trkpt lat="45.58183" lon="4.76943">
        <ele>193.11</ele>
        <time>2021-09-18T09:32:15Z</time>
      </trkpt>
      <trkpt lat="45.58162" lon="4.76948">
        <ele>194.13</ele>
        <time>2021-09-18T09:32:23Z</time>
      </trkpt>
      <trkpt lat="45.58143" lon="4.76937">
        <ele>195.26</ele>
        <time>2021-09-18T09:32:31Z</time>
      </trkpt>
      <trkpt lat="45.58129" lon="4.76914">
        <ele>196.94</ele>
        <time>2021-09-18T09:32:39Z</time>
      </trkpt>
      <trkpt lat="45.58121" lon="4.76899">
        <ele>197.93</ele>
        <time>2021-09-18T09:32:44Z</time>
      </trkpt>
      <trkpt lat="45.58118" lon="4.76894">
        <ele>198.28</ele>
        <time>2021-09-18T09:32:46Z</time>
      </trkpt>
      <trkpt lat="45.58115" lon="4.76892">
        <ele>198.48</ele>
        <time>2021-09-18T09:32:47Z</time>
      </trkpt>
      <trkpt lat="45.58113" lon="4.76892">
        <ele>198.72</ele>
        <time>2021-09-18T09:32:48Z</time>
      </trkpt>
      <trkpt lat="45.5811" lon="4.76892">
        <ele>199.24</ele>
        <time>2021-09-18T09:32:49Z</time>
      </trkpt>
      <trkpt lat="45.58108" lon="4.76893">
        <ele>199.24</ele>
        <time>2021-09-18T09:32:50Z</time>
      </trkpt>
      <trkpt lat="45.58105" lon="4.76894">
        <ele>199.6</ele>
        <time>2021-09-18T09:32:51Z</time>
      </trkpt>
      <trkpt lat="45.58102" lon="4.76897">
        <ele>199.8</ele>
        <time>2021-09-18T09:32:52Z</time>
      </trkpt>
      <trkpt lat="45.581" lon="4.769">
        <ele>200</ele>
        <time>2021-09-18T09:32:53Z</time>
      </trkpt>
      <trkpt lat="45.581" lon="4.76905">
        <ele>200.16</ele>
        <time>2021-09-18T09:32:54Z</time>
      </trkpt>
      <trkpt lat="45.581" lon="4.76909">
        <ele>200.28</ele>
        <time>2021-09-18T09:32:55Z</time>
      </trkpt>
      <trkpt lat="45.581" lon="4.76914">
        <ele>200.39</ele>
        <time>2021-09-18T09:32:56Z</time>
      </trkpt>
      <trkpt lat="45.58101" lon="4.76918">
        <ele>200.46</ele>
        <time>2021-09-18T09:32:57Z</time>
      </trkpt>
      <trkpt lat="45.58102" lon="4.76922">
        <ele>200.5</ele>
        <time>2021-09-18T09:32:58Z</time>
      </trkpt>
      <trkpt lat="45.58104" lon="4.76925">
        <ele>200.59</ele>
        <time>2021-09-18T09:32:59Z</time>
      </trkpt>
      <trkpt lat="45.58106" lon="4.76927">
        <ele>200.74</ele>
        <time>2021-09-18T09:33:00Z</time>
      </trkpt>
      <trkpt lat="45.58108" lon="4.7693">
        <ele>200.88</ele>
        <time>2021-09-18T09:33:01Z</time>
      </trkpt>
      <trkpt lat="45.58109" lon="4.76933">
        <ele>200.95</ele>
        <time>2021-09-18T09:33:02Z</time>
      </trkpt>
      <trkpt lat="45.58111" lon="4.76936">
        <ele>201.09</ele>
        <time>2021-09-18T09:33:03Z</time>
      </trkpt>
      <trkpt lat="45.58113" lon="4.76938">
        <ele>201.18</ele>
        <time>2021-09-18T09:33:04Z</time>
      </trkpt>
      <trkpt lat="45.58115" lon="4.76941">
        <ele>201.31</ele>
        <time>2021-09-18T09:33:05Z</time>
      </trkpt>
      <trkpt lat="45.58117" lon="4.76944">
        <ele>201.48</ele>
        <time>2021-09-18T09:33:06Z</time>
      </trkpt>
      <trkpt lat="45.58119" lon="4.76946">
        <ele>201.64</ele>
        <time>2021-09-18T09:33:07Z</time>
      </trkpt>
      <trkpt lat="45.58121" lon="4.7695">
        <ele>201.81</ele>
        <time>2021-09-18T09:33:08Z</time>
      </trkpt>
      <trkpt lat="45.58123" lon="4.76953">
        <ele>201.93</ele>
        <time>2021-09-18T09:33:09Z</time>
      </trkpt>
      <trkpt lat="45.58124" lon="4.76956">
        <ele>202.03</ele>
        <time>2021-09-18T09:33:10Z</time>
      </trkpt>
      <trkpt lat="45.58125" lon="4.76959">
        <ele>202.14</ele>
        <time>2021-09-18T09:33:11Z</time>
      </trkpt>
      <trkpt lat="45.58126" lon="4.76963">
        <ele>202.28</ele>
        <time>2021-09-18T09:33:12Z</time>
      </trkpt>
      <trkpt lat="45.58126" lon="4.76966">
        <ele>202.45</ele>
        <time>2021-09-18T09:33:13Z</time>
      </trkpt>
      <trkpt lat="45.58127" lon="4.7697">
        <ele>202.62</ele>
        <time>2021-09-18T09:33:14Z</time>
      </trkpt>
      <trkpt lat="45.58127" lon="4.76974">
        <ele>202.81</ele>
        <time>2021-09-18T09:33:15Z</time>
      </trkpt>
      <trkpt lat="45.58127" lon="4.76978">
        <ele>202.98</ele>
        <time>2021-09-18T09:33:16Z</time>
      </trkpt>
      <trkpt lat="45.58127" lon="4.76982">
        <ele>203.12</ele>
        <time>2021-09-18T09:33:17Z</time>
      </trkpt>
      <trkpt lat="45.58127" lon="4.76986">
        <ele>203.37</ele>
        <time>2021-09-18T09:33:18Z</time>
      </trkpt>
      <trkpt lat="45.58122" lon="4.77004">
        <ele>204.28</ele>
        <time>2021-09-18T09:33:23Z</time>
      </trkpt>
      <trkpt lat="45.58114" lon="4.77025">
        <ele>205.34</ele>
        <time>2021-09-18T09:33:29Z</time>
      </trkpt>
      <trkpt lat="45.58114" lon="4.77028">
        <ele>205.63</ele>
        <time>2021-09-18T09:33:30Z</time>
      </trkpt>
      <trkpt lat="45.58107" lon="4.77053">
        <ele>206.6</ele>
        <time>2021-09-18T09:33:37Z</time>
      </trkpt>
      <trkpt lat="45.58102" lon="4.77074">
        <ele>207.87</ele>
        <time>2021-09-18T09:33:43Z</time>
      </trkpt>
      <trkpt lat="45.58102" lon="4.77078">
        <ele>208.16</ele>
        <time>2021-09-18T09:33:44Z</time>
      </trkpt>
      <trkpt lat="45.58102" lon="4.77082">
        <ele>208.4</ele>
        <time>2021-09-18T09:33:45Z</time>
      </trkpt>
      <trkpt lat="45.58101" lon="4.77085">
        <ele>208.56</ele>
        <time>2021-09-18T09:33:46Z</time>
      </trkpt>
      <trkpt lat="45.58099" lon="4.77089">
        <ele>208.72</ele>
        <time>2021-09-18T09:33:47Z</time>
      </trkpt>
      <trkpt lat="45.58098" lon="4.77092">
        <ele>208.91</ele>
        <time>2021-09-18T09:33:48Z</time>
      </trkpt>
      <trkpt lat="45.58097" lon="4.77096">
        <ele>209.03</ele>
        <time>2021-09-18T09:33:49Z</time>
      </trkpt>
      <trkpt lat="45.58095" lon="4.77099">
        <ele>209.21</ele>
        <time>2021-09-18T09:33:50Z</time>
      </trkpt>
      <trkpt lat="45.58093" lon="4.77102">
        <ele>209.36</ele>
        <time>2021-09-18T09:33:51Z</time>
      </trkpt>
      <trkpt lat="45.58081" lon="4.77118">
        <ele>210.37</ele>
        <time>2021-09-18T09:33:57Z</time>
      </trkpt>
      <trkpt lat="45.58069" lon="4.77133">
        <ele>211.26</ele>
        <time>2021-09-18T09:34:03Z</time>
      </trkpt>
      <trkpt lat="45.58066" lon="4.77152">
        <ele>212.44</ele>
        <time>2021-09-18T09:34:08Z</time>
      </trkpt>
      <trkpt lat="45.5807" lon="4.77192">
        <ele>213.97</ele>
        <time>2021-09-18T09:34:18Z</time>
      </trkpt>
      <trkpt lat="45.58059" lon="4.77214">
        <ele>214.73</ele>
        <time>2021-09-18T09:34:25Z</time>
      </trkpt>
      <trkpt lat="45.58045" lon="4.77225">
        <ele>215.64</ele>
        <time>2021-09-18T09:34:31Z</time>
      </trkpt>
      <trkpt lat="45.58026" lon="4.77237">
        <ele>217.34</ele>
        <time>2021-09-18T09:34:39Z</time>
      </trkpt>
      <trkpt lat="45.58024" lon="4.7724">
        <ele>217.52</ele>
        <time>2021-09-18T09:34:40Z</time>
      </trkpt>
      <trkpt lat="45.58022" lon="4.77242">
        <ele>217.71</ele>
        <time>2021-09-18T09:34:41Z</time>
      </trkpt>
      <trkpt lat="45.5802" lon="4.77245">
        <ele>217.87</ele>
        <time>2021-09-18T09:34:42Z</time>
      </trkpt>
      <trkpt lat="45.58018" lon="4.77247">
        <ele>218.14</ele>
        <time>2021-09-18T09:34:43Z</time>
      </trkpt>
      <trkpt lat="45.58015" lon="4.77248">
        <ele>218.38</ele>
        <time>2021-09-18T09:34:44Z</time>
      </trkpt>
      <trkpt lat="45.58013" lon="4.77249">
        <ele>218.58</ele>
        <time>2021-09-18T09:34:45Z</time>
      </trkpt>
      <trkpt lat="45.58011" lon="4.77252">
        <ele>218.79</ele>
        <time>2021-09-18T09:34:46Z</time>
      </trkpt>
      <trkpt lat="45.58005" lon="4.77259">
        <ele>219.37</ele>
        <time>2021-09-18T09:34:49Z</time>
      </trkpt>
      <trkpt lat="45.58003" lon="4.77261">
        <ele>219.56</ele>
        <time>2021-09-18T09:34:50Z</time>
      </trkpt>
      <trkpt lat="45.58001" lon="4.77262">
        <ele>219.71</ele>
        <time>2021-09-18T09:34:51Z</time>
      </trkpt>
      <trkpt lat="45.57998" lon="4.77262">
        <ele>219.88</ele>
        <time>2021-09-18T09:34:52Z</time>
      </trkpt>
      <trkpt lat="45.57996" lon="4.77262">
        <ele>220.06</ele>
        <time>2021-09-18T09:34:53Z</time>
      </trkpt>
      <trkpt lat="45.57993" lon="4.77263">
        <ele>220.18</ele>
        <time>2021-09-18T09:34:54Z</time>
      </trkpt>
      <trkpt lat="45.57991" lon="4.77264">
        <ele>220.36</ele>
        <time>2021-09-18T09:34:55Z</time>
      </trkpt>
      <trkpt lat="45.57977" lon="4.77269">
        <ele>221.23</ele>
        <time>2021-09-18T09:35:00Z</time>
      </trkpt>
      <trkpt lat="45.5796" lon="4.77281">
        <ele>222.37</ele>
        <time>2021-09-18T09:35:07Z</time>
      </trkpt>
      <trkpt lat="45.57951" lon="4.77289">
        <ele>223.01</ele>
        <time>2021-09-18T09:35:11Z</time>
      </trkpt>
      <trkpt lat="45.57949" lon="4.77291">
        <ele>223.12</ele>
        <time>2021-09-18T09:35:12Z</time>
      </trkpt>
      <trkpt lat="45.57947" lon="4.77294">
        <ele>223.25</ele>
        <time>2021-09-18T09:35:13Z</time>
      </trkpt>
      <trkpt lat="45.57941" lon="4.77301">
        <ele>223.57</ele>
        <time>2021-09-18T09:35:16Z</time>
      </trkpt>
      <trkpt lat="45.57939" lon="4.77302">
        <ele>223.68</ele>
        <time>2021-09-18T09:35:17Z</time>
      </trkpt>
      <trkpt lat="45.57937" lon="4.77305">
        <ele>223.84</ele>
        <time>2021-09-18T09:35:18Z</time>
      </trkpt>
      <trkpt lat="45.57935" lon="4.77308">
        <ele>223.97</ele>
        <time>2021-09-18T09:35:19Z</time>
      </trkpt>
      <trkpt lat="45.57934" lon="4.77309">
        <ele>224.11</ele>
        <time>2021-09-18T09:35:20Z</time>
      </trkpt>
      <trkpt lat="45.57932" lon="4.77311">
        <ele>224.33</ele>
        <time>2021-09-18T09:35:21Z</time>
      </trkpt>
      <trkpt lat="45.5793" lon="4.77314">
        <ele>224.63</ele>
        <time>2021-09-18T09:35:22Z</time>
      </trkpt>
      <trkpt lat="45.57928" lon="4.77316">
        <ele>224.93</ele>
        <time>2021-09-18T09:35:23Z</time>
      </trkpt>
      <trkpt lat="45.57926" lon="4.77317">
        <ele>225.15</ele>
        <time>2021-09-18T09:35:24Z</time>
      </trkpt>
      <trkpt lat="45.57924" lon="4.7732">
        <ele>225.62</ele>
        <time>2021-09-18T09:35:25Z</time>
      </trkpt>
      <trkpt lat="45.57923" lon="4.77323">
        <ele>225.62</ele>
        <time>2021-09-18T09:35:26Z</time>
      </trkpt>
      <trkpt lat="45.57921" lon="4.77325">
        <ele>226.01</ele>
        <time>2021-09-18T09:35:27Z</time>
      </trkpt>
      <trkpt lat="45.57918" lon="4.77327">
        <ele>226.12</ele>
        <time>2021-09-18T09:35:28Z</time>
      </trkpt>
      <trkpt lat="45.57917" lon="4.7733">
        <ele>226.2</ele>
        <time>2021-09-18T09:35:29Z</time>
      </trkpt>
      <trkpt lat="45.57916" lon="4.77334">
        <ele>226.35</ele>
        <time>2021-09-18T09:35:30Z</time>
      </trkpt>
      <trkpt lat="45.57914" lon="4.77336">
        <ele>226.58</ele>
        <time>2021-09-18T09:35:31Z</time>
      </trkpt>
      <trkpt lat="45.57911" lon="4.77338">
        <ele>226.77</ele>
        <time>2021-09-18T09:35:32Z</time>
      </trkpt>
      <trkpt lat="45.5791" lon="4.77341">
        <ele>226.97</ele>
        <time>2021-09-18T09:35:33Z</time>
      </trkpt>
      <trkpt lat="45.57909" lon="4.77345">
        <ele>227.16</ele>
        <time>2021-09-18T09:35:34Z</time>
      </trkpt>
      <trkpt lat="45.57908" lon="4.77347">
        <ele>227.38</ele>
        <time>2021-09-18T09:35:35Z</time>
      </trkpt>
      <trkpt lat="45.57906" lon="4.7735">
        <ele>227.62</ele>
        <time>2021-09-18T09:35:36Z</time>
      </trkpt>
      <trkpt lat="45.57906" lon="4.77353">
        <ele>227.74</ele>
        <time>2021-09-18T09:35:37Z</time>
      </trkpt>
      <trkpt lat="45.57905" lon="4.77356">
        <ele>227.87</ele>
        <time>2021-09-18T09:35:38Z</time>
      </trkpt>
      <trkpt lat="45.57904" lon="4.77359">
        <ele>228.06</ele>
        <time>2021-09-18T09:35:39Z</time>
      </trkpt>
      <trkpt lat="45.57902" lon="4.77362">
        <ele>228.17</ele>
        <time>2021-09-18T09:35:40Z</time>
      </trkpt>
      <trkpt lat="45.57901" lon="4.77365">
        <ele>228.31</ele>
        <time>2021-09-18T09:35:41Z</time>
      </trkpt>
      <trkpt lat="45.57901" lon="4.77369">
        <ele>228.43</ele>
        <time>2021-09-18T09:35:42Z</time>
      </trkpt>
      <trkpt lat="45.57899" lon="4.77371">
        <ele>228.54</ele>
        <time>2021-09-18T09:35:43Z</time>
      </trkpt>
      <trkpt lat="45.57897" lon="4.77374">
        <ele>228.67</ele>
        <time>2021-09-18T09:35:44Z</time>
      </trkpt>
      <trkpt lat="45.57896" lon="4.77377">
        <ele>228.83</ele>
        <time>2021-09-18T09:35:45Z</time>
      </trkpt>
      <trkpt lat="45.57894" lon="4.7738">
        <ele>228.97</ele>
        <time>2021-09-18T09:35:46Z</time>
      </trkpt>
      <trkpt lat="45.57892" lon="4.77382">
        <ele>229.12</ele>
        <time>2021-09-18T09:35:47Z</time>
      </trkpt>
      <trkpt lat="45.5789" lon="4.77385">
        <ele>229.31</ele>
        <time>2021-09-18T09:35:48Z</time>
      </trkpt>
      <trkpt lat="45.57888" lon="4.77386">
        <ele>229.46</ele>
        <time>2021-09-18T09:35:49Z</time>
      </trkpt>
      <trkpt lat="45.57886" lon="4.77388">
        <ele>229.61</ele>
        <time>2021-09-18T09:35:50Z</time>
      </trkpt>
      <trkpt lat="45.57883" lon="4.7739">
        <ele>229.84</ele>
        <time>2021-09-18T09:35:51Z</time>
      </trkpt>
      <trkpt lat="45.57881" lon="4.77392">
        <ele>230.07</ele>
        <time>2021-09-18T09:35:52Z</time>
      </trkpt>
      <trkpt lat="45.57879" lon="4.77393">
        <ele>230.39</ele>
        <time>2021-09-18T09:35:53Z</time>
      </trkpt>
      <trkpt lat="45.57876" lon="4.77394">
        <ele>230.51</ele>
        <time>2021-09-18T09:35:54Z</time>
      </trkpt>
      <trkpt lat="45.57874" lon="4.77396">
        <ele>230.62</ele>
        <time>2021-09-18T09:35:55Z</time>
      </trkpt>
      <trkpt lat="45.57871" lon="4.77398">
        <ele>230.72</ele>
        <time>2021-09-18T09:35:56Z</time>
      </trkpt>
      <trkpt lat="45.57869" lon="4.77399">
        <ele>230.93</ele>
        <time>2021-09-18T09:35:57Z</time>
      </trkpt>
      <trkpt lat="45.57867" lon="4.774">
        <ele>231.11</ele>
        <time>2021-09-18T09:35:58Z</time>
      </trkpt>
      <trkpt lat="45.57864" lon="4.77402">
        <ele>231.28</ele>
        <time>2021-09-18T09:35:59Z</time>
      </trkpt>
      <trkpt lat="45.57862" lon="4.77403">
        <ele>231.42</ele>
        <time>2021-09-18T09:36:00Z</time>
      </trkpt>
      <trkpt lat="45.5786" lon="4.77405">
        <ele>231.51</ele>
        <time>2021-09-18T09:36:01Z</time>
      </trkpt>
      <trkpt lat="45.57858" lon="4.77407">
        <ele>231.61</ele>
        <time>2021-09-18T09:36:02Z</time>
      </trkpt>
      <trkpt lat="45.57856" lon="4.77408">
        <ele>231.69</ele>
        <time>2021-09-18T09:36:03Z</time>
      </trkpt>
      <trkpt lat="45.57853" lon="4.77409">
        <ele>231.8</ele>
        <time>2021-09-18T09:36:04Z</time>
      </trkpt>
      <trkpt lat="45.57851" lon="4.7741">
        <ele>231.98</ele>
        <time>2021-09-18T09:36:05Z</time>
      </trkpt>
      <trkpt lat="45.57848" lon="4.77411">
        <ele>232.14</ele>
        <time>2021-09-18T09:36:06Z</time>
      </trkpt>
      <trkpt lat="45.57845" lon="4.77411">
        <ele>232.24</ele>
        <time>2021-09-18T09:36:07Z</time>
      </trkpt>
      <trkpt lat="45.57843" lon="4.77411">
        <ele>232.41</ele>
        <time>2021-09-18T09:36:08Z</time>
      </trkpt>
      <trkpt lat="45.57839" lon="4.77411">
        <ele>232.64</ele>
        <time>2021-09-18T09:36:09Z</time>
      </trkpt>
      <trkpt lat="45.57836" lon="4.77411">
        <ele>232.78</ele>
        <time>2021-09-18T09:36:10Z</time>
      </trkpt>
      <trkpt lat="45.57833" lon="4.77411">
        <ele>232.9</ele>
        <time>2021-09-18T09:36:11Z</time>
      </trkpt>
      <trkpt lat="45.57831" lon="4.77409">
        <ele>233.17</ele>
        <time>2021-09-18T09:36:12Z</time>
      </trkpt>
      <trkpt lat="45.57828" lon="4.77408">
        <ele>233.36</ele>
        <time>2021-09-18T09:36:13Z</time>
      </trkpt>
      <trkpt lat="45.57825" lon="4.77406">
        <ele>233.51</ele>
        <time>2021-09-18T09:36:14Z</time>
      </trkpt>
      <trkpt lat="45.57823" lon="4.77404">
        <ele>233.65</ele>
        <time>2021-09-18T09:36:15Z</time>
      </trkpt>
      <trkpt lat="45.57821" lon="4.77401">
        <ele>233.74</ele>
        <time>2021-09-18T09:36:16Z</time>
      </trkpt>
      <trkpt lat="45.57819" lon="4.77399">
        <ele>233.81</ele>
        <time>2021-09-18T09:36:17Z</time>
      </trkpt>
      <trkpt lat="45.57816" lon="4.77396">
        <ele>233.92</ele>
        <time>2021-09-18T09:36:18Z</time>
      </trkpt>
      <trkpt lat="45.57814" lon="4.77394">
        <ele>234.2</ele>
        <time>2021-09-18T09:36:19Z</time>
      </trkpt>
      <trkpt lat="45.57812" lon="4.77392">
        <ele>234.45</ele>
        <time>2021-09-18T09:36:20Z</time>
      </trkpt>
      <trkpt lat="45.5781" lon="4.77389">
        <ele>234.64</ele>
        <time>2021-09-18T09:36:21Z</time>
      </trkpt>
      <trkpt lat="45.57808" lon="4.77387">
        <ele>234.91</ele>
        <time>2021-09-18T09:36:22Z</time>
      </trkpt>
      <trkpt lat="45.57806" lon="4.77385">
        <ele>235.16</ele>
        <time>2021-09-18T09:36:23Z</time>
      </trkpt>
      <trkpt lat="45.57804" lon="4.77383">
        <ele>235.39</ele>
        <time>2021-09-18T09:36:24Z</time>
      </trkpt>
      <trkpt lat="45.57801" lon="4.77381">
        <ele>235.61</ele>
        <time>2021-09-18T09:36:25Z</time>
      </trkpt>
      <trkpt lat="45.57799" lon="4.77378">
        <ele>235.77</ele>
        <time>2021-09-18T09:36:26Z</time>
      </trkpt>
      <trkpt lat="45.57797" lon="4.77376">
        <ele>235.91</ele>
        <time>2021-09-18T09:36:27Z</time>
      </trkpt>
      <trkpt lat="45.5778" lon="4.77363">
        <ele>237.29</ele>
        <time>2021-09-18T09:36:34Z</time>
      </trkpt>
      <trkpt lat="45.57758" lon="4.77352">
        <ele>238.38</ele>
        <time>2021-09-18T09:36:42Z</time>
      </trkpt>
      <trkpt lat="45.57742" lon="4.77341">
        <ele>239.27</ele>
        <time>2021-09-18T09:36:48Z</time>
      </trkpt>
      <trkpt lat="45.5774" lon="4.77339">
        <ele>239.42</ele>
        <time>2021-09-18T09:36:49Z</time>
      </trkpt>
      <trkpt lat="45.57736" lon="4.77335">
        <ele>239.61</ele>
        <time>2021-09-18T09:36:51Z</time>
      </trkpt>
      <trkpt lat="45.57733" lon="4.77334">
        <ele>239.76</ele>
        <time>2021-09-18T09:36:52Z</time>
      </trkpt>
      <trkpt lat="45.57731" lon="4.77332">
        <ele>239.93</ele>
        <time>2021-09-18T09:36:53Z</time>
      </trkpt>
      <trkpt lat="45.57729" lon="4.77329">
        <ele>240.03</ele>
        <time>2021-09-18T09:36:54Z</time>
      </trkpt>
      <trkpt lat="45.57727" lon="4.77327">
        <ele>240.2</ele>
        <time>2021-09-18T09:36:55Z</time>
      </trkpt>
      <trkpt lat="45.57725" lon="4.77325">
        <ele>240.34</ele>
        <time>2021-09-18T09:36:56Z</time>
      </trkpt>
      <trkpt lat="45.57722" lon="4.77323">
        <ele>240.47</ele>
        <time>2021-09-18T09:36:57Z</time>
      </trkpt>
      <trkpt lat="45.57707" lon="4.77317">
        <ele>241.28</ele>
        <time>2021-09-18T09:37:03Z</time>
      </trkpt>
      <trkpt lat="45.57701" lon="4.77316">
        <ele>241.49</ele>
        <time>2021-09-18T09:37:05Z</time>
      </trkpt>
      <trkpt lat="45.57699" lon="4.77316">
        <ele>241.58</ele>
        <time>2021-09-18T09:37:06Z</time>
      </trkpt>
      <trkpt lat="45.57697" lon="4.77315">
        <ele>241.62</ele>
        <time>2021-09-18T09:37:07Z</time>
      </trkpt>
      <trkpt lat="45.57694" lon="4.77315">
        <ele>241.73</ele>
        <time>2021-09-18T09:37:08Z</time>
      </trkpt>
      <trkpt lat="45.57692" lon="4.77314">
        <ele>241.82</ele>
        <time>2021-09-18T09:37:09Z</time>
      </trkpt>
      <trkpt lat="45.5769" lon="4.77313">
        <ele>241.95</ele>
        <time>2021-09-18T09:37:10Z</time>
      </trkpt>
      <trkpt lat="45.57687" lon="4.77313">
        <ele>242.23</ele>
        <time>2021-09-18T09:37:11Z</time>
      </trkpt>
      <trkpt lat="45.57685" lon="4.77312">
        <ele>242.35</ele>
        <time>2021-09-18T09:37:12Z</time>
      </trkpt>
      <trkpt lat="45.57682" lon="4.77311">
        <ele>242.49</ele>
        <time>2021-09-18T09:37:13Z</time>
      </trkpt>
      <trkpt lat="45.5768" lon="4.77311">
        <ele>242.62</ele>
        <time>2021-09-18T09:37:14Z</time>
      </trkpt>
      <trkpt lat="45.57677" lon="4.77311">
        <ele>242.72</ele>
        <time>2021-09-18T09:37:15Z</time>
      </trkpt>
      <trkpt lat="45.57652" lon="4.77311">
        <ele>244.24</ele>
        <time>2021-09-18T09:37:24Z</time>
      </trkpt>
      <trkpt lat="45.5763" lon="4.77319">
        <ele>245.75</ele>
        <time>2021-09-18T09:37:32Z</time>
      </trkpt>
      <trkpt lat="45.57621" lon="4.77341">
        <ele>246.87</ele>
        <time>2021-09-18T09:37:38Z</time>
      </trkpt>
      <trkpt lat="45.57624" lon="4.77351">
        <ele>247.22</ele>
        <time>2021-09-18T09:37:41Z</time>
      </trkpt>
      <trkpt lat="45.57639" lon="4.77368">
        <ele>248.26</ele>
        <time>2021-09-18T09:37:48Z</time>
      </trkpt>
      <trkpt lat="45.5765" lon="4.77376">
        <ele>248.74</ele>
        <time>2021-09-18T09:37:53Z</time>
      </trkpt>
      <trkpt lat="45.57662" lon="4.77386">
        <ele>249.26</ele>
        <time>2021-09-18T09:37:58Z</time>
      </trkpt>
      <trkpt lat="45.57667" lon="4.77391">
        <ele>249.45</ele>
        <time>2021-09-18T09:38:00Z</time>
      </trkpt>
      <trkpt lat="45.57669" lon="4.77392">
        <ele>249.72</ele>
        <time>2021-09-18T09:38:01Z</time>
      </trkpt>
      <trkpt lat="45.57671" lon="4.77395">
        <ele>249.88</ele>
        <time>2021-09-18T09:38:02Z</time>
      </trkpt>
      <trkpt lat="45.57674" lon="4.77397">
        <ele>249.98</ele>
        <time>2021-09-18T09:38:03Z</time>
      </trkpt>
      <trkpt lat="45.57677" lon="4.77399">
        <ele>250.06</ele>
        <time>2021-09-18T09:38:04Z</time>
      </trkpt>
      <trkpt lat="45.5768" lon="4.77401">
        <ele>250.16</ele>
        <time>2021-09-18T09:38:05Z</time>
      </trkpt>
      <trkpt lat="45.57683" lon="4.77402">
        <ele>250.25</ele>
        <time>2021-09-18T09:38:06Z</time>
      </trkpt>
      <trkpt lat="45.57686" lon="4.77403">
        <ele>250.32</ele>
        <time>2021-09-18T09:38:07Z</time>
      </trkpt>
      <trkpt lat="45.57689" lon="4.77405">
        <ele>250.44</ele>
        <time>2021-09-18T09:38:08Z</time>
      </trkpt>
      <trkpt lat="45.57691" lon="4.77407">
        <ele>250.58</ele>
        <time>2021-09-18T09:38:09Z</time>
      </trkpt>
      <trkpt lat="45.57694" lon="4.7741">
        <ele>250.65</ele>
        <time>2021-09-18T09:38:10Z</time>
      </trkpt>
      <trkpt lat="45.57697" lon="4.77412">
        <ele>250.74</ele>
        <time>2021-09-18T09:38:11Z</time>
      </trkpt>
      <trkpt lat="45.57716" lon="4.77426">
        <ele>251.69</ele>
        <time>2021-09-18T09:38:18Z</time>
      </trkpt>
      <trkpt lat="45.5774" lon="4.77452">
        <ele>252.92</ele>
        <time>2021-09-18T09:38:28Z</time>
      </trkpt>
      <trkpt lat="45.57741" lon="4.77457">
        <ele>253.1</ele>
        <time>2021-09-18T09:38:29Z</time>
      </trkpt>
      <trkpt lat="45.57741" lon="4.77461">
        <ele>253.25</ele>
        <time>2021-09-18T09:38:30Z</time>
      </trkpt>
      <trkpt lat="45.57741" lon="4.77466">
        <ele>253.39</ele>
        <time>2021-09-18T09:38:31Z</time>
      </trkpt>
      <trkpt lat="45.5774" lon="4.7747">
        <ele>253.59</ele>
        <time>2021-09-18T09:38:32Z</time>
      </trkpt>
      <trkpt lat="45.57739" lon="4.77474">
        <ele>253.85</ele>
        <time>2021-09-18T09:38:33Z</time>
      </trkpt>
      <trkpt lat="45.57737" lon="4.77478">
        <ele>254.01</ele>
        <time>2021-09-18T09:38:34Z</time>
      </trkpt>
      <trkpt lat="45.57735" lon="4.77481">
        <ele>254.15</ele>
        <time>2021-09-18T09:38:35Z</time>
      </trkpt>
      <trkpt lat="45.57732" lon="4.77484">
        <ele>254.28</ele>
        <time>2021-09-18T09:38:36Z</time>
      </trkpt>
      <trkpt lat="45.57712" lon="4.77499">
        <ele>255.14</ele>
        <time>2021-09-18T09:38:43Z</time>
      </trkpt>
      <trkpt lat="45.57688" lon="4.77518">
        <ele>255.62</ele>
        <time>2021-09-18T09:38:52Z</time>
      </trkpt>
      <trkpt lat="45.57673" lon="4.77534">
        <ele>256.94</ele>
        <time>2021-09-18T09:38:58Z</time>
      </trkpt>
      <trkpt lat="45.57661" lon="4.77554">
        <ele>257.85</ele>
        <time>2021-09-18T09:39:04Z</time>
      </trkpt>
      <trkpt lat="45.57659" lon="4.77558">
        <ele>258</ele>
        <time>2021-09-18T09:39:05Z</time>
      </trkpt>
      <trkpt lat="45.57658" lon="4.77561">
        <ele>258.08</ele>
        <time>2021-09-18T09:39:06Z</time>
      </trkpt>
      <trkpt lat="45.57657" lon="4.77565">
        <ele>258.28</ele>
        <time>2021-09-18T09:39:07Z</time>
      </trkpt>
      <trkpt lat="45.57655" lon="4.77569">
        <ele>258.44</ele>
        <time>2021-09-18T09:39:08Z</time>
      </trkpt>
      <trkpt lat="45.57653" lon="4.77573">
        <ele>258.59</ele>
        <time>2021-09-18T09:39:09Z</time>
      </trkpt>
      <trkpt lat="45.57653" lon="4.77576">
        <ele>258.73</ele>
        <time>2021-09-18T09:39:10Z</time>
      </trkpt>
      <trkpt lat="45.57652" lon="4.7758">
        <ele>258.85</ele>
        <time>2021-09-18T09:39:11Z</time>
      </trkpt>
      <trkpt lat="45.57651" lon="4.77584">
        <ele>258.96</ele>
        <time>2021-09-18T09:39:12Z</time>
      </trkpt>
      <trkpt lat="45.5765" lon="4.77588">
        <ele>259.12</ele>
        <time>2021-09-18T09:39:13Z</time>
      </trkpt>
      <trkpt lat="45.57649" lon="4.77593">
        <ele>259.29</ele>
        <time>2021-09-18T09:39:14Z</time>
      </trkpt>
      <trkpt lat="45.57648" lon="4.77597">
        <ele>259.48</ele>
        <time>2021-09-18T09:39:15Z</time>
      </trkpt>
      <trkpt lat="45.57647" lon="4.77601">
        <ele>259.61</ele>
        <time>2021-09-18T09:39:16Z</time>
      </trkpt>
      <trkpt lat="45.57647" lon="4.77605">
        <ele>259.68</ele>
        <time>2021-09-18T09:39:17Z</time>
      </trkpt>
      <trkpt lat="45.57646" lon="4.77609">
        <ele>259.85</ele>
        <time>2021-09-18T09:39:18Z</time>
      </trkpt>
      <trkpt lat="45.57645" lon="4.77613">
        <ele>260.14</ele>
        <time>2021-09-18T09:39:19Z</time>
      </trkpt>
      <trkpt lat="45.57644" lon="4.77617">
        <ele>260.25</ele>
        <time>2021-09-18T09:39:20Z</time>
      </trkpt>
      <trkpt lat="45.57643" lon="4.77621">
        <ele>260.3</ele>
        <time>2021-09-18T09:39:21Z</time>
      </trkpt>
      <trkpt lat="45.57642" lon="4.77626">
        <ele>260.41</ele>
        <time>2021-09-18T09:39:22Z</time>
      </trkpt>
      <trkpt lat="45.57635" lon="4.77668">
        <ele>261.03</ele>
        <time>2021-09-18T09:39:32Z</time>
      </trkpt>
      <trkpt lat="45.5763" lon="4.77698">
        <ele>262.07</ele>
        <time>2021-09-18T09:39:39Z</time>
      </trkpt>
      <trkpt lat="45.57622" lon="4.7773">
        <ele>263.03</ele>
        <time>2021-09-18T09:39:46Z</time>
      </trkpt>
      <trkpt lat="45.57615" lon="4.77761">
        <ele>264.04</ele>
        <time>2021-09-18T09:39:53Z</time>
      </trkpt>
      <trkpt lat="45.57605" lon="4.77795">
        <ele>264.67</ele>
        <time>2021-09-18T09:40:01Z</time>
      </trkpt>
      <trkpt lat="45.57595" lon="4.77838">
        <ele>265.15</ele>
        <time>2021-09-18T09:40:10Z</time>
      </trkpt>
      <trkpt lat="45.57585" lon="4.77888">
        <ele>265.18</ele>
        <time>2021-09-18T09:40:17Z</time>
      </trkpt>
      <trkpt lat="45.57572" lon="4.77963">
        <ele>263.53</ele>
        <time>2021-09-18T09:40:26Z</time>
      </trkpt>
      <trkpt lat="45.57569" lon="4.77976">
        <ele>262.92</ele>
        <time>2021-09-18T09:40:28Z</time>
      </trkpt>
      <trkpt lat="45.57557" lon="4.78009">
        <ele>262.73</ele>
        <time>2021-09-18T09:40:35Z</time>
      </trkpt>
      <trkpt lat="45.57539" lon="4.78037">
        <ele>263.98</ele>
        <time>2021-09-18T09:40:43Z</time>
      </trkpt>
      <trkpt lat="45.57521" lon="4.78062">
        <ele>265.79</ele>
        <time>2021-09-18T09:40:51Z</time>
      </trkpt>
      <trkpt lat="45.57504" lon="4.78086">
        <ele>267.13</ele>
        <time>2021-09-18T09:40:59Z</time>
      </trkpt>
      <trkpt lat="45.57484" lon="4.78114">
        <ele>269.39</ele>
        <time>2021-09-18T09:41:09Z</time>
      </trkpt>
      <trkpt lat="45.57464" lon="4.78135">
        <ele>271.3</ele>
        <time>2021-09-18T09:41:18Z</time>
      </trkpt>
      <trkpt lat="45.57437" lon="4.78155">
        <ele>273.83</ele>
        <time>2021-09-18T09:41:29Z</time>
      </trkpt>
      <trkpt lat="45.57421" lon="4.78167">
        <ele>275.01</ele>
        <time>2021-09-18T09:41:36Z</time>
      </trkpt>
      <trkpt lat="45.57408" lon="4.78177">
        <ele>275.79</ele>
        <time>2021-09-18T09:41:42Z</time>
      </trkpt>
      <trkpt lat="45.57396" lon="4.78185">
        <ele>276.91</ele>
        <time>2021-09-18T09:41:48Z</time>
      </trkpt>
      <trkpt lat="45.57382" lon="4.78195">
        <ele>277.77</ele>
        <time>2021-09-18T09:41:54Z</time>
      </trkpt>
      <trkpt lat="45.57381" lon="4.78197">
        <ele>277.95</ele>
        <time>2021-09-18T09:41:55Z</time>
      </trkpt>
      <trkpt lat="45.57379" lon="4.78198">
        <ele>277.99</ele>
        <time>2021-09-18T09:41:56Z</time>
      </trkpt>
      <trkpt lat="45.57376" lon="4.782">
        <ele>278.12</ele>
        <time>2021-09-18T09:41:57Z</time>
      </trkpt>
      <trkpt lat="45.57374" lon="4.78201">
        <ele>278.27</ele>
        <time>2021-09-18T09:41:58Z</time>
      </trkpt>
      <trkpt lat="45.57358" lon="4.78215">
        <ele>279.6</ele>
        <time>2021-09-18T09:42:05Z</time>
      </trkpt>
      <trkpt lat="45.57342" lon="4.78228">
        <ele>280.95</ele>
        <time>2021-09-18T09:42:12Z</time>
      </trkpt>
      <trkpt lat="45.57326" lon="4.78242">
        <ele>282.18</ele>
        <time>2021-09-18T09:42:19Z</time>
      </trkpt>
      <trkpt lat="45.57309" lon="4.78257">
        <ele>283.34</ele>
        <time>2021-09-18T09:42:27Z</time>
      </trkpt>
      <trkpt lat="45.57296" lon="4.78269">
        <ele>284.39</ele>
        <time>2021-09-18T09:42:33Z</time>
      </trkpt>
      <trkpt lat="45.57266" lon="4.7829">
        <ele>286.09</ele>
        <time>2021-09-18T09:42:45Z</time>
      </trkpt>
      <trkpt lat="45.57243" lon="4.78302">
        <ele>288.15</ele>
        <time>2021-09-18T09:42:54Z</time>
      </trkpt>
      <trkpt lat="45.57219" lon="4.78312">
        <ele>289.53</ele>
        <time>2021-09-18T09:43:03Z</time>
      </trkpt>
      <trkpt lat="45.57201" lon="4.78318">
        <ele>290.94</ele>
        <time>2021-09-18T09:43:10Z</time>
      </trkpt>
      <trkpt lat="45.57181" lon="4.78327">
        <ele>292</ele>
        <time>2021-09-18T09:43:18Z</time>
      </trkpt>
      <trkpt lat="45.57163" lon="4.78333">
        <ele>293.12</ele>
        <time>2021-09-18T09:43:25Z</time>
      </trkpt>
      <trkpt lat="45.57157" lon="4.78336">
        <ele>293.76</ele>
        <time>2021-09-18T09:43:28Z</time>
      </trkpt>
      <trkpt lat="45.57155" lon="4.78337">
        <ele>293.94</ele>
        <time>2021-09-18T09:43:29Z</time>
      </trkpt>
      <trkpt lat="45.57152" lon="4.78338">
        <ele>294.11</ele>
        <time>2021-09-18T09:43:30Z</time>
      </trkpt>
      <trkpt lat="45.57139" lon="4.78341">
        <ele>294.72</ele>
        <time>2021-09-18T09:43:35Z</time>
      </trkpt>
      <trkpt lat="45.57128" lon="4.78342">
        <ele>295.69</ele>
        <time>2021-09-18T09:43:39Z</time>
      </trkpt>
      <trkpt lat="45.57126" lon="4.78341">
        <ele>295.86</ele>
        <time>2021-09-18T09:43:40Z</time>
      </trkpt>
      <trkpt lat="45.57124" lon="4.78342">
        <ele>295.99</ele>
        <time>2021-09-18T09:43:41Z</time>
      </trkpt>
      <trkpt lat="45.57122" lon="4.78342">
        <ele>296.24</ele>
        <time>2021-09-18T09:43:42Z</time>
      </trkpt>
      <trkpt lat="45.57119" lon="4.78342">
        <ele>296.42</ele>
        <time>2021-09-18T09:43:43Z</time>
      </trkpt>
      <trkpt lat="45.57103" lon="4.78342">
        <ele>297.66</ele>
        <time>2021-09-18T09:43:49Z</time>
      </trkpt>
      <trkpt lat="45.57082" lon="4.7834">
        <ele>298.97</ele>
        <time>2021-09-18T09:43:57Z</time>
      </trkpt>
      <trkpt lat="45.57072" lon="4.7834">
        <ele>299.44</ele>
        <time>2021-09-18T09:44:01Z</time>
      </trkpt>
      <trkpt lat="45.57069" lon="4.78341">
        <ele>299.48</ele>
        <time>2021-09-18T09:44:02Z</time>
      </trkpt>
      <trkpt lat="45.57066" lon="4.78342">
        <ele>299.81</ele>
        <time>2021-09-18T09:44:03Z</time>
      </trkpt>
      <trkpt lat="45.57063" lon="4.78343">
        <ele>299.92</ele>
        <time>2021-09-18T09:44:04Z</time>
      </trkpt>
      <trkpt lat="45.57061" lon="4.78344">
        <ele>300.07</ele>
        <time>2021-09-18T09:44:05Z</time>
      </trkpt>
      <trkpt lat="45.57058" lon="4.78346">
        <ele>300.21</ele>
        <time>2021-09-18T09:44:06Z</time>
      </trkpt>
      <trkpt lat="45.57056" lon="4.78348">
        <ele>300.45</ele>
        <time>2021-09-18T09:44:07Z</time>
      </trkpt>
      <trkpt lat="45.57054" lon="4.78349">
        <ele>300.59</ele>
        <time>2021-09-18T09:44:08Z</time>
      </trkpt>
      <trkpt lat="45.57052" lon="4.78351">
        <ele>300.78</ele>
        <time>2021-09-18T09:44:09Z</time>
      </trkpt>
      <trkpt lat="45.57049" lon="4.78353">
        <ele>300.97</ele>
        <time>2021-09-18T09:44:10Z</time>
      </trkpt>
      <trkpt lat="45.57047" lon="4.78355">
        <ele>301.18</ele>
        <time>2021-09-18T09:44:11Z</time>
      </trkpt>
      <trkpt lat="45.57045" lon="4.78357">
        <ele>301.32</ele>
        <time>2021-09-18T09:44:12Z</time>
      </trkpt>
      <trkpt lat="45.57043" lon="4.78359">
        <ele>301.5</ele>
        <time>2021-09-18T09:44:13Z</time>
      </trkpt>
      <trkpt lat="45.57022" lon="4.78371">
        <ele>302.75</ele>
        <time>2021-09-18T09:44:21Z</time>
      </trkpt>
      <trkpt lat="45.56997" lon="4.78375">
        <ele>304.58</ele>
        <time>2021-09-18T09:44:30Z</time>
      </trkpt>
      <trkpt lat="45.56971" lon="4.78374">
        <ele>306.37</ele>
        <time>2021-09-18T09:44:40Z</time>
      </trkpt>
      <trkpt lat="45.5695" lon="4.78373">
        <ele>307.64</ele>
        <time>2021-09-18T09:44:48Z</time>
      </trkpt>
      <trkpt lat="45.56932" lon="4.78372">
        <ele>308.9</ele>
        <time>2021-09-18T09:44:55Z</time>
      </trkpt>
      <trkpt lat="45.56912" lon="4.7837">
        <ele>310.49</ele>
        <time>2021-09-18T09:45:03Z</time>
      </trkpt>
      <trkpt lat="45.56892" lon="4.78363">
        <ele>311.75</ele>
        <time>2021-09-18T09:45:11Z</time>
      </trkpt>
      <trkpt lat="45.56869" lon="4.78341">
        <ele>313.72</ele>
        <time>2021-09-18T09:45:21Z</time>
      </trkpt>
      <trkpt lat="45.56856" lon="4.78316">
        <ele>315.11</ele>
        <time>2021-09-18T09:45:29Z</time>
      </trkpt>
      <trkpt lat="45.5685" lon="4.78281">
        <ele>316.66</ele>
        <time>2021-09-18T09:45:38Z</time>
      </trkpt>
      <trkpt lat="45.56856" lon="4.78239">
        <ele>317.99</ele>
        <time>2021-09-18T09:45:48Z</time>
      </trkpt>
      <trkpt lat="45.56865" lon="4.78207">
        <ele>319.1</ele>
        <time>2021-09-18T09:45:56Z</time>
      </trkpt>
      <trkpt lat="45.56877" lon="4.78171">
        <ele>320.35</ele>
        <time>2021-09-18T09:46:05Z</time>
      </trkpt>
      <trkpt lat="45.56886" lon="4.78142">
        <ele>321.67</ele>
        <time>2021-09-18T09:46:13Z</time>
      </trkpt>
      <trkpt lat="45.56897" lon="4.78109">
        <ele>322.22</ele>
        <time>2021-09-18T09:46:22Z</time>
      </trkpt>
      <trkpt lat="45.56909" lon="4.78073">
        <ele>322.98</ele>
        <time>2021-09-18T09:46:32Z</time>
      </trkpt>
      <trkpt lat="45.56918" lon="4.78036">
        <ele>323.53</ele>
        <time>2021-09-18T09:46:42Z</time>
      </trkpt>
      <trkpt lat="45.56919" lon="4.78004">
        <ele>323.83</ele>
        <time>2021-09-18T09:46:50Z</time>
      </trkpt>
      <trkpt lat="45.56913" lon="4.77977">
        <ele>324.2</ele>
        <time>2021-09-18T09:46:57Z</time>
      </trkpt>
      <trkpt lat="45.56903" lon="4.77955">
        <ele>324.51</ele>
        <time>2021-09-18T09:47:03Z</time>
      </trkpt>
      <trkpt lat="45.56898" lon="4.77945">
        <ele>324.71</ele>
        <time>2021-09-18T09:47:06Z</time>
      </trkpt>
      <trkpt lat="45.56893" lon="4.77936">
        <ele>325</ele>
        <time>2021-09-18T09:47:09Z</time>
      </trkpt>
      <trkpt lat="45.56891" lon="4.77933">
        <ele>325.09</ele>
        <time>2021-09-18T09:47:10Z</time>
      </trkpt>
      <trkpt lat="45.56889" lon="4.77929">
        <ele>325.22</ele>
        <time>2021-09-18T09:47:11Z</time>
      </trkpt>
      <trkpt lat="45.56887" lon="4.77926">
        <ele>325.35</ele>
        <time>2021-09-18T09:47:12Z</time>
      </trkpt>
      <trkpt lat="45.56885" lon="4.77923">
        <ele>325.44</ele>
        <time>2021-09-18T09:47:13Z</time>
      </trkpt>
      <trkpt lat="45.56883" lon="4.7792">
        <ele>325.56</ele>
        <time>2021-09-18T09:47:14Z</time>
      </trkpt>
      <trkpt lat="45.56881" lon="4.77917">
        <ele>325.72</ele>
        <time>2021-09-18T09:47:15Z</time>
      </trkpt>
      <trkpt lat="45.56872" lon="4.77901">
        <ele>326.31</ele>
        <time>2021-09-18T09:47:20Z</time>
      </trkpt>
      <trkpt lat="45.56864" lon="4.77889">
        <ele>326.91</ele>
        <time>2021-09-18T09:47:24Z</time>
      </trkpt>
      <trkpt lat="45.56862" lon="4.77886">
        <ele>326.99</ele>
        <time>2021-09-18T09:47:25Z</time>
      </trkpt>
      <trkpt lat="45.5686" lon="4.77882">
        <ele>327.06</ele>
        <time>2021-09-18T09:47:26Z</time>
      </trkpt>
      <trkpt lat="45.56858" lon="4.77879">
        <ele>327.15</ele>
        <time>2021-09-18T09:47:27Z</time>
      </trkpt>
      <trkpt lat="45.56857" lon="4.77876">
        <ele>327.25</ele>
        <time>2021-09-18T09:47:28Z</time>
      </trkpt>
      <trkpt lat="45.56854" lon="4.77873">
        <ele>327.33</ele>
        <time>2021-09-18T09:47:29Z</time>
      </trkpt>
      <trkpt lat="45.56852" lon="4.77871">
        <ele>327.38</ele>
        <time>2021-09-18T09:47:30Z</time>
      </trkpt>
      <trkpt lat="45.5685" lon="4.77868">
        <ele>327.68</ele>
        <time>2021-09-18T09:47:31Z</time>
      </trkpt>
      <trkpt lat="45.56837" lon="4.77852">
        <ele>328.39</ele>
        <time>2021-09-18T09:47:37Z</time>
      </trkpt>
      <trkpt lat="45.56822" lon="4.7784">
        <ele>329.07</ele>
        <time>2021-09-18T09:47:43Z</time>
      </trkpt>
      <trkpt lat="45.56801" lon="4.77825">
        <ele>330.08</ele>
        <time>2021-09-18T09:47:51Z</time>
      </trkpt>
      <trkpt lat="45.5678" lon="4.7781">
        <ele>331.14</ele>
        <time>2021-09-18T09:47:59Z</time>
      </trkpt>
      <trkpt lat="45.56759" lon="4.77794">
        <ele>331.85</ele>
        <time>2021-09-18T09:48:07Z</time>
      </trkpt>
      <trkpt lat="45.5674" lon="4.77776">
        <ele>332.7</ele>
        <time>2021-09-18T09:48:15Z</time>
      </trkpt>
      <trkpt lat="45.56716" lon="4.77751">
        <ele>334.12</ele>
        <time>2021-09-18T09:48:25Z</time>
      </trkpt>
      <trkpt lat="45.56706" lon="4.77739">
        <ele>334.78</ele>
        <time>2021-09-18T09:48:30Z</time>
      </trkpt>
      <trkpt lat="45.56691" lon="4.77725">
        <ele>335.57</ele>
        <time>2021-09-18T09:48:36Z</time>
      </trkpt>
      <trkpt lat="45.56676" lon="4.77712">
        <ele>336.53</ele>
        <time>2021-09-18T09:48:42Z</time>
      </trkpt>
      <trkpt lat="45.5666" lon="4.777">
        <ele>337.4</ele>
        <time>2021-09-18T09:48:48Z</time>
      </trkpt>
      <trkpt lat="45.56642" lon="4.77684">
        <ele>338.37</ele>
        <time>2021-09-18T09:48:55Z</time>
      </trkpt>
      <trkpt lat="45.56617" lon="4.77661">
        <ele>339.89</ele>
        <time>2021-09-18T09:49:05Z</time>
      </trkpt>
      <trkpt lat="45.56598" lon="4.77637">
        <ele>341.21</ele>
        <time>2021-09-18T09:49:14Z</time>
      </trkpt>
      <trkpt lat="45.56579" lon="4.77606">
        <ele>342.4</ele>
        <time>2021-09-18T09:49:24Z</time>
      </trkpt>
      <trkpt lat="45.56567" lon="4.77588">
        <ele>343.01</ele>
        <time>2021-09-18T09:49:30Z</time>
      </trkpt>
      <trkpt lat="45.56557" lon="4.77575">
        <ele>343.73</ele>
        <time>2021-09-18T09:49:35Z</time>
      </trkpt>
      <trkpt lat="45.56545" lon="4.77564">
        <ele>344.43</ele>
        <time>2021-09-18T09:49:40Z</time>
      </trkpt>
      <trkpt lat="45.56525" lon="4.77556">
        <ele>345.59</ele>
        <time>2021-09-18T09:49:47Z</time>
      </trkpt>
      <trkpt lat="45.56509" lon="4.77554">
        <ele>346.46</ele>
        <time>2021-09-18T09:49:53Z</time>
      </trkpt>
      <trkpt lat="45.56479" lon="4.77555">
        <ele>347.78</ele>
        <time>2021-09-18T09:50:03Z</time>
      </trkpt>
      <trkpt lat="45.56464" lon="4.77557">
        <ele>348.42</ele>
        <time>2021-09-18T09:50:09Z</time>
      </trkpt>
      <trkpt lat="45.56437" lon="4.77552">
        <ele>349.47</ele>
        <time>2021-09-18T09:50:18Z</time>
      </trkpt>
      <trkpt lat="45.56406" lon="4.77542">
        <ele>350.54</ele>
        <time>2021-09-18T09:50:29Z</time>
      </trkpt>
      <trkpt lat="45.5638" lon="4.77534">
        <ele>352.1</ele>
        <time>2021-09-18T09:50:38Z</time>
      </trkpt>
      <trkpt lat="45.56358" lon="4.77525">
        <ele>353.1</ele>
        <time>2021-09-18T09:50:46Z</time>
      </trkpt>
      <trkpt lat="45.56339" lon="4.77518">
        <ele>353.82</ele>
        <time>2021-09-18T09:50:53Z</time>
      </trkpt>
      <trkpt lat="45.56319" lon="4.77501">
        <ele>355.18</ele>
        <time>2021-09-18T09:51:01Z</time>
      </trkpt>
      <trkpt lat="45.56304" lon="4.77467">
        <ele>356.1</ele>
        <time>2021-09-18T09:51:09Z</time>
      </trkpt>
      <trkpt lat="45.56297" lon="4.77421">
        <ele>357.37</ele>
        <time>2021-09-18T09:51:18Z</time>
      </trkpt>
      <trkpt lat="45.56293" lon="4.77377">
        <ele>358.41</ele>
        <time>2021-09-18T09:51:27Z</time>
      </trkpt>
      <trkpt lat="45.56284" lon="4.77321">
        <ele>359.13</ele>
        <time>2021-09-18T09:51:38Z</time>
      </trkpt>
      <trkpt lat="45.56272" lon="4.77283">
        <ele>359.58</ele>
        <time>2021-09-18T09:51:46Z</time>
      </trkpt>
      <trkpt lat="45.56248" lon="4.7725">
        <ele>360.31</ele>
        <time>2021-09-18T09:51:55Z</time>
      </trkpt>
      <trkpt lat="45.56238" lon="4.7724">
        <ele>360.58</ele>
        <time>2021-09-18T09:51:58Z</time>
      </trkpt>
      <trkpt lat="45.56202" lon="4.77219">
        <ele>360.72</ele>
        <time>2021-09-18T09:52:07Z</time>
      </trkpt>
      <trkpt lat="45.56153" lon="4.7721">
        <ele>359.86</ele>
        <time>2021-09-18T09:52:17Z</time>
      </trkpt>
      <trkpt lat="45.56113" lon="4.77205">
        <ele>359.07</ele>
        <time>2021-09-18T09:52:25Z</time>
      </trkpt>
      <trkpt lat="45.56104" lon="4.77203">
        <ele>358.92</ele>
        <time>2021-09-18T09:52:27Z</time>
      </trkpt>
      <trkpt lat="45.561" lon="4.77202">
        <ele>358.89</ele>
        <time>2021-09-18T09:52:28Z</time>
      </trkpt>
      <trkpt lat="45.56052" lon="4.77193">
        <ele>359.44</ele>
        <time>2021-09-18T09:52:39Z</time>
      </trkpt>
      <trkpt lat="45.56017" lon="4.77174">
        <ele>360.33</ele>
        <time>2021-09-18T09:52:48Z</time>
      </trkpt>
      <trkpt lat="45.55992" lon="4.77145">
        <ele>361.49</ele>
        <time>2021-09-18T09:52:56Z</time>
      </trkpt>
      <trkpt lat="45.55971" lon="4.77114">
        <ele>362.75</ele>
        <time>2021-09-18T09:53:04Z</time>
      </trkpt>
      <trkpt lat="45.55951" lon="4.77069">
        <ele>363.82</ele>
        <time>2021-09-18T09:53:14Z</time>
      </trkpt>
      <trkpt lat="45.55941" lon="4.77018">
        <ele>364.7</ele>
        <time>2021-09-18T09:53:24Z</time>
      </trkpt>
      <trkpt lat="45.55937" lon="4.76973">
        <ele>366.26</ele>
        <time>2021-09-18T09:53:33Z</time>
      </trkpt>
      <trkpt lat="45.55933" lon="4.76939">
        <ele>367.19</ele>
        <time>2021-09-18T09:53:40Z</time>
      </trkpt>
      <trkpt lat="45.55923" lon="4.76898">
        <ele>368.46</ele>
        <time>2021-09-18T09:53:49Z</time>
      </trkpt>
      <trkpt lat="45.55903" lon="4.76858">
        <ele>369.8</ele>
        <time>2021-09-18T09:53:59Z</time>
      </trkpt>
      <trkpt lat="45.55877" lon="4.76826">
        <ele>371.13</ele>
        <time>2021-09-18T09:54:09Z</time>
      </trkpt>
      <trkpt lat="45.55857" lon="4.76803">
        <ele>372.08</ele>
        <time>2021-09-18T09:54:16Z</time>
      </trkpt>
      <trkpt lat="45.55827" lon="4.76773">
        <ele>373.4</ele>
        <time>2021-09-18T09:54:26Z</time>
      </trkpt>
      <trkpt lat="45.55803" lon="4.76754">
        <ele>373.88</ele>
        <time>2021-09-18T09:54:33Z</time>
      </trkpt>
      <trkpt lat="45.55768" lon="4.76725">
        <ele>374.08</ele>
        <time>2021-09-18T09:54:42Z</time>
      </trkpt>
      <trkpt lat="45.55734" lon="4.76693">
        <ele>374.13</ele>
        <time>2021-09-18T09:54:51Z</time>
      </trkpt>
      <trkpt lat="45.55723" lon="4.76681">
        <ele>374.12</ele>
        <time>2021-09-18T09:54:54Z</time>
      </trkpt>
      <trkpt lat="45.5572" lon="4.76676">
        <ele>374.15</ele>
        <time>2021-09-18T09:54:55Z</time>
      </trkpt>
      <trkpt lat="45.5569" lon="4.76621">
        <ele>374.36</ele>
        <time>2021-09-18T09:55:06Z</time>
      </trkpt>
      <trkpt lat="45.55667" lon="4.76576">
        <ele>375.08</ele>
        <time>2021-09-18T09:55:16Z</time>
      </trkpt>
      <trkpt lat="45.55649" lon="4.76521">
        <ele>376.79</ele>
        <time>2021-09-18T09:55:28Z</time>
      </trkpt>
      <trkpt lat="45.55635" lon="4.76474">
        <ele>378.5</ele>
        <time>2021-09-18T09:55:39Z</time>
      </trkpt>
      <trkpt lat="45.55625" lon="4.76441">
        <ele>380.08</ele>
        <time>2021-09-18T09:55:47Z</time>
      </trkpt>
      <trkpt lat="45.55612" lon="4.76404">
        <ele>381.41</ele>
        <time>2021-09-18T09:55:56Z</time>
      </trkpt>
      <trkpt lat="45.5559" lon="4.76352">
        <ele>383.65</ele>
        <time>2021-09-18T09:56:09Z</time>
      </trkpt>
      <trkpt lat="45.55571" lon="4.76313">
        <ele>384.7</ele>
        <time>2021-09-18T09:56:18Z</time>
      </trkpt>
      <trkpt lat="45.55554" lon="4.76277">
        <ele>385.14</ele>
        <time>2021-09-18T09:56:26Z</time>
      </trkpt>
      <trkpt lat="45.55552" lon="4.76272">
        <ele>385.22</ele>
        <time>2021-09-18T09:56:27Z</time>
      </trkpt>
      <trkpt lat="45.55533" lon="4.76235">
        <ele>385.83</ele>
        <time>2021-09-18T09:56:35Z</time>
      </trkpt>
      <trkpt lat="45.55508" lon="4.76186">
        <ele>385.78</ele>
        <time>2021-09-18T09:56:43Z</time>
      </trkpt>
      <trkpt lat="45.5547" lon="4.76112">
        <ele>384.3</ele>
        <time>2021-09-18T09:56:53Z</time>
      </trkpt>
      <trkpt lat="45.55465" lon="4.76106">
        <ele>384.15</ele>
        <time>2021-09-18T09:56:54Z</time>
      </trkpt>
      <trkpt lat="45.5546" lon="4.76099">
        <ele>384</ele>
        <time>2021-09-18T09:56:55Z</time>
      </trkpt>
      <trkpt lat="45.55421" lon="4.76048">
        <ele>382.37</ele>
        <time>2021-09-18T09:57:02Z</time>
      </trkpt>
      <trkpt lat="45.55395" lon="4.76001">
        <ele>381.34</ele>
        <time>2021-09-18T09:57:08Z</time>
      </trkpt>
      <trkpt lat="45.55378" lon="4.7598">
        <ele>381.31</ele>
        <time>2021-09-18T09:57:12Z</time>
      </trkpt>
      <trkpt lat="45.55373" lon="4.75976">
        <ele>381.31</ele>
        <time>2021-09-18T09:57:13Z</time>
      </trkpt>
      <trkpt lat="45.55368" lon="4.75974">
        <ele>381.34</ele>
        <time>2021-09-18T09:57:14Z</time>
      </trkpt>
      <trkpt lat="45.55363" lon="4.75972">
        <ele>381.66</ele>
        <time>2021-09-18T09:57:15Z</time>
      </trkpt>
      <trkpt lat="45.55358" lon="4.75971">
        <ele>381.95</ele>
        <time>2021-09-18T09:57:16Z</time>
      </trkpt>
      <trkpt lat="45.55353" lon="4.75971">
        <ele>382.26</ele>
        <time>2021-09-18T09:57:17Z</time>
      </trkpt>
      <trkpt lat="45.55348" lon="4.75971">
        <ele>382.79</ele>
        <time>2021-09-18T09:57:18Z</time>
      </trkpt>
      <trkpt lat="45.55343" lon="4.75972">
        <ele>383.28</ele>
        <time>2021-09-18T09:57:19Z</time>
      </trkpt>
      <trkpt lat="45.55338" lon="4.75973">
        <ele>383.81</ele>
        <time>2021-09-18T09:57:20Z</time>
      </trkpt>
      <trkpt lat="45.5531" lon="4.75981">
        <ele>386.83</ele>
        <time>2021-09-18T09:57:26Z</time>
      </trkpt>
      <trkpt lat="45.55278" lon="4.75985">
        <ele>388.2</ele>
        <time>2021-09-18T09:57:34Z</time>
      </trkpt>
      <trkpt lat="45.55259" lon="4.7598">
        <ele>389.49</ele>
        <time>2021-09-18T09:57:39Z</time>
      </trkpt>
      <trkpt lat="45.55255" lon="4.75979">
        <ele>389.81</ele>
        <time>2021-09-18T09:57:40Z</time>
      </trkpt>
      <trkpt lat="45.55251" lon="4.75978">
        <ele>390.1</ele>
        <time>2021-09-18T09:57:41Z</time>
      </trkpt>
      <trkpt lat="45.55233" lon="4.75969">
        <ele>391.07</ele>
        <time>2021-09-18T09:57:46Z</time>
      </trkpt>
      <trkpt lat="45.55229" lon="4.75966">
        <ele>391.26</ele>
        <time>2021-09-18T09:57:47Z</time>
      </trkpt>
      <trkpt lat="45.55204" lon="4.75935">
        <ele>393.15</ele>
        <time>2021-09-18T09:57:56Z</time>
      </trkpt>
      <trkpt lat="45.55179" lon="4.75895">
        <ele>395.03</ele>
        <time>2021-09-18T09:58:07Z</time>
      </trkpt>
      <trkpt lat="45.55162" lon="4.75873">
        <ele>396.67</ele>
        <time>2021-09-18T09:58:14Z</time>
      </trkpt>
      <trkpt lat="45.55144" lon="4.75854">
        <ele>398.2</ele>
        <time>2021-09-18T09:58:21Z</time>
      </trkpt>
      <trkpt lat="45.55123" lon="4.75836">
        <ele>399.62</ele>
        <time>2021-09-18T09:58:29Z</time>
      </trkpt>
      <trkpt lat="45.55103" lon="4.75817">
        <ele>401.16</ele>
        <time>2021-09-18T09:58:37Z</time>
      </trkpt>
      <trkpt lat="45.55087" lon="4.75794">
        <ele>402.61</ele>
        <time>2021-09-18T09:58:44Z</time>
      </trkpt>
      <trkpt lat="45.55068" lon="4.75746">
        <ele>404.42</ele>
        <time>2021-09-18T09:58:55Z</time>
      </trkpt>
      <trkpt lat="45.5506" lon="4.75704">
        <ele>406.3</ele>
        <time>2021-09-18T09:59:04Z</time>
      </trkpt>
      <trkpt lat="45.55057" lon="4.75677">
        <ele>407.47</ele>
        <time>2021-09-18T09:59:10Z</time>
      </trkpt>
      <trkpt lat="45.55052" lon="4.75631">
        <ele>409.31</ele>
        <time>2021-09-18T09:59:20Z</time>
      </trkpt>
      <trkpt lat="45.55043" lon="4.75591">
        <ele>410.94</ele>
        <time>2021-09-18T09:59:29Z</time>
      </trkpt>
      <trkpt lat="45.55034" lon="4.75552">
        <ele>412.57</ele>
        <time>2021-09-18T09:59:38Z</time>
      </trkpt>
      <trkpt lat="45.55034" lon="4.75512">
        <ele>413.96</ele>
        <time>2021-09-18T09:59:47Z</time>
      </trkpt>
      <trkpt lat="45.55041" lon="4.75473">
        <ele>415.36</ele>
        <time>2021-09-18T09:59:56Z</time>
      </trkpt>
      <trkpt lat="45.55043" lon="4.75448">
        <ele>416.31</ele>
        <time>2021-09-18T10:00:02Z</time>
      </trkpt>
      <trkpt lat="45.55041" lon="4.7542">
        <ele>417.68</ele>
        <time>2021-09-18T10:00:09Z</time>
      </trkpt>
      <trkpt lat="45.55032" lon="4.75389">
        <ele>419.05</ele>
        <time>2021-09-18T10:00:17Z</time>
      </trkpt>
      <trkpt lat="45.55019" lon="4.75371">
        <ele>420.07</ele>
        <time>2021-09-18T10:00:23Z</time>
      </trkpt>
      <trkpt lat="45.54998" lon="4.75352">
        <ele>421.38</ele>
        <time>2021-09-18T10:00:30Z</time>
      </trkpt>
      <trkpt lat="45.54995" lon="4.7535">
        <ele>421.56</ele>
        <time>2021-09-18T10:00:31Z</time>
      </trkpt>
      <trkpt lat="45.54992" lon="4.75348">
        <ele>421.7</ele>
        <time>2021-09-18T10:00:32Z</time>
      </trkpt>
      <trkpt lat="45.54956" lon="4.75328">
        <ele>423.37</ele>
        <time>2021-09-18T10:00:43Z</time>
      </trkpt>
      <trkpt lat="45.54922" lon="4.75323">
        <ele>424.66</ele>
        <time>2021-09-18T10:00:52Z</time>
      </trkpt>
      <trkpt lat="45.5488" lon="4.7532">
        <ele>425.92</ele>
        <time>2021-09-18T10:01:03Z</time>
      </trkpt>
      <trkpt lat="45.54833" lon="4.75317">
        <ele>427.56</ele>
        <time>2021-09-18T10:01:15Z</time>
      </trkpt>
      <trkpt lat="45.54793" lon="4.7531">
        <ele>428.75</ele>
        <time>2021-09-18T10:01:24Z</time>
      </trkpt>
      <trkpt lat="45.54752" lon="4.75282">
        <ele>429.26</ele>
        <time>2021-09-18T10:01:33Z</time>
      </trkpt>
      <trkpt lat="45.54708" lon="4.75235">
        <ele>429.73</ele>
        <time>2021-09-18T10:01:44Z</time>
      </trkpt>
      <trkpt lat="45.5469" lon="4.75189">
        <ele>430.23</ele>
        <time>2021-09-18T10:01:51Z</time>
      </trkpt>
      <trkpt lat="45.54675" lon="4.75125">
        <ele>430.38</ele>
        <time>2021-09-18T10:02:00Z</time>
      </trkpt>
      <trkpt lat="45.54672" lon="4.75119">
        <ele>430.39</ele>
        <time>2021-09-18T10:02:01Z</time>
      </trkpt>
      <trkpt lat="45.54669" lon="4.75113">
        <ele>430.39</ele>
        <time>2021-09-18T10:02:02Z</time>
      </trkpt>
      <trkpt lat="45.54665" lon="4.75108">
        <ele>430.39</ele>
        <time>2021-09-18T10:02:03Z</time>
      </trkpt>
      <trkpt lat="45.54661" lon="4.75103">
        <ele>430.39</ele>
        <time>2021-09-18T10:02:04Z</time>
      </trkpt>
      <trkpt lat="45.54656" lon="4.75099">
        <ele>430.44</ele>
        <time>2021-09-18T10:02:05Z</time>
      </trkpt>
      <trkpt lat="45.54637" lon="4.75085">
        <ele>430.52</ele>
        <time>2021-09-18T10:02:09Z</time>
      </trkpt>
      <trkpt lat="45.54584" lon="4.75057">
        <ele>430.82</ele>
        <time>2021-09-18T10:02:19Z</time>
      </trkpt>
      <trkpt lat="45.54579" lon="4.75052">
        <ele>430.97</ele>
        <time>2021-09-18T10:02:20Z</time>
      </trkpt>
      <trkpt lat="45.54566" lon="4.75037">
        <ele>431.23</ele>
        <time>2021-09-18T10:02:23Z</time>
      </trkpt>
      <trkpt lat="45.54562" lon="4.75031">
        <ele>431.27</ele>
        <time>2021-09-18T10:02:24Z</time>
      </trkpt>
      <trkpt lat="45.5454" lon="4.74975">
        <ele>431.95</ele>
        <time>2021-09-18T10:02:32Z</time>
      </trkpt>
      <trkpt lat="45.54521" lon="4.74919">
        <ele>432.58</ele>
        <time>2021-09-18T10:02:40Z</time>
      </trkpt>
      <trkpt lat="45.54515" lon="4.7487">
        <ele>432.83</ele>
        <time>2021-09-18T10:02:46Z</time>
      </trkpt>
      <trkpt lat="45.54524" lon="4.74823">
        <ele>433.15</ele>
        <time>2021-09-18T10:02:52Z</time>
      </trkpt>
      <trkpt lat="45.54544" lon="4.74757">
        <ele>433.86</ele>
        <time>2021-09-18T10:03:01Z</time>
      </trkpt>
      <trkpt lat="45.54546" lon="4.74725">
        <ele>433.97</ele>
        <time>2021-09-18T10:03:05Z</time>
      </trkpt>
      <trkpt lat="45.54545" lon="4.74717">
        <ele>433.98</ele>
        <time>2021-09-18T10:03:06Z</time>
      </trkpt>
      <trkpt lat="45.54543" lon="4.74709">
        <ele>434.01</ele>
        <time>2021-09-18T10:03:07Z</time>
      </trkpt>
      <trkpt lat="45.54541" lon="4.74702">
        <ele>434.04</ele>
        <time>2021-09-18T10:03:08Z</time>
      </trkpt>
      <trkpt lat="45.54538" lon="4.74695">
        <ele>434.1</ele>
        <time>2021-09-18T10:03:09Z</time>
      </trkpt>
      <trkpt lat="45.54535" lon="4.74688">
        <ele>434.12</ele>
        <time>2021-09-18T10:03:10Z</time>
      </trkpt>
      <trkpt lat="45.54531" lon="4.74681">
        <ele>434.25</ele>
        <time>2021-09-18T10:03:11Z</time>
      </trkpt>
      <trkpt lat="45.54527" lon="4.74675">
        <ele>434.34</ele>
        <time>2021-09-18T10:03:12Z</time>
      </trkpt>
      <trkpt lat="45.54522" lon="4.7467">
        <ele>434.42</ele>
        <time>2021-09-18T10:03:13Z</time>
      </trkpt>
      <trkpt lat="45.54517" lon="4.74665">
        <ele>434.5</ele>
        <time>2021-09-18T10:03:14Z</time>
      </trkpt>
      <trkpt lat="45.54511" lon="4.7466">
        <ele>434.57</ele>
        <time>2021-09-18T10:03:15Z</time>
      </trkpt>
      <trkpt lat="45.54505" lon="4.74657">
        <ele>434.61</ele>
        <time>2021-09-18T10:03:16Z</time>
      </trkpt>
      <trkpt lat="45.545" lon="4.74654">
        <ele>434.63</ele>
        <time>2021-09-18T10:03:17Z</time>
      </trkpt>
      <trkpt lat="45.54493" lon="4.74652">
        <ele>434.67</ele>
        <time>2021-09-18T10:03:18Z</time>
      </trkpt>
      <trkpt lat="45.54481" lon="4.7465">
        <ele>434.79</ele>
        <time>2021-09-18T10:03:20Z</time>
      </trkpt>
      <trkpt lat="45.54475" lon="4.7465">
        <ele>434.84</ele>
        <time>2021-09-18T10:03:21Z</time>
      </trkpt>
      <trkpt lat="45.54469" lon="4.74651">
        <ele>434.9</ele>
        <time>2021-09-18T10:03:22Z</time>
      </trkpt>
      <trkpt lat="45.54463" lon="4.74653">
        <ele>434.96</ele>
        <time>2021-09-18T10:03:23Z</time>
      </trkpt>
      <trkpt lat="45.54457" lon="4.74655">
        <ele>435.02</ele>
        <time>2021-09-18T10:03:24Z</time>
      </trkpt>
      <trkpt lat="45.54446" lon="4.74658">
        <ele>435.1</ele>
        <time>2021-09-18T10:03:26Z</time>
      </trkpt>
      <trkpt lat="45.5444" lon="4.74659">
        <ele>435.11</ele>
        <time>2021-09-18T10:03:27Z</time>
      </trkpt>
      <trkpt lat="45.54433" lon="4.74658">
        <ele>435.11</ele>
        <time>2021-09-18T10:03:28Z</time>
      </trkpt>
      <trkpt lat="45.54427" lon="4.74657">
        <ele>435.11</ele>
        <time>2021-09-18T10:03:29Z</time>
      </trkpt>
      <trkpt lat="45.54421" lon="4.74656">
        <ele>435.18</ele>
        <time>2021-09-18T10:03:30Z</time>
      </trkpt>
      <trkpt lat="45.54415" lon="4.74654">
        <ele>435.29</ele>
        <time>2021-09-18T10:03:31Z</time>
      </trkpt>
      <trkpt lat="45.54409" lon="4.74651">
        <ele>435.39</ele>
        <time>2021-09-18T10:03:32Z</time>
      </trkpt>
      <trkpt lat="45.54353" lon="4.74616">
        <ele>436.17</ele>
        <time>2021-09-18T10:03:42Z</time>
      </trkpt>
      <trkpt lat="45.54344" lon="4.74604">
        <ele>436.33</ele>
        <time>2021-09-18T10:03:44Z</time>
      </trkpt>
      <trkpt lat="45.5434" lon="4.74597">
        <ele>436.38</ele>
        <time>2021-09-18T10:03:45Z</time>
      </trkpt>
      <trkpt lat="45.54307" lon="4.74534">
        <ele>437.28</ele>
        <time>2021-09-18T10:03:54Z</time>
      </trkpt>
      <trkpt lat="45.54263" lon="4.74488">
        <ele>437.79</ele>
        <time>2021-09-18T10:04:03Z</time>
      </trkpt>
      <trkpt lat="45.54207" lon="4.74439">
        <ele>438.14</ele>
        <time>2021-09-18T10:04:13Z</time>
      </trkpt>
      <trkpt lat="45.54149" lon="4.744">
        <ele>438.12</ele>
        <time>2021-09-18T10:04:21Z</time>
      </trkpt>
      <trkpt lat="45.54083" lon="4.74371">
        <ele>435.09</ele>
        <time>2021-09-18T10:04:29Z</time>
      </trkpt>
      <trkpt lat="45.54022" lon="4.74357">
        <ele>432.73</ele>
        <time>2021-09-18T10:04:36Z</time>
      </trkpt>
      <trkpt lat="45.53963" lon="4.74343">
        <ele>430.45</ele>
        <time>2021-09-18T10:04:43Z</time>
      </trkpt>
      <trkpt lat="45.53888" lon="4.74332">
        <ele>429.05</ele>
        <time>2021-09-18T10:04:52Z</time>
      </trkpt>
      <trkpt lat="45.5382" lon="4.74338">
        <ele>428.9</ele>
        <time>2021-09-18T10:05:01Z</time>
      </trkpt>
      <trkpt lat="45.53771" lon="4.74351">
        <ele>429.76</ele>
        <time>2021-09-18T10:05:09Z</time>
      </trkpt>
      <trkpt lat="45.5374" lon="4.74366">
        <ele>430.42</ele>
        <time>2021-09-18T10:05:16Z</time>
      </trkpt>
      <trkpt lat="45.53736" lon="4.74368">
        <ele>430.58</ele>
        <time>2021-09-18T10:05:17Z</time>
      </trkpt>
      <trkpt lat="45.53702" lon="4.74384">
        <ele>432.44</ele>
        <time>2021-09-18T10:05:26Z</time>
      </trkpt>
      <trkpt lat="45.53679" lon="4.74394">
        <ele>433.28</ele>
        <time>2021-09-18T10:05:33Z</time>
      </trkpt>
      <trkpt lat="45.53648" lon="4.74412">
        <ele>434.67</ele>
        <time>2021-09-18T10:05:43Z</time>
      </trkpt>
      <trkpt lat="45.53615" lon="4.74431">
        <ele>435.87</ele>
        <time>2021-09-18T10:05:53Z</time>
      </trkpt>
      <trkpt lat="45.53584" lon="4.74452">
        <ele>436.72</ele>
        <time>2021-09-18T10:06:03Z</time>
      </trkpt>
      <trkpt lat="45.53564" lon="4.74465">
        <ele>437.9</ele>
        <time>2021-09-18T10:06:10Z</time>
      </trkpt>
      <trkpt lat="45.53546" lon="4.74477">
        <ele>438.62</ele>
        <time>2021-09-18T10:06:17Z</time>
      </trkpt>
      <trkpt lat="45.53528" lon="4.74486">
        <ele>439.68</ele>
        <time>2021-09-18T10:06:24Z</time>
      </trkpt>
      <trkpt lat="45.53507" lon="4.74491">
        <ele>440.65</ele>
        <time>2021-09-18T10:06:31Z</time>
      </trkpt>
      <trkpt lat="45.53489" lon="4.74479">
        <ele>441.28</ele>
        <time>2021-09-18T10:06:38Z</time>
      </trkpt>
      <trkpt lat="45.5348" lon="4.74451">
        <ele>441.79</ele>
        <time>2021-09-18T10:06:45Z</time>
      </trkpt>
      <trkpt lat="45.53485" lon="4.74419">
        <ele>442.48</ele>
        <time>2021-09-18T10:06:52Z</time>
      </trkpt>
      <trkpt lat="45.53498" lon="4.74388">
        <ele>443.84</ele>
        <time>2021-09-18T10:07:00Z</time>
      </trkpt>
      <trkpt lat="45.53504" lon="4.74366">
        <ele>444.79</ele>
        <time>2021-09-18T10:07:06Z</time>
      </trkpt>
      <trkpt lat="45.53502" lon="4.74342">
        <ele>445.69</ele>
        <time>2021-09-18T10:07:12Z</time>
      </trkpt>
      <trkpt lat="45.53495" lon="4.74319">
        <ele>446.97</ele>
        <time>2021-09-18T10:07:18Z</time>
      </trkpt>
      <trkpt lat="45.5349" lon="4.74304">
        <ele>447.47</ele>
        <time>2021-09-18T10:07:22Z</time>
      </trkpt>
      <trkpt lat="45.53487" lon="4.743">
        <ele>447.62</ele>
        <time>2021-09-18T10:07:23Z</time>
      </trkpt>
      <trkpt lat="45.53486" lon="4.74296">
        <ele>447.72</ele>
        <time>2021-09-18T10:07:24Z</time>
      </trkpt>
      <trkpt lat="45.53484" lon="4.74293">
        <ele>447.86</ele>
        <time>2021-09-18T10:07:25Z</time>
      </trkpt>
      <trkpt lat="45.53481" lon="4.7429">
        <ele>447.97</ele>
        <time>2021-09-18T10:07:26Z</time>
      </trkpt>
      <trkpt lat="45.53479" lon="4.74287">
        <ele>448.06</ele>
        <time>2021-09-18T10:07:27Z</time>
      </trkpt>
      <trkpt lat="45.53476" lon="4.74284">
        <ele>448.23</ele>
        <time>2021-09-18T10:07:28Z</time>
      </trkpt>
      <trkpt lat="45.53474" lon="4.74281">
        <ele>448.35</ele>
        <time>2021-09-18T10:07:29Z</time>
      </trkpt>
      <trkpt lat="45.53472" lon="4.74277">
        <ele>448.51</ele>
        <time>2021-09-18T10:07:30Z</time>
      </trkpt>
      <trkpt lat="45.5347" lon="4.74274">
        <ele>448.6</ele>
        <time>2021-09-18T10:07:31Z</time>
      </trkpt>
      <trkpt lat="45.53467" lon="4.74271">
        <ele>448.71</ele>
        <time>2021-09-18T10:07:32Z</time>
      </trkpt>
      <trkpt lat="45.53458" lon="4.7426">
        <ele>449.13</ele>
        <time>2021-09-18T10:07:37Z</time>
      </trkpt>
      <trkpt lat="45.53456" lon="4.74258">
        <ele>449.22</ele>
        <time>2021-09-18T10:07:38Z</time>
      </trkpt>
      <trkpt lat="45.53455" lon="4.74257">
        <ele>449.3</ele>
        <time>2021-09-18T10:07:39Z</time>
      </trkpt>
      <trkpt lat="45.53452" lon="4.74256">
        <ele>449.47</ele>
        <time>2021-09-18T10:07:40Z</time>
      </trkpt>
      <trkpt lat="45.5345" lon="4.74255">
        <ele>449.69</ele>
        <time>2021-09-18T10:07:41Z</time>
      </trkpt>
      <trkpt lat="45.53447" lon="4.74253">
        <ele>449.84</ele>
        <time>2021-09-18T10:07:42Z</time>
      </trkpt>
      <trkpt lat="45.53445" lon="4.74251">
        <ele>450.05</ele>
        <time>2021-09-18T10:07:43Z</time>
      </trkpt>
      <trkpt lat="45.53443" lon="4.74249">
        <ele>450.26</ele>
        <time>2021-09-18T10:07:44Z</time>
      </trkpt>
      <trkpt lat="45.5344" lon="4.74247">
        <ele>450.45</ele>
        <time>2021-09-18T10:07:45Z</time>
      </trkpt>
      <trkpt lat="45.53437" lon="4.74246">
        <ele>450.7</ele>
        <time>2021-09-18T10:07:46Z</time>
      </trkpt>
      <trkpt lat="45.53434" lon="4.74244">
        <ele>450.83</ele>
        <time>2021-09-18T10:07:47Z</time>
      </trkpt>
      <trkpt lat="45.53432" lon="4.74242">
        <ele>450.89</ele>
        <time>2021-09-18T10:07:48Z</time>
      </trkpt>
      <trkpt lat="45.53429" lon="4.7424">
        <ele>450.98</ele>
        <time>2021-09-18T10:07:49Z</time>
      </trkpt>
      <trkpt lat="45.53403" lon="4.74227">
        <ele>452.01</ele>
        <time>2021-09-18T10:07:58Z</time>
      </trkpt>
      <trkpt lat="45.53376" lon="4.74218">
        <ele>453.13</ele>
        <time>2021-09-18T10:08:07Z</time>
      </trkpt>
      <trkpt lat="45.5335" lon="4.74217">
        <ele>454.24</ele>
        <time>2021-09-18T10:08:15Z</time>
      </trkpt>
      <trkpt lat="45.53326" lon="4.74229">
        <ele>455.25</ele>
        <time>2021-09-18T10:08:23Z</time>
      </trkpt>
      <trkpt lat="45.53304" lon="4.74251">
        <ele>456.03</ele>
        <time>2021-09-18T10:08:32Z</time>
      </trkpt>
      <trkpt lat="45.53301" lon="4.74253">
        <ele>456.1</ele>
        <time>2021-09-18T10:08:33Z</time>
      </trkpt>
      <trkpt lat="45.53298" lon="4.74256">
        <ele>456.15</ele>
        <time>2021-09-18T10:08:34Z</time>
      </trkpt>
      <trkpt lat="45.53296" lon="4.7426">
        <ele>456.44</ele>
        <time>2021-09-18T10:08:35Z</time>
      </trkpt>
      <trkpt lat="45.53294" lon="4.74262">
        <ele>456.56</ele>
        <time>2021-09-18T10:08:36Z</time>
      </trkpt>
      <trkpt lat="45.53291" lon="4.74264">
        <ele>456.64</ele>
        <time>2021-09-18T10:08:37Z</time>
      </trkpt>
      <trkpt lat="45.53289" lon="4.74267">
        <ele>456.81</ele>
        <time>2021-09-18T10:08:38Z</time>
      </trkpt>
      <trkpt lat="45.53287" lon="4.7427">
        <ele>456.99</ele>
        <time>2021-09-18T10:08:39Z</time>
      </trkpt>
      <trkpt lat="45.53284" lon="4.74273">
        <ele>457.25</ele>
        <time>2021-09-18T10:08:40Z</time>
      </trkpt>
      <trkpt lat="45.53282" lon="4.74276">
        <ele>457.51</ele>
        <time>2021-09-18T10:08:41Z</time>
      </trkpt>
      <trkpt lat="45.53279" lon="4.74279">
        <ele>457.81</ele>
        <time>2021-09-18T10:08:42Z</time>
      </trkpt>
      <trkpt lat="45.53277" lon="4.74282">
        <ele>457.98</ele>
        <time>2021-09-18T10:08:43Z</time>
      </trkpt>
      <trkpt lat="45.53275" lon="4.74284">
        <ele>458.09</ele>
        <time>2021-09-18T10:08:44Z</time>
      </trkpt>
      <trkpt lat="45.53249" lon="4.74312">
        <ele>459.61</ele>
        <time>2021-09-18T10:08:54Z</time>
      </trkpt>
      <trkpt lat="45.5323" lon="4.74333">
        <ele>460.67</ele>
        <time>2021-09-18T10:09:02Z</time>
      </trkpt>
      <trkpt lat="45.53208" lon="4.74348">
        <ele>461.5</ele>
        <time>2021-09-18T10:09:10Z</time>
      </trkpt>
      <trkpt lat="45.53186" lon="4.74353">
        <ele>462.27</ele>
        <time>2021-09-18T10:09:17Z</time>
      </trkpt>
      <trkpt lat="45.53169" lon="4.74352">
        <ele>463.01</ele>
        <time>2021-09-18T10:09:23Z</time>
      </trkpt>
      <trkpt lat="45.53145" lon="4.74344">
        <ele>463.42</ele>
        <time>2021-09-18T10:09:31Z</time>
      </trkpt>
      <trkpt lat="45.53123" lon="4.74325">
        <ele>463.64</ele>
        <time>2021-09-18T10:09:39Z</time>
      </trkpt>
      <trkpt lat="45.53099" lon="4.74307">
        <ele>464.25</ele>
        <time>2021-09-18T10:09:46Z</time>
      </trkpt>
      <trkpt lat="45.53091" lon="4.74301">
        <ele>464.31</ele>
        <time>2021-09-18T10:09:48Z</time>
      </trkpt>
      <trkpt lat="45.53076" lon="4.74288">
        <ele>464.32</ele>
        <time>2021-09-18T10:09:52Z</time>
      </trkpt>
      <trkpt lat="45.53073" lon="4.74283">
        <ele>464.32</ele>
        <time>2021-09-18T10:09:53Z</time>
      </trkpt>
      <trkpt lat="45.53059" lon="4.74261">
        <ele>464.17</ele>
        <time>2021-09-18T10:09:59Z</time>
      </trkpt>
      <trkpt lat="45.53045" lon="4.74235">
        <ele>464.5</ele>
        <time>2021-09-18T10:10:07Z</time>
      </trkpt>
      <trkpt lat="45.53031" lon="4.74219">
        <ele>465.43</ele>
        <time>2021-09-18T10:10:13Z</time>
      </trkpt>
      <trkpt lat="45.53008" lon="4.74204">
        <ele>466.54</ele>
        <time>2021-09-18T10:10:22Z</time>
      </trkpt>
      <trkpt lat="45.5298" lon="4.74195">
        <ele>467.74</ele>
        <time>2021-09-18T10:10:32Z</time>
      </trkpt>
      <trkpt lat="45.52952" lon="4.74184">
        <ele>468.95</ele>
        <time>2021-09-18T10:10:42Z</time>
      </trkpt>
      <trkpt lat="45.52935" lon="4.7417">
        <ele>469.83</ele>
        <time>2021-09-18T10:10:49Z</time>
      </trkpt>
      <trkpt lat="45.52919" lon="4.74142">
        <ele>470.68</ele>
        <time>2021-09-18T10:10:58Z</time>
      </trkpt>
      <trkpt lat="45.52902" lon="4.74112">
        <ele>472.44</ele>
        <time>2021-09-18T10:11:08Z</time>
      </trkpt>
      <trkpt lat="45.52883" lon="4.74089">
        <ele>473.4</ele>
        <time>2021-09-18T10:11:17Z</time>
      </trkpt>
      <trkpt lat="45.52863" lon="4.74078">
        <ele>474.91</ele>
        <time>2021-09-18T10:11:25Z</time>
      </trkpt>
      <trkpt lat="45.5286" lon="4.74078">
        <ele>475.1</ele>
        <time>2021-09-18T10:11:26Z</time>
      </trkpt>
      <trkpt lat="45.52858" lon="4.74077">
        <ele>475.24</ele>
        <time>2021-09-18T10:11:27Z</time>
      </trkpt>
      <trkpt lat="45.52855" lon="4.74077">
        <ele>475.3</ele>
        <time>2021-09-18T10:11:28Z</time>
      </trkpt>
      <trkpt lat="45.52852" lon="4.74078">
        <ele>475.43</ele>
        <time>2021-09-18T10:11:29Z</time>
      </trkpt>
      <trkpt lat="45.5285" lon="4.74078">
        <ele>475.61</ele>
        <time>2021-09-18T10:11:30Z</time>
      </trkpt>
      <trkpt lat="45.52847" lon="4.74078">
        <ele>475.75</ele>
        <time>2021-09-18T10:11:31Z</time>
      </trkpt>
      <trkpt lat="45.52845" lon="4.74079">
        <ele>475.89</ele>
        <time>2021-09-18T10:11:32Z</time>
      </trkpt>
      <trkpt lat="45.5284" lon="4.74081">
        <ele>476.24</ele>
        <time>2021-09-18T10:11:34Z</time>
      </trkpt>
      <trkpt lat="45.52838" lon="4.74082">
        <ele>476.4</ele>
        <time>2021-09-18T10:11:35Z</time>
      </trkpt>
      <trkpt lat="45.52835" lon="4.74084">
        <ele>476.77</ele>
        <time>2021-09-18T10:11:36Z</time>
      </trkpt>
      <trkpt lat="45.52833" lon="4.74085">
        <ele>476.94</ele>
        <time>2021-09-18T10:11:37Z</time>
      </trkpt>
      <trkpt lat="45.5283" lon="4.74085">
        <ele>477.05</ele>
        <time>2021-09-18T10:11:38Z</time>
      </trkpt>
      <trkpt lat="45.52828" lon="4.74086">
        <ele>477.12</ele>
        <time>2021-09-18T10:11:39Z</time>
      </trkpt>
      <trkpt lat="45.52825" lon="4.74088">
        <ele>477.15</ele>
        <time>2021-09-18T10:11:40Z</time>
      </trkpt>
      <trkpt lat="45.52823" lon="4.7409">
        <ele>477.31</ele>
        <time>2021-09-18T10:11:41Z</time>
      </trkpt>
      <trkpt lat="45.52821" lon="4.74091">
        <ele>477.41</ele>
        <time>2021-09-18T10:11:42Z</time>
      </trkpt>
      <trkpt lat="45.52818" lon="4.74093">
        <ele>477.51</ele>
        <time>2021-09-18T10:11:43Z</time>
      </trkpt>
      <trkpt lat="45.52815" lon="4.74094">
        <ele>477.64</ele>
        <time>2021-09-18T10:11:44Z</time>
      </trkpt>
      <trkpt lat="45.52813" lon="4.74096">
        <ele>477.72</ele>
        <time>2021-09-18T10:11:45Z</time>
      </trkpt>
      <trkpt lat="45.52811" lon="4.74098">
        <ele>477.77</ele>
        <time>2021-09-18T10:11:46Z</time>
      </trkpt>
      <trkpt lat="45.52808" lon="4.74099">
        <ele>477.9</ele>
        <time>2021-09-18T10:11:47Z</time>
      </trkpt>
      <trkpt lat="45.52806" lon="4.74101">
        <ele>478.04</ele>
        <time>2021-09-18T10:11:48Z</time>
      </trkpt>
      <trkpt lat="45.52805" lon="4.74103">
        <ele>478.11</ele>
        <time>2021-09-18T10:11:49Z</time>
      </trkpt>
      <trkpt lat="45.52802" lon="4.74105">
        <ele>478.22</ele>
        <time>2021-09-18T10:11:50Z</time>
      </trkpt>
      <trkpt lat="45.528" lon="4.74107">
        <ele>478.34</ele>
        <time>2021-09-18T10:11:51Z</time>
      </trkpt>
      <trkpt lat="45.52798" lon="4.74109">
        <ele>478.46</ele>
        <time>2021-09-18T10:11:52Z</time>
      </trkpt>
      <trkpt lat="45.52795" lon="4.74111">
        <ele>478.64</ele>
        <time>2021-09-18T10:11:53Z</time>
      </trkpt>
      <trkpt lat="45.52793" lon="4.74113">
        <ele>478.79</ele>
        <time>2021-09-18T10:11:54Z</time>
      </trkpt>
      <trkpt lat="45.52791" lon="4.74115">
        <ele>478.92</ele>
        <time>2021-09-18T10:11:55Z</time>
      </trkpt>
      <trkpt lat="45.52789" lon="4.74117">
        <ele>479.1</ele>
        <time>2021-09-18T10:11:56Z</time>
      </trkpt>
      <trkpt lat="45.52787" lon="4.74119">
        <ele>479.28</ele>
        <time>2021-09-18T10:11:57Z</time>
      </trkpt>
      <trkpt lat="45.52785" lon="4.74121">
        <ele>479.37</ele>
        <time>2021-09-18T10:11:58Z</time>
      </trkpt>
      <trkpt lat="45.52782" lon="4.74123">
        <ele>479.42</ele>
        <time>2021-09-18T10:11:59Z</time>
      </trkpt>
      <trkpt lat="45.52781" lon="4.74126">
        <ele>479.56</ele>
        <time>2021-09-18T10:12:00Z</time>
      </trkpt>
      <trkpt lat="45.52778" lon="4.74129">
        <ele>479.65</ele>
        <time>2021-09-18T10:12:01Z</time>
      </trkpt>
      <trkpt lat="45.52765" lon="4.74142">
        <ele>480.27</ele>
        <time>2021-09-18T10:12:07Z</time>
      </trkpt>
      <trkpt lat="45.52747" lon="4.74158">
        <ele>481</ele>
        <time>2021-09-18T10:12:14Z</time>
      </trkpt>
      <trkpt lat="45.52723" lon="4.74179">
        <ele>482.4</ele>
        <time>2021-09-18T10:12:24Z</time>
      </trkpt>
      <trkpt lat="45.52699" lon="4.74196">
        <ele>483.76</ele>
        <time>2021-09-18T10:12:34Z</time>
      </trkpt>
      <trkpt lat="45.52682" lon="4.74205">
        <ele>484.81</ele>
        <time>2021-09-18T10:12:41Z</time>
      </trkpt>
      <trkpt lat="45.52661" lon="4.74215">
        <ele>485.42</ele>
        <time>2021-09-18T10:12:49Z</time>
      </trkpt>
      <trkpt lat="45.52645" lon="4.7422">
        <ele>485.97</ele>
        <time>2021-09-18T10:12:55Z</time>
      </trkpt>
      <trkpt lat="45.52624" lon="4.74222">
        <ele>487.34</ele>
        <time>2021-09-18T10:13:03Z</time>
      </trkpt>
      <trkpt lat="45.52605" lon="4.74221">
        <ele>488.17</ele>
        <time>2021-09-18T10:13:10Z</time>
      </trkpt>
      <trkpt lat="45.52579" lon="4.74219">
        <ele>489.46</ele>
        <time>2021-09-18T10:13:19Z</time>
      </trkpt>
      <trkpt lat="45.52556" lon="4.74216">
        <ele>490.53</ele>
        <time>2021-09-18T10:13:27Z</time>
      </trkpt>
      <trkpt lat="45.52536" lon="4.74215">
        <ele>491.41</ele>
        <time>2021-09-18T10:13:34Z</time>
      </trkpt>
      <trkpt lat="45.52514" lon="4.74213">
        <ele>492.25</ele>
        <time>2021-09-18T10:13:42Z</time>
      </trkpt>
      <trkpt lat="45.52483" lon="4.74209">
        <ele>493.64</ele>
        <time>2021-09-18T10:13:53Z</time>
      </trkpt>
      <trkpt lat="45.52457" lon="4.74214">
        <ele>494.66</ele>
        <time>2021-09-18T10:14:02Z</time>
      </trkpt>
      <trkpt lat="45.52448" lon="4.74216">
        <ele>495.14</ele>
        <time>2021-09-18T10:14:05Z</time>
      </trkpt>
      <trkpt lat="45.52446" lon="4.74217">
        <ele>495.25</ele>
        <time>2021-09-18T10:14:06Z</time>
      </trkpt>
      <trkpt lat="45.52443" lon="4.74218">
        <ele>495.35</ele>
        <time>2021-09-18T10:14:07Z</time>
      </trkpt>
      <trkpt lat="45.5244" lon="4.74219">
        <ele>495.52</ele>
        <time>2021-09-18T10:14:08Z</time>
      </trkpt>
      <trkpt lat="45.52437" lon="4.74221">
        <ele>495.63</ele>
        <time>2021-09-18T10:14:09Z</time>
      </trkpt>
      <trkpt lat="45.52435" lon="4.74223">
        <ele>495.79</ele>
        <time>2021-09-18T10:14:10Z</time>
      </trkpt>
      <trkpt lat="45.52432" lon="4.74224">
        <ele>495.89</ele>
        <time>2021-09-18T10:14:11Z</time>
      </trkpt>
      <trkpt lat="45.52429" lon="4.74226">
        <ele>496.01</ele>
        <time>2021-09-18T10:14:12Z</time>
      </trkpt>
      <trkpt lat="45.52427" lon="4.74228">
        <ele>496.08</ele>
        <time>2021-09-18T10:14:13Z</time>
      </trkpt>
      <trkpt lat="45.52424" lon="4.74229">
        <ele>496.12</ele>
        <time>2021-09-18T10:14:14Z</time>
      </trkpt>
      <trkpt lat="45.52422" lon="4.74231">
        <ele>496.21</ele>
        <time>2021-09-18T10:14:15Z</time>
      </trkpt>
      <trkpt lat="45.52419" lon="4.74232">
        <ele>496.29</ele>
        <time>2021-09-18T10:14:16Z</time>
      </trkpt>
      <trkpt lat="45.52416" lon="4.74234">
        <ele>496.39</ele>
        <time>2021-09-18T10:14:17Z</time>
      </trkpt>
      <trkpt lat="45.52398" lon="4.74247">
        <ele>497.09</ele>
        <time>2021-09-18T10:14:24Z</time>
      </trkpt>
      <trkpt lat="45.52376" lon="4.74264">
        <ele>498.06</ele>
        <time>2021-09-18T10:14:33Z</time>
      </trkpt>
      <trkpt lat="45.52367" lon="4.74274">
        <ele>498.76</ele>
        <time>2021-09-18T10:14:37Z</time>
      </trkpt>
      <trkpt lat="45.52362" lon="4.74278">
        <ele>499</ele>
        <time>2021-09-18T10:14:39Z</time>
      </trkpt>
      <trkpt lat="45.5236" lon="4.74281">
        <ele>499.19</ele>
        <time>2021-09-18T10:14:40Z</time>
      </trkpt>
      <trkpt lat="45.52358" lon="4.74283">
        <ele>499.32</ele>
        <time>2021-09-18T10:14:41Z</time>
      </trkpt>
      <trkpt lat="45.52356" lon="4.74285">
        <ele>499.52</ele>
        <time>2021-09-18T10:14:42Z</time>
      </trkpt>
      <trkpt lat="45.52354" lon="4.74288">
        <ele>499.68</ele>
        <time>2021-09-18T10:14:43Z</time>
      </trkpt>
      <trkpt lat="45.52351" lon="4.74291">
        <ele>499.8</ele>
        <time>2021-09-18T10:14:44Z</time>
      </trkpt>
      <trkpt lat="45.52349" lon="4.74292">
        <ele>499.9</ele>
        <time>2021-09-18T10:14:45Z</time>
      </trkpt>
      <trkpt lat="45.52347" lon="4.74295">
        <ele>499.99</ele>
        <time>2021-09-18T10:14:46Z</time>
      </trkpt>
      <trkpt lat="45.52344" lon="4.74298">
        <ele>500.09</ele>
        <time>2021-09-18T10:14:47Z</time>
      </trkpt>
      <trkpt lat="45.52342" lon="4.743">
        <ele>500.19</ele>
        <time>2021-09-18T10:14:48Z</time>
      </trkpt>
      <trkpt lat="45.52326" lon="4.74319">
        <ele>501.23</ele>
        <time>2021-09-18T10:14:56Z</time>
      </trkpt>
      <trkpt lat="45.52311" lon="4.74332">
        <ele>501.97</ele>
        <time>2021-09-18T10:15:02Z</time>
      </trkpt>
      <trkpt lat="45.52293" lon="4.74345">
        <ele>502.67</ele>
        <time>2021-09-18T10:15:09Z</time>
      </trkpt>
      <trkpt lat="45.52273" lon="4.74353">
        <ele>503.56</ele>
        <time>2021-09-18T10:15:16Z</time>
      </trkpt>
      <trkpt lat="45.52242" lon="4.74352">
        <ele>504.5</ele>
        <time>2021-09-18T10:15:26Z</time>
      </trkpt>
      <trkpt lat="45.52232" lon="4.74346">
        <ele>504.86</ele>
        <time>2021-09-18T10:15:30Z</time>
      </trkpt>
      <trkpt lat="45.5223" lon="4.74342">
        <ele>504.97</ele>
        <time>2021-09-18T10:15:31Z</time>
      </trkpt>
      <trkpt lat="45.5223" lon="4.74336">
        <ele>505.35</ele>
        <time>2021-09-18T10:15:32Z</time>
      </trkpt>
      <trkpt lat="45.52224" lon="4.74295">
        <ele>506.24</ele>
        <time>2021-09-18T10:15:38Z</time>
      </trkpt>
      <trkpt lat="45.52215" lon="4.74231">
        <ele>506.08</ele>
        <time>2021-09-18T10:15:45Z</time>
      </trkpt>
      <trkpt lat="45.52203" lon="4.74159">
        <ele>502.6</ele>
        <time>2021-09-18T10:15:52Z</time>
      </trkpt>
      <trkpt lat="45.52193" lon="4.74092">
        <ele>500.01</ele>
        <time>2021-09-18T10:15:58Z</time>
      </trkpt>
      <trkpt lat="45.52171" lon="4.73998">
        <ele>497.36</ele>
        <time>2021-09-18T10:16:06Z</time>
      </trkpt>
      <trkpt lat="45.52143" lon="4.73943">
        <ele>495.63</ele>
        <time>2021-09-18T10:16:11Z</time>
      </trkpt>
      <trkpt lat="45.52111" lon="4.73908">
        <ele>493.65</ele>
        <time>2021-09-18T10:16:15Z</time>
      </trkpt>
      <trkpt lat="45.52102" lon="4.73903">
        <ele>493.26</ele>
        <time>2021-09-18T10:16:16Z</time>
      </trkpt>
      <trkpt lat="45.52092" lon="4.73898">
        <ele>492.74</ele>
        <time>2021-09-18T10:16:17Z</time>
      </trkpt>
      <trkpt lat="45.52083" lon="4.73895">
        <ele>492.07</ele>
        <time>2021-09-18T10:16:18Z</time>
      </trkpt>
      <trkpt lat="45.52073" lon="4.73892">
        <ele>490.78</ele>
        <time>2021-09-18T10:16:19Z</time>
      </trkpt>
      <trkpt lat="45.52022" lon="4.73881">
        <ele>487.63</ele>
        <time>2021-09-18T10:16:24Z</time>
      </trkpt>
      <trkpt lat="45.52003" lon="4.73876">
        <ele>486.94</ele>
        <time>2021-09-18T10:16:26Z</time>
      </trkpt>
      <trkpt lat="45.51946" lon="4.73861">
        <ele>484.02</ele>
        <time>2021-09-18T10:16:32Z</time>
      </trkpt>
      <trkpt lat="45.51928" lon="4.7385">
        <ele>483.03</ele>
        <time>2021-09-18T10:16:34Z</time>
      </trkpt>
      <trkpt lat="45.5192" lon="4.73843">
        <ele>482.77</ele>
        <time>2021-09-18T10:16:35Z</time>
      </trkpt>
      <trkpt lat="45.51912" lon="4.73833">
        <ele>482.64</ele>
        <time>2021-09-18T10:16:36Z</time>
      </trkpt>
      <trkpt lat="45.51906" lon="4.73821">
        <ele>482.55</ele>
        <time>2021-09-18T10:16:37Z</time>
      </trkpt>
      <trkpt lat="45.51902" lon="4.73808">
        <ele>482.45</ele>
        <time>2021-09-18T10:16:38Z</time>
      </trkpt>
      <trkpt lat="45.51904" lon="4.73793">
        <ele>482.16</ele>
        <time>2021-09-18T10:16:39Z</time>
      </trkpt>
      <trkpt lat="45.51908" lon="4.73779">
        <ele>481.9</ele>
        <time>2021-09-18T10:16:40Z</time>
      </trkpt>
      <trkpt lat="45.51912" lon="4.73767">
        <ele>481.56</ele>
        <time>2021-09-18T10:16:41Z</time>
      </trkpt>
      <trkpt lat="45.51916" lon="4.73753">
        <ele>481.33</ele>
        <time>2021-09-18T10:16:42Z</time>
      </trkpt>
      <trkpt lat="45.51917" lon="4.7374">
        <ele>481.17</ele>
        <time>2021-09-18T10:16:43Z</time>
      </trkpt>
      <trkpt lat="45.51918" lon="4.73726">
        <ele>481</ele>
        <time>2021-09-18T10:16:44Z</time>
      </trkpt>
      <trkpt lat="45.51914" lon="4.7365">
        <ele>477.79</ele>
        <time>2021-09-18T10:16:49Z</time>
      </trkpt>
      <trkpt lat="45.51916" lon="4.73618">
        <ele>476.99</ele>
        <time>2021-09-18T10:16:51Z</time>
      </trkpt>
      <trkpt lat="45.51918" lon="4.73603">
        <ele>476.6</ele>
        <time>2021-09-18T10:16:52Z</time>
      </trkpt>
      <trkpt lat="45.51923" lon="4.73571">
        <ele>475.37</ele>
        <time>2021-09-18T10:16:54Z</time>
      </trkpt>
      <trkpt lat="45.51923" lon="4.73555">
        <ele>474.54</ele>
        <time>2021-09-18T10:16:55Z</time>
      </trkpt>
      <trkpt lat="45.51921" lon="4.7354">
        <ele>473.62</ele>
        <time>2021-09-18T10:16:56Z</time>
      </trkpt>
      <trkpt lat="45.51917" lon="4.73525">
        <ele>472.79</ele>
        <time>2021-09-18T10:16:57Z</time>
      </trkpt>
      <trkpt lat="45.51911" lon="4.73511">
        <ele>471.95</ele>
        <time>2021-09-18T10:16:58Z</time>
      </trkpt>
      <trkpt lat="45.51905" lon="4.73498">
        <ele>471.17</ele>
        <time>2021-09-18T10:16:59Z</time>
      </trkpt>
      <trkpt lat="45.51897" lon="4.73487">
        <ele>470.61</ele>
        <time>2021-09-18T10:17:00Z</time>
      </trkpt>
      <trkpt lat="45.51888" lon="4.73477">
        <ele>470.06</ele>
        <time>2021-09-18T10:17:01Z</time>
      </trkpt>
      <trkpt lat="45.51879" lon="4.73467">
        <ele>469.28</ele>
        <time>2021-09-18T10:17:02Z</time>
      </trkpt>
      <trkpt lat="45.5187" lon="4.73458">
        <ele>468.55</ele>
        <time>2021-09-18T10:17:03Z</time>
      </trkpt>
      <trkpt lat="45.51831" lon="4.73422">
        <ele>466.75</ele>
        <time>2021-09-18T10:17:07Z</time>
      </trkpt>
      <trkpt lat="45.51772" lon="4.73369">
        <ele>463.63</ele>
        <time>2021-09-18T10:17:13Z</time>
      </trkpt>
      <trkpt lat="45.51733" lon="4.73333">
        <ele>460.33</ele>
        <time>2021-09-18T10:17:17Z</time>
      </trkpt>
      <trkpt lat="45.51675" lon="4.7328">
        <ele>456.76</ele>
        <time>2021-09-18T10:17:23Z</time>
      </trkpt>
      <trkpt lat="45.51644" lon="4.73252">
        <ele>455.79</ele>
        <time>2021-09-18T10:17:26Z</time>
      </trkpt>
      <trkpt lat="45.51635" lon="4.73241">
        <ele>455.46</ele>
        <time>2021-09-18T10:17:27Z</time>
      </trkpt>
      <trkpt lat="45.51628" lon="4.73228">
        <ele>454.88</ele>
        <time>2021-09-18T10:17:28Z</time>
      </trkpt>
      <trkpt lat="45.51622" lon="4.73213">
        <ele>454.48</ele>
        <time>2021-09-18T10:17:29Z</time>
      </trkpt>
      <trkpt lat="45.51619" lon="4.73197">
        <ele>454.08</ele>
        <time>2021-09-18T10:17:30Z</time>
      </trkpt>
      <trkpt lat="45.51617" lon="4.7318">
        <ele>453.6</ele>
        <time>2021-09-18T10:17:31Z</time>
      </trkpt>
      <trkpt lat="45.51617" lon="4.73163">
        <ele>453.12</ele>
        <time>2021-09-18T10:17:32Z</time>
      </trkpt>
      <trkpt lat="45.51617" lon="4.73146">
        <ele>452.63</ele>
        <time>2021-09-18T10:17:33Z</time>
      </trkpt>
      <trkpt lat="45.51621" lon="4.7308">
        <ele>448.59</ele>
        <time>2021-09-18T10:17:37Z</time>
      </trkpt>
      <trkpt lat="45.51624" lon="4.73016">
        <ele>444.86</ele>
        <time>2021-09-18T10:17:41Z</time>
      </trkpt>
      <trkpt lat="45.51627" lon="4.72937">
        <ele>442.34</ele>
        <time>2021-09-18T10:17:46Z</time>
      </trkpt>
      <trkpt lat="45.51631" lon="4.72815">
        <ele>439.83</ele>
        <time>2021-09-18T10:17:54Z</time>
      </trkpt>
      <trkpt lat="45.51636" lon="4.72692">
        <ele>436.75</ele>
        <time>2021-09-18T10:18:03Z</time>
      </trkpt>
      <trkpt lat="45.51635" lon="4.72619">
        <ele>435.09</ele>
        <time>2021-09-18T10:18:09Z</time>
      </trkpt>
      <trkpt lat="45.51632" lon="4.72608">
        <ele>434.98</ele>
        <time>2021-09-18T10:18:10Z</time>
      </trkpt>
      <trkpt lat="45.51628" lon="4.72598">
        <ele>434.93</ele>
        <time>2021-09-18T10:18:11Z</time>
      </trkpt>
      <trkpt lat="45.51624" lon="4.72588">
        <ele>434.9</ele>
        <time>2021-09-18T10:18:12Z</time>
      </trkpt>
      <trkpt lat="45.51619" lon="4.7258">
        <ele>434.85</ele>
        <time>2021-09-18T10:18:13Z</time>
      </trkpt>
      <trkpt lat="45.51612" lon="4.72572">
        <ele>434.75</ele>
        <time>2021-09-18T10:18:14Z</time>
      </trkpt>
      <trkpt lat="45.51605" lon="4.72565">
        <ele>434.68</ele>
        <time>2021-09-18T10:18:15Z</time>
      </trkpt>
      <trkpt lat="45.51598" lon="4.72559">
        <ele>434.63</ele>
        <time>2021-09-18T10:18:16Z</time>
      </trkpt>
      <trkpt lat="45.51589" lon="4.72555">
        <ele>434.52</ele>
        <time>2021-09-18T10:18:17Z</time>
      </trkpt>
      <trkpt lat="45.51581" lon="4.72552">
        <ele>434.45</ele>
        <time>2021-09-18T10:18:18Z</time>
      </trkpt>
      <trkpt lat="45.51554" lon="4.72543">
        <ele>434.29</ele>
        <time>2021-09-18T10:18:21Z</time>
      </trkpt>
      <trkpt lat="45.51545" lon="4.72538">
        <ele>434.27</ele>
        <time>2021-09-18T10:18:22Z</time>
      </trkpt>
      <trkpt lat="45.51537" lon="4.72532">
        <ele>434.19</ele>
        <time>2021-09-18T10:18:23Z</time>
      </trkpt>
      <trkpt lat="45.51529" lon="4.72523">
        <ele>433.85</ele>
        <time>2021-09-18T10:18:24Z</time>
      </trkpt>
      <trkpt lat="45.51524" lon="4.72512">
        <ele>433.47</ele>
        <time>2021-09-18T10:18:25Z</time>
      </trkpt>
      <trkpt lat="45.51521" lon="4.72499">
        <ele>432.97</ele>
        <time>2021-09-18T10:18:26Z</time>
      </trkpt>
      <trkpt lat="45.5152" lon="4.72485">
        <ele>432.37</ele>
        <time>2021-09-18T10:18:27Z</time>
      </trkpt>
      <trkpt lat="45.51521" lon="4.7247">
        <ele>431.89</ele>
        <time>2021-09-18T10:18:28Z</time>
      </trkpt>
      <trkpt lat="45.51523" lon="4.72456">
        <ele>430.98</ele>
        <time>2021-09-18T10:18:29Z</time>
      </trkpt>
      <trkpt lat="45.51527" lon="4.72442">
        <ele>430.63</ele>
        <time>2021-09-18T10:18:30Z</time>
      </trkpt>
      <trkpt lat="45.51532" lon="4.72428">
        <ele>430.24</ele>
        <time>2021-09-18T10:18:31Z</time>
      </trkpt>
      <trkpt lat="45.51537" lon="4.72415">
        <ele>429.78</ele>
        <time>2021-09-18T10:18:32Z</time>
      </trkpt>
      <trkpt lat="45.51566" lon="4.72353">
        <ele>426.44</ele>
        <time>2021-09-18T10:18:37Z</time>
      </trkpt>
      <trkpt lat="45.51593" lon="4.72305">
        <ele>422.85</ele>
        <time>2021-09-18T10:18:41Z</time>
      </trkpt>
      <trkpt lat="45.51598" lon="4.72292">
        <ele>422.45</ele>
        <time>2021-09-18T10:18:42Z</time>
      </trkpt>
      <trkpt lat="45.516" lon="4.72278">
        <ele>422.09</ele>
        <time>2021-09-18T10:18:43Z</time>
      </trkpt>
      <trkpt lat="45.516" lon="4.72264">
        <ele>421.82</ele>
        <time>2021-09-18T10:18:44Z</time>
      </trkpt>
      <trkpt lat="45.51597" lon="4.72251">
        <ele>421.35</ele>
        <time>2021-09-18T10:18:45Z</time>
      </trkpt>
      <trkpt lat="45.51592" lon="4.72239">
        <ele>420.72</ele>
        <time>2021-09-18T10:18:46Z</time>
      </trkpt>
      <trkpt lat="45.51586" lon="4.72227">
        <ele>420.03</ele>
        <time>2021-09-18T10:18:47Z</time>
      </trkpt>
      <trkpt lat="45.51579" lon="4.72217">
        <ele>419.54</ele>
        <time>2021-09-18T10:18:48Z</time>
      </trkpt>
      <trkpt lat="45.51573" lon="4.72208">
        <ele>419</ele>
        <time>2021-09-18T10:18:49Z</time>
      </trkpt>
      <trkpt lat="45.51554" lon="4.72176">
        <ele>416.95</ele>
        <time>2021-09-18T10:18:53Z</time>
      </trkpt>
      <trkpt lat="45.51541" lon="4.72161">
        <ele>416.21</ele>
        <time>2021-09-18T10:18:57Z</time>
      </trkpt>
      <trkpt lat="45.5152" lon="4.72151">
        <ele>416.16</ele>
        <time>2021-09-18T10:19:04Z</time>
      </trkpt>
      <trkpt lat="45.515" lon="4.72139">
        <ele>416.58</ele>
        <time>2021-09-18T10:19:11Z</time>
      </trkpt>
      <trkpt lat="45.51471" lon="4.7213">
        <ele>417.84</ele>
        <time>2021-09-18T10:19:20Z</time>
      </trkpt>
      <trkpt lat="45.51449" lon="4.72126">
        <ele>418.89</ele>
        <time>2021-09-18T10:19:27Z</time>
      </trkpt>
      <trkpt lat="45.5142" lon="4.72121">
        <ele>419.92</ele>
        <time>2021-09-18T10:19:36Z</time>
      </trkpt>
      <trkpt lat="45.51385" lon="4.72121">
        <ele>421.52</ele>
        <time>2021-09-18T10:19:47Z</time>
      </trkpt>
      <trkpt lat="45.51363" lon="4.72128">
        <ele>422.18</ele>
        <time>2021-09-18T10:19:54Z</time>
      </trkpt>
      <trkpt lat="45.51357" lon="4.7213">
        <ele>422.5</ele>
        <time>2021-09-18T10:19:56Z</time>
      </trkpt>
      <trkpt lat="45.51354" lon="4.72131">
        <ele>422.66</ele>
        <time>2021-09-18T10:19:57Z</time>
      </trkpt>
      <trkpt lat="45.51351" lon="4.72132">
        <ele>422.78</ele>
        <time>2021-09-18T10:19:58Z</time>
      </trkpt>
      <trkpt lat="45.51348" lon="4.72132">
        <ele>422.86</ele>
        <time>2021-09-18T10:19:59Z</time>
      </trkpt>
      <trkpt lat="45.51345" lon="4.72133">
        <ele>422.95</ele>
        <time>2021-09-18T10:20:00Z</time>
      </trkpt>
      <trkpt lat="45.51342" lon="4.72134">
        <ele>423.01</ele>
        <time>2021-09-18T10:20:01Z</time>
      </trkpt>
      <trkpt lat="45.5134" lon="4.72135">
        <ele>423.05</ele>
        <time>2021-09-18T10:20:02Z</time>
      </trkpt>
      <trkpt lat="45.51337" lon="4.72136">
        <ele>423.19</ele>
        <time>2021-09-18T10:20:03Z</time>
      </trkpt>
      <trkpt lat="45.51316" lon="4.72139">
        <ele>424.07</ele>
        <time>2021-09-18T10:20:10Z</time>
      </trkpt>
      <trkpt lat="45.5131" lon="4.7214">
        <ele>424.36</ele>
        <time>2021-09-18T10:20:12Z</time>
      </trkpt>
      <trkpt lat="45.51307" lon="4.7214">
        <ele>424.74</ele>
        <time>2021-09-18T10:20:13Z</time>
      </trkpt>
      <trkpt lat="45.51304" lon="4.72141">
        <ele>424.86</ele>
        <time>2021-09-18T10:20:14Z</time>
      </trkpt>
      <trkpt lat="45.51301" lon="4.72142">
        <ele>424.98</ele>
        <time>2021-09-18T10:20:15Z</time>
      </trkpt>
      <trkpt lat="45.51298" lon="4.72142">
        <ele>425.16</ele>
        <time>2021-09-18T10:20:16Z</time>
      </trkpt>
      <trkpt lat="45.51295" lon="4.72143">
        <ele>425.25</ele>
        <time>2021-09-18T10:20:17Z</time>
      </trkpt>
      <trkpt lat="45.51292" lon="4.72143">
        <ele>425.34</ele>
        <time>2021-09-18T10:20:18Z</time>
      </trkpt>
      <trkpt lat="45.51289" lon="4.72144">
        <ele>425.45</ele>
        <time>2021-09-18T10:20:19Z</time>
      </trkpt>
      <trkpt lat="45.51286" lon="4.72144">
        <ele>425.51</ele>
        <time>2021-09-18T10:20:20Z</time>
      </trkpt>
      <trkpt lat="45.51283" lon="4.72145">
        <ele>425.58</ele>
        <time>2021-09-18T10:20:21Z</time>
      </trkpt>
      <trkpt lat="45.51256" lon="4.72147">
        <ele>426.5</ele>
        <time>2021-09-18T10:20:30Z</time>
      </trkpt>
      <trkpt lat="45.51235" lon="4.72153">
        <ele>427.56</ele>
        <time>2021-09-18T10:20:37Z</time>
      </trkpt>
      <trkpt lat="45.51215" lon="4.72161">
        <ele>428.79</ele>
        <time>2021-09-18T10:20:44Z</time>
      </trkpt>
      <trkpt lat="45.512" lon="4.72171">
        <ele>429.42</ele>
        <time>2021-09-18T10:20:50Z</time>
      </trkpt>
      <trkpt lat="45.51183" lon="4.72181">
        <ele>429.96</ele>
        <time>2021-09-18T10:20:56Z</time>
      </trkpt>
      <trkpt lat="45.51155" lon="4.72197">
        <ele>430.71</ele>
        <time>2021-09-18T10:21:06Z</time>
      </trkpt>
      <trkpt lat="45.51129" lon="4.72213">
        <ele>431.53</ele>
        <time>2021-09-18T10:21:15Z</time>
      </trkpt>
      <trkpt lat="45.51101" lon="4.72226">
        <ele>432.46</ele>
        <time>2021-09-18T10:21:24Z</time>
      </trkpt>
      <trkpt lat="45.51067" lon="4.72237">
        <ele>434.24</ele>
        <time>2021-09-18T10:21:35Z</time>
      </trkpt>
      <trkpt lat="45.51041" lon="4.72231">
        <ele>435.75</ele>
        <time>2021-09-18T10:21:43Z</time>
      </trkpt>
      <trkpt lat="45.51026" lon="4.72213">
        <ele>436.34</ele>
        <time>2021-09-18T10:21:49Z</time>
      </trkpt>
      <trkpt lat="45.5102" lon="4.72175">
        <ele>437.73</ele>
        <time>2021-09-18T10:21:58Z</time>
      </trkpt>
      <trkpt lat="45.51016" lon="4.72145">
        <ele>439.02</ele>
        <time>2021-09-18T10:22:05Z</time>
      </trkpt>
      <trkpt lat="45.51004" lon="4.72122">
        <ele>439.39</ele>
        <time>2021-09-18T10:22:12Z</time>
      </trkpt>
      <trkpt lat="45.51" lon="4.72117">
        <ele>439.42</ele>
        <time>2021-09-18T10:22:14Z</time>
      </trkpt>
      <trkpt lat="45.50997" lon="4.72115">
        <ele>439.45</ele>
        <time>2021-09-18T10:22:15Z</time>
      </trkpt>
      <trkpt lat="45.50988" lon="4.72111">
        <ele>439.57</ele>
        <time>2021-09-18T10:22:19Z</time>
      </trkpt>
      <trkpt lat="45.50985" lon="4.72111">
        <ele>439.59</ele>
        <time>2021-09-18T10:22:20Z</time>
      </trkpt>
      <trkpt lat="45.50982" lon="4.72111">
        <ele>439.64</ele>
        <time>2021-09-18T10:22:21Z</time>
      </trkpt>
      <trkpt lat="45.50979" lon="4.72111">
        <ele>439.7</ele>
        <time>2021-09-18T10:22:22Z</time>
      </trkpt>
      <trkpt lat="45.50976" lon="4.72111">
        <ele>439.84</ele>
        <time>2021-09-18T10:22:23Z</time>
      </trkpt>
      <trkpt lat="45.50974" lon="4.72111">
        <ele>439.96</ele>
        <time>2021-09-18T10:22:24Z</time>
      </trkpt>
      <trkpt lat="45.50971" lon="4.72112">
        <ele>440.14</ele>
        <time>2021-09-18T10:22:25Z</time>
      </trkpt>
      <trkpt lat="45.50968" lon="4.72113">
        <ele>440.38</ele>
        <time>2021-09-18T10:22:26Z</time>
      </trkpt>
      <trkpt lat="45.50965" lon="4.72113">
        <ele>440.64</ele>
        <time>2021-09-18T10:22:27Z</time>
      </trkpt>
      <trkpt lat="45.50963" lon="4.72114">
        <ele>440.83</ele>
        <time>2021-09-18T10:22:28Z</time>
      </trkpt>
      <trkpt lat="45.5096" lon="4.72115">
        <ele>440.94</ele>
        <time>2021-09-18T10:22:29Z</time>
      </trkpt>
      <trkpt lat="45.50957" lon="4.72117">
        <ele>441.05</ele>
        <time>2021-09-18T10:22:30Z</time>
      </trkpt>
      <trkpt lat="45.50955" lon="4.72118">
        <ele>441.15</ele>
        <time>2021-09-18T10:22:31Z</time>
      </trkpt>
      <trkpt lat="45.50952" lon="4.7212">
        <ele>441.22</ele>
        <time>2021-09-18T10:22:32Z</time>
      </trkpt>
      <trkpt lat="45.50934" lon="4.72132">
        <ele>442.3</ele>
        <time>2021-09-18T10:22:39Z</time>
      </trkpt>
      <trkpt lat="45.50919" lon="4.72144">
        <ele>443.19</ele>
        <time>2021-09-18T10:22:45Z</time>
      </trkpt>
      <trkpt lat="45.50905" lon="4.72157">
        <ele>443.66</ele>
        <time>2021-09-18T10:22:51Z</time>
      </trkpt>
      <trkpt lat="45.5089" lon="4.72172">
        <ele>444.43</ele>
        <time>2021-09-18T10:22:57Z</time>
      </trkpt>
      <trkpt lat="45.50867" lon="4.72197">
        <ele>445.72</ele>
        <time>2021-09-18T10:23:07Z</time>
      </trkpt>
      <trkpt lat="45.50844" lon="4.72218">
        <ele>446.34</ele>
        <time>2021-09-18T10:23:16Z</time>
      </trkpt>
      <trkpt lat="45.50816" lon="4.72233">
        <ele>447.35</ele>
        <time>2021-09-18T10:23:26Z</time>
      </trkpt>
      <trkpt lat="45.50785" lon="4.72242">
        <ele>448.16</ele>
        <time>2021-09-18T10:23:36Z</time>
      </trkpt>
      <trkpt lat="45.50754" lon="4.72241">
        <ele>448.68</ele>
        <time>2021-09-18T10:23:44Z</time>
      </trkpt>
      <trkpt lat="45.5075" lon="4.72239">
        <ele>448.74</ele>
        <time>2021-09-18T10:23:45Z</time>
      </trkpt>
      <trkpt lat="45.50734" lon="4.72227">
        <ele>448.78</ele>
        <time>2021-09-18T10:23:49Z</time>
      </trkpt>
      <trkpt lat="45.5073" lon="4.72223">
        <ele>448.78</ele>
        <time>2021-09-18T10:23:50Z</time>
      </trkpt>
      <trkpt lat="45.50707" lon="4.72182">
        <ele>448.7</ele>
        <time>2021-09-18T10:23:57Z</time>
      </trkpt>
      <trkpt lat="45.507" lon="4.72159">
        <ele>448.42</ele>
        <time>2021-09-18T10:24:00Z</time>
      </trkpt>
      <trkpt lat="45.50699" lon="4.72151">
        <ele>448.24</ele>
        <time>2021-09-18T10:24:01Z</time>
      </trkpt>
      <trkpt lat="45.50696" lon="4.72076">
        <ele>446.37</ele>
        <time>2021-09-18T10:24:09Z</time>
      </trkpt>
      <trkpt lat="45.50695" lon="4.72024">
        <ele>445.56</ele>
        <time>2021-09-18T10:24:14Z</time>
      </trkpt>
      <trkpt lat="45.50695" lon="4.72014">
        <ele>445.45</ele>
        <time>2021-09-18T10:24:15Z</time>
      </trkpt>
      <trkpt lat="45.50693" lon="4.72004">
        <ele>445.19</ele>
        <time>2021-09-18T10:24:16Z</time>
      </trkpt>
      <trkpt lat="45.50689" lon="4.71996">
        <ele>444.91</ele>
        <time>2021-09-18T10:24:17Z</time>
      </trkpt>
      <trkpt lat="45.50685" lon="4.7199">
        <ele>444.58</ele>
        <time>2021-09-18T10:24:18Z</time>
      </trkpt>
      <trkpt lat="45.50679" lon="4.71987">
        <ele>444.23</ele>
        <time>2021-09-18T10:24:19Z</time>
      </trkpt>
      <trkpt lat="45.50674" lon="4.71986">
        <ele>443.87</ele>
        <time>2021-09-18T10:24:20Z</time>
      </trkpt>
      <trkpt lat="45.50669" lon="4.71986">
        <ele>443.63</ele>
        <time>2021-09-18T10:24:21Z</time>
      </trkpt>
      <trkpt lat="45.50665" lon="4.71987">
        <ele>443.51</ele>
        <time>2021-09-18T10:24:22Z</time>
      </trkpt>
      <trkpt lat="45.50661" lon="4.71989">
        <ele>443.45</ele>
        <time>2021-09-18T10:24:23Z</time>
      </trkpt>
      <trkpt lat="45.50657" lon="4.71991">
        <ele>443.43</ele>
        <time>2021-09-18T10:24:24Z</time>
      </trkpt>
      <trkpt lat="45.50634" lon="4.72007">
        <ele>444.01</ele>
        <time>2021-09-18T10:24:31Z</time>
      </trkpt>
      <trkpt lat="45.50601" lon="4.72026">
        <ele>446.63</ele>
        <time>2021-09-18T10:24:41Z</time>
      </trkpt>
      <trkpt lat="45.50567" lon="4.7203">
        <ele>447.86</ele>
        <time>2021-09-18T10:24:50Z</time>
      </trkpt>
      <trkpt lat="45.50534" lon="4.72014">
        <ele>449.6</ele>
        <time>2021-09-18T10:24:59Z</time>
      </trkpt>
      <trkpt lat="45.50521" lon="4.71989">
        <ele>450.14</ele>
        <time>2021-09-18T10:25:05Z</time>
      </trkpt>
      <trkpt lat="45.50502" lon="4.71948">
        <ele>451.13</ele>
        <time>2021-09-18T10:25:15Z</time>
      </trkpt>
      <trkpt lat="45.50488" lon="4.71936">
        <ele>451.68</ele>
        <time>2021-09-18T10:25:20Z</time>
      </trkpt>
      <trkpt lat="45.50463" lon="4.71938">
        <ele>452.41</ele>
        <time>2021-09-18T10:25:27Z</time>
      </trkpt>
      <trkpt lat="45.50434" lon="4.71964">
        <ele>453.07</ele>
        <time>2021-09-18T10:25:36Z</time>
      </trkpt>
      <trkpt lat="45.50412" lon="4.71981">
        <ele>453.65</ele>
        <time>2021-09-18T10:25:43Z</time>
      </trkpt>
      <trkpt lat="45.50385" lon="4.71988">
        <ele>454.88</ele>
        <time>2021-09-18T10:25:50Z</time>
      </trkpt>
      <trkpt lat="45.5037" lon="4.71985">
        <ele>455.3</ele>
        <time>2021-09-18T10:25:54Z</time>
      </trkpt>
      <trkpt lat="45.50366" lon="4.71982">
        <ele>455.34</ele>
        <time>2021-09-18T10:25:55Z</time>
      </trkpt>
      <trkpt lat="45.50362" lon="4.7198">
        <ele>455.38</ele>
        <time>2021-09-18T10:25:56Z</time>
      </trkpt>
      <trkpt lat="45.50359" lon="4.71976">
        <ele>455.44</ele>
        <time>2021-09-18T10:25:57Z</time>
      </trkpt>
      <trkpt lat="45.50356" lon="4.71972">
        <ele>455.57</ele>
        <time>2021-09-18T10:25:58Z</time>
      </trkpt>
      <trkpt lat="45.50353" lon="4.71967">
        <ele>455.72</ele>
        <time>2021-09-18T10:25:59Z</time>
      </trkpt>
      <trkpt lat="45.50351" lon="4.71962">
        <ele>455.86</ele>
        <time>2021-09-18T10:26:00Z</time>
      </trkpt>
      <trkpt lat="45.50349" lon="4.71956">
        <ele>455.99</ele>
        <time>2021-09-18T10:26:01Z</time>
      </trkpt>
      <trkpt lat="45.50347" lon="4.7195">
        <ele>456.06</ele>
        <time>2021-09-18T10:26:02Z</time>
      </trkpt>
      <trkpt lat="45.50345" lon="4.71944">
        <ele>456.1</ele>
        <time>2021-09-18T10:26:03Z</time>
      </trkpt>
      <trkpt lat="45.50344" lon="4.71938">
        <ele>456.2</ele>
        <time>2021-09-18T10:26:04Z</time>
      </trkpt>
      <trkpt lat="45.50336" lon="4.71888">
        <ele>456.31</ele>
        <time>2021-09-18T10:26:11Z</time>
      </trkpt>
      <trkpt lat="45.50335" lon="4.71832">
        <ele>455.6</ele>
        <time>2021-09-18T10:26:17Z</time>
      </trkpt>
      <trkpt lat="45.50333" lon="4.71823">
        <ele>455.18</ele>
        <time>2021-09-18T10:26:18Z</time>
      </trkpt>
      <trkpt lat="45.50329" lon="4.71815">
        <ele>454.68</ele>
        <time>2021-09-18T10:26:19Z</time>
      </trkpt>
      <trkpt lat="45.50324" lon="4.71811">
        <ele>454.27</ele>
        <time>2021-09-18T10:26:20Z</time>
      </trkpt>
      <trkpt lat="45.50317" lon="4.71811">
        <ele>453.82</ele>
        <time>2021-09-18T10:26:21Z</time>
      </trkpt>
      <trkpt lat="45.50311" lon="4.71812">
        <ele>453.37</ele>
        <time>2021-09-18T10:26:22Z</time>
      </trkpt>
      <trkpt lat="45.50306" lon="4.71816">
        <ele>452.92</ele>
        <time>2021-09-18T10:26:23Z</time>
      </trkpt>
      <trkpt lat="45.50301" lon="4.7182">
        <ele>452.68</ele>
        <time>2021-09-18T10:26:24Z</time>
      </trkpt>
      <trkpt lat="45.5027" lon="4.71848">
        <ele>452.45</ele>
        <time>2021-09-18T10:26:31Z</time>
      </trkpt>
      <trkpt lat="45.50247" lon="4.71867">
        <ele>453.22</ele>
        <time>2021-09-18T10:26:36Z</time>
      </trkpt>
      <trkpt lat="45.50242" lon="4.71869">
        <ele>453.32</ele>
        <time>2021-09-18T10:26:37Z</time>
      </trkpt>
      <trkpt lat="45.50237" lon="4.71871">
        <ele>453.37</ele>
        <time>2021-09-18T10:26:38Z</time>
      </trkpt>
      <trkpt lat="45.50232" lon="4.71871">
        <ele>453.54</ele>
        <time>2021-09-18T10:26:39Z</time>
      </trkpt>
      <trkpt lat="45.50227" lon="4.71871">
        <ele>453.64</ele>
        <time>2021-09-18T10:26:40Z</time>
      </trkpt>
      <trkpt lat="45.50222" lon="4.7187">
        <ele>453.73</ele>
        <time>2021-09-18T10:26:41Z</time>
      </trkpt>
      <trkpt lat="45.50217" lon="4.71868">
        <ele>453.93</ele>
        <time>2021-09-18T10:26:42Z</time>
      </trkpt>
      <trkpt lat="45.50212" lon="4.71866">
        <ele>454.06</ele>
        <time>2021-09-18T10:26:43Z</time>
      </trkpt>
      <trkpt lat="45.50202" lon="4.71859">
        <ele>454.3</ele>
        <time>2021-09-18T10:26:45Z</time>
      </trkpt>
      <trkpt lat="45.50197" lon="4.71855">
        <ele>454.42</ele>
        <time>2021-09-18T10:26:46Z</time>
      </trkpt>
      <trkpt lat="45.50188" lon="4.71846">
        <ele>454.63</ele>
        <time>2021-09-18T10:26:48Z</time>
      </trkpt>
      <trkpt lat="45.50157" lon="4.71805">
        <ele>454.7</ele>
        <time>2021-09-18T10:26:56Z</time>
      </trkpt>
      <trkpt lat="45.50152" lon="4.71802">
        <ele>454.7</ele>
        <time>2021-09-18T10:26:57Z</time>
      </trkpt>
      <trkpt lat="45.50147" lon="4.718">
        <ele>454.66</ele>
        <time>2021-09-18T10:26:58Z</time>
      </trkpt>
      <trkpt lat="45.50143" lon="4.71801">
        <ele>454.47</ele>
        <time>2021-09-18T10:26:59Z</time>
      </trkpt>
      <trkpt lat="45.50139" lon="4.71804">
        <ele>454.38</ele>
        <time>2021-09-18T10:27:00Z</time>
      </trkpt>
      <trkpt lat="45.50136" lon="4.71809">
        <ele>454.33</ele>
        <time>2021-09-18T10:27:01Z</time>
      </trkpt>
      <trkpt lat="45.50134" lon="4.71814">
        <ele>454.31</ele>
        <time>2021-09-18T10:27:02Z</time>
      </trkpt>
      <trkpt lat="45.50132" lon="4.71821">
        <ele>454.3</ele>
        <time>2021-09-18T10:27:03Z</time>
      </trkpt>
      <trkpt lat="45.50131" lon="4.71828">
        <ele>454.29</ele>
        <time>2021-09-18T10:27:04Z</time>
      </trkpt>
      <trkpt lat="45.50129" lon="4.71872">
        <ele>454.91</ele>
        <time>2021-09-18T10:27:10Z</time>
      </trkpt>
      <trkpt lat="45.50128" lon="4.71879">
        <ele>455.15</ele>
        <time>2021-09-18T10:27:11Z</time>
      </trkpt>
      <trkpt lat="45.50127" lon="4.71886">
        <ele>455.3</ele>
        <time>2021-09-18T10:27:12Z</time>
      </trkpt>
      <trkpt lat="45.50125" lon="4.71892">
        <ele>455.4</ele>
        <time>2021-09-18T10:27:13Z</time>
      </trkpt>
      <trkpt lat="45.50122" lon="4.71899">
        <ele>455.52</ele>
        <time>2021-09-18T10:27:14Z</time>
      </trkpt>
      <trkpt lat="45.50119" lon="4.71904">
        <ele>455.66</ele>
        <time>2021-09-18T10:27:15Z</time>
      </trkpt>
      <trkpt lat="45.50116" lon="4.71909">
        <ele>455.74</ele>
        <time>2021-09-18T10:27:16Z</time>
      </trkpt>
      <trkpt lat="45.50112" lon="4.71913">
        <ele>455.96</ele>
        <time>2021-09-18T10:27:17Z</time>
      </trkpt>
      <trkpt lat="45.50107" lon="4.71916">
        <ele>456.14</ele>
        <time>2021-09-18T10:27:18Z</time>
      </trkpt>
      <trkpt lat="45.50103" lon="4.71919">
        <ele>456.36</ele>
        <time>2021-09-18T10:27:19Z</time>
      </trkpt>
      <trkpt lat="45.50098" lon="4.7192">
        <ele>456.49</ele>
        <time>2021-09-18T10:27:20Z</time>
      </trkpt>
      <trkpt lat="45.50093" lon="4.7192">
        <ele>456.61</ele>
        <time>2021-09-18T10:27:21Z</time>
      </trkpt>
      <trkpt lat="45.50088" lon="4.7192">
        <ele>456.84</ele>
        <time>2021-09-18T10:27:22Z</time>
      </trkpt>
      <trkpt lat="45.50074" lon="4.7192">
        <ele>457.37</ele>
        <time>2021-09-18T10:27:25Z</time>
      </trkpt>
      <trkpt lat="45.5007" lon="4.7192">
        <ele>457.61</ele>
        <time>2021-09-18T10:27:26Z</time>
      </trkpt>
      <trkpt lat="45.50065" lon="4.71922">
        <ele>457.82</ele>
        <time>2021-09-18T10:27:27Z</time>
      </trkpt>
      <trkpt lat="45.50046" lon="4.71939">
        <ele>459.26</ele>
        <time>2021-09-18T10:27:33Z</time>
      </trkpt>
      <trkpt lat="45.50039" lon="4.71968">
        <ele>460.32</ele>
        <time>2021-09-18T10:27:39Z</time>
      </trkpt>
      <trkpt lat="45.50044" lon="4.72002">
        <ele>461.43</ele>
        <time>2021-09-18T10:27:46Z</time>
      </trkpt>
      <trkpt lat="45.50049" lon="4.72047">
        <ele>462.36</ele>
        <time>2021-09-18T10:27:55Z</time>
      </trkpt>
      <trkpt lat="45.50039" lon="4.72075">
        <ele>463.07</ele>
        <time>2021-09-18T10:28:01Z</time>
      </trkpt>
      <trkpt lat="45.50017" lon="4.72112">
        <ele>464.1</ele>
        <time>2021-09-18T10:28:10Z</time>
      </trkpt>
      <trkpt lat="45.49986" lon="4.72149">
        <ele>465.91</ele>
        <time>2021-09-18T10:28:20Z</time>
      </trkpt>
      <trkpt lat="45.49968" lon="4.72167">
        <ele>466.08</ele>
        <time>2021-09-18T10:28:25Z</time>
      </trkpt>
      <trkpt lat="45.49948" lon="4.72184">
        <ele>466.33</ele>
        <time>2021-09-18T10:28:30Z</time>
      </trkpt>
      <trkpt lat="45.49925" lon="4.72201">
        <ele>466.78</ele>
        <time>2021-09-18T10:28:36Z</time>
      </trkpt>
      <trkpt lat="45.49921" lon="4.72203">
        <ele>466.84</ele>
        <time>2021-09-18T10:28:37Z</time>
      </trkpt>
      <trkpt lat="45.49917" lon="4.72205">
        <ele>466.87</ele>
        <time>2021-09-18T10:28:38Z</time>
      </trkpt>
      <trkpt lat="45.49883" lon="4.72208">
        <ele>467.79</ele>
        <time>2021-09-18T10:28:47Z</time>
      </trkpt>
      <trkpt lat="45.49859" lon="4.72205">
        <ele>468.71</ele>
        <time>2021-09-18T10:28:54Z</time>
      </trkpt>
      <trkpt lat="45.49832" lon="4.72204">
        <ele>470.41</ele>
        <time>2021-09-18T10:29:03Z</time>
      </trkpt>
      <trkpt lat="45.49826" lon="4.72204">
        <ele>470.72</ele>
        <time>2021-09-18T10:29:05Z</time>
      </trkpt>
      <trkpt lat="45.49823" lon="4.72204">
        <ele>470.84</ele>
        <time>2021-09-18T10:29:06Z</time>
      </trkpt>
      <trkpt lat="45.49821" lon="4.72204">
        <ele>470.92</ele>
        <time>2021-09-18T10:29:07Z</time>
      </trkpt>
      <trkpt lat="45.49818" lon="4.72203">
        <ele>471.04</ele>
        <time>2021-09-18T10:29:08Z</time>
      </trkpt>
      <trkpt lat="45.49815" lon="4.72204">
        <ele>471.29</ele>
        <time>2021-09-18T10:29:09Z</time>
      </trkpt>
      <trkpt lat="45.49801" lon="4.72203">
        <ele>472.47</ele>
        <time>2021-09-18T10:29:14Z</time>
      </trkpt>
      <trkpt lat="45.49787" lon="4.72204">
        <ele>473.08</ele>
        <time>2021-09-18T10:29:19Z</time>
      </trkpt>
      <trkpt lat="45.49784" lon="4.72203">
        <ele>473.19</ele>
        <time>2021-09-18T10:29:20Z</time>
      </trkpt>
      <trkpt lat="45.49781" lon="4.72203">
        <ele>473.25</ele>
        <time>2021-09-18T10:29:21Z</time>
      </trkpt>
      <trkpt lat="45.49778" lon="4.72202">
        <ele>473.35</ele>
        <time>2021-09-18T10:29:22Z</time>
      </trkpt>
      <trkpt lat="45.49775" lon="4.72202">
        <ele>473.49</ele>
        <time>2021-09-18T10:29:23Z</time>
      </trkpt>
      <trkpt lat="45.49772" lon="4.72202">
        <ele>473.61</ele>
        <time>2021-09-18T10:29:24Z</time>
      </trkpt>
      <trkpt lat="45.49769" lon="4.72201">
        <ele>473.7</ele>
        <time>2021-09-18T10:29:25Z</time>
      </trkpt>
      <trkpt lat="45.49766" lon="4.72201">
        <ele>473.82</ele>
        <time>2021-09-18T10:29:26Z</time>
      </trkpt>
      <trkpt lat="45.49763" lon="4.72201">
        <ele>473.94</ele>
        <time>2021-09-18T10:29:27Z</time>
      </trkpt>
      <trkpt lat="45.4976" lon="4.722">
        <ele>474.02</ele>
        <time>2021-09-18T10:29:28Z</time>
      </trkpt>
      <trkpt lat="45.49757" lon="4.722">
        <ele>474.1</ele>
        <time>2021-09-18T10:29:29Z</time>
      </trkpt>
      <trkpt lat="45.49725" lon="4.72195">
        <ele>475.63</ele>
        <time>2021-09-18T10:29:40Z</time>
      </trkpt>
      <trkpt lat="45.49701" lon="4.72189">
        <ele>476.64</ele>
        <time>2021-09-18T10:29:48Z</time>
      </trkpt>
      <trkpt lat="45.49675" lon="4.72182">
        <ele>477.41</ele>
        <time>2021-09-18T10:29:57Z</time>
      </trkpt>
      <trkpt lat="45.49649" lon="4.72165">
        <ele>478.41</ele>
        <time>2021-09-18T10:30:06Z</time>
      </trkpt>
      <trkpt lat="45.49641" lon="4.72149">
        <ele>478.91</ele>
        <time>2021-09-18T10:30:13Z</time>
      </trkpt>
      <trkpt lat="45.49634" lon="4.72129">
        <ele>479.49</ele>
        <time>2021-09-18T10:30:19Z</time>
      </trkpt>
      <trkpt lat="45.49627" lon="4.72093">
        <ele>479.68</ele>
        <time>2021-09-18T10:30:27Z</time>
      </trkpt>
      <trkpt lat="45.49622" lon="4.72054">
        <ele>480.29</ele>
        <time>2021-09-18T10:30:37Z</time>
      </trkpt>
      <trkpt lat="45.49618" lon="4.72018">
        <ele>480.35</ele>
        <time>2021-09-18T10:30:44Z</time>
      </trkpt>
      <trkpt lat="45.49607" lon="4.7197">
        <ele>480.25</ele>
        <time>2021-09-18T10:30:52Z</time>
      </trkpt>
      <trkpt lat="45.49587" lon="4.71926">
        <ele>479.41</ele>
        <time>2021-09-18T10:31:00Z</time>
      </trkpt>
      <trkpt lat="45.49571" lon="4.7187">
        <ele>479.18</ele>
        <time>2021-09-18T10:31:08Z</time>
      </trkpt>
      <trkpt lat="45.49569" lon="4.71864">
        <ele>479.06</ele>
        <time>2021-09-18T10:31:09Z</time>
      </trkpt>
      <trkpt lat="45.49567" lon="4.71857">
        <ele>478.93</ele>
        <time>2021-09-18T10:31:10Z</time>
      </trkpt>
      <trkpt lat="45.49564" lon="4.71852">
        <ele>478.8</ele>
        <time>2021-09-18T10:31:11Z</time>
      </trkpt>
      <trkpt lat="45.49561" lon="4.71846">
        <ele>478.72</ele>
        <time>2021-09-18T10:31:12Z</time>
      </trkpt>
      <trkpt lat="45.49558" lon="4.71841">
        <ele>478.64</ele>
        <time>2021-09-18T10:31:13Z</time>
      </trkpt>
      <trkpt lat="45.49554" lon="4.71836">
        <ele>478.59</ele>
        <time>2021-09-18T10:31:14Z</time>
      </trkpt>
      <trkpt lat="45.49522" lon="4.71799">
        <ele>478.18</ele>
        <time>2021-09-18T10:31:23Z</time>
      </trkpt>
      <trkpt lat="45.49493" lon="4.7175">
        <ele>477.35</ele>
        <time>2021-09-18T10:31:33Z</time>
      </trkpt>
      <trkpt lat="45.49465" lon="4.71696">
        <ele>476.87</ele>
        <time>2021-09-18T10:31:44Z</time>
      </trkpt>
      <trkpt lat="45.49451" lon="4.71679">
        <ele>476.7</ele>
        <time>2021-09-18T10:31:48Z</time>
      </trkpt>
      <trkpt lat="45.49447" lon="4.71676">
        <ele>476.59</ele>
        <time>2021-09-18T10:31:49Z</time>
      </trkpt>
      <trkpt lat="45.49443" lon="4.71673">
        <ele>476.52</ele>
        <time>2021-09-18T10:31:50Z</time>
      </trkpt>
      <trkpt lat="45.49439" lon="4.71672">
        <ele>476.38</ele>
        <time>2021-09-18T10:31:51Z</time>
      </trkpt>
      <trkpt lat="45.49435" lon="4.71671">
        <ele>476.36</ele>
        <time>2021-09-18T10:31:52Z</time>
      </trkpt>
      <trkpt lat="45.4943" lon="4.7167">
        <ele>476.35</ele>
        <time>2021-09-18T10:31:53Z</time>
      </trkpt>
      <trkpt lat="45.49426" lon="4.71671">
        <ele>476.35</ele>
        <time>2021-09-18T10:31:54Z</time>
      </trkpt>
      <trkpt lat="45.49422" lon="4.71673">
        <ele>476.35</ele>
        <time>2021-09-18T10:31:55Z</time>
      </trkpt>
      <trkpt lat="45.49418" lon="4.71675">
        <ele>476.35</ele>
        <time>2021-09-18T10:31:56Z</time>
      </trkpt>
      <trkpt lat="45.49414" lon="4.71679">
        <ele>476.35</ele>
        <time>2021-09-18T10:31:57Z</time>
      </trkpt>
      <trkpt lat="45.49396" lon="4.71703">
        <ele>476.61</ele>
        <time>2021-09-18T10:32:03Z</time>
      </trkpt>
      <trkpt lat="45.49374" lon="4.71728">
        <ele>477.79</ele>
        <time>2021-09-18T10:32:11Z</time>
      </trkpt>
      <trkpt lat="45.49348" lon="4.71736">
        <ele>479.43</ele>
        <time>2021-09-18T10:32:19Z</time>
      </trkpt>
      <trkpt lat="45.49321" lon="4.71745">
        <ele>480.4</ele>
        <time>2021-09-18T10:32:27Z</time>
      </trkpt>
      <trkpt lat="45.49304" lon="4.71763">
        <ele>481.38</ele>
        <time>2021-09-18T10:32:33Z</time>
      </trkpt>
      <trkpt lat="45.49289" lon="4.71789">
        <ele>481.69</ele>
        <time>2021-09-18T10:32:39Z</time>
      </trkpt>
      <trkpt lat="45.49277" lon="4.71817">
        <ele>481.69</ele>
        <time>2021-09-18T10:32:44Z</time>
      </trkpt>
      <trkpt lat="45.49272" lon="4.71829">
        <ele>481.65</ele>
        <time>2021-09-18T10:32:46Z</time>
      </trkpt>
      <trkpt lat="45.49245" lon="4.71883">
        <ele>481.11</ele>
        <time>2021-09-18T10:32:54Z</time>
      </trkpt>
      <trkpt lat="45.49204" lon="4.71943">
        <ele>478.82</ele>
        <time>2021-09-18T10:33:02Z</time>
      </trkpt>
      <trkpt lat="45.4919" lon="4.71955">
        <ele>477.92</ele>
        <time>2021-09-18T10:33:04Z</time>
      </trkpt>
      <trkpt lat="45.49183" lon="4.7196">
        <ele>477.46</ele>
        <time>2021-09-18T10:33:05Z</time>
      </trkpt>
      <trkpt lat="45.49175" lon="4.71963">
        <ele>476.91</ele>
        <time>2021-09-18T10:33:06Z</time>
      </trkpt>
      <trkpt lat="45.4916" lon="4.71968">
        <ele>476.09</ele>
        <time>2021-09-18T10:33:08Z</time>
      </trkpt>
      <trkpt lat="45.49086" lon="4.71986">
        <ele>473.18</ele>
        <time>2021-09-18T10:33:18Z</time>
      </trkpt>
      <trkpt lat="45.49028" lon="4.72">
        <ele>472.34</ele>
        <time>2021-09-18T10:33:27Z</time>
      </trkpt>
      <trkpt lat="45.48971" lon="4.72013">
        <ele>472.04</ele>
        <time>2021-09-18T10:33:36Z</time>
      </trkpt>
      <trkpt lat="45.48915" lon="4.72034">
        <ele>470.25</ele>
        <time>2021-09-18T10:33:45Z</time>
      </trkpt>
      <trkpt lat="45.4891" lon="4.72038">
        <ele>470.09</ele>
        <time>2021-09-18T10:33:46Z</time>
      </trkpt>
      <trkpt lat="45.48905" lon="4.72043">
        <ele>469.96</ele>
        <time>2021-09-18T10:33:47Z</time>
      </trkpt>
      <trkpt lat="45.48901" lon="4.72049">
        <ele>469.88</ele>
        <time>2021-09-18T10:33:48Z</time>
      </trkpt>
      <trkpt lat="45.48897" lon="4.72055">
        <ele>469.82</ele>
        <time>2021-09-18T10:33:49Z</time>
      </trkpt>
      <trkpt lat="45.48893" lon="4.72062">
        <ele>469.79</ele>
        <time>2021-09-18T10:33:50Z</time>
      </trkpt>
      <trkpt lat="45.48889" lon="4.72069">
        <ele>469.75</ele>
        <time>2021-09-18T10:33:51Z</time>
      </trkpt>
      <trkpt lat="45.48886" lon="4.72077">
        <ele>469.73</ele>
        <time>2021-09-18T10:33:52Z</time>
      </trkpt>
      <trkpt lat="45.48883" lon="4.72086">
        <ele>469.71</ele>
        <time>2021-09-18T10:33:53Z</time>
      </trkpt>
      <trkpt lat="45.48869" lon="4.72123">
        <ele>469.54</ele>
        <time>2021-09-18T10:33:57Z</time>
      </trkpt>
      <trkpt lat="45.48864" lon="4.72133">
        <ele>469.38</ele>
        <time>2021-09-18T10:33:58Z</time>
      </trkpt>
      <trkpt lat="45.48858" lon="4.72142">
        <ele>469.23</ele>
        <time>2021-09-18T10:33:59Z</time>
      </trkpt>
      <trkpt lat="45.48808" lon="4.72201">
        <ele>466.1</ele>
        <time>2021-09-18T10:34:06Z</time>
      </trkpt>
      <trkpt lat="45.48768" lon="4.72242">
        <ele>462.89</ele>
        <time>2021-09-18T10:34:11Z</time>
      </trkpt>
      <trkpt lat="45.48758" lon="4.72248">
        <ele>462.26</ele>
        <time>2021-09-18T10:34:12Z</time>
      </trkpt>
      <trkpt lat="45.48748" lon="4.72253">
        <ele>461.51</ele>
        <time>2021-09-18T10:34:13Z</time>
      </trkpt>
      <trkpt lat="45.48738" lon="4.72256">
        <ele>460.98</ele>
        <time>2021-09-18T10:34:14Z</time>
      </trkpt>
      <trkpt lat="45.48727" lon="4.72259">
        <ele>460.54</ele>
        <time>2021-09-18T10:34:15Z</time>
      </trkpt>
      <trkpt lat="45.48677" lon="4.72282">
        <ele>457.22</ele>
        <time>2021-09-18T10:34:20Z</time>
      </trkpt>
      <trkpt lat="45.48636" lon="4.72303">
        <ele>454.21</ele>
        <time>2021-09-18T10:34:24Z</time>
      </trkpt>
      <trkpt lat="45.48582" lon="4.72335">
        <ele>450.89</ele>
        <time>2021-09-18T10:34:29Z</time>
      </trkpt>
      <trkpt lat="45.48521" lon="4.72394">
        <ele>446.98</ele>
        <time>2021-09-18T10:34:35Z</time>
      </trkpt>
      <trkpt lat="45.4849" lon="4.72426">
        <ele>443.81</ele>
        <time>2021-09-18T10:34:38Z</time>
      </trkpt>
      <trkpt lat="45.48447" lon="4.72465">
        <ele>440.44</ele>
        <time>2021-09-18T10:34:42Z</time>
      </trkpt>
      <trkpt lat="45.48401" lon="4.72491">
        <ele>436.79</ele>
        <time>2021-09-18T10:34:46Z</time>
      </trkpt>
      <trkpt lat="45.48389" lon="4.72493">
        <ele>435.86</ele>
        <time>2021-09-18T10:34:47Z</time>
      </trkpt>
      <trkpt lat="45.48376" lon="4.72493">
        <ele>435.09</ele>
        <time>2021-09-18T10:34:48Z</time>
      </trkpt>
      <trkpt lat="45.48364" lon="4.72491">
        <ele>434</ele>
        <time>2021-09-18T10:34:49Z</time>
      </trkpt>
      <trkpt lat="45.48352" lon="4.72487">
        <ele>434</ele>
        <time>2021-09-18T10:34:50Z</time>
      </trkpt>
      <trkpt lat="45.4834" lon="4.72481">
        <ele>433.53</ele>
        <time>2021-09-18T10:34:51Z</time>
      </trkpt>
      <trkpt lat="45.48329" lon="4.72475">
        <ele>432.96</ele>
        <time>2021-09-18T10:34:52Z</time>
      </trkpt>
      <trkpt lat="45.48259" lon="4.72444">
        <ele>430.31</ele>
        <time>2021-09-18T10:34:58Z</time>
      </trkpt>
      <trkpt lat="45.48247" lon="4.72443">
        <ele>429.67</ele>
        <time>2021-09-18T10:34:59Z</time>
      </trkpt>
      <trkpt lat="45.48237" lon="4.72444">
        <ele>428.85</ele>
        <time>2021-09-18T10:35:00Z</time>
      </trkpt>
      <trkpt lat="45.48227" lon="4.72448">
        <ele>428.12</ele>
        <time>2021-09-18T10:35:01Z</time>
      </trkpt>
      <trkpt lat="45.48217" lon="4.72452">
        <ele>427.39</ele>
        <time>2021-09-18T10:35:02Z</time>
      </trkpt>
      <trkpt lat="45.48207" lon="4.72454">
        <ele>427</ele>
        <time>2021-09-18T10:35:03Z</time>
      </trkpt>
      <trkpt lat="45.48198" lon="4.72455">
        <ele>426.81</ele>
        <time>2021-09-18T10:35:04Z</time>
      </trkpt>
      <trkpt lat="45.48151" lon="4.72468">
        <ele>426.62</ele>
        <time>2021-09-18T10:35:10Z</time>
      </trkpt>
      <trkpt lat="45.48139" lon="4.72476">
        <ele>426.83</ele>
        <time>2021-09-18T10:35:12Z</time>
      </trkpt>
      <trkpt lat="45.48134" lon="4.72481">
        <ele>427.1</ele>
        <time>2021-09-18T10:35:13Z</time>
      </trkpt>
      <trkpt lat="45.48113" lon="4.72503">
        <ele>429.42</ele>
        <time>2021-09-18T10:35:18Z</time>
      </trkpt>
      <trkpt lat="45.48103" lon="4.72516">
        <ele>430.59</ele>
        <time>2021-09-18T10:35:21Z</time>
      </trkpt>
      <trkpt lat="45.48099" lon="4.7252">
        <ele>430.87</ele>
        <time>2021-09-18T10:35:22Z</time>
      </trkpt>
      <trkpt lat="45.48096" lon="4.72524">
        <ele>431.26</ele>
        <time>2021-09-18T10:35:23Z</time>
      </trkpt>
      <trkpt lat="45.48092" lon="4.72528">
        <ele>431.61</ele>
        <time>2021-09-18T10:35:24Z</time>
      </trkpt>
      <trkpt lat="45.48089" lon="4.72532">
        <ele>431.98</ele>
        <time>2021-09-18T10:35:25Z</time>
      </trkpt>
      <trkpt lat="45.48085" lon="4.72535">
        <ele>432.3</ele>
        <time>2021-09-18T10:35:26Z</time>
      </trkpt>
      <trkpt lat="45.48064" lon="4.72554">
        <ele>433.97</ele>
        <time>2021-09-18T10:35:32Z</time>
      </trkpt>
      <trkpt lat="45.48061" lon="4.72556">
        <ele>434.09</ele>
        <time>2021-09-18T10:35:33Z</time>
      </trkpt>
      <trkpt lat="45.48057" lon="4.72557">
        <ele>434.15</ele>
        <time>2021-09-18T10:35:34Z</time>
      </trkpt>
      <trkpt lat="45.48053" lon="4.72559">
        <ele>434.2</ele>
        <time>2021-09-18T10:35:35Z</time>
      </trkpt>
      <trkpt lat="45.48049" lon="4.7256">
        <ele>434.25</ele>
        <time>2021-09-18T10:35:36Z</time>
      </trkpt>
      <trkpt lat="45.48044" lon="4.72561">
        <ele>434.31</ele>
        <time>2021-09-18T10:35:37Z</time>
      </trkpt>
      <trkpt lat="45.4804" lon="4.72562">
        <ele>434.4</ele>
        <time>2021-09-18T10:35:38Z</time>
      </trkpt>
      <trkpt lat="45.48036" lon="4.72562">
        <ele>434.58</ele>
        <time>2021-09-18T10:35:39Z</time>
      </trkpt>
      <trkpt lat="45.47996" lon="4.7257">
        <ele>436.2</ele>
        <time>2021-09-18T10:35:49Z</time>
      </trkpt>
      <trkpt lat="45.47972" lon="4.72574">
        <ele>437.23</ele>
        <time>2021-09-18T10:35:55Z</time>
      </trkpt>
      <trkpt lat="45.47933" lon="4.72579">
        <ele>438.4</ele>
        <time>2021-09-18T10:36:04Z</time>
      </trkpt>
      <trkpt lat="45.47897" lon="4.7258">
        <ele>438.57</ele>
        <time>2021-09-18T10:36:13Z</time>
      </trkpt>
      <trkpt lat="45.47855" lon="4.7258">
        <ele>438.3</ele>
        <time>2021-09-18T10:36:22Z</time>
      </trkpt>
      <trkpt lat="45.47799" lon="4.72579">
        <ele>437.19</ele>
        <time>2021-09-18T10:36:32Z</time>
      </trkpt>
      <trkpt lat="45.47741" lon="4.72576">
        <ele>435.4</ele>
        <time>2021-09-18T10:36:40Z</time>
      </trkpt>
      <trkpt lat="45.47665" lon="4.72556">
        <ele>432.69</ele>
        <time>2021-09-18T10:36:49Z</time>
      </trkpt>
      <trkpt lat="45.4761" lon="4.7253">
        <ele>429.68</ele>
        <time>2021-09-18T10:36:56Z</time>
      </trkpt>
      <trkpt lat="45.47569" lon="4.72505">
        <ele>429.43</ele>
        <time>2021-09-18T10:37:03Z</time>
      </trkpt>
      <trkpt lat="45.47529" lon="4.7248">
        <ele>431.12</ele>
        <time>2021-09-18T10:37:12Z</time>
      </trkpt>
      <trkpt lat="45.47515" lon="4.72473">
        <ele>431.31</ele>
        <time>2021-09-18T10:37:15Z</time>
      </trkpt>
      <trkpt lat="45.47511" lon="4.7247">
        <ele>431.32</ele>
        <time>2021-09-18T10:37:16Z</time>
      </trkpt>
      <trkpt lat="45.47478" lon="4.72447">
        <ele>431.23</ele>
        <time>2021-09-18T10:37:24Z</time>
      </trkpt>
      <trkpt lat="45.47445" lon="4.72415">
        <ele>431.1</ele>
        <time>2021-09-18T10:37:32Z</time>
      </trkpt>
      <trkpt lat="45.47408" lon="4.72376">
        <ele>430.31</ele>
        <time>2021-09-18T10:37:39Z</time>
      </trkpt>
      <trkpt lat="45.47365" lon="4.7231">
        <ele>427.84</ele>
        <time>2021-09-18T10:37:47Z</time>
      </trkpt>
      <trkpt lat="45.47337" lon="4.7227">
        <ele>424.7</ele>
        <time>2021-09-18T10:37:52Z</time>
      </trkpt>
      <trkpt lat="45.47331" lon="4.72263">
        <ele>424.4</ele>
        <time>2021-09-18T10:37:53Z</time>
      </trkpt>
      <trkpt lat="45.47287" lon="4.72225">
        <ele>422.96</ele>
        <time>2021-09-18T10:37:59Z</time>
      </trkpt>
      <trkpt lat="45.47223" lon="4.72171">
        <ele>419.54</ele>
        <time>2021-09-18T10:38:07Z</time>
      </trkpt>
      <trkpt lat="45.47182" lon="4.72112">
        <ele>416.71</ele>
        <time>2021-09-18T10:38:13Z</time>
      </trkpt>
      <trkpt lat="45.47146" lon="4.72024">
        <ele>413.53</ele>
        <time>2021-09-18T10:38:20Z</time>
      </trkpt>
      <trkpt lat="45.47117" lon="4.71951">
        <ele>410.49</ele>
        <time>2021-09-18T10:38:26Z</time>
      </trkpt>
      <trkpt lat="45.47082" lon="4.71864">
        <ele>409.37</ele>
        <time>2021-09-18T10:38:34Z</time>
      </trkpt>
      <trkpt lat="45.47051" lon="4.71797">
        <ele>408.83</ele>
        <time>2021-09-18T10:38:41Z</time>
      </trkpt>
      <trkpt lat="45.47044" lon="4.7179">
        <ele>408.77</ele>
        <time>2021-09-18T10:38:42Z</time>
      </trkpt>
      <trkpt lat="45.47037" lon="4.71784">
        <ele>408.76</ele>
        <time>2021-09-18T10:38:43Z</time>
      </trkpt>
      <trkpt lat="45.47029" lon="4.71779">
        <ele>408.75</ele>
        <time>2021-09-18T10:38:44Z</time>
      </trkpt>
      <trkpt lat="45.4702" lon="4.71775">
        <ele>408.75</ele>
        <time>2021-09-18T10:38:45Z</time>
      </trkpt>
      <trkpt lat="45.47012" lon="4.71773">
        <ele>408.62</ele>
        <time>2021-09-18T10:38:46Z</time>
      </trkpt>
      <trkpt lat="45.47003" lon="4.71773">
        <ele>408.46</ele>
        <time>2021-09-18T10:38:47Z</time>
      </trkpt>
      <trkpt lat="45.46994" lon="4.71774">
        <ele>408.23</ele>
        <time>2021-09-18T10:38:48Z</time>
      </trkpt>
      <trkpt lat="45.46986" lon="4.71778">
        <ele>408.12</ele>
        <time>2021-09-18T10:38:49Z</time>
      </trkpt>
      <trkpt lat="45.46978" lon="4.71783">
        <ele>407.76</ele>
        <time>2021-09-18T10:38:50Z</time>
      </trkpt>
      <trkpt lat="45.46971" lon="4.7179">
        <ele>407.22</ele>
        <time>2021-09-18T10:38:51Z</time>
      </trkpt>
      <trkpt lat="45.46965" lon="4.718">
        <ele>406.73</ele>
        <time>2021-09-18T10:38:52Z</time>
      </trkpt>
      <trkpt lat="45.46961" lon="4.7181">
        <ele>406.21</ele>
        <time>2021-09-18T10:38:53Z</time>
      </trkpt>
      <trkpt lat="45.46958" lon="4.71821">
        <ele>405.77</ele>
        <time>2021-09-18T10:38:54Z</time>
      </trkpt>
      <trkpt lat="45.46956" lon="4.71831">
        <ele>405.36</ele>
        <time>2021-09-18T10:38:55Z</time>
      </trkpt>
      <trkpt lat="45.46954" lon="4.71842">
        <ele>404.96</ele>
        <time>2021-09-18T10:38:56Z</time>
      </trkpt>
      <trkpt lat="45.46953" lon="4.71852">
        <ele>404.43</ele>
        <time>2021-09-18T10:38:57Z</time>
      </trkpt>
      <trkpt lat="45.46943" lon="4.71948">
        <ele>403.95</ele>
        <time>2021-09-18T10:39:07Z</time>
      </trkpt>
      <trkpt lat="45.46932" lon="4.72024">
        <ele>404.98</ele>
        <time>2021-09-18T10:39:16Z</time>
      </trkpt>
      <trkpt lat="45.46924" lon="4.72045">
        <ele>405.25</ele>
        <time>2021-09-18T10:39:19Z</time>
      </trkpt>
      <trkpt lat="45.46921" lon="4.72051">
        <ele>405.29</ele>
        <time>2021-09-18T10:39:20Z</time>
      </trkpt>
      <trkpt lat="45.46917" lon="4.72057">
        <ele>405.34</ele>
        <time>2021-09-18T10:39:21Z</time>
      </trkpt>
      <trkpt lat="45.46912" lon="4.72062">
        <ele>405.38</ele>
        <time>2021-09-18T10:39:22Z</time>
      </trkpt>
      <trkpt lat="45.46908" lon="4.72067">
        <ele>405.42</ele>
        <time>2021-09-18T10:39:23Z</time>
      </trkpt>
      <trkpt lat="45.46861" lon="4.72104">
        <ele>405.91</ele>
        <time>2021-09-18T10:39:32Z</time>
      </trkpt>
      <trkpt lat="45.46851" lon="4.72108">
        <ele>406.02</ele>
        <time>2021-09-18T10:39:34Z</time>
      </trkpt>
      <trkpt lat="45.46845" lon="4.7211">
        <ele>406.1</ele>
        <time>2021-09-18T10:39:35Z</time>
      </trkpt>
      <trkpt lat="45.46839" lon="4.72111">
        <ele>406.18</ele>
        <time>2021-09-18T10:39:36Z</time>
      </trkpt>
      <trkpt lat="45.46784" lon="4.72112">
        <ele>406.79</ele>
        <time>2021-09-18T10:39:46Z</time>
      </trkpt>
      <trkpt lat="45.46734" lon="4.72109">
        <ele>407.33</ele>
        <time>2021-09-18T10:39:55Z</time>
      </trkpt>
      <trkpt lat="45.46707" lon="4.72102">
        <ele>407.38</ele>
        <time>2021-09-18T10:40:00Z</time>
      </trkpt>
      <trkpt lat="45.46667" lon="4.72077">
        <ele>407.61</ele>
        <time>2021-09-18T10:40:08Z</time>
      </trkpt>
      <trkpt lat="45.46631" lon="4.72042">
        <ele>408.13</ele>
        <time>2021-09-18T10:40:16Z</time>
      </trkpt>
      <trkpt lat="45.46601" lon="4.72012">
        <ele>408.63</ele>
        <time>2021-09-18T10:40:24Z</time>
      </trkpt>
      <trkpt lat="45.46567" lon="4.71982">
        <ele>408.9</ele>
        <time>2021-09-18T10:40:33Z</time>
      </trkpt>
      <trkpt lat="45.46524" lon="4.71952">
        <ele>409.25</ele>
        <time>2021-09-18T10:40:43Z</time>
      </trkpt>
      <trkpt lat="45.46481" lon="4.7192">
        <ele>409.8</ele>
        <time>2021-09-18T10:40:53Z</time>
      </trkpt>
      <trkpt lat="45.46435" lon="4.71889">
        <ele>410.07</ele>
        <time>2021-09-18T10:41:03Z</time>
      </trkpt>
      <trkpt lat="45.46395" lon="4.71881">
        <ele>410.19</ele>
        <time>2021-09-18T10:41:11Z</time>
      </trkpt>
      <trkpt lat="45.4634" lon="4.71879">
        <ele>410.62</ele>
        <time>2021-09-18T10:41:21Z</time>
      </trkpt>
      <trkpt lat="45.46335" lon="4.71877">
        <ele>410.66</ele>
        <time>2021-09-18T10:41:22Z</time>
      </trkpt>
      <trkpt lat="45.4633" lon="4.71875">
        <ele>410.69</ele>
        <time>2021-09-18T10:41:23Z</time>
      </trkpt>
      <trkpt lat="45.46325" lon="4.71873">
        <ele>410.74</ele>
        <time>2021-09-18T10:41:24Z</time>
      </trkpt>
      <trkpt lat="45.46312" lon="4.71862">
        <ele>410.85</ele>
        <time>2021-09-18T10:41:27Z</time>
      </trkpt>
      <trkpt lat="45.4628" lon="4.71819">
        <ele>412.16</ele>
        <time>2021-09-18T10:41:36Z</time>
      </trkpt>
      <trkpt lat="45.4625" lon="4.71768">
        <ele>412.26</ele>
        <time>2021-09-18T10:41:46Z</time>
      </trkpt>
      <trkpt lat="45.46231" lon="4.71712">
        <ele>411.45</ele>
        <time>2021-09-18T10:41:54Z</time>
      </trkpt>
      <trkpt lat="45.46212" lon="4.71632">
        <ele>409.69</ele>
        <time>2021-09-18T10:42:04Z</time>
      </trkpt>
      <trkpt lat="45.46188" lon="4.7153">
        <ele>408.21</ele>
        <time>2021-09-18T10:42:17Z</time>
      </trkpt>
      <trkpt lat="45.4616" lon="4.71475">
        <ele>407.23</ele>
        <time>2021-09-18T10:42:25Z</time>
      </trkpt>
      <trkpt lat="45.46127" lon="4.71429">
        <ele>406.1</ele>
        <time>2021-09-18T10:42:33Z</time>
      </trkpt>
      <trkpt lat="45.4609" lon="4.71363">
        <ele>405.33</ele>
        <time>2021-09-18T10:42:43Z</time>
      </trkpt>
      <trkpt lat="45.4606" lon="4.7131">
        <ele>404.38</ele>
        <time>2021-09-18T10:42:51Z</time>
      </trkpt>
      <trkpt lat="45.46026" lon="4.71233">
        <ele>403.27</ele>
        <time>2021-09-18T10:43:01Z</time>
      </trkpt>
      <trkpt lat="45.46002" lon="4.71139">
        <ele>401.34</ele>
        <time>2021-09-18T10:43:12Z</time>
      </trkpt>
      <trkpt lat="45.45996" lon="4.71094">
        <ele>401.07</ele>
        <time>2021-09-18T10:43:17Z</time>
      </trkpt>
      <trkpt lat="45.45995" lon="4.71085">
        <ele>401.05</ele>
        <time>2021-09-18T10:43:18Z</time>
      </trkpt>
      <trkpt lat="45.45992" lon="4.71077">
        <ele>401.02</ele>
        <time>2021-09-18T10:43:19Z</time>
      </trkpt>
      <trkpt lat="45.4599" lon="4.71069">
        <ele>400.94</ele>
        <time>2021-09-18T10:43:20Z</time>
      </trkpt>
      <trkpt lat="45.45987" lon="4.71062">
        <ele>400.88</ele>
        <time>2021-09-18T10:43:21Z</time>
      </trkpt>
      <trkpt lat="45.45984" lon="4.71055">
        <ele>400.7</ele>
        <time>2021-09-18T10:43:22Z</time>
      </trkpt>
      <trkpt lat="45.4595" lon="4.70989">
        <ele>399.41</ele>
        <time>2021-09-18T10:43:31Z</time>
      </trkpt>
      <trkpt lat="45.4591" lon="4.70926">
        <ele>397.64</ele>
        <time>2021-09-18T10:43:40Z</time>
      </trkpt>
      <trkpt lat="45.45899" lon="4.70916">
        <ele>397.35</ele>
        <time>2021-09-18T10:43:42Z</time>
      </trkpt>
      <trkpt lat="45.45893" lon="4.70912">
        <ele>397.27</ele>
        <time>2021-09-18T10:43:43Z</time>
      </trkpt>
      <trkpt lat="45.45846" lon="4.70892">
        <ele>396.51</ele>
        <time>2021-09-18T10:43:51Z</time>
      </trkpt>
      <trkpt lat="45.45803" lon="4.7087">
        <ele>396.69</ele>
        <time>2021-09-18T10:44:00Z</time>
      </trkpt>
      <trkpt lat="45.45795" lon="4.7086">
        <ele>397.08</ele>
        <time>2021-09-18T10:44:02Z</time>
      </trkpt>
      <trkpt lat="45.45791" lon="4.70854">
        <ele>397.18</ele>
        <time>2021-09-18T10:44:03Z</time>
      </trkpt>
      <trkpt lat="45.45787" lon="4.70848">
        <ele>397.31</ele>
        <time>2021-09-18T10:44:04Z</time>
      </trkpt>
      <trkpt lat="45.45784" lon="4.7084">
        <ele>397.49</ele>
        <time>2021-09-18T10:44:05Z</time>
      </trkpt>
      <trkpt lat="45.45781" lon="4.70833">
        <ele>397.72</ele>
        <time>2021-09-18T10:44:06Z</time>
      </trkpt>
      <trkpt lat="45.45778" lon="4.70825">
        <ele>397.88</ele>
        <time>2021-09-18T10:44:07Z</time>
      </trkpt>
      <trkpt lat="45.45776" lon="4.70816">
        <ele>397.97</ele>
        <time>2021-09-18T10:44:08Z</time>
      </trkpt>
      <trkpt lat="45.45774" lon="4.70807">
        <ele>398.01</ele>
        <time>2021-09-18T10:44:09Z</time>
      </trkpt>
      <trkpt lat="45.45756" lon="4.70735">
        <ele>398</ele>
        <time>2021-09-18T10:44:17Z</time>
      </trkpt>
      <trkpt lat="45.45752" lon="4.70726">
        <ele>397.92</ele>
        <time>2021-09-18T10:44:18Z</time>
      </trkpt>
      <trkpt lat="45.45729" lon="4.70687">
        <ele>397.45</ele>
        <time>2021-09-18T10:44:23Z</time>
      </trkpt>
      <trkpt lat="45.45723" lon="4.70681">
        <ele>397.08</ele>
        <time>2021-09-18T10:44:24Z</time>
      </trkpt>
      <trkpt lat="45.45703" lon="4.70665">
        <ele>396.33</ele>
        <time>2021-09-18T10:44:27Z</time>
      </trkpt>
      <trkpt lat="45.45696" lon="4.70661">
        <ele>396.12</ele>
        <time>2021-09-18T10:44:28Z</time>
      </trkpt>
      <trkpt lat="45.45653" lon="4.70651">
        <ele>395.08</ele>
        <time>2021-09-18T10:44:34Z</time>
      </trkpt>
      <trkpt lat="45.45646" lon="4.70652">
        <ele>394.77</ele>
        <time>2021-09-18T10:44:35Z</time>
      </trkpt>
      <trkpt lat="45.4564" lon="4.70653">
        <ele>394.59</ele>
        <time>2021-09-18T10:44:36Z</time>
      </trkpt>
      <trkpt lat="45.45595" lon="4.70677">
        <ele>394.14</ele>
        <time>2021-09-18T10:44:44Z</time>
      </trkpt>
      <trkpt lat="45.4559" lon="4.70681">
        <ele>394.14</ele>
        <time>2021-09-18T10:44:45Z</time>
      </trkpt>
      <trkpt lat="45.45565" lon="4.70708">
        <ele>394.78</ele>
        <time>2021-09-18T10:44:51Z</time>
      </trkpt>
      <trkpt lat="45.45561" lon="4.70712">
        <ele>395.25</ele>
        <time>2021-09-18T10:44:52Z</time>
      </trkpt>
      <trkpt lat="45.45526" lon="4.70733">
        <ele>396.89</ele>
        <time>2021-09-18T10:45:00Z</time>
      </trkpt>
      <trkpt lat="45.45517" lon="4.70734">
        <ele>397.14</ele>
        <time>2021-09-18T10:45:02Z</time>
      </trkpt>
      <trkpt lat="45.45512" lon="4.70734">
        <ele>397.22</ele>
        <time>2021-09-18T10:45:03Z</time>
      </trkpt>
      <trkpt lat="45.4547" lon="4.70717">
        <ele>400.1</ele>
        <time>2021-09-18T10:45:13Z</time>
      </trkpt>
      <trkpt lat="45.45434" lon="4.707">
        <ele>402.03</ele>
        <time>2021-09-18T10:45:23Z</time>
      </trkpt>
      <trkpt lat="45.45404" lon="4.70697">
        <ele>403.95</ele>
        <time>2021-09-18T10:45:32Z</time>
      </trkpt>
      <trkpt lat="45.45382" lon="4.7071">
        <ele>405.01</ele>
        <time>2021-09-18T10:45:39Z</time>
      </trkpt>
      <trkpt lat="45.45361" lon="4.70736">
        <ele>405.95</ele>
        <time>2021-09-18T10:45:47Z</time>
      </trkpt>
      <trkpt lat="45.4534" lon="4.70766">
        <ele>406.64</ele>
        <time>2021-09-18T10:45:55Z</time>
      </trkpt>
      <trkpt lat="45.4531" lon="4.70787">
        <ele>407.58</ele>
        <time>2021-09-18T10:46:04Z</time>
      </trkpt>
      <trkpt lat="45.45272" lon="4.70807">
        <ele>408.56</ele>
        <time>2021-09-18T10:46:15Z</time>
      </trkpt>
      <trkpt lat="45.45238" lon="4.70827">
        <ele>409.57</ele>
        <time>2021-09-18T10:46:25Z</time>
      </trkpt>
      <trkpt lat="45.45193" lon="4.70849">
        <ele>411.26</ele>
        <time>2021-09-18T10:46:38Z</time>
      </trkpt>
      <trkpt lat="45.45161" lon="4.70864">
        <ele>412.65</ele>
        <time>2021-09-18T10:46:47Z</time>
      </trkpt>
      <trkpt lat="45.45129" lon="4.70869">
        <ele>414.17</ele>
        <time>2021-09-18T10:46:56Z</time>
      </trkpt>
      <trkpt lat="45.45094" lon="4.70855">
        <ele>415.55</ele>
        <time>2021-09-18T10:47:06Z</time>
      </trkpt>
      <trkpt lat="45.45059" lon="4.70838">
        <ele>416.51</ele>
        <time>2021-09-18T10:47:16Z</time>
      </trkpt>
      <trkpt lat="45.45042" lon="4.70837">
        <ele>416.98</ele>
        <time>2021-09-18T10:47:20Z</time>
      </trkpt>
      <trkpt lat="45.4502" lon="4.70838">
        <ele>417.24</ele>
        <time>2021-09-18T10:47:25Z</time>
      </trkpt>
      <trkpt lat="45.45015" lon="4.70839">
        <ele>417.25</ele>
        <time>2021-09-18T10:47:26Z</time>
      </trkpt>
      <trkpt lat="45.45007" lon="4.70839">
        <ele>417.28</ele>
        <time>2021-09-18T10:47:28Z</time>
      </trkpt>
      <trkpt lat="45.44998" lon="4.70839">
        <ele>417.44</ele>
        <time>2021-09-18T10:47:30Z</time>
      </trkpt>
      <trkpt lat="45.44984" lon="4.70838">
        <ele>417.76</ele>
        <time>2021-09-18T10:47:33Z</time>
      </trkpt>
      <trkpt lat="45.4498" lon="4.70836">
        <ele>417.88</ele>
        <time>2021-09-18T10:47:34Z</time>
      </trkpt>
      <trkpt lat="45.44975" lon="4.70835">
        <ele>418.12</ele>
        <time>2021-09-18T10:47:35Z</time>
      </trkpt>
      <trkpt lat="45.44971" lon="4.70832">
        <ele>418.42</ele>
        <time>2021-09-18T10:47:36Z</time>
      </trkpt>
      <trkpt lat="45.44967" lon="4.70829">
        <ele>418.6</ele>
        <time>2021-09-18T10:47:37Z</time>
      </trkpt>
      <trkpt lat="45.44963" lon="4.70826">
        <ele>418.7</ele>
        <time>2021-09-18T10:47:38Z</time>
      </trkpt>
      <trkpt lat="45.4496" lon="4.70822">
        <ele>418.84</ele>
        <time>2021-09-18T10:47:39Z</time>
      </trkpt>
      <trkpt lat="45.44956" lon="4.70819">
        <ele>418.94</ele>
        <time>2021-09-18T10:47:40Z</time>
      </trkpt>
      <trkpt lat="45.44947" lon="4.70807">
        <ele>419.18</ele>
        <time>2021-09-18T10:47:43Z</time>
      </trkpt>
      <trkpt lat="45.44926" lon="4.70771">
        <ele>420.72</ele>
        <time>2021-09-18T10:47:52Z</time>
      </trkpt>
      <trkpt lat="45.44906" lon="4.70737">
        <ele>422.5</ele>
        <time>2021-09-18T10:48:01Z</time>
      </trkpt>
      <trkpt lat="45.44891" lon="4.70716">
        <ele>423.1</ele>
        <time>2021-09-18T10:48:07Z</time>
      </trkpt>
      <trkpt lat="45.44878" lon="4.70701">
        <ele>423.76</ele>
        <time>2021-09-18T10:48:12Z</time>
      </trkpt>
      <trkpt lat="45.44853" lon="4.70681">
        <ele>424.76</ele>
        <time>2021-09-18T10:48:20Z</time>
      </trkpt>
      <trkpt lat="45.44838" lon="4.70667">
        <ele>425.08</ele>
        <time>2021-09-18T10:48:25Z</time>
      </trkpt>
      <trkpt lat="45.44809" lon="4.70645">
        <ele>426.05</ele>
        <time>2021-09-18T10:48:34Z</time>
      </trkpt>
      <trkpt lat="45.44789" lon="4.70626">
        <ele>427</ele>
        <time>2021-09-18T10:48:41Z</time>
      </trkpt>
      <trkpt lat="45.44771" lon="4.70603">
        <ele>427.64</ele>
        <time>2021-09-18T10:48:48Z</time>
      </trkpt>
      <trkpt lat="45.4476" lon="4.70585">
        <ele>428.18</ele>
        <time>2021-09-18T10:48:53Z</time>
      </trkpt>
      <trkpt lat="45.44745" lon="4.70557">
        <ele>429.14</ele>
        <time>2021-09-18T10:49:00Z</time>
      </trkpt>
      <trkpt lat="45.44739" lon="4.70545">
        <ele>429.49</ele>
        <time>2021-09-18T10:49:03Z</time>
      </trkpt>
      <trkpt lat="45.44726" lon="4.70524">
        <ele>430.31</ele>
        <time>2021-09-18T10:49:09Z</time>
      </trkpt>
      <trkpt lat="45.44699" lon="4.7049">
        <ele>431.61</ele>
        <time>2021-09-18T10:49:19Z</time>
      </trkpt>
      <trkpt lat="45.44681" lon="4.70465">
        <ele>432.31</ele>
        <time>2021-09-18T10:49:26Z</time>
      </trkpt>
      <trkpt lat="45.44661" lon="4.70434">
        <ele>433.54</ele>
        <time>2021-09-18T10:49:35Z</time>
      </trkpt>
      <trkpt lat="45.44642" lon="4.70397">
        <ele>434.81</ele>
        <time>2021-09-18T10:49:44Z</time>
      </trkpt>
      <trkpt lat="45.44626" lon="4.70347">
        <ele>436.3</ele>
        <time>2021-09-18T10:49:55Z</time>
      </trkpt>
      <trkpt lat="45.44618" lon="4.70306">
        <ele>437.46</ele>
        <time>2021-09-18T10:50:04Z</time>
      </trkpt>
      <trkpt lat="45.44613" lon="4.70283">
        <ele>437.93</ele>
        <time>2021-09-18T10:50:09Z</time>
      </trkpt>
      <trkpt lat="45.44608" lon="4.70265">
        <ele>438.57</ele>
        <time>2021-09-18T10:50:13Z</time>
      </trkpt>
      <trkpt lat="45.44601" lon="4.70243">
        <ele>439.27</ele>
        <time>2021-09-18T10:50:18Z</time>
      </trkpt>
      <trkpt lat="45.44599" lon="4.70238">
        <ele>439.38</ele>
        <time>2021-09-18T10:50:19Z</time>
      </trkpt>
      <trkpt lat="45.44598" lon="4.70234">
        <ele>439.48</ele>
        <time>2021-09-18T10:50:20Z</time>
      </trkpt>
      <trkpt lat="45.44597" lon="4.70229">
        <ele>439.6</ele>
        <time>2021-09-18T10:50:21Z</time>
      </trkpt>
      <trkpt lat="45.44596" lon="4.70225">
        <ele>439.87</ele>
        <time>2021-09-18T10:50:22Z</time>
      </trkpt>
      <trkpt lat="45.44594" lon="4.7022">
        <ele>439.99</ele>
        <time>2021-09-18T10:50:23Z</time>
      </trkpt>
      <trkpt lat="45.44593" lon="4.70216">
        <ele>440.06</ele>
        <time>2021-09-18T10:50:24Z</time>
      </trkpt>
      <trkpt lat="45.44585" lon="4.70193">
        <ele>440.66</ele>
        <time>2021-09-18T10:50:29Z</time>
      </trkpt>
      <trkpt lat="45.44578" lon="4.7017">
        <ele>441.32</ele>
        <time>2021-09-18T10:50:34Z</time>
      </trkpt>
      <trkpt lat="45.44573" lon="4.70141">
        <ele>441.91</ele>
        <time>2021-09-18T10:50:40Z</time>
      </trkpt>
      <trkpt lat="45.44571" lon="4.70122">
        <ele>442.34</ele>
        <time>2021-09-18T10:50:44Z</time>
      </trkpt>
      <trkpt lat="45.44571" lon="4.70113">
        <ele>442.52</ele>
        <time>2021-09-18T10:50:46Z</time>
      </trkpt>
      <trkpt lat="45.4457" lon="4.70108">
        <ele>442.65</ele>
        <time>2021-09-18T10:50:47Z</time>
      </trkpt>
      <trkpt lat="45.44568" lon="4.70094">
        <ele>442.95</ele>
        <time>2021-09-18T10:50:50Z</time>
      </trkpt>
      <trkpt lat="45.44562" lon="4.70068">
        <ele>443.89</ele>
        <time>2021-09-18T10:50:56Z</time>
      </trkpt>
      <trkpt lat="45.4456" lon="4.70064">
        <ele>444.03</ele>
        <time>2021-09-18T10:50:57Z</time>
      </trkpt>
      <trkpt lat="45.44558" lon="4.7006">
        <ele>444.15</ele>
        <time>2021-09-18T10:50:58Z</time>
      </trkpt>
      <trkpt lat="45.44557" lon="4.70056">
        <ele>444.26</ele>
        <time>2021-09-18T10:50:59Z</time>
      </trkpt>
      <trkpt lat="45.44555" lon="4.70052">
        <ele>444.34</ele>
        <time>2021-09-18T10:51:00Z</time>
      </trkpt>
      <trkpt lat="45.44553" lon="4.70048">
        <ele>444.38</ele>
        <time>2021-09-18T10:51:01Z</time>
      </trkpt>
      <trkpt lat="45.44552" lon="4.70044">
        <ele>444.51</ele>
        <time>2021-09-18T10:51:02Z</time>
      </trkpt>
      <trkpt lat="45.44549" lon="4.7004">
        <ele>444.7</ele>
        <time>2021-09-18T10:51:03Z</time>
      </trkpt>
      <trkpt lat="45.44548" lon="4.70036">
        <ele>444.85</ele>
        <time>2021-09-18T10:51:04Z</time>
      </trkpt>
      <trkpt lat="45.44546" lon="4.70033">
        <ele>444.95</ele>
        <time>2021-09-18T10:51:05Z</time>
      </trkpt>
      <trkpt lat="45.44545" lon="4.70029">
        <ele>445.01</ele>
        <time>2021-09-18T10:51:06Z</time>
      </trkpt>
      <trkpt lat="45.44543" lon="4.70026">
        <ele>445.18</ele>
        <time>2021-09-18T10:51:07Z</time>
      </trkpt>
      <trkpt lat="45.44541" lon="4.70023">
        <ele>445.44</ele>
        <time>2021-09-18T10:51:08Z</time>
      </trkpt>
      <trkpt lat="45.4454" lon="4.70019">
        <ele>445.58</ele>
        <time>2021-09-18T10:51:09Z</time>
      </trkpt>
      <trkpt lat="45.44538" lon="4.70015">
        <ele>445.67</ele>
        <time>2021-09-18T10:51:10Z</time>
      </trkpt>
      <trkpt lat="45.44526" lon="4.69982">
        <ele>446.63</ele>
        <time>2021-09-18T10:51:18Z</time>
      </trkpt>
      <trkpt lat="45.44517" lon="4.69957">
        <ele>447.12</ele>
        <time>2021-09-18T10:51:24Z</time>
      </trkpt>
      <trkpt lat="45.44504" lon="4.69926">
        <ele>448.15</ele>
        <time>2021-09-18T10:51:32Z</time>
      </trkpt>
      <trkpt lat="45.44487" lon="4.69889">
        <ele>449.61</ele>
        <time>2021-09-18T10:51:42Z</time>
      </trkpt>
      <trkpt lat="45.44475" lon="4.69859">
        <ele>450.33</ele>
        <time>2021-09-18T10:51:50Z</time>
      </trkpt>
      <trkpt lat="45.44462" lon="4.69824">
        <ele>451.12</ele>
        <time>2021-09-18T10:51:59Z</time>
      </trkpt>
      <trkpt lat="45.44462" lon="4.6982">
        <ele>451.34</ele>
        <time>2021-09-18T10:52:00Z</time>
      </trkpt>
      <trkpt lat="45.44461" lon="4.69816">
        <ele>451.48</ele>
        <time>2021-09-18T10:52:01Z</time>
      </trkpt>
      <trkpt lat="45.4446" lon="4.69812">
        <ele>451.55</ele>
        <time>2021-09-18T10:52:02Z</time>
      </trkpt>
      <trkpt lat="45.44459" lon="4.69809">
        <ele>451.63</ele>
        <time>2021-09-18T10:52:03Z</time>
      </trkpt>
      <trkpt lat="45.44454" lon="4.69798">
        <ele>452.73</ele>
        <time>2021-09-18T10:52:08Z</time>
      </trkpt>
      <trkpt lat="45.44453" lon="4.69795">
        <ele>452.82</ele>
        <time>2021-09-18T10:52:09Z</time>
      </trkpt>
      <trkpt lat="45.44452" lon="4.69791">
        <ele>452.99</ele>
        <time>2021-09-18T10:52:10Z</time>
      </trkpt>
      <trkpt lat="45.4445" lon="4.69788">
        <ele>453.12</ele>
        <time>2021-09-18T10:52:11Z</time>
      </trkpt>
      <trkpt lat="45.44449" lon="4.69784">
        <ele>453.27</ele>
        <time>2021-09-18T10:52:12Z</time>
      </trkpt>
      <trkpt lat="45.44439" lon="4.69763">
        <ele>453.68</ele>
        <time>2021-09-18T10:52:18Z</time>
      </trkpt>
      <trkpt lat="45.44435" lon="4.69752">
        <ele>453.79</ele>
        <time>2021-09-18T10:52:21Z</time>
      </trkpt>
      <trkpt lat="45.44434" lon="4.69749">
        <ele>453.83</ele>
        <time>2021-09-18T10:52:22Z</time>
      </trkpt>
      <trkpt lat="45.44432" lon="4.69745">
        <ele>453.85</ele>
        <time>2021-09-18T10:52:23Z</time>
      </trkpt>
      <trkpt lat="45.44431" lon="4.69742">
        <ele>453.91</ele>
        <time>2021-09-18T10:52:24Z</time>
      </trkpt>
      <trkpt lat="45.44429" lon="4.69738">
        <ele>454.04</ele>
        <time>2021-09-18T10:52:25Z</time>
      </trkpt>
      <trkpt lat="45.44427" lon="4.69735">
        <ele>454.15</ele>
        <time>2021-09-18T10:52:26Z</time>
      </trkpt>
      <trkpt lat="45.44426" lon="4.69733">
        <ele>454.33</ele>
        <time>2021-09-18T10:52:27Z</time>
      </trkpt>
      <trkpt lat="45.44424" lon="4.6973">
        <ele>454.44</ele>
        <time>2021-09-18T10:52:28Z</time>
      </trkpt>
      <trkpt lat="45.44421" lon="4.69724">
        <ele>454.64</ele>
        <time>2021-09-18T10:52:30Z</time>
      </trkpt>
      <trkpt lat="45.44413" lon="4.69717">
        <ele>454.95</ele>
        <time>2021-09-18T10:52:33Z</time>
      </trkpt>
      <trkpt lat="45.4441" lon="4.69716">
        <ele>455.01</ele>
        <time>2021-09-18T10:52:34Z</time>
      </trkpt>
      <trkpt lat="45.44387" lon="4.69704">
        <ele>455.86</ele>
        <time>2021-09-18T10:52:42Z</time>
      </trkpt>
      <trkpt lat="45.4437" lon="4.69697">
        <ele>456.6</ele>
        <time>2021-09-18T10:52:48Z</time>
      </trkpt>
      <trkpt lat="45.44348" lon="4.69688">
        <ele>457.43</ele>
        <time>2021-09-18T10:52:56Z</time>
      </trkpt>
      <trkpt lat="45.44328" lon="4.69679">
        <ele>458.53</ele>
        <time>2021-09-18T10:53:03Z</time>
      </trkpt>
      <trkpt lat="45.44304" lon="4.69671">
        <ele>459.48</ele>
        <time>2021-09-18T10:53:11Z</time>
      </trkpt>
      <trkpt lat="45.4429" lon="4.69666">
        <ele>460.15</ele>
        <time>2021-09-18T10:53:16Z</time>
      </trkpt>
      <trkpt lat="45.44271" lon="4.69663">
        <ele>460.78</ele>
        <time>2021-09-18T10:53:22Z</time>
      </trkpt>
      <trkpt lat="45.44247" lon="4.69659">
        <ele>462.21</ele>
        <time>2021-09-18T10:53:30Z</time>
      </trkpt>
      <trkpt lat="45.44218" lon="4.69651">
        <ele>463.49</ele>
        <time>2021-09-18T10:53:39Z</time>
      </trkpt>
      <trkpt lat="45.44196" lon="4.6964">
        <ele>464.04</ele>
        <time>2021-09-18T10:53:47Z</time>
      </trkpt>
      <trkpt lat="45.44176" lon="4.69627">
        <ele>465.21</ele>
        <time>2021-09-18T10:53:54Z</time>
      </trkpt>
      <trkpt lat="45.4415" lon="4.6961">
        <ele>465.97</ele>
        <time>2021-09-18T10:54:03Z</time>
      </trkpt>
      <trkpt lat="45.44122" lon="4.69595">
        <ele>466.97</ele>
        <time>2021-09-18T10:54:12Z</time>
      </trkpt>
      <trkpt lat="45.44092" lon="4.69581">
        <ele>468.6</ele>
        <time>2021-09-18T10:54:22Z</time>
      </trkpt>
      <trkpt lat="45.4407" lon="4.69574">
        <ele>469.44</ele>
        <time>2021-09-18T10:54:29Z</time>
      </trkpt>
      <trkpt lat="45.44051" lon="4.69569">
        <ele>469.98</ele>
        <time>2021-09-18T10:54:35Z</time>
      </trkpt>
      <trkpt lat="45.44016" lon="4.69565">
        <ele>471.23</ele>
        <time>2021-09-18T10:54:46Z</time>
      </trkpt>
      <trkpt lat="45.43996" lon="4.69561">
        <ele>472.13</ele>
        <time>2021-09-18T10:54:53Z</time>
      </trkpt>
      <trkpt lat="45.4397" lon="4.69553">
        <ele>473.09</ele>
        <time>2021-09-18T10:55:01Z</time>
      </trkpt>
      <trkpt lat="45.43934" lon="4.69541">
        <ele>474.11</ele>
        <time>2021-09-18T10:55:12Z</time>
      </trkpt>
      <trkpt lat="45.43912" lon="4.69523">
        <ele>475.05</ele>
        <time>2021-09-18T10:55:20Z</time>
      </trkpt>
      <trkpt lat="45.43895" lon="4.69507">
        <ele>476.14</ele>
        <time>2021-09-18T10:55:27Z</time>
      </trkpt>
      <trkpt lat="45.43884" lon="4.69497">
        <ele>476.99</ele>
        <time>2021-09-18T10:55:33Z</time>
      </trkpt>
      <trkpt lat="45.43881" lon="4.69496">
        <ele>477.21</ele>
        <time>2021-09-18T10:55:34Z</time>
      </trkpt>
      <trkpt lat="45.43878" lon="4.69494">
        <ele>477.33</ele>
        <time>2021-09-18T10:55:35Z</time>
      </trkpt>
      <trkpt lat="45.43876" lon="4.69491">
        <ele>477.52</ele>
        <time>2021-09-18T10:55:36Z</time>
      </trkpt>
      <trkpt lat="45.43873" lon="4.69489">
        <ele>477.67</ele>
        <time>2021-09-18T10:55:37Z</time>
      </trkpt>
      <trkpt lat="45.43856" lon="4.69477">
        <ele>478.15</ele>
        <time>2021-09-18T10:55:43Z</time>
      </trkpt>
      <trkpt lat="45.43853" lon="4.69475">
        <ele>478.29</ele>
        <time>2021-09-18T10:55:44Z</time>
      </trkpt>
      <trkpt lat="45.4385" lon="4.69474">
        <ele>478.38</ele>
        <time>2021-09-18T10:55:45Z</time>
      </trkpt>
      <trkpt lat="45.43847" lon="4.69473">
        <ele>478.44</ele>
        <time>2021-09-18T10:55:46Z</time>
      </trkpt>
      <trkpt lat="45.43844" lon="4.69471">
        <ele>478.51</ele>
        <time>2021-09-18T10:55:47Z</time>
      </trkpt>
      <trkpt lat="45.43841" lon="4.6947">
        <ele>478.67</ele>
        <time>2021-09-18T10:55:48Z</time>
      </trkpt>
      <trkpt lat="45.43819" lon="4.69463">
        <ele>479.55</ele>
        <time>2021-09-18T10:55:55Z</time>
      </trkpt>
      <trkpt lat="45.43795" lon="4.69454">
        <ele>480.12</ele>
        <time>2021-09-18T10:56:03Z</time>
      </trkpt>
      <trkpt lat="45.43768" lon="4.6944">
        <ele>481.07</ele>
        <time>2021-09-18T10:56:11Z</time>
      </trkpt>
      <trkpt lat="45.43748" lon="4.69408">
        <ele>481.47</ele>
        <time>2021-09-18T10:56:19Z</time>
      </trkpt>
      <trkpt lat="45.43733" lon="4.69357">
        <ele>481.3</ele>
        <time>2021-09-18T10:56:27Z</time>
      </trkpt>
      <trkpt lat="45.43713" lon="4.6928">
        <ele>479.71</ele>
        <time>2021-09-18T10:56:37Z</time>
      </trkpt>
      <trkpt lat="45.43702" lon="4.69238">
        <ele>478.73</ele>
        <time>2021-09-18T10:56:43Z</time>
      </trkpt>
      <trkpt lat="45.43681" lon="4.69176">
        <ele>478.57</ele>
        <time>2021-09-18T10:56:53Z</time>
      </trkpt>
      <trkpt lat="45.43668" lon="4.69123">
        <ele>478.8</ele>
        <time>2021-09-18T10:57:03Z</time>
      </trkpt>
      <trkpt lat="45.43665" lon="4.69093">
        <ele>479.09</ele>
        <time>2021-09-18T10:57:11Z</time>
      </trkpt>
      <trkpt lat="45.43663" lon="4.69063">
        <ele>479.37</ele>
        <time>2021-09-18T10:57:19Z</time>
      </trkpt>
      <trkpt lat="45.43661" lon="4.69034">
        <ele>479.57</ele>
        <time>2021-09-18T10:57:27Z</time>
      </trkpt>
      <trkpt lat="45.43659" lon="4.69001">
        <ele>479.79</ele>
        <time>2021-09-18T10:57:34Z</time>
      </trkpt>
      <trkpt lat="45.43659" lon="4.68962">
        <ele>480.08</ele>
        <time>2021-09-18T10:57:44Z</time>
      </trkpt>
      <trkpt lat="45.43658" lon="4.6893">
        <ele>480.08</ele>
        <time>2021-09-18T10:57:52Z</time>
      </trkpt>
      <trkpt lat="45.43655" lon="4.68888">
        <ele>480.16</ele>
        <time>2021-09-18T10:58:01Z</time>
      </trkpt>
      <trkpt lat="45.43652" lon="4.68863">
        <ele>480.39</ele>
        <time>2021-09-18T10:58:08Z</time>
      </trkpt>
      <trkpt lat="45.4365" lon="4.68839">
        <ele>480.56</ele>
        <time>2021-09-18T10:58:16Z</time>
      </trkpt>
      <trkpt lat="45.43644" lon="4.68799">
        <ele>480.64</ele>
        <time>2021-09-18T10:58:25Z</time>
      </trkpt>
      <trkpt lat="45.4363" lon="4.68764">
        <ele>480.46</ele>
        <time>2021-09-18T10:58:33Z</time>
      </trkpt>
      <trkpt lat="45.43622" lon="4.68753">
        <ele>480.34</ele>
        <time>2021-09-18T10:58:36Z</time>
      </trkpt>
      <trkpt lat="45.43615" lon="4.68746">
        <ele>480.04</ele>
        <time>2021-09-18T10:58:38Z</time>
      </trkpt>
      <trkpt lat="45.43611" lon="4.68743">
        <ele>479.83</ele>
        <time>2021-09-18T10:58:39Z</time>
      </trkpt>
      <trkpt lat="45.43606" lon="4.6874">
        <ele>479.68</ele>
        <time>2021-09-18T10:58:40Z</time>
      </trkpt>
      <trkpt lat="45.43579" lon="4.68722">
        <ele>479.16</ele>
        <time>2021-09-18T10:58:46Z</time>
      </trkpt>
      <trkpt lat="45.43575" lon="4.68718">
        <ele>479.06</ele>
        <time>2021-09-18T10:58:47Z</time>
      </trkpt>
      <trkpt lat="45.43566" lon="4.68708">
        <ele>478.55</ele>
        <time>2021-09-18T10:58:49Z</time>
      </trkpt>
      <trkpt lat="45.43562" lon="4.68703">
        <ele>478.41</ele>
        <time>2021-09-18T10:58:50Z</time>
      </trkpt>
      <trkpt lat="45.43559" lon="4.68696">
        <ele>478.3</ele>
        <time>2021-09-18T10:58:51Z</time>
      </trkpt>
      <trkpt lat="45.43537" lon="4.68643">
        <ele>477.06</ele>
        <time>2021-09-18T10:58:58Z</time>
      </trkpt>
      <trkpt lat="45.43503" lon="4.68546">
        <ele>475.2</ele>
        <time>2021-09-18T10:59:09Z</time>
      </trkpt>
      <trkpt lat="45.43467" lon="4.68465">
        <ele>472.63</ele>
        <time>2021-09-18T10:59:18Z</time>
      </trkpt>
      <trkpt lat="45.43419" lon="4.68381">
        <ele>470.68</ele>
        <time>2021-09-18T10:59:28Z</time>
      </trkpt>
      <trkpt lat="45.43364" lon="4.68314">
        <ele>468.41</ele>
        <time>2021-09-18T10:59:37Z</time>
      </trkpt>
      <trkpt lat="45.43311" lon="4.68243">
        <ele>466.1</ele>
        <time>2021-09-18T10:59:46Z</time>
      </trkpt>
      <trkpt lat="45.43286" lon="4.68199">
        <ele>464.59</ele>
        <time>2021-09-18T10:59:51Z</time>
      </trkpt>
      <trkpt lat="45.43259" lon="4.68116">
        <ele>462.85</ele>
        <time>2021-09-18T10:59:59Z</time>
      </trkpt>
      <trkpt lat="45.43245" lon="4.68053">
        <ele>461.47</ele>
        <time>2021-09-18T11:00:05Z</time>
      </trkpt>
      <trkpt lat="45.43241" lon="4.6794">
        <ele>459.88</ele>
        <time>2021-09-18T11:00:15Z</time>
      </trkpt>
      <trkpt lat="45.43243" lon="4.6786">
        <ele>458.14</ele>
        <time>2021-09-18T11:00:22Z</time>
      </trkpt>
      <trkpt lat="45.43245" lon="4.67849">
        <ele>458.01</ele>
        <time>2021-09-18T11:00:23Z</time>
      </trkpt>
      <trkpt lat="45.43248" lon="4.67839">
        <ele>457.82</ele>
        <time>2021-09-18T11:00:24Z</time>
      </trkpt>
      <trkpt lat="45.43252" lon="4.67828">
        <ele>457.64</ele>
        <time>2021-09-18T11:00:25Z</time>
      </trkpt>
      <trkpt lat="45.43257" lon="4.67819">
        <ele>457.44</ele>
        <time>2021-09-18T11:00:26Z</time>
      </trkpt>
      <trkpt lat="45.43262" lon="4.67811">
        <ele>457.18</ele>
        <time>2021-09-18T11:00:27Z</time>
      </trkpt>
      <trkpt lat="45.43268" lon="4.67803">
        <ele>456.98</ele>
        <time>2021-09-18T11:00:28Z</time>
      </trkpt>
      <trkpt lat="45.43274" lon="4.67797">
        <ele>456.82</ele>
        <time>2021-09-18T11:00:29Z</time>
      </trkpt>
      <trkpt lat="45.43298" lon="4.67769">
        <ele>455.5</ele>
        <time>2021-09-18T11:00:33Z</time>
      </trkpt>
      <trkpt lat="45.43303" lon="4.6776">
        <ele>455.31</ele>
        <time>2021-09-18T11:00:34Z</time>
      </trkpt>
      <trkpt lat="45.43307" lon="4.67751">
        <ele>455.05</ele>
        <time>2021-09-18T11:00:35Z</time>
      </trkpt>
      <trkpt lat="45.43311" lon="4.67742">
        <ele>454.88</ele>
        <time>2021-09-18T11:00:36Z</time>
      </trkpt>
      <trkpt lat="45.43314" lon="4.67732">
        <ele>454.71</ele>
        <time>2021-09-18T11:00:37Z</time>
      </trkpt>
      <trkpt lat="45.43317" lon="4.67722">
        <ele>454.57</ele>
        <time>2021-09-18T11:00:38Z</time>
      </trkpt>
      <trkpt lat="45.43319" lon="4.67711">
        <ele>454.45</ele>
        <time>2021-09-18T11:00:39Z</time>
      </trkpt>
      <trkpt lat="45.4332" lon="4.67701">
        <ele>454.33</ele>
        <time>2021-09-18T11:00:40Z</time>
      </trkpt>
      <trkpt lat="45.43321" lon="4.67689">
        <ele>454.25</ele>
        <time>2021-09-18T11:00:41Z</time>
      </trkpt>
      <trkpt lat="45.43321" lon="4.67678">
        <ele>454.18</ele>
        <time>2021-09-18T11:00:42Z</time>
      </trkpt>
      <trkpt lat="45.43321" lon="4.67668">
        <ele>454.04</ele>
        <time>2021-09-18T11:00:43Z</time>
      </trkpt>
      <trkpt lat="45.4332" lon="4.67657">
        <ele>453.82</ele>
        <time>2021-09-18T11:00:44Z</time>
      </trkpt>
      <trkpt lat="45.43319" lon="4.67646">
        <ele>453.5</ele>
        <time>2021-09-18T11:00:45Z</time>
      </trkpt>
      <trkpt lat="45.433" lon="4.67519">
        <ele>450.85</ele>
        <time>2021-09-18T11:00:57Z</time>
      </trkpt>
      <trkpt lat="45.43276" lon="4.67444">
        <ele>448.71</ele>
        <time>2021-09-18T11:01:05Z</time>
      </trkpt>
      <trkpt lat="45.43269" lon="4.67426">
        <ele>448.39</ele>
        <time>2021-09-18T11:01:07Z</time>
      </trkpt>
      <trkpt lat="45.43267" lon="4.67416">
        <ele>448.29</ele>
        <time>2021-09-18T11:01:08Z</time>
      </trkpt>
      <trkpt lat="45.43265" lon="4.67406">
        <ele>448.19</ele>
        <time>2021-09-18T11:01:09Z</time>
      </trkpt>
      <trkpt lat="45.43265" lon="4.67395">
        <ele>448.03</ele>
        <time>2021-09-18T11:01:10Z</time>
      </trkpt>
      <trkpt lat="45.43267" lon="4.67384">
        <ele>447.91</ele>
        <time>2021-09-18T11:01:11Z</time>
      </trkpt>
      <trkpt lat="45.43269" lon="4.67373">
        <ele>447.8</ele>
        <time>2021-09-18T11:01:12Z</time>
      </trkpt>
      <trkpt lat="45.43279" lon="4.67321">
        <ele>446.58</ele>
        <time>2021-09-18T11:01:17Z</time>
      </trkpt>
      <trkpt lat="45.43279" lon="4.67311">
        <ele>446.35</ele>
        <time>2021-09-18T11:01:18Z</time>
      </trkpt>
      <trkpt lat="45.43278" lon="4.67301">
        <ele>446.13</ele>
        <time>2021-09-18T11:01:19Z</time>
      </trkpt>
      <trkpt lat="45.43276" lon="4.67292">
        <ele>445.72</ele>
        <time>2021-09-18T11:01:20Z</time>
      </trkpt>
      <trkpt lat="45.43274" lon="4.67282">
        <ele>445.49</ele>
        <time>2021-09-18T11:01:21Z</time>
      </trkpt>
      <trkpt lat="45.43253" lon="4.67227">
        <ele>444.75</ele>
        <time>2021-09-18T11:01:27Z</time>
      </trkpt>
      <trkpt lat="45.43216" lon="4.67162">
        <ele>444.11</ele>
        <time>2021-09-18T11:01:35Z</time>
      </trkpt>
      <trkpt lat="45.43187" lon="4.67101">
        <ele>443.19</ele>
        <time>2021-09-18T11:01:42Z</time>
      </trkpt>
      <trkpt lat="45.43182" lon="4.67093">
        <ele>442.95</ele>
        <time>2021-09-18T11:01:43Z</time>
      </trkpt>
      <trkpt lat="45.43175" lon="4.67087">
        <ele>442.75</ele>
        <time>2021-09-18T11:01:44Z</time>
      </trkpt>
      <trkpt lat="45.43167" lon="4.67082">
        <ele>442.63</ele>
        <time>2021-09-18T11:01:45Z</time>
      </trkpt>
      <trkpt lat="45.43158" lon="4.67081">
        <ele>442.53</ele>
        <time>2021-09-18T11:01:46Z</time>
      </trkpt>
      <trkpt lat="45.4315" lon="4.67081">
        <ele>442.43</ele>
        <time>2021-09-18T11:01:47Z</time>
      </trkpt>
      <trkpt lat="45.43142" lon="4.67083">
        <ele>442.37</ele>
        <time>2021-09-18T11:01:48Z</time>
      </trkpt>
      <trkpt lat="45.43134" lon="4.67087">
        <ele>442.08</ele>
        <time>2021-09-18T11:01:49Z</time>
      </trkpt>
      <trkpt lat="45.43128" lon="4.67093">
        <ele>441.51</ele>
        <time>2021-09-18T11:01:50Z</time>
      </trkpt>
      <trkpt lat="45.43124" lon="4.67102">
        <ele>440.88</ele>
        <time>2021-09-18T11:01:51Z</time>
      </trkpt>
      <trkpt lat="45.43121" lon="4.67111">
        <ele>440.25</ele>
        <time>2021-09-18T11:01:52Z</time>
      </trkpt>
      <trkpt lat="45.43119" lon="4.67122">
        <ele>439.69</ele>
        <time>2021-09-18T11:01:53Z</time>
      </trkpt>
      <trkpt lat="45.43118" lon="4.67132">
        <ele>439.13</ele>
        <time>2021-09-18T11:01:54Z</time>
      </trkpt>
      <trkpt lat="45.4311" lon="4.67179">
        <ele>438</ele>
        <time>2021-09-18T11:01:59Z</time>
      </trkpt>
      <trkpt lat="45.43085" lon="4.67244">
        <ele>437.66</ele>
        <time>2021-09-18T11:02:07Z</time>
      </trkpt>
      <trkpt lat="45.43061" lon="4.67312">
        <ele>437.03</ele>
        <time>2021-09-18T11:02:15Z</time>
      </trkpt>
      <trkpt lat="45.43032" lon="4.67383">
        <ele>436.91</ele>
        <time>2021-09-18T11:02:24Z</time>
      </trkpt>
      <trkpt lat="45.4302" lon="4.67402">
        <ele>437.02</ele>
        <time>2021-09-18T11:02:27Z</time>
      </trkpt>
      <trkpt lat="45.42996" lon="4.67425">
        <ele>437.26</ele>
        <time>2021-09-18T11:02:32Z</time>
      </trkpt>
      <trkpt lat="45.4299" lon="4.67428">
        <ele>437.34</ele>
        <time>2021-09-18T11:02:33Z</time>
      </trkpt>
      <trkpt lat="45.42942" lon="4.67446">
        <ele>438.41</ele>
        <time>2021-09-18T11:02:42Z</time>
      </trkpt>
      <trkpt lat="45.4289" lon="4.67461">
        <ele>438.71</ele>
        <time>2021-09-18T11:02:51Z</time>
      </trkpt>
      <trkpt lat="45.42826" lon="4.67479">
        <ele>438.36</ele>
        <time>2021-09-18T11:03:01Z</time>
      </trkpt>
      <trkpt lat="45.42755" lon="4.67508">
        <ele>436.59</ele>
        <time>2021-09-18T11:03:12Z</time>
      </trkpt>
      <trkpt lat="45.42719" lon="4.67531">
        <ele>435.92</ele>
        <time>2021-09-18T11:03:19Z</time>
      </trkpt>
      <trkpt lat="45.42684" lon="4.67556">
        <ele>436.09</ele>
        <time>2021-09-18T11:03:27Z</time>
      </trkpt>
      <trkpt lat="45.42666" lon="4.67567">
        <ele>436.83</ele>
        <time>2021-09-18T11:03:31Z</time>
      </trkpt>
      <trkpt lat="45.4263" lon="4.67591">
        <ele>438.43</ele>
        <time>2021-09-18T11:03:40Z</time>
      </trkpt>
      <trkpt lat="45.42593" lon="4.67614">
        <ele>440.11</ele>
        <time>2021-09-18T11:03:50Z</time>
      </trkpt>
      <trkpt lat="45.42569" lon="4.67619">
        <ele>440.9</ele>
        <time>2021-09-18T11:03:56Z</time>
      </trkpt>
      <trkpt lat="45.42565" lon="4.67618">
        <ele>441.08</ele>
        <time>2021-09-18T11:03:57Z</time>
      </trkpt>
      <trkpt lat="45.42557" lon="4.67617">
        <ele>441.27</ele>
        <time>2021-09-18T11:03:59Z</time>
      </trkpt>
      <trkpt lat="45.42553" lon="4.67615">
        <ele>441.36</ele>
        <time>2021-09-18T11:04:00Z</time>
      </trkpt>
      <trkpt lat="45.42542" lon="4.67607">
        <ele>441.72</ele>
        <time>2021-09-18T11:04:03Z</time>
      </trkpt>
      <trkpt lat="45.42539" lon="4.67604">
        <ele>441.81</ele>
        <time>2021-09-18T11:04:04Z</time>
      </trkpt>
      <trkpt lat="45.42536" lon="4.676">
        <ele>441.88</ele>
        <time>2021-09-18T11:04:05Z</time>
      </trkpt>
      <trkpt lat="45.42533" lon="4.67596">
        <ele>442.07</ele>
        <time>2021-09-18T11:04:06Z</time>
      </trkpt>
      <trkpt lat="45.4253" lon="4.67591">
        <ele>442.19</ele>
        <time>2021-09-18T11:04:07Z</time>
      </trkpt>
      <trkpt lat="45.42527" lon="4.67586">
        <ele>442.3</ele>
        <time>2021-09-18T11:04:08Z</time>
      </trkpt>
      <trkpt lat="45.42525" lon="4.67581">
        <ele>442.39</ele>
        <time>2021-09-18T11:04:09Z</time>
      </trkpt>
      <trkpt lat="45.42512" lon="4.67539">
        <ele>443.68</ele>
        <time>2021-09-18T11:04:18Z</time>
      </trkpt>
      <trkpt lat="45.42503" lon="4.6749">
        <ele>444.76</ele>
        <time>2021-09-18T11:04:28Z</time>
      </trkpt>
      <trkpt lat="45.42496" lon="4.67454">
        <ele>445.4</ele>
        <time>2021-09-18T11:04:36Z</time>
      </trkpt>
      <trkpt lat="45.42488" lon="4.67414">
        <ele>446.19</ele>
        <time>2021-09-18T11:04:45Z</time>
      </trkpt>
      <trkpt lat="45.42481" lon="4.67377">
        <ele>446.94</ele>
        <time>2021-09-18T11:04:53Z</time>
      </trkpt>
      <trkpt lat="45.4247" lon="4.67348">
        <ele>447.34</ele>
        <time>2021-09-18T11:05:00Z</time>
      </trkpt>
      <trkpt lat="45.42459" lon="4.6733">
        <ele>447.93</ele>
        <time>2021-09-18T11:05:05Z</time>
      </trkpt>
      <trkpt lat="45.42442" lon="4.67315">
        <ele>448.52</ele>
        <time>2021-09-18T11:05:11Z</time>
      </trkpt>
      <trkpt lat="45.42417" lon="4.6731">
        <ele>449.26</ele>
        <time>2021-09-18T11:05:18Z</time>
      </trkpt>
      <trkpt lat="45.42385" lon="4.67316">
        <ele>449.53</ele>
        <time>2021-09-18T11:05:27Z</time>
      </trkpt>
      <trkpt lat="45.42353" lon="4.67325">
        <ele>450.21</ele>
        <time>2021-09-18T11:05:36Z</time>
      </trkpt>
      <trkpt lat="45.42317" lon="4.67337">
        <ele>450.81</ele>
        <time>2021-09-18T11:05:46Z</time>
      </trkpt>
      <trkpt lat="45.42288" lon="4.67344">
        <ele>451.01</ele>
        <time>2021-09-18T11:05:54Z</time>
      </trkpt>
      <trkpt lat="45.42256" lon="4.67354">
        <ele>451.34</ele>
        <time>2021-09-18T11:06:03Z</time>
      </trkpt>
      <trkpt lat="45.42221" lon="4.67366">
        <ele>452.18</ele>
        <time>2021-09-18T11:06:13Z</time>
      </trkpt>
      <trkpt lat="45.42196" lon="4.67374">
        <ele>452.83</ele>
        <time>2021-09-18T11:06:20Z</time>
      </trkpt>
      <trkpt lat="45.42168" lon="4.67381">
        <ele>453.85</ele>
        <time>2021-09-18T11:06:28Z</time>
      </trkpt>
      <trkpt lat="45.4214" lon="4.67389">
        <ele>454.64</ele>
        <time>2021-09-18T11:06:36Z</time>
      </trkpt>
      <trkpt lat="45.42109" lon="4.674">
        <ele>455.49</ele>
        <time>2021-09-18T11:06:45Z</time>
      </trkpt>
      <trkpt lat="45.4209" lon="4.67407">
        <ele>456.68</ele>
        <time>2021-09-18T11:06:51Z</time>
      </trkpt>
      <trkpt lat="45.42073" lon="4.6742">
        <ele>457.05</ele>
        <time>2021-09-18T11:06:57Z</time>
      </trkpt>
      <trkpt lat="45.42054" lon="4.67425">
        <ele>457.48</ele>
        <time>2021-09-18T11:07:03Z</time>
      </trkpt>
      <trkpt lat="45.4204" lon="4.67432">
        <ele>457.89</ele>
        <time>2021-09-18T11:07:08Z</time>
      </trkpt>
      <trkpt lat="45.42014" lon="4.67447">
        <ele>458.94</ele>
        <time>2021-09-18T11:07:17Z</time>
      </trkpt>
      <trkpt lat="45.41995" lon="4.67458">
        <ele>459.82</ele>
        <time>2021-09-18T11:07:24Z</time>
      </trkpt>
      <trkpt lat="45.41971" lon="4.67474">
        <ele>460.95</ele>
        <time>2021-09-18T11:07:33Z</time>
      </trkpt>
      <trkpt lat="45.41948" lon="4.67487">
        <ele>461.7</ele>
        <time>2021-09-18T11:07:41Z</time>
      </trkpt>
      <trkpt lat="45.41918" lon="4.67505">
        <ele>462.94</ele>
        <time>2021-09-18T11:07:51Z</time>
      </trkpt>
      <trkpt lat="45.41894" lon="4.6752">
        <ele>463.23</ele>
        <time>2021-09-18T11:07:59Z</time>
      </trkpt>
      <trkpt lat="45.41866" lon="4.67533">
        <ele>464.44</ele>
        <time>2021-09-18T11:08:08Z</time>
      </trkpt>
      <trkpt lat="45.41842" lon="4.6755">
        <ele>465.47</ele>
        <time>2021-09-18T11:08:16Z</time>
      </trkpt>
      <trkpt lat="45.41809" lon="4.6757">
        <ele>466.85</ele>
        <time>2021-09-18T11:08:26Z</time>
      </trkpt>
      <trkpt lat="45.41791" lon="4.67579">
        <ele>467.37</ele>
        <time>2021-09-18T11:08:32Z</time>
      </trkpt>
      <trkpt lat="45.41774" lon="4.6759">
        <ele>467.68</ele>
        <time>2021-09-18T11:08:38Z</time>
      </trkpt>
      <trkpt lat="45.41751" lon="4.67594">
        <ele>467.75</ele>
        <time>2021-09-18T11:08:44Z</time>
      </trkpt>
      <trkpt lat="45.41734" lon="4.67593">
        <ele>467.75</ele>
        <time>2021-09-18T11:08:48Z</time>
      </trkpt>
      <trkpt lat="45.4173" lon="4.67592">
        <ele>467.73</ele>
        <time>2021-09-18T11:08:49Z</time>
      </trkpt>
      <trkpt lat="45.41721" lon="4.67592">
        <ele>467.57</ele>
        <time>2021-09-18T11:08:52Z</time>
      </trkpt>
      <trkpt lat="45.4172" lon="4.67595">
        <ele>467.53</ele>
        <time>2021-09-18T11:08:53Z</time>
      </trkpt>
      <trkpt lat="45.41718" lon="4.67607">
        <ele>467.43</ele>
        <time>2021-09-18T11:08:56Z</time>
      </trkpt>
      <trkpt lat="45.41716" lon="4.67611">
        <ele>467.4</ele>
        <time>2021-09-18T11:08:57Z</time>
      </trkpt>
      <trkpt lat="45.41713" lon="4.67611">
        <ele>467.36</ele>
        <time>2021-09-18T11:08:58Z</time>
      </trkpt>
      <trkpt lat="45.4171" lon="4.67611">
        <ele>467.32</ele>
        <time>2021-09-18T11:08:59Z</time>
      </trkpt>
      <trkpt lat="45.41707" lon="4.67611">
        <ele>467.3</ele>
        <time>2021-09-18T11:09:00Z</time>
      </trkpt>
      <trkpt lat="45.41685" lon="4.67611">
        <ele>466.9</ele>
        <time>2021-09-18T11:09:08Z</time>
      </trkpt>
      <trkpt lat="45.41684" lon="4.67613">
        <ele>466.85</ele>
        <time>2021-09-18T11:09:09Z</time>
      </trkpt>
      <trkpt lat="45.41686" lon="4.67615">
        <ele>466.79</ele>
        <time>2021-09-18T11:09:15Z</time>
      </trkpt>
      <trkpt lat="45.41686" lon="4.67616">
        <ele>466.79</ele>
        <time>2021-09-18T11:09:17Z</time>
      </trkpt>
      <trkpt lat="45.4168" lon="4.67615">
        <ele>467.08</ele>
        <time>2021-09-18T11:10:49Z</time>
      </trkpt>
      <trkpt lat="45.41679" lon="4.67613">
        <ele>467.08</ele>
        <time>2021-09-18T11:10:50Z</time>
      </trkpt>
      <trkpt lat="45.41677" lon="4.6761">
        <ele>467.03</ele>
        <time>2021-09-18T11:10:56Z</time>
      </trkpt>
      <trkpt lat="45.41674" lon="4.67611">
        <ele>467.03</ele>
        <time>2021-09-18T11:11:02Z</time>
      </trkpt>
      <trkpt lat="45.41681" lon="4.67591">
        <ele>467.14</ele>
        <time>2021-09-18T11:15:13Z</time>
      </trkpt>
      <trkpt lat="45.41677" lon="4.67569">
        <ele>467.24</ele>
        <time>2021-09-18T11:15:20Z</time>
      </trkpt>
      <trkpt lat="45.41667" lon="4.67534">
        <ele>467.86</ele>
        <time>2021-09-18T11:15:29Z</time>
      </trkpt>
      <trkpt lat="45.41656" lon="4.67494">
        <ele>468.2</ele>
        <time>2021-09-18T11:15:38Z</time>
      </trkpt>
      <trkpt lat="45.41644" lon="4.67459">
        <ele>468.44</ele>
        <time>2021-09-18T11:15:46Z</time>
      </trkpt>
      <trkpt lat="45.41639" lon="4.67429">
        <ele>469.07</ele>
        <time>2021-09-18T11:15:53Z</time>
      </trkpt>
      <trkpt lat="45.41637" lon="4.67394">
        <ele>470.25</ele>
        <time>2021-09-18T11:16:02Z</time>
      </trkpt>
      <trkpt lat="45.41635" lon="4.67368">
        <ele>471.14</ele>
        <time>2021-09-18T11:16:09Z</time>
      </trkpt>
      <trkpt lat="45.41634" lon="4.6733">
        <ele>472.8</ele>
        <time>2021-09-18T11:16:19Z</time>
      </trkpt>
      <trkpt lat="45.41632" lon="4.67287">
        <ele>474.3</ele>
        <time>2021-09-18T11:16:30Z</time>
      </trkpt>
      <trkpt lat="45.4163" lon="4.67252">
        <ele>476.18</ele>
        <time>2021-09-18T11:16:39Z</time>
      </trkpt>
      <trkpt lat="45.41628" lon="4.67214">
        <ele>477.73</ele>
        <time>2021-09-18T11:16:49Z</time>
      </trkpt>
      <trkpt lat="45.41626" lon="4.67179">
        <ele>479.36</ele>
        <time>2021-09-18T11:16:58Z</time>
      </trkpt>
      <trkpt lat="45.41624" lon="4.67153">
        <ele>480.58</ele>
        <time>2021-09-18T11:17:05Z</time>
      </trkpt>
      <trkpt lat="45.41624" lon="4.67118">
        <ele>482.02</ele>
        <time>2021-09-18T11:17:14Z</time>
      </trkpt>
      <trkpt lat="45.41622" lon="4.67084">
        <ele>483.18</ele>
        <time>2021-09-18T11:17:23Z</time>
      </trkpt>
      <trkpt lat="45.41625" lon="4.6705">
        <ele>484.44</ele>
        <time>2021-09-18T11:17:32Z</time>
      </trkpt>
      <trkpt lat="45.41628" lon="4.67021">
        <ele>485.74</ele>
        <time>2021-09-18T11:17:40Z</time>
      </trkpt>
      <trkpt lat="45.41632" lon="4.66976">
        <ele>487.83</ele>
        <time>2021-09-18T11:17:52Z</time>
      </trkpt>
      <trkpt lat="45.41637" lon="4.66934">
        <ele>489.48</ele>
        <time>2021-09-18T11:18:03Z</time>
      </trkpt>
      <trkpt lat="45.4164" lon="4.66907">
        <ele>490.52</ele>
        <time>2021-09-18T11:18:11Z</time>
      </trkpt>
      <trkpt lat="45.41648" lon="4.6687">
        <ele>491.64</ele>
        <time>2021-09-18T11:18:21Z</time>
      </trkpt>
      <trkpt lat="45.41656" lon="4.6686">
        <ele>492.15</ele>
        <time>2021-09-18T11:18:25Z</time>
      </trkpt>
      <trkpt lat="45.41659" lon="4.66859">
        <ele>492.24</ele>
        <time>2021-09-18T11:18:26Z</time>
      </trkpt>
      <trkpt lat="45.41662" lon="4.6686">
        <ele>492.63</ele>
        <time>2021-09-18T11:18:27Z</time>
      </trkpt>
      <trkpt lat="45.41665" lon="4.66861">
        <ele>492.76</ele>
        <time>2021-09-18T11:18:28Z</time>
      </trkpt>
      <trkpt lat="45.41667" lon="4.66864">
        <ele>492.86</ele>
        <time>2021-09-18T11:18:29Z</time>
      </trkpt>
      <trkpt lat="45.41669" lon="4.66867">
        <ele>492.96</ele>
        <time>2021-09-18T11:18:30Z</time>
      </trkpt>
      <trkpt lat="45.41671" lon="4.6687">
        <ele>493.08</ele>
        <time>2021-09-18T11:18:31Z</time>
      </trkpt>
      <trkpt lat="45.41672" lon="4.66874">
        <ele>493.23</ele>
        <time>2021-09-18T11:18:32Z</time>
      </trkpt>
      <trkpt lat="45.41673" lon="4.66878">
        <ele>493.4</ele>
        <time>2021-09-18T11:18:33Z</time>
      </trkpt>
      <trkpt lat="45.41673" lon="4.66883">
        <ele>493.54</ele>
        <time>2021-09-18T11:18:34Z</time>
      </trkpt>
      <trkpt lat="45.41673" lon="4.66887">
        <ele>493.66</ele>
        <time>2021-09-18T11:18:35Z</time>
      </trkpt>
      <trkpt lat="45.41673" lon="4.66891">
        <ele>493.84</ele>
        <time>2021-09-18T11:18:36Z</time>
      </trkpt>
      <trkpt lat="45.41671" lon="4.66929">
        <ele>495.31</ele>
        <time>2021-09-18T11:18:45Z</time>
      </trkpt>
      <trkpt lat="45.4167" lon="4.66967">
        <ele>496.59</ele>
        <time>2021-09-18T11:18:54Z</time>
      </trkpt>
      <trkpt lat="45.4167" lon="4.66992">
        <ele>497.31</ele>
        <time>2021-09-18T11:19:00Z</time>
      </trkpt>
      <trkpt lat="45.41675" lon="4.67027">
        <ele>498.29</ele>
        <time>2021-09-18T11:19:09Z</time>
      </trkpt>
      <trkpt lat="45.41683" lon="4.67061">
        <ele>499.96</ele>
        <time>2021-09-18T11:19:18Z</time>
      </trkpt>
      <trkpt lat="45.41695" lon="4.67094">
        <ele>501.03</ele>
        <time>2021-09-18T11:19:27Z</time>
      </trkpt>
      <trkpt lat="45.41715" lon="4.67123">
        <ele>502.23</ele>
        <time>2021-09-18T11:19:37Z</time>
      </trkpt>
      <trkpt lat="45.41737" lon="4.67146">
        <ele>503.45</ele>
        <time>2021-09-18T11:19:46Z</time>
      </trkpt>
      <trkpt lat="45.41754" lon="4.6715">
        <ele>504.04</ele>
        <time>2021-09-18T11:19:52Z</time>
      </trkpt>
      <trkpt lat="45.41776" lon="4.67139">
        <ele>504.83</ele>
        <time>2021-09-18T11:20:00Z</time>
      </trkpt>
      <trkpt lat="45.41788" lon="4.67127">
        <ele>505.58</ele>
        <time>2021-09-18T11:20:05Z</time>
      </trkpt>
      <trkpt lat="45.4179" lon="4.67123">
        <ele>505.72</ele>
        <time>2021-09-18T11:20:06Z</time>
      </trkpt>
      <trkpt lat="45.41791" lon="4.6712">
        <ele>505.84</ele>
        <time>2021-09-18T11:20:07Z</time>
      </trkpt>
      <trkpt lat="45.41792" lon="4.67116">
        <ele>506.01</ele>
        <time>2021-09-18T11:20:08Z</time>
      </trkpt>
      <trkpt lat="45.41793" lon="4.67112">
        <ele>506.36</ele>
        <time>2021-09-18T11:20:09Z</time>
      </trkpt>
      <trkpt lat="45.41794" lon="4.67109">
        <ele>506.53</ele>
        <time>2021-09-18T11:20:10Z</time>
      </trkpt>
      <trkpt lat="45.41795" lon="4.67105">
        <ele>506.62</ele>
        <time>2021-09-18T11:20:11Z</time>
      </trkpt>
      <trkpt lat="45.41795" lon="4.67101">
        <ele>506.72</ele>
        <time>2021-09-18T11:20:12Z</time>
      </trkpt>
      <trkpt lat="45.41795" lon="4.67097">
        <ele>506.81</ele>
        <time>2021-09-18T11:20:13Z</time>
      </trkpt>
      <trkpt lat="45.41795" lon="4.67093">
        <ele>506.86</ele>
        <time>2021-09-18T11:20:14Z</time>
      </trkpt>
      <trkpt lat="45.41795" lon="4.67089">
        <ele>507.03</ele>
        <time>2021-09-18T11:20:15Z</time>
      </trkpt>
      <trkpt lat="45.41795" lon="4.67085">
        <ele>507.3</ele>
        <time>2021-09-18T11:20:16Z</time>
      </trkpt>
      <trkpt lat="45.41795" lon="4.67056">
        <ele>508.7</ele>
        <time>2021-09-18T11:20:23Z</time>
      </trkpt>
      <trkpt lat="45.41798" lon="4.67033">
        <ele>509.81</ele>
        <time>2021-09-18T11:20:29Z</time>
      </trkpt>
      <trkpt lat="45.41799" lon="4.67004">
        <ele>511.26</ele>
        <time>2021-09-18T11:20:36Z</time>
      </trkpt>
      <trkpt lat="45.41801" lon="4.66982">
        <ele>511.99</ele>
        <time>2021-09-18T11:20:42Z</time>
      </trkpt>
      <trkpt lat="45.41805" lon="4.66947">
        <ele>513.41</ele>
        <time>2021-09-18T11:20:51Z</time>
      </trkpt>
      <trkpt lat="45.41808" lon="4.66901">
        <ele>514.83</ele>
        <time>2021-09-18T11:21:02Z</time>
      </trkpt>
      <trkpt lat="45.41809" lon="4.66854">
        <ele>515.64</ele>
        <time>2021-09-18T11:21:13Z</time>
      </trkpt>
      <trkpt lat="45.41811" lon="4.66807">
        <ele>516.76</ele>
        <time>2021-09-18T11:21:24Z</time>
      </trkpt>
      <trkpt lat="45.41813" lon="4.66763">
        <ele>517.47</ele>
        <time>2021-09-18T11:21:34Z</time>
      </trkpt>
      <trkpt lat="45.41816" lon="4.6672">
        <ele>518.04</ele>
        <time>2021-09-18T11:21:44Z</time>
      </trkpt>
      <trkpt lat="45.41824" lon="4.66673">
        <ele>519.24</ele>
        <time>2021-09-18T11:21:55Z</time>
      </trkpt>
      <trkpt lat="45.41834" lon="4.66645">
        <ele>519.87</ele>
        <time>2021-09-18T11:22:02Z</time>
      </trkpt>
      <trkpt lat="45.41858" lon="4.66603">
        <ele>520.88</ele>
        <time>2021-09-18T11:22:14Z</time>
      </trkpt>
      <trkpt lat="45.41885" lon="4.66577">
        <ele>521.66</ele>
        <time>2021-09-18T11:22:24Z</time>
      </trkpt>
      <trkpt lat="45.41902" lon="4.6656">
        <ele>522.57</ele>
        <time>2021-09-18T11:22:31Z</time>
      </trkpt>
      <trkpt lat="45.41917" lon="4.66546">
        <ele>523.34</ele>
        <time>2021-09-18T11:22:37Z</time>
      </trkpt>
      <trkpt lat="45.41928" lon="4.66533">
        <ele>523.79</ele>
        <time>2021-09-18T11:22:42Z</time>
      </trkpt>
      <trkpt lat="45.4194" lon="4.66515">
        <ele>524.5</ele>
        <time>2021-09-18T11:22:48Z</time>
      </trkpt>
      <trkpt lat="45.41955" lon="4.6649">
        <ele>525.46</ele>
        <time>2021-09-18T11:22:56Z</time>
      </trkpt>
      <trkpt lat="45.41969" lon="4.66463">
        <ele>525.98</ele>
        <time>2021-09-18T11:23:04Z</time>
      </trkpt>
      <trkpt lat="45.41979" lon="4.66443">
        <ele>526.73</ele>
        <time>2021-09-18T11:23:10Z</time>
      </trkpt>
      <trkpt lat="45.41993" lon="4.66413">
        <ele>528.19</ele>
        <time>2021-09-18T11:23:19Z</time>
      </trkpt>
      <trkpt lat="45.42007" lon="4.66382">
        <ele>529.24</ele>
        <time>2021-09-18T11:23:28Z</time>
      </trkpt>
      <trkpt lat="45.42025" lon="4.66348">
        <ele>531.09</ele>
        <time>2021-09-18T11:23:39Z</time>
      </trkpt>
      <trkpt lat="45.4205" lon="4.66319">
        <ele>532.69</ele>
        <time>2021-09-18T11:23:51Z</time>
      </trkpt>
      <trkpt lat="45.42072" lon="4.6631">
        <ele>533.93</ele>
        <time>2021-09-18T11:24:00Z</time>
      </trkpt>
      <trkpt lat="45.42098" lon="4.66311">
        <ele>535.27</ele>
        <time>2021-09-18T11:24:09Z</time>
      </trkpt>
      <trkpt lat="45.42119" lon="4.66309">
        <ele>536.35</ele>
        <time>2021-09-18T11:24:17Z</time>
      </trkpt>
      <trkpt lat="45.42138" lon="4.66306">
        <ele>537.01</ele>
        <time>2021-09-18T11:24:24Z</time>
      </trkpt>
      <trkpt lat="45.42156" lon="4.663">
        <ele>538.13</ele>
        <time>2021-09-18T11:24:31Z</time>
      </trkpt>
      <trkpt lat="45.42163" lon="4.66295">
        <ele>538.53</ele>
        <time>2021-09-18T11:24:34Z</time>
      </trkpt>
      <trkpt lat="45.42166" lon="4.66294">
        <ele>538.66</ele>
        <time>2021-09-18T11:24:35Z</time>
      </trkpt>
      <trkpt lat="45.42169" lon="4.66292">
        <ele>538.81</ele>
        <time>2021-09-18T11:24:36Z</time>
      </trkpt>
      <trkpt lat="45.42171" lon="4.6629">
        <ele>538.99</ele>
        <time>2021-09-18T11:24:37Z</time>
      </trkpt>
      <trkpt lat="45.42174" lon="4.66289">
        <ele>539.09</ele>
        <time>2021-09-18T11:24:38Z</time>
      </trkpt>
      <trkpt lat="45.42176" lon="4.66288">
        <ele>539.27</ele>
        <time>2021-09-18T11:24:39Z</time>
      </trkpt>
      <trkpt lat="45.42179" lon="4.66286">
        <ele>539.45</ele>
        <time>2021-09-18T11:24:40Z</time>
      </trkpt>
      <trkpt lat="45.42181" lon="4.66284">
        <ele>539.59</ele>
        <time>2021-09-18T11:24:41Z</time>
      </trkpt>
      <trkpt lat="45.42183" lon="4.66282">
        <ele>539.81</ele>
        <time>2021-09-18T11:24:42Z</time>
      </trkpt>
      <trkpt lat="45.42186" lon="4.66281">
        <ele>540.02</ele>
        <time>2021-09-18T11:24:43Z</time>
      </trkpt>
      <trkpt lat="45.422" lon="4.66269">
        <ele>540.9</ele>
        <time>2021-09-18T11:24:49Z</time>
      </trkpt>
      <trkpt lat="45.42218" lon="4.66255">
        <ele>542.26</ele>
        <time>2021-09-18T11:24:57Z</time>
      </trkpt>
      <trkpt lat="45.42242" lon="4.66237">
        <ele>543.49</ele>
        <time>2021-09-18T11:25:07Z</time>
      </trkpt>
      <trkpt lat="45.4226" lon="4.66225">
        <ele>544.55</ele>
        <time>2021-09-18T11:25:15Z</time>
      </trkpt>
      <trkpt lat="45.42279" lon="4.66216">
        <ele>545.55</ele>
        <time>2021-09-18T11:25:22Z</time>
      </trkpt>
      <trkpt lat="45.42308" lon="4.66211">
        <ele>546.39</ele>
        <time>2021-09-18T11:25:32Z</time>
      </trkpt>
      <trkpt lat="45.42334" lon="4.6621">
        <ele>547.51</ele>
        <time>2021-09-18T11:25:41Z</time>
      </trkpt>
      <trkpt lat="45.42355" lon="4.66209">
        <ele>548.38</ele>
        <time>2021-09-18T11:25:48Z</time>
      </trkpt>
      <trkpt lat="45.42379" lon="4.66204">
        <ele>549.13</ele>
        <time>2021-09-18T11:25:56Z</time>
      </trkpt>
      <trkpt lat="45.42398" lon="4.66187">
        <ele>549.43</ele>
        <time>2021-09-18T11:26:03Z</time>
      </trkpt>
      <trkpt lat="45.42414" lon="4.66158">
        <ele>549.32</ele>
        <time>2021-09-18T11:26:11Z</time>
      </trkpt>
      <trkpt lat="45.42436" lon="4.66096">
        <ele>549.09</ele>
        <time>2021-09-18T11:26:25Z</time>
      </trkpt>
      <trkpt lat="45.42459" lon="4.66072">
        <ele>549.08</ele>
        <time>2021-09-18T11:26:33Z</time>
      </trkpt>
      <trkpt lat="45.42485" lon="4.66061">
        <ele>549.19</ele>
        <time>2021-09-18T11:26:41Z</time>
      </trkpt>
      <trkpt lat="45.42518" lon="4.66046">
        <ele>549.4</ele>
        <time>2021-09-18T11:26:51Z</time>
      </trkpt>
      <trkpt lat="45.42546" lon="4.66043">
        <ele>549.66</ele>
        <time>2021-09-18T11:27:00Z</time>
      </trkpt>
      <trkpt lat="45.42573" lon="4.66043">
        <ele>550.38</ele>
        <time>2021-09-18T11:27:09Z</time>
      </trkpt>
      <trkpt lat="45.42598" lon="4.66045">
        <ele>551.8</ele>
        <time>2021-09-18T11:27:17Z</time>
      </trkpt>
      <trkpt lat="45.42625" lon="4.66049">
        <ele>552.7</ele>
        <time>2021-09-18T11:27:26Z</time>
      </trkpt>
      <trkpt lat="45.42651" lon="4.66057">
        <ele>554.27</ele>
        <time>2021-09-18T11:27:35Z</time>
      </trkpt>
      <trkpt lat="45.42683" lon="4.66069">
        <ele>556.03</ele>
        <time>2021-09-18T11:27:46Z</time>
      </trkpt>
      <trkpt lat="45.42712" lon="4.66085">
        <ele>557.78</ele>
        <time>2021-09-18T11:27:56Z</time>
      </trkpt>
      <trkpt lat="45.42732" lon="4.66105">
        <ele>558.49</ele>
        <time>2021-09-18T11:28:04Z</time>
      </trkpt>
      <trkpt lat="45.42747" lon="4.66123">
        <ele>559.31</ele>
        <time>2021-09-18T11:28:11Z</time>
      </trkpt>
      <trkpt lat="45.42767" lon="4.66137">
        <ele>560.09</ele>
        <time>2021-09-18T11:28:19Z</time>
      </trkpt>
      <trkpt lat="45.42787" lon="4.66131">
        <ele>561.51</ele>
        <time>2021-09-18T11:28:26Z</time>
      </trkpt>
      <trkpt lat="45.42798" lon="4.6611">
        <ele>562.29</ele>
        <time>2021-09-18T11:28:32Z</time>
      </trkpt>
      <trkpt lat="45.4281" lon="4.66059">
        <ele>563.4</ele>
        <time>2021-09-18T11:28:44Z</time>
      </trkpt>
      <trkpt lat="45.42823" lon="4.66018">
        <ele>564.46</ele>
        <time>2021-09-18T11:28:54Z</time>
      </trkpt>
      <trkpt lat="45.4284" lon="4.65977">
        <ele>565.79</ele>
        <time>2021-09-18T11:29:05Z</time>
      </trkpt>
      <trkpt lat="45.42857" lon="4.65937">
        <ele>567.34</ele>
        <time>2021-09-18T11:29:16Z</time>
      </trkpt>
      <trkpt lat="45.42855" lon="4.65929">
        <ele>567.58</ele>
        <time>2021-09-18T11:29:18Z</time>
      </trkpt>
      <trkpt lat="45.42853" lon="4.65926">
        <ele>567.77</ele>
        <time>2021-09-18T11:29:19Z</time>
      </trkpt>
      <trkpt lat="45.4285" lon="4.65926">
        <ele>567.94</ele>
        <time>2021-09-18T11:29:20Z</time>
      </trkpt>
      <trkpt lat="45.42847" lon="4.65926">
        <ele>568.12</ele>
        <time>2021-09-18T11:29:21Z</time>
      </trkpt>
      <trkpt lat="45.42844" lon="4.65927">
        <ele>568.37</ele>
        <time>2021-09-18T11:29:22Z</time>
      </trkpt>
      <trkpt lat="45.42825" lon="4.65942">
        <ele>569.69</ele>
        <time>2021-09-18T11:29:29Z</time>
      </trkpt>
      <trkpt lat="45.4281" lon="4.65965">
        <ele>570.94</ele>
        <time>2021-09-18T11:29:36Z</time>
      </trkpt>
      <trkpt lat="45.42788" lon="4.65987">
        <ele>572.23</ele>
        <time>2021-09-18T11:29:45Z</time>
      </trkpt>
      <trkpt lat="45.42761" lon="4.65997">
        <ele>573.58</ele>
        <time>2021-09-18T11:29:55Z</time>
      </trkpt>
      <trkpt lat="45.42739" lon="4.65993">
        <ele>575.21</ele>
        <time>2021-09-18T11:30:04Z</time>
      </trkpt>
      <trkpt lat="45.42721" lon="4.65983">
        <ele>576.88</ele>
        <time>2021-09-18T11:30:12Z</time>
      </trkpt>
      <trkpt lat="45.42699" lon="4.65971">
        <ele>578.81</ele>
        <time>2021-09-18T11:30:22Z</time>
      </trkpt>
      <trkpt lat="45.42679" lon="4.65961">
        <ele>580.45</ele>
        <time>2021-09-18T11:30:31Z</time>
      </trkpt>
      <trkpt lat="45.42651" lon="4.65947">
        <ele>582.82</ele>
        <time>2021-09-18T11:30:44Z</time>
      </trkpt>
      <trkpt lat="45.42629" lon="4.65938">
        <ele>584.61</ele>
        <time>2021-09-18T11:30:54Z</time>
      </trkpt>
      <trkpt lat="45.42618" lon="4.65934">
        <ele>585.79</ele>
        <time>2021-09-18T11:30:59Z</time>
      </trkpt>
      <trkpt lat="45.42614" lon="4.65933">
        <ele>586.04</ele>
        <time>2021-09-18T11:31:01Z</time>
      </trkpt>
      <trkpt lat="45.42612" lon="4.65932">
        <ele>586.14</ele>
        <time>2021-09-18T11:31:02Z</time>
      </trkpt>
      <trkpt lat="45.4261" lon="4.65932">
        <ele>586.35</ele>
        <time>2021-09-18T11:31:03Z</time>
      </trkpt>
      <trkpt lat="45.42608" lon="4.65932">
        <ele>586.51</ele>
        <time>2021-09-18T11:31:04Z</time>
      </trkpt>
      <trkpt lat="45.42607" lon="4.65931">
        <ele>586.71</ele>
        <time>2021-09-18T11:31:05Z</time>
      </trkpt>
      <trkpt lat="45.42604" lon="4.65931">
        <ele>586.88</ele>
        <time>2021-09-18T11:31:06Z</time>
      </trkpt>
      <trkpt lat="45.42602" lon="4.65931">
        <ele>587.04</ele>
        <time>2021-09-18T11:31:07Z</time>
      </trkpt>
      <trkpt lat="45.426" lon="4.6593">
        <ele>587.18</ele>
        <time>2021-09-18T11:31:08Z</time>
      </trkpt>
      <trkpt lat="45.42598" lon="4.65929">
        <ele>587.36</ele>
        <time>2021-09-18T11:31:09Z</time>
      </trkpt>
      <trkpt lat="45.42596" lon="4.65928">
        <ele>587.49</ele>
        <time>2021-09-18T11:31:10Z</time>
      </trkpt>
      <trkpt lat="45.42595" lon="4.65926">
        <ele>587.62</ele>
        <time>2021-09-18T11:31:11Z</time>
      </trkpt>
      <trkpt lat="45.42592" lon="4.65925">
        <ele>587.76</ele>
        <time>2021-09-18T11:31:12Z</time>
      </trkpt>
      <trkpt lat="45.4259" lon="4.65924">
        <ele>587.85</ele>
        <time>2021-09-18T11:31:13Z</time>
      </trkpt>
      <trkpt lat="45.42574" lon="4.65912">
        <ele>589.42</ele>
        <time>2021-09-18T11:31:21Z</time>
      </trkpt>
      <trkpt lat="45.42554" lon="4.65894">
        <ele>591.58</ele>
        <time>2021-09-18T11:31:32Z</time>
      </trkpt>
      <trkpt lat="45.42544" lon="4.65885">
        <ele>592.6</ele>
        <time>2021-09-18T11:31:38Z</time>
      </trkpt>
      <trkpt lat="45.42541" lon="4.65882">
        <ele>592.96</ele>
        <time>2021-09-18T11:31:40Z</time>
      </trkpt>
      <trkpt lat="45.4254" lon="4.65881">
        <ele>593.1</ele>
        <time>2021-09-18T11:31:41Z</time>
      </trkpt>
      <trkpt lat="45.42538" lon="4.65879">
        <ele>593.17</ele>
        <time>2021-09-18T11:31:42Z</time>
      </trkpt>
      <trkpt lat="45.42537" lon="4.65877">
        <ele>593.29</ele>
        <time>2021-09-18T11:31:43Z</time>
      </trkpt>
      <trkpt lat="45.42535" lon="4.65875">
        <ele>593.41</ele>
        <time>2021-09-18T11:31:44Z</time>
      </trkpt>
      <trkpt lat="45.42534" lon="4.65874">
        <ele>593.59</ele>
        <time>2021-09-18T11:31:45Z</time>
      </trkpt>
      <trkpt lat="45.42532" lon="4.65872">
        <ele>593.72</ele>
        <time>2021-09-18T11:31:46Z</time>
      </trkpt>
      <trkpt lat="45.4253" lon="4.6587">
        <ele>593.88</ele>
        <time>2021-09-18T11:31:47Z</time>
      </trkpt>
      <trkpt lat="45.42529" lon="4.65869">
        <ele>594.04</ele>
        <time>2021-09-18T11:31:48Z</time>
      </trkpt>
      <trkpt lat="45.42527" lon="4.65867">
        <ele>594.18</ele>
        <time>2021-09-18T11:31:49Z</time>
      </trkpt>
      <trkpt lat="45.42525" lon="4.65866">
        <ele>594.29</ele>
        <time>2021-09-18T11:31:50Z</time>
      </trkpt>
      <trkpt lat="45.42524" lon="4.65864">
        <ele>594.4</ele>
        <time>2021-09-18T11:31:51Z</time>
      </trkpt>
      <trkpt lat="45.42522" lon="4.65862">
        <ele>594.47</ele>
        <time>2021-09-18T11:31:52Z</time>
      </trkpt>
      <trkpt lat="45.42521" lon="4.6586">
        <ele>594.63</ele>
        <time>2021-09-18T11:31:53Z</time>
      </trkpt>
      <trkpt lat="45.4252" lon="4.65858">
        <ele>594.8</ele>
        <time>2021-09-18T11:31:54Z</time>
      </trkpt>
      <trkpt lat="45.42518" lon="4.65856">
        <ele>595.01</ele>
        <time>2021-09-18T11:31:55Z</time>
      </trkpt>
      <trkpt lat="45.42517" lon="4.65854">
        <ele>595.19</ele>
        <time>2021-09-18T11:31:56Z</time>
      </trkpt>
      <trkpt lat="45.42515" lon="4.65852">
        <ele>595.39</ele>
        <time>2021-09-18T11:31:57Z</time>
      </trkpt>
      <trkpt lat="45.425" lon="4.65831">
        <ele>596.8</ele>
        <time>2021-09-18T11:32:07Z</time>
      </trkpt>
      <trkpt lat="45.42483" lon="4.65804">
        <ele>598.83</ele>
        <time>2021-09-18T11:32:19Z</time>
      </trkpt>
      <trkpt lat="45.42466" lon="4.65774">
        <ele>601.22</ele>
        <time>2021-09-18T11:32:31Z</time>
      </trkpt>
      <trkpt lat="45.42457" lon="4.65752">
        <ele>602.95</ele>
        <time>2021-09-18T11:32:39Z</time>
      </trkpt>
      <trkpt lat="45.42448" lon="4.65726">
        <ele>604.57</ele>
        <time>2021-09-18T11:32:48Z</time>
      </trkpt>
      <trkpt lat="45.42438" lon="4.65694">
        <ele>606.19</ele>
        <time>2021-09-18T11:32:59Z</time>
      </trkpt>
      <trkpt lat="45.4243" lon="4.65671">
        <ele>607.68</ele>
        <time>2021-09-18T11:33:08Z</time>
      </trkpt>
      <trkpt lat="45.42423" lon="4.6565">
        <ele>609.17</ele>
        <time>2021-09-18T11:33:17Z</time>
      </trkpt>
      <trkpt lat="45.42417" lon="4.65631">
        <ele>610.16</ele>
        <time>2021-09-18T11:33:25Z</time>
      </trkpt>
      <trkpt lat="45.42409" lon="4.65604">
        <ele>611.72</ele>
        <time>2021-09-18T11:33:35Z</time>
      </trkpt>
      <trkpt lat="45.42406" lon="4.65589">
        <ele>612.42</ele>
        <time>2021-09-18T11:33:40Z</time>
      </trkpt>
      <trkpt lat="45.42403" lon="4.65569">
        <ele>613.37</ele>
        <time>2021-09-18T11:33:47Z</time>
      </trkpt>
      <trkpt lat="45.42399" lon="4.65541">
        <ele>615.2</ele>
        <time>2021-09-18T11:33:56Z</time>
      </trkpt>
      <trkpt lat="45.42396" lon="4.65522">
        <ele>616.6</ele>
        <time>2021-09-18T11:34:04Z</time>
      </trkpt>
      <trkpt lat="45.42395" lon="4.6552">
        <ele>616.78</ele>
        <time>2021-09-18T11:34:05Z</time>
      </trkpt>
      <trkpt lat="45.42395" lon="4.65517">
        <ele>617.01</ele>
        <time>2021-09-18T11:34:06Z</time>
      </trkpt>
      <trkpt lat="45.42395" lon="4.65515">
        <ele>617.24</ele>
        <time>2021-09-18T11:34:07Z</time>
      </trkpt>
      <trkpt lat="45.42395" lon="4.65513">
        <ele>617.38</ele>
        <time>2021-09-18T11:34:08Z</time>
      </trkpt>
      <trkpt lat="45.42395" lon="4.6551">
        <ele>617.57</ele>
        <time>2021-09-18T11:34:09Z</time>
      </trkpt>
      <trkpt lat="45.42394" lon="4.65508">
        <ele>617.72</ele>
        <time>2021-09-18T11:34:10Z</time>
      </trkpt>
      <trkpt lat="45.42394" lon="4.65506">
        <ele>617.85</ele>
        <time>2021-09-18T11:34:11Z</time>
      </trkpt>
      <trkpt lat="45.42394" lon="4.65503">
        <ele>617.99</ele>
        <time>2021-09-18T11:34:12Z</time>
      </trkpt>
      <trkpt lat="45.42394" lon="4.655">
        <ele>618.13</ele>
        <time>2021-09-18T11:34:13Z</time>
      </trkpt>
      <trkpt lat="45.42395" lon="4.65498">
        <ele>618.32</ele>
        <time>2021-09-18T11:34:14Z</time>
      </trkpt>
      <trkpt lat="45.42394" lon="4.65495">
        <ele>618.55</ele>
        <time>2021-09-18T11:34:15Z</time>
      </trkpt>
      <trkpt lat="45.42394" lon="4.65493">
        <ele>618.73</ele>
        <time>2021-09-18T11:34:16Z</time>
      </trkpt>
      <trkpt lat="45.42392" lon="4.65481">
        <ele>619.19</ele>
        <time>2021-09-18T11:34:20Z</time>
      </trkpt>
      <trkpt lat="45.42392" lon="4.65479">
        <ele>619.36</ele>
        <time>2021-09-18T11:34:21Z</time>
      </trkpt>
      <trkpt lat="45.42392" lon="4.65476">
        <ele>619.5</ele>
        <time>2021-09-18T11:34:22Z</time>
      </trkpt>
      <trkpt lat="45.42392" lon="4.65473">
        <ele>619.9</ele>
        <time>2021-09-18T11:34:23Z</time>
      </trkpt>
      <trkpt lat="45.42391" lon="4.65471">
        <ele>620.09</ele>
        <time>2021-09-18T11:34:24Z</time>
      </trkpt>
      <trkpt lat="45.42391" lon="4.65469">
        <ele>620.22</ele>
        <time>2021-09-18T11:34:25Z</time>
      </trkpt>
      <trkpt lat="45.42391" lon="4.65464">
        <ele>620.36</ele>
        <time>2021-09-18T11:34:27Z</time>
      </trkpt>
      <trkpt lat="45.42389" lon="4.65462">
        <ele>620.48</ele>
        <time>2021-09-18T11:34:28Z</time>
      </trkpt>
      <trkpt lat="45.42388" lon="4.6546">
        <ele>620.57</ele>
        <time>2021-09-18T11:34:29Z</time>
      </trkpt>
      <trkpt lat="45.42388" lon="4.65458">
        <ele>620.67</ele>
        <time>2021-09-18T11:34:30Z</time>
      </trkpt>
      <trkpt lat="45.42388" lon="4.65456">
        <ele>620.84</ele>
        <time>2021-09-18T11:34:31Z</time>
      </trkpt>
      <trkpt lat="45.42388" lon="4.65453">
        <ele>621.03</ele>
        <time>2021-09-18T11:34:32Z</time>
      </trkpt>
      <trkpt lat="45.42388" lon="4.65451">
        <ele>621.16</ele>
        <time>2021-09-18T11:34:33Z</time>
      </trkpt>
      <trkpt lat="45.42387" lon="4.6545">
        <ele>621.32</ele>
        <time>2021-09-18T11:34:34Z</time>
      </trkpt>
      <trkpt lat="45.42386" lon="4.65448">
        <ele>621.46</ele>
        <time>2021-09-18T11:34:35Z</time>
      </trkpt>
      <trkpt lat="45.42387" lon="4.65445">
        <ele>621.56</ele>
        <time>2021-09-18T11:34:36Z</time>
      </trkpt>
      <trkpt lat="45.42387" lon="4.65442">
        <ele>621.69</ele>
        <time>2021-09-18T11:34:37Z</time>
      </trkpt>
      <trkpt lat="45.42385" lon="4.6544">
        <ele>621.81</ele>
        <time>2021-09-18T11:34:38Z</time>
      </trkpt>
      <trkpt lat="45.42384" lon="4.65438">
        <ele>621.9</ele>
        <time>2021-09-18T11:34:39Z</time>
      </trkpt>
      <trkpt lat="45.42383" lon="4.65436">
        <ele>622.05</ele>
        <time>2021-09-18T11:34:40Z</time>
      </trkpt>
      <trkpt lat="45.42383" lon="4.65433">
        <ele>622.15</ele>
        <time>2021-09-18T11:34:41Z</time>
      </trkpt>
      <trkpt lat="45.42383" lon="4.6543">
        <ele>622.22</ele>
        <time>2021-09-18T11:34:42Z</time>
      </trkpt>
      <trkpt lat="45.42383" lon="4.65428">
        <ele>622.34</ele>
        <time>2021-09-18T11:34:43Z</time>
      </trkpt>
      <trkpt lat="45.42382" lon="4.65425">
        <ele>622.46</ele>
        <time>2021-09-18T11:34:44Z</time>
      </trkpt>
      <trkpt lat="45.42381" lon="4.65423">
        <ele>622.59</ele>
        <time>2021-09-18T11:34:45Z</time>
      </trkpt>
      <trkpt lat="45.42381" lon="4.65421">
        <ele>622.73</ele>
        <time>2021-09-18T11:34:46Z</time>
      </trkpt>
      <trkpt lat="45.4238" lon="4.65416">
        <ele>622.91</ele>
        <time>2021-09-18T11:34:48Z</time>
      </trkpt>
      <trkpt lat="45.42379" lon="4.65414">
        <ele>623.14</ele>
        <time>2021-09-18T11:34:49Z</time>
      </trkpt>
      <trkpt lat="45.42379" lon="4.65411">
        <ele>623.28</ele>
        <time>2021-09-18T11:34:50Z</time>
      </trkpt>
      <trkpt lat="45.42378" lon="4.65408">
        <ele>623.36</ele>
        <time>2021-09-18T11:34:51Z</time>
      </trkpt>
      <trkpt lat="45.42377" lon="4.65406">
        <ele>623.41</ele>
        <time>2021-09-18T11:34:52Z</time>
      </trkpt>
      <trkpt lat="45.42376" lon="4.65404">
        <ele>623.54</ele>
        <time>2021-09-18T11:34:53Z</time>
      </trkpt>
      <trkpt lat="45.42376" lon="4.65402">
        <ele>623.74</ele>
        <time>2021-09-18T11:34:54Z</time>
      </trkpt>
      <trkpt lat="45.42376" lon="4.65399">
        <ele>623.85</ele>
        <time>2021-09-18T11:34:55Z</time>
      </trkpt>
      <trkpt lat="45.42375" lon="4.65397">
        <ele>623.91</ele>
        <time>2021-09-18T11:34:56Z</time>
      </trkpt>
      <trkpt lat="45.42373" lon="4.65394">
        <ele>623.95</ele>
        <time>2021-09-18T11:34:57Z</time>
      </trkpt>
      <trkpt lat="45.42372" lon="4.65392">
        <ele>623.99</ele>
        <time>2021-09-18T11:34:58Z</time>
      </trkpt>
      <trkpt lat="45.42372" lon="4.65389">
        <ele>624.07</ele>
        <time>2021-09-18T11:34:59Z</time>
      </trkpt>
      <trkpt lat="45.42371" lon="4.65386">
        <ele>624.25</ele>
        <time>2021-09-18T11:35:00Z</time>
      </trkpt>
      <trkpt lat="45.4237" lon="4.65384">
        <ele>624.41</ele>
        <time>2021-09-18T11:35:01Z</time>
      </trkpt>
      <trkpt lat="45.42369" lon="4.65381">
        <ele>624.56</ele>
        <time>2021-09-18T11:35:02Z</time>
      </trkpt>
      <trkpt lat="45.42369" lon="4.65378">
        <ele>624.75</ele>
        <time>2021-09-18T11:35:03Z</time>
      </trkpt>
      <trkpt lat="45.42364" lon="4.65363">
        <ele>625.45</ele>
        <time>2021-09-18T11:35:09Z</time>
      </trkpt>
      <trkpt lat="45.42355" lon="4.65338">
        <ele>626.98</ele>
        <time>2021-09-18T11:35:19Z</time>
      </trkpt>
      <trkpt lat="45.42349" lon="4.65318">
        <ele>628.21</ele>
        <time>2021-09-18T11:35:28Z</time>
      </trkpt>
      <trkpt lat="45.42348" lon="4.65316">
        <ele>628.41</ele>
        <time>2021-09-18T11:35:29Z</time>
      </trkpt>
      <trkpt lat="45.42347" lon="4.65314">
        <ele>628.51</ele>
        <time>2021-09-18T11:35:30Z</time>
      </trkpt>
      <trkpt lat="45.42347" lon="4.65311">
        <ele>628.59</ele>
        <time>2021-09-18T11:35:31Z</time>
      </trkpt>
      <trkpt lat="45.42346" lon="4.65309">
        <ele>628.81</ele>
        <time>2021-09-18T11:35:32Z</time>
      </trkpt>
      <trkpt lat="45.42345" lon="4.65307">
        <ele>629.03</ele>
        <time>2021-09-18T11:35:33Z</time>
      </trkpt>
      <trkpt lat="45.42344" lon="4.65305">
        <ele>629.14</ele>
        <time>2021-09-18T11:35:34Z</time>
      </trkpt>
      <trkpt lat="45.42344" lon="4.65302">
        <ele>629.21</ele>
        <time>2021-09-18T11:35:35Z</time>
      </trkpt>
      <trkpt lat="45.42344" lon="4.653">
        <ele>629.29</ele>
        <time>2021-09-18T11:35:36Z</time>
      </trkpt>
      <trkpt lat="45.42343" lon="4.65297">
        <ele>629.45</ele>
        <time>2021-09-18T11:35:37Z</time>
      </trkpt>
      <trkpt lat="45.42342" lon="4.65295">
        <ele>629.58</ele>
        <time>2021-09-18T11:35:38Z</time>
      </trkpt>
      <trkpt lat="45.42341" lon="4.65293">
        <ele>629.69</ele>
        <time>2021-09-18T11:35:39Z</time>
      </trkpt>
      <trkpt lat="45.42341" lon="4.65291">
        <ele>629.79</ele>
        <time>2021-09-18T11:35:40Z</time>
      </trkpt>
      <trkpt lat="45.42341" lon="4.65288">
        <ele>630.13</ele>
        <time>2021-09-18T11:35:41Z</time>
      </trkpt>
      <trkpt lat="45.4234" lon="4.65286">
        <ele>630.25</ele>
        <time>2021-09-18T11:35:42Z</time>
      </trkpt>
      <trkpt lat="45.4234" lon="4.65284">
        <ele>630.36</ele>
        <time>2021-09-18T11:35:43Z</time>
      </trkpt>
      <trkpt lat="45.42339" lon="4.65281">
        <ele>630.52</ele>
        <time>2021-09-18T11:35:44Z</time>
      </trkpt>
      <trkpt lat="45.42339" lon="4.65275">
        <ele>630.87</ele>
        <time>2021-09-18T11:35:47Z</time>
      </trkpt>
      <trkpt lat="45.42338" lon="4.65273">
        <ele>631</ele>
        <time>2021-09-18T11:35:48Z</time>
      </trkpt>
      <trkpt lat="45.42337" lon="4.6527">
        <ele>631.19</ele>
        <time>2021-09-18T11:35:49Z</time>
      </trkpt>
      <trkpt lat="45.42337" lon="4.65268">
        <ele>631.3</ele>
        <time>2021-09-18T11:35:50Z</time>
      </trkpt>
      <trkpt lat="45.42337" lon="4.65266">
        <ele>631.4</ele>
        <time>2021-09-18T11:35:51Z</time>
      </trkpt>
      <trkpt lat="45.42336" lon="4.65263">
        <ele>631.48</ele>
        <time>2021-09-18T11:35:52Z</time>
      </trkpt>
      <trkpt lat="45.42335" lon="4.65261">
        <ele>631.6</ele>
        <time>2021-09-18T11:35:53Z</time>
      </trkpt>
      <trkpt lat="45.42334" lon="4.65258">
        <ele>631.71</ele>
        <time>2021-09-18T11:35:54Z</time>
      </trkpt>
      <trkpt lat="45.42334" lon="4.65256">
        <ele>631.86</ele>
        <time>2021-09-18T11:35:55Z</time>
      </trkpt>
      <trkpt lat="45.42333" lon="4.65254">
        <ele>631.95</ele>
        <time>2021-09-18T11:35:56Z</time>
      </trkpt>
      <trkpt lat="45.42332" lon="4.65252">
        <ele>632.11</ele>
        <time>2021-09-18T11:35:57Z</time>
      </trkpt>
      <trkpt lat="45.42332" lon="4.65249">
        <ele>632.21</ele>
        <time>2021-09-18T11:35:58Z</time>
      </trkpt>
      <trkpt lat="45.42332" lon="4.65247">
        <ele>632.27</ele>
        <time>2021-09-18T11:35:59Z</time>
      </trkpt>
      <trkpt lat="45.42332" lon="4.65244">
        <ele>632.37</ele>
        <time>2021-09-18T11:36:00Z</time>
      </trkpt>
      <trkpt lat="45.42331" lon="4.65242">
        <ele>632.44</ele>
        <time>2021-09-18T11:36:01Z</time>
      </trkpt>
      <trkpt lat="45.4233" lon="4.65239">
        <ele>632.58</ele>
        <time>2021-09-18T11:36:02Z</time>
      </trkpt>
      <trkpt lat="45.4233" lon="4.65236">
        <ele>632.77</ele>
        <time>2021-09-18T11:36:03Z</time>
      </trkpt>
      <trkpt lat="45.4233" lon="4.65234">
        <ele>632.9</ele>
        <time>2021-09-18T11:36:04Z</time>
      </trkpt>
      <trkpt lat="45.42329" lon="4.65231">
        <ele>633.03</ele>
        <time>2021-09-18T11:36:05Z</time>
      </trkpt>
      <trkpt lat="45.42329" lon="4.65228">
        <ele>633.15</ele>
        <time>2021-09-18T11:36:06Z</time>
      </trkpt>
      <trkpt lat="45.42326" lon="4.6522">
        <ele>633.82</ele>
        <time>2021-09-18T11:36:11Z</time>
      </trkpt>
      <trkpt lat="45.42326" lon="4.65217">
        <ele>633.99</ele>
        <time>2021-09-18T11:36:12Z</time>
      </trkpt>
      <trkpt lat="45.42326" lon="4.65213">
        <ele>634.18</ele>
        <time>2021-09-18T11:36:14Z</time>
      </trkpt>
      <trkpt lat="45.42325" lon="4.65211">
        <ele>634.3</ele>
        <time>2021-09-18T11:36:15Z</time>
      </trkpt>
      <trkpt lat="45.42324" lon="4.65208">
        <ele>634.46</ele>
        <time>2021-09-18T11:36:16Z</time>
      </trkpt>
      <trkpt lat="45.42324" lon="4.65206">
        <ele>634.62</ele>
        <time>2021-09-18T11:36:17Z</time>
      </trkpt>
      <trkpt lat="45.42323" lon="4.65204">
        <ele>634.72</ele>
        <time>2021-09-18T11:36:18Z</time>
      </trkpt>
      <trkpt lat="45.42323" lon="4.65201">
        <ele>634.85</ele>
        <time>2021-09-18T11:36:19Z</time>
      </trkpt>
      <trkpt lat="45.42322" lon="4.65199">
        <ele>634.99</ele>
        <time>2021-09-18T11:36:20Z</time>
      </trkpt>
      <trkpt lat="45.42322" lon="4.65196">
        <ele>635.06</ele>
        <time>2021-09-18T11:36:21Z</time>
      </trkpt>
      <trkpt lat="45.42321" lon="4.65194">
        <ele>635.21</ele>
        <time>2021-09-18T11:36:22Z</time>
      </trkpt>
      <trkpt lat="45.42321" lon="4.65192">
        <ele>635.36</ele>
        <time>2021-09-18T11:36:23Z</time>
      </trkpt>
      <trkpt lat="45.42321" lon="4.65189">
        <ele>635.43</ele>
        <time>2021-09-18T11:36:24Z</time>
      </trkpt>
      <trkpt lat="45.42319" lon="4.65187">
        <ele>635.53</ele>
        <time>2021-09-18T11:36:25Z</time>
      </trkpt>
      <trkpt lat="45.42318" lon="4.65185">
        <ele>635.68</ele>
        <time>2021-09-18T11:36:26Z</time>
      </trkpt>
      <trkpt lat="45.42318" lon="4.65183">
        <ele>635.81</ele>
        <time>2021-09-18T11:36:27Z</time>
      </trkpt>
      <trkpt lat="45.42319" lon="4.6518">
        <ele>636.02</ele>
        <time>2021-09-18T11:36:28Z</time>
      </trkpt>
      <trkpt lat="45.42318" lon="4.65178">
        <ele>636.17</ele>
        <time>2021-09-18T11:36:29Z</time>
      </trkpt>
      <trkpt lat="45.42317" lon="4.65176">
        <ele>636.25</ele>
        <time>2021-09-18T11:36:30Z</time>
      </trkpt>
      <trkpt lat="45.42317" lon="4.65173">
        <ele>636.36</ele>
        <time>2021-09-18T11:36:31Z</time>
      </trkpt>
      <trkpt lat="45.42317" lon="4.6517">
        <ele>636.49</ele>
        <time>2021-09-18T11:36:32Z</time>
      </trkpt>
      <trkpt lat="45.42317" lon="4.65168">
        <ele>636.84</ele>
        <time>2021-09-18T11:36:33Z</time>
      </trkpt>
      <trkpt lat="45.42316" lon="4.65166">
        <ele>636.99</ele>
        <time>2021-09-18T11:36:34Z</time>
      </trkpt>
      <trkpt lat="45.42316" lon="4.65165">
        <ele>637.18</ele>
        <time>2021-09-18T11:36:35Z</time>
      </trkpt>
      <trkpt lat="45.42316" lon="4.65163">
        <ele>637.34</ele>
        <time>2021-09-18T11:36:36Z</time>
      </trkpt>
      <trkpt lat="45.42316" lon="4.6516">
        <ele>637.44</ele>
        <time>2021-09-18T11:36:37Z</time>
      </trkpt>
      <trkpt lat="45.42315" lon="4.65158">
        <ele>637.56</ele>
        <time>2021-09-18T11:36:38Z</time>
      </trkpt>
      <trkpt lat="45.42314" lon="4.6515">
        <ele>638.03</ele>
        <time>2021-09-18T11:36:41Z</time>
      </trkpt>
      <trkpt lat="45.42313" lon="4.65148">
        <ele>638.21</ele>
        <time>2021-09-18T11:36:42Z</time>
      </trkpt>
      <trkpt lat="45.42313" lon="4.65145">
        <ele>638.37</ele>
        <time>2021-09-18T11:36:43Z</time>
      </trkpt>
      <trkpt lat="45.42311" lon="4.65132">
        <ele>639.05</ele>
        <time>2021-09-18T11:36:49Z</time>
      </trkpt>
      <trkpt lat="45.4231" lon="4.6513">
        <ele>639.19</ele>
        <time>2021-09-18T11:36:50Z</time>
      </trkpt>
      <trkpt lat="45.4231" lon="4.65128">
        <ele>639.28</ele>
        <time>2021-09-18T11:36:51Z</time>
      </trkpt>
      <trkpt lat="45.42308" lon="4.65125">
        <ele>639.56</ele>
        <time>2021-09-18T11:36:53Z</time>
      </trkpt>
      <trkpt lat="45.42308" lon="4.65123">
        <ele>639.66</ele>
        <time>2021-09-18T11:36:54Z</time>
      </trkpt>
      <trkpt lat="45.42308" lon="4.65121">
        <ele>639.82</ele>
        <time>2021-09-18T11:36:55Z</time>
      </trkpt>
      <trkpt lat="45.42308" lon="4.65118">
        <ele>640</ele>
        <time>2021-09-18T11:36:56Z</time>
      </trkpt>
      <trkpt lat="45.42307" lon="4.65116">
        <ele>640.11</ele>
        <time>2021-09-18T11:36:57Z</time>
      </trkpt>
      <trkpt lat="45.42307" lon="4.65114">
        <ele>640.17</ele>
        <time>2021-09-18T11:36:58Z</time>
      </trkpt>
      <trkpt lat="45.42307" lon="4.65112">
        <ele>640.43</ele>
        <time>2021-09-18T11:36:59Z</time>
      </trkpt>
      <trkpt lat="45.42306" lon="4.65109">
        <ele>640.62</ele>
        <time>2021-09-18T11:37:00Z</time>
      </trkpt>
      <trkpt lat="45.42305" lon="4.65107">
        <ele>640.72</ele>
        <time>2021-09-18T11:37:01Z</time>
      </trkpt>
      <trkpt lat="45.42305" lon="4.65105">
        <ele>640.84</ele>
        <time>2021-09-18T11:37:02Z</time>
      </trkpt>
      <trkpt lat="45.42305" lon="4.65103">
        <ele>640.96</ele>
        <time>2021-09-18T11:37:03Z</time>
      </trkpt>
      <trkpt lat="45.42305" lon="4.65101">
        <ele>641.06</ele>
        <time>2021-09-18T11:37:04Z</time>
      </trkpt>
      <trkpt lat="45.42305" lon="4.65099">
        <ele>641.25</ele>
        <time>2021-09-18T11:37:05Z</time>
      </trkpt>
      <trkpt lat="45.42304" lon="4.65097">
        <ele>641.39</ele>
        <time>2021-09-18T11:37:06Z</time>
      </trkpt>
      <trkpt lat="45.42304" lon="4.65095">
        <ele>641.47</ele>
        <time>2021-09-18T11:37:07Z</time>
      </trkpt>
      <trkpt lat="45.42303" lon="4.65092">
        <ele>641.55</ele>
        <time>2021-09-18T11:37:08Z</time>
      </trkpt>
      <trkpt lat="45.42303" lon="4.65089">
        <ele>641.63</ele>
        <time>2021-09-18T11:37:09Z</time>
      </trkpt>
      <trkpt lat="45.42302" lon="4.65086">
        <ele>641.78</ele>
        <time>2021-09-18T11:37:10Z</time>
      </trkpt>
      <trkpt lat="45.42301" lon="4.65077">
        <ele>642.49</ele>
        <time>2021-09-18T11:37:15Z</time>
      </trkpt>
      <trkpt lat="45.423" lon="4.65075">
        <ele>642.54</ele>
        <time>2021-09-18T11:37:16Z</time>
      </trkpt>
      <trkpt lat="45.42299" lon="4.65073">
        <ele>642.67</ele>
        <time>2021-09-18T11:37:17Z</time>
      </trkpt>
      <trkpt lat="45.42298" lon="4.65071">
        <ele>642.73</ele>
        <time>2021-09-18T11:37:18Z</time>
      </trkpt>
      <trkpt lat="45.42298" lon="4.65069">
        <ele>642.85</ele>
        <time>2021-09-18T11:37:19Z</time>
      </trkpt>
      <trkpt lat="45.42298" lon="4.65067">
        <ele>643.08</ele>
        <time>2021-09-18T11:37:20Z</time>
      </trkpt>
      <trkpt lat="45.42297" lon="4.65065">
        <ele>643.21</ele>
        <time>2021-09-18T11:37:21Z</time>
      </trkpt>
      <trkpt lat="45.42296" lon="4.65063">
        <ele>643.28</ele>
        <time>2021-09-18T11:37:22Z</time>
      </trkpt>
      <trkpt lat="45.42296" lon="4.65061">
        <ele>643.37</ele>
        <time>2021-09-18T11:37:23Z</time>
      </trkpt>
      <trkpt lat="45.42296" lon="4.65059">
        <ele>643.49</ele>
        <time>2021-09-18T11:37:24Z</time>
      </trkpt>
      <trkpt lat="45.42296" lon="4.65056">
        <ele>643.78</ele>
        <time>2021-09-18T11:37:25Z</time>
      </trkpt>
      <trkpt lat="45.42295" lon="4.65054">
        <ele>643.94</ele>
        <time>2021-09-18T11:37:26Z</time>
      </trkpt>
      <trkpt lat="45.42294" lon="4.65052">
        <ele>644.09</ele>
        <time>2021-09-18T11:37:27Z</time>
      </trkpt>
      <trkpt lat="45.42294" lon="4.6505">
        <ele>644.21</ele>
        <time>2021-09-18T11:37:28Z</time>
      </trkpt>
      <trkpt lat="45.42293" lon="4.65047">
        <ele>644.29</ele>
        <time>2021-09-18T11:37:29Z</time>
      </trkpt>
      <trkpt lat="45.42291" lon="4.65045">
        <ele>644.41</ele>
        <time>2021-09-18T11:37:30Z</time>
      </trkpt>
      <trkpt lat="45.42291" lon="4.65042">
        <ele>644.55</ele>
        <time>2021-09-18T11:37:31Z</time>
      </trkpt>
      <trkpt lat="45.42291" lon="4.6504">
        <ele>644.65</ele>
        <time>2021-09-18T11:37:32Z</time>
      </trkpt>
      <trkpt lat="45.4229" lon="4.65037">
        <ele>644.74</ele>
        <time>2021-09-18T11:37:33Z</time>
      </trkpt>
      <trkpt lat="45.42289" lon="4.65035">
        <ele>644.86</ele>
        <time>2021-09-18T11:37:34Z</time>
      </trkpt>
      <trkpt lat="45.42288" lon="4.65033">
        <ele>644.99</ele>
        <time>2021-09-18T11:37:35Z</time>
      </trkpt>
      <trkpt lat="45.42289" lon="4.6503">
        <ele>645.12</ele>
        <time>2021-09-18T11:37:36Z</time>
      </trkpt>
      <trkpt lat="45.42288" lon="4.65026">
        <ele>645.25</ele>
        <time>2021-09-18T11:37:37Z</time>
      </trkpt>
      <trkpt lat="45.42288" lon="4.65024">
        <ele>645.37</ele>
        <time>2021-09-18T11:37:38Z</time>
      </trkpt>
      <trkpt lat="45.42288" lon="4.65021">
        <ele>645.5</ele>
        <time>2021-09-18T11:37:39Z</time>
      </trkpt>
      <trkpt lat="45.42288" lon="4.65019">
        <ele>645.66</ele>
        <time>2021-09-18T11:37:40Z</time>
      </trkpt>
      <trkpt lat="45.42287" lon="4.65016">
        <ele>645.82</ele>
        <time>2021-09-18T11:37:41Z</time>
      </trkpt>
      <trkpt lat="45.42286" lon="4.65014">
        <ele>646.04</ele>
        <time>2021-09-18T11:37:42Z</time>
      </trkpt>
      <trkpt lat="45.42286" lon="4.65012">
        <ele>646.17</ele>
        <time>2021-09-18T11:37:43Z</time>
      </trkpt>
      <trkpt lat="45.42286" lon="4.6501">
        <ele>646.29</ele>
        <time>2021-09-18T11:37:44Z</time>
      </trkpt>
      <trkpt lat="45.42285" lon="4.65007">
        <ele>646.4</ele>
        <time>2021-09-18T11:37:45Z</time>
      </trkpt>
      <trkpt lat="45.42284" lon="4.65005">
        <ele>646.59</ele>
        <time>2021-09-18T11:37:46Z</time>
      </trkpt>
      <trkpt lat="45.42285" lon="4.65002">
        <ele>646.79</ele>
        <time>2021-09-18T11:37:47Z</time>
      </trkpt>
      <trkpt lat="45.42284" lon="4.64999">
        <ele>646.99</ele>
        <time>2021-09-18T11:37:48Z</time>
      </trkpt>
      <trkpt lat="45.42284" lon="4.64997">
        <ele>647.11</ele>
        <time>2021-09-18T11:37:49Z</time>
      </trkpt>
      <trkpt lat="45.42284" lon="4.64994">
        <ele>647.18</ele>
        <time>2021-09-18T11:37:50Z</time>
      </trkpt>
      <trkpt lat="45.42284" lon="4.64992">
        <ele>647.56</ele>
        <time>2021-09-18T11:37:51Z</time>
      </trkpt>
      <trkpt lat="45.42284" lon="4.6499">
        <ele>647.71</ele>
        <time>2021-09-18T11:37:52Z</time>
      </trkpt>
      <trkpt lat="45.42283" lon="4.64987">
        <ele>647.87</ele>
        <time>2021-09-18T11:37:53Z</time>
      </trkpt>
      <trkpt lat="45.42283" lon="4.64985">
        <ele>648.05</ele>
        <time>2021-09-18T11:37:54Z</time>
      </trkpt>
      <trkpt lat="45.42283" lon="4.64982">
        <ele>648.24</ele>
        <time>2021-09-18T11:37:55Z</time>
      </trkpt>
      <trkpt lat="45.42283" lon="4.6498">
        <ele>648.44</ele>
        <time>2021-09-18T11:37:56Z</time>
      </trkpt>
      <trkpt lat="45.42283" lon="4.64977">
        <ele>648.53</ele>
        <time>2021-09-18T11:37:57Z</time>
      </trkpt>
      <trkpt lat="45.42283" lon="4.64974">
        <ele>648.63</ele>
        <time>2021-09-18T11:37:58Z</time>
      </trkpt>
      <trkpt lat="45.42282" lon="4.64972">
        <ele>648.74</ele>
        <time>2021-09-18T11:37:59Z</time>
      </trkpt>
      <trkpt lat="45.42282" lon="4.64969">
        <ele>648.85</ele>
        <time>2021-09-18T11:38:00Z</time>
      </trkpt>
      <trkpt lat="45.42282" lon="4.64966">
        <ele>648.99</ele>
        <time>2021-09-18T11:38:01Z</time>
      </trkpt>
      <trkpt lat="45.42282" lon="4.64964">
        <ele>649.15</ele>
        <time>2021-09-18T11:38:02Z</time>
      </trkpt>
      <trkpt lat="45.42281" lon="4.64951">
        <ele>649.75</ele>
        <time>2021-09-18T11:38:07Z</time>
      </trkpt>
      <trkpt lat="45.42282" lon="4.64944">
        <ele>650.17</ele>
        <time>2021-09-18T11:38:11Z</time>
      </trkpt>
      <trkpt lat="45.42281" lon="4.64942">
        <ele>650.33</ele>
        <time>2021-09-18T11:38:12Z</time>
      </trkpt>
      <trkpt lat="45.42281" lon="4.6494">
        <ele>650.45</ele>
        <time>2021-09-18T11:38:13Z</time>
      </trkpt>
      <trkpt lat="45.42282" lon="4.64938">
        <ele>650.53</ele>
        <time>2021-09-18T11:38:14Z</time>
      </trkpt>
      <trkpt lat="45.42282" lon="4.64936">
        <ele>650.59</ele>
        <time>2021-09-18T11:38:15Z</time>
      </trkpt>
      <trkpt lat="45.42282" lon="4.64934">
        <ele>650.68</ele>
        <time>2021-09-18T11:38:16Z</time>
      </trkpt>
      <trkpt lat="45.42282" lon="4.64931">
        <ele>651.01</ele>
        <time>2021-09-18T11:38:17Z</time>
      </trkpt>
      <trkpt lat="45.42281" lon="4.64929">
        <ele>651.14</ele>
        <time>2021-09-18T11:38:18Z</time>
      </trkpt>
      <trkpt lat="45.42282" lon="4.64927">
        <ele>651.21</ele>
        <time>2021-09-18T11:38:19Z</time>
      </trkpt>
      <trkpt lat="45.42281" lon="4.64924">
        <ele>651.25</ele>
        <time>2021-09-18T11:38:20Z</time>
      </trkpt>
      <trkpt lat="45.42281" lon="4.64922">
        <ele>651.38</ele>
        <time>2021-09-18T11:38:21Z</time>
      </trkpt>
      <trkpt lat="45.42281" lon="4.6492">
        <ele>651.51</ele>
        <time>2021-09-18T11:38:22Z</time>
      </trkpt>
      <trkpt lat="45.42282" lon="4.64917">
        <ele>651.65</ele>
        <time>2021-09-18T11:38:23Z</time>
      </trkpt>
      <trkpt lat="45.42282" lon="4.64915">
        <ele>651.75</ele>
        <time>2021-09-18T11:38:24Z</time>
      </trkpt>
      <trkpt lat="45.42281" lon="4.64912">
        <ele>651.87</ele>
        <time>2021-09-18T11:38:25Z</time>
      </trkpt>
      <trkpt lat="45.42281" lon="4.6491">
        <ele>652.03</ele>
        <time>2021-09-18T11:38:26Z</time>
      </trkpt>
      <trkpt lat="45.42281" lon="4.64907">
        <ele>652.19</ele>
        <time>2021-09-18T11:38:27Z</time>
      </trkpt>
      <trkpt lat="45.42281" lon="4.64905">
        <ele>652.29</ele>
        <time>2021-09-18T11:38:28Z</time>
      </trkpt>
      <trkpt lat="45.4228" lon="4.64902">
        <ele>652.37</ele>
        <time>2021-09-18T11:38:29Z</time>
      </trkpt>
      <trkpt lat="45.4228" lon="4.649">
        <ele>652.52</ele>
        <time>2021-09-18T11:38:30Z</time>
      </trkpt>
      <trkpt lat="45.4228" lon="4.64897">
        <ele>652.68</ele>
        <time>2021-09-18T11:38:31Z</time>
      </trkpt>
      <trkpt lat="45.4228" lon="4.64894">
        <ele>652.79</ele>
        <time>2021-09-18T11:38:32Z</time>
      </trkpt>
      <trkpt lat="45.42279" lon="4.64892">
        <ele>652.85</ele>
        <time>2021-09-18T11:38:33Z</time>
      </trkpt>
      <trkpt lat="45.42279" lon="4.64889">
        <ele>652.96</ele>
        <time>2021-09-18T11:38:34Z</time>
      </trkpt>
      <trkpt lat="45.4228" lon="4.64886">
        <ele>653.12</ele>
        <time>2021-09-18T11:38:35Z</time>
      </trkpt>
      <trkpt lat="45.4228" lon="4.64884">
        <ele>653.23</ele>
        <time>2021-09-18T11:38:36Z</time>
      </trkpt>
      <trkpt lat="45.42279" lon="4.64881">
        <ele>653.39</ele>
        <time>2021-09-18T11:38:37Z</time>
      </trkpt>
      <trkpt lat="45.42278" lon="4.64878">
        <ele>653.5</ele>
        <time>2021-09-18T11:38:38Z</time>
      </trkpt>
      <trkpt lat="45.42279" lon="4.64874">
        <ele>653.65</ele>
        <time>2021-09-18T11:38:39Z</time>
      </trkpt>
      <trkpt lat="45.42279" lon="4.6487">
        <ele>653.99</ele>
        <time>2021-09-18T11:38:41Z</time>
      </trkpt>
      <trkpt lat="45.42278" lon="4.64867">
        <ele>654.09</ele>
        <time>2021-09-18T11:38:42Z</time>
      </trkpt>
      <trkpt lat="45.42278" lon="4.64865">
        <ele>654.21</ele>
        <time>2021-09-18T11:38:43Z</time>
      </trkpt>
      <trkpt lat="45.42278" lon="4.64862">
        <ele>654.32</ele>
        <time>2021-09-18T11:38:44Z</time>
      </trkpt>
      <trkpt lat="45.42277" lon="4.64859">
        <ele>654.49</ele>
        <time>2021-09-18T11:38:45Z</time>
      </trkpt>
      <trkpt lat="45.42275" lon="4.64831">
        <ele>655.32</ele>
        <time>2021-09-18T11:38:54Z</time>
      </trkpt>
      <trkpt lat="45.42273" lon="4.64797">
        <ele>656.67</ele>
        <time>2021-09-18T11:39:04Z</time>
      </trkpt>
      <trkpt lat="45.42272" lon="4.64778">
        <ele>657.76</ele>
        <time>2021-09-18T11:39:12Z</time>
      </trkpt>
      <trkpt lat="45.42272" lon="4.64778">
        <ele>658.59</ele>
        <time>2021-09-18T11:39:15Z</time>
      </trkpt>
      <trkpt lat="45.42272" lon="4.64784">
        <ele>659.8</ele>
        <time>2021-09-18T11:39:54Z</time>
      </trkpt>
      <trkpt lat="45.42272" lon="4.6479">
        <ele>659.8</ele>
        <time>2021-09-18T11:39:56Z</time>
      </trkpt>
      <trkpt lat="45.42272" lon="4.64794">
        <ele>659.8</ele>
        <time>2021-09-18T11:39:57Z</time>
      </trkpt>
      <trkpt lat="45.42273" lon="4.6483">
        <ele>659.72</ele>
        <time>2021-09-18T11:40:03Z</time>
      </trkpt>
      <trkpt lat="45.42278" lon="4.64887">
        <ele>658.35</ele>
        <time>2021-09-18T11:40:09Z</time>
      </trkpt>
      <trkpt lat="45.42281" lon="4.64959">
        <ele>655.21</ele>
        <time>2021-09-18T11:40:15Z</time>
      </trkpt>
      <trkpt lat="45.42291" lon="4.65042">
        <ele>651.72</ele>
        <time>2021-09-18T11:40:21Z</time>
      </trkpt>
      <trkpt lat="45.42306" lon="4.65122">
        <ele>648.03</ele>
        <time>2021-09-18T11:40:26Z</time>
      </trkpt>
      <trkpt lat="45.42315" lon="4.65174">
        <ele>644.12</ele>
        <time>2021-09-18T11:40:29Z</time>
      </trkpt>
      <trkpt lat="45.42326" lon="4.65227">
        <ele>640.82</ele>
        <time>2021-09-18T11:40:32Z</time>
      </trkpt>
      <trkpt lat="45.42337" lon="4.65282">
        <ele>636.55</ele>
        <time>2021-09-18T11:40:35Z</time>
      </trkpt>
      <trkpt lat="45.42356" lon="4.65354">
        <ele>632.34</ele>
        <time>2021-09-18T11:40:39Z</time>
      </trkpt>
      <trkpt lat="45.42374" lon="4.65408">
        <ele>628.59</ele>
        <time>2021-09-18T11:40:42Z</time>
      </trkpt>
      <trkpt lat="45.42389" lon="4.65476">
        <ele>624.86</ele>
        <time>2021-09-18T11:40:46Z</time>
      </trkpt>
      <trkpt lat="45.42394" lon="4.65525">
        <ele>621.2</ele>
        <time>2021-09-18T11:40:49Z</time>
      </trkpt>
      <trkpt lat="45.42403" lon="4.65594">
        <ele>617.11</ele>
        <time>2021-09-18T11:40:53Z</time>
      </trkpt>
      <trkpt lat="45.42411" lon="4.65629">
        <ele>615.85</ele>
        <time>2021-09-18T11:40:55Z</time>
      </trkpt>
      <trkpt lat="45.42433" lon="4.65696">
        <ele>612.34</ele>
        <time>2021-09-18T11:40:59Z</time>
      </trkpt>
      <trkpt lat="45.42451" lon="4.65748">
        <ele>609.12</ele>
        <time>2021-09-18T11:41:02Z</time>
      </trkpt>
      <trkpt lat="45.42464" lon="4.65781">
        <ele>607.12</ele>
        <time>2021-09-18T11:41:04Z</time>
      </trkpt>
      <trkpt lat="45.42472" lon="4.65797">
        <ele>606.2</ele>
        <time>2021-09-18T11:41:05Z</time>
      </trkpt>
      <trkpt lat="45.42482" lon="4.65811">
        <ele>605.29</ele>
        <time>2021-09-18T11:41:06Z</time>
      </trkpt>
      <trkpt lat="45.42521" lon="4.65866">
        <ele>601.34</ele>
        <time>2021-09-18T11:41:10Z</time>
      </trkpt>
      <trkpt lat="45.42567" lon="4.65911">
        <ele>597.44</ele>
        <time>2021-09-18T11:41:14Z</time>
      </trkpt>
      <trkpt lat="45.42594" lon="4.65934">
        <ele>594.19</ele>
        <time>2021-09-18T11:41:17Z</time>
      </trkpt>
      <trkpt lat="45.42601" lon="4.65938">
        <ele>593.26</ele>
        <time>2021-09-18T11:41:18Z</time>
      </trkpt>
      <trkpt lat="45.42608" lon="4.6594">
        <ele>590.94</ele>
        <time>2021-09-18T11:41:19Z</time>
      </trkpt>
      <trkpt lat="45.42633" lon="4.65947">
        <ele>588.6</ele>
        <time>2021-09-18T11:41:23Z</time>
      </trkpt>
      <trkpt lat="45.42641" lon="4.65949">
        <ele>588.24</ele>
        <time>2021-09-18T11:41:25Z</time>
      </trkpt>
      <trkpt lat="45.42643" lon="4.65947">
        <ele>588.08</ele>
        <time>2021-09-18T11:41:26Z</time>
      </trkpt>
      <trkpt lat="45.42643" lon="4.65945">
        <ele>587.73</ele>
        <time>2021-09-18T11:41:27Z</time>
      </trkpt>
      <trkpt lat="45.42641" lon="4.65942">
        <ele>587.55</ele>
        <time>2021-09-18T11:41:32Z</time>
      </trkpt>
      <trkpt lat="45.42645" lon="4.65949">
        <ele>587.46</ele>
        <time>2021-09-18T11:41:39Z</time>
      </trkpt>
      <trkpt lat="45.42664" lon="4.65957">
        <ele>587.35</ele>
        <time>2021-09-18T11:41:44Z</time>
      </trkpt>
      <trkpt lat="45.42701" lon="4.65975">
        <ele>586.5</ele>
        <time>2021-09-18T11:41:50Z</time>
      </trkpt>
      <trkpt lat="45.42742" lon="4.65997">
        <ele>583.51</ele>
        <time>2021-09-18T11:41:55Z</time>
      </trkpt>
      <trkpt lat="45.42751" lon="4.65999">
        <ele>582.77</ele>
        <time>2021-09-18T11:41:56Z</time>
      </trkpt>
      <trkpt lat="45.42761" lon="4.66">
        <ele>582.07</ele>
        <time>2021-09-18T11:41:57Z</time>
      </trkpt>
      <trkpt lat="45.42771" lon="4.65998">
        <ele>581.28</ele>
        <time>2021-09-18T11:41:58Z</time>
      </trkpt>
      <trkpt lat="45.42781" lon="4.65995">
        <ele>580.44</ele>
        <time>2021-09-18T11:41:59Z</time>
      </trkpt>
      <trkpt lat="45.42799" lon="4.65987">
        <ele>578.79</ele>
        <time>2021-09-18T11:42:01Z</time>
      </trkpt>
      <trkpt lat="45.42807" lon="4.6598">
        <ele>578.1</ele>
        <time>2021-09-18T11:42:02Z</time>
      </trkpt>
      <trkpt lat="45.42813" lon="4.65972">
        <ele>577.36</ele>
        <time>2021-09-18T11:42:03Z</time>
      </trkpt>
      <trkpt lat="45.42833" lon="4.65944">
        <ele>574.11</ele>
        <time>2021-09-18T11:42:07Z</time>
      </trkpt>
      <trkpt lat="45.42842" lon="4.65935">
        <ele>572.83</ele>
        <time>2021-09-18T11:42:09Z</time>
      </trkpt>
      <trkpt lat="45.42846" lon="4.65934">
        <ele>572.46</ele>
        <time>2021-09-18T11:42:10Z</time>
      </trkpt>
      <trkpt lat="45.4285" lon="4.65935">
        <ele>572.02</ele>
        <time>2021-09-18T11:42:11Z</time>
      </trkpt>
      <trkpt lat="45.42852" lon="4.65939">
        <ele>571.89</ele>
        <time>2021-09-18T11:42:12Z</time>
      </trkpt>
      <trkpt lat="45.42852" lon="4.65946">
        <ele>571.81</ele>
        <time>2021-09-18T11:42:13Z</time>
      </trkpt>
      <trkpt lat="45.4285" lon="4.65952">
        <ele>571.71</ele>
        <time>2021-09-18T11:42:14Z</time>
      </trkpt>
      <trkpt lat="45.42847" lon="4.65959">
        <ele>571.66</ele>
        <time>2021-09-18T11:42:15Z</time>
      </trkpt>
      <trkpt lat="45.42819" lon="4.66019">
        <ele>569.61</ele>
        <time>2021-09-18T11:42:23Z</time>
      </trkpt>
      <trkpt lat="45.428" lon="4.66087">
        <ele>566.41</ele>
        <time>2021-09-18T11:42:30Z</time>
      </trkpt>
      <trkpt lat="45.42795" lon="4.66109">
        <ele>565.4</ele>
        <time>2021-09-18T11:42:32Z</time>
      </trkpt>
      <trkpt lat="45.42791" lon="4.66119">
        <ele>564.71</ele>
        <time>2021-09-18T11:42:33Z</time>
      </trkpt>
      <trkpt lat="45.42786" lon="4.66128">
        <ele>564.27</ele>
        <time>2021-09-18T11:42:34Z</time>
      </trkpt>
      <trkpt lat="45.42778" lon="4.66134">
        <ele>564.03</ele>
        <time>2021-09-18T11:42:35Z</time>
      </trkpt>
      <trkpt lat="45.4277" lon="4.66135">
        <ele>563.81</ele>
        <time>2021-09-18T11:42:36Z</time>
      </trkpt>
      <trkpt lat="45.42762" lon="4.66133">
        <ele>563.31</ele>
        <time>2021-09-18T11:42:37Z</time>
      </trkpt>
      <trkpt lat="45.42754" lon="4.66128">
        <ele>563.08</ele>
        <time>2021-09-18T11:42:38Z</time>
      </trkpt>
      <trkpt lat="45.42746" lon="4.66122">
        <ele>562.81</ele>
        <time>2021-09-18T11:42:39Z</time>
      </trkpt>
      <trkpt lat="45.42739" lon="4.66115">
        <ele>562.45</ele>
        <time>2021-09-18T11:42:40Z</time>
      </trkpt>
      <trkpt lat="45.42732" lon="4.66107">
        <ele>562.09</ele>
        <time>2021-09-18T11:42:41Z</time>
      </trkpt>
      <trkpt lat="45.42686" lon="4.6607">
        <ele>559.63</ele>
        <time>2021-09-18T11:42:47Z</time>
      </trkpt>
      <trkpt lat="45.42606" lon="4.66043">
        <ele>556.98</ele>
        <time>2021-09-18T11:42:56Z</time>
      </trkpt>
      <trkpt lat="45.42566" lon="4.66041">
        <ele>555.07</ele>
        <time>2021-09-18T11:43:00Z</time>
      </trkpt>
      <trkpt lat="45.42525" lon="4.66042">
        <ele>552.95</ele>
        <time>2021-09-18T11:43:04Z</time>
      </trkpt>
      <trkpt lat="45.42514" lon="4.66045">
        <ele>552.51</ele>
        <time>2021-09-18T11:43:05Z</time>
      </trkpt>
      <trkpt lat="45.4245" lon="4.66074">
        <ele>548.84</ele>
        <time>2021-09-18T11:43:12Z</time>
      </trkpt>
      <trkpt lat="45.42443" lon="4.6608">
        <ele>548.43</ele>
        <time>2021-09-18T11:43:13Z</time>
      </trkpt>
      <trkpt lat="45.42436" lon="4.66088">
        <ele>548.22</ele>
        <time>2021-09-18T11:43:14Z</time>
      </trkpt>
      <trkpt lat="45.4243" lon="4.66096">
        <ele>548.12</ele>
        <time>2021-09-18T11:43:15Z</time>
      </trkpt>
      <trkpt lat="45.42426" lon="4.66105">
        <ele>548.06</ele>
        <time>2021-09-18T11:43:16Z</time>
      </trkpt>
      <trkpt lat="45.42421" lon="4.66114">
        <ele>548.03</ele>
        <time>2021-09-18T11:43:17Z</time>
      </trkpt>
      <trkpt lat="45.42402" lon="4.66169">
        <ele>548.1</ele>
        <time>2021-09-18T11:43:23Z</time>
      </trkpt>
      <trkpt lat="45.42394" lon="4.66184">
        <ele>548.2</ele>
        <time>2021-09-18T11:43:25Z</time>
      </trkpt>
      <trkpt lat="45.4239" lon="4.6619">
        <ele>548.35</ele>
        <time>2021-09-18T11:43:26Z</time>
      </trkpt>
      <trkpt lat="45.42385" lon="4.66196">
        <ele>548.62</ele>
        <time>2021-09-18T11:43:27Z</time>
      </trkpt>
      <trkpt lat="45.4238" lon="4.662">
        <ele>548.69</ele>
        <time>2021-09-18T11:43:28Z</time>
      </trkpt>
      <trkpt lat="45.42374" lon="4.66203">
        <ele>548.76</ele>
        <time>2021-09-18T11:43:29Z</time>
      </trkpt>
      <trkpt lat="45.42369" lon="4.66205">
        <ele>548.94</ele>
        <time>2021-09-18T11:43:30Z</time>
      </trkpt>
      <trkpt lat="45.42364" lon="4.66207">
        <ele>549.04</ele>
        <time>2021-09-18T11:43:31Z</time>
      </trkpt>
      <trkpt lat="45.42359" lon="4.66208">
        <ele>549.16</ele>
        <time>2021-09-18T11:43:32Z</time>
      </trkpt>
      <trkpt lat="45.42354" lon="4.66208">
        <ele>549.23</ele>
        <time>2021-09-18T11:43:33Z</time>
      </trkpt>
      <trkpt lat="45.42349" lon="4.66208">
        <ele>549.26</ele>
        <time>2021-09-18T11:43:34Z</time>
      </trkpt>
      <trkpt lat="45.42298" lon="4.6621">
        <ele>549.32</ele>
        <time>2021-09-18T11:43:43Z</time>
      </trkpt>
      <trkpt lat="45.42261" lon="4.66221">
        <ele>548.77</ele>
        <time>2021-09-18T11:43:49Z</time>
      </trkpt>
      <trkpt lat="45.42217" lon="4.66251">
        <ele>546.83</ele>
        <time>2021-09-18T11:43:56Z</time>
      </trkpt>
      <trkpt lat="45.42157" lon="4.66294">
        <ele>544.48</ele>
        <time>2021-09-18T11:44:04Z</time>
      </trkpt>
      <trkpt lat="45.4212" lon="4.66306">
        <ele>541.75</ele>
        <time>2021-09-18T11:44:08Z</time>
      </trkpt>
      <trkpt lat="45.42111" lon="4.66306">
        <ele>541.25</ele>
        <time>2021-09-18T11:44:09Z</time>
      </trkpt>
      <trkpt lat="45.42062" lon="4.66307">
        <ele>538.16</ele>
        <time>2021-09-18T11:44:14Z</time>
      </trkpt>
      <trkpt lat="45.42053" lon="4.66311">
        <ele>537.55</ele>
        <time>2021-09-18T11:44:15Z</time>
      </trkpt>
      <trkpt lat="45.42044" lon="4.66316">
        <ele>537.05</ele>
        <time>2021-09-18T11:44:16Z</time>
      </trkpt>
      <trkpt lat="45.42036" lon="4.66323">
        <ele>536.4</ele>
        <time>2021-09-18T11:44:17Z</time>
      </trkpt>
      <trkpt lat="45.42028" lon="4.66332">
        <ele>535.75</ele>
        <time>2021-09-18T11:44:18Z</time>
      </trkpt>
      <trkpt lat="45.42021" lon="4.66343">
        <ele>535.07</ele>
        <time>2021-09-18T11:44:19Z</time>
      </trkpt>
      <trkpt lat="45.42014" lon="4.66354">
        <ele>534.07</ele>
        <time>2021-09-18T11:44:20Z</time>
      </trkpt>
      <trkpt lat="45.42008" lon="4.66366">
        <ele>533.82</ele>
        <time>2021-09-18T11:44:21Z</time>
      </trkpt>
      <trkpt lat="45.41966" lon="4.66456">
        <ele>530.8</ele>
        <time>2021-09-18T11:44:28Z</time>
      </trkpt>
      <trkpt lat="45.41924" lon="4.6653">
        <ele>527.65</ele>
        <time>2021-09-18T11:44:34Z</time>
      </trkpt>
      <trkpt lat="45.41872" lon="4.66584">
        <ele>524.63</ele>
        <time>2021-09-18T11:44:40Z</time>
      </trkpt>
      <trkpt lat="45.41834" lon="4.66631">
        <ele>521.45</ele>
        <time>2021-09-18T11:44:45Z</time>
      </trkpt>
      <trkpt lat="45.41828" lon="4.66642">
        <ele>521.27</ele>
        <time>2021-09-18T11:44:46Z</time>
      </trkpt>
      <trkpt lat="45.41823" lon="4.66654">
        <ele>520.95</ele>
        <time>2021-09-18T11:44:47Z</time>
      </trkpt>
      <trkpt lat="45.41818" lon="4.66667">
        <ele>520.73</ele>
        <time>2021-09-18T11:44:48Z</time>
      </trkpt>
      <trkpt lat="45.41815" lon="4.6668">
        <ele>520.49</ele>
        <time>2021-09-18T11:44:49Z</time>
      </trkpt>
      <trkpt lat="45.41812" lon="4.66693">
        <ele>520.34</ele>
        <time>2021-09-18T11:44:50Z</time>
      </trkpt>
      <trkpt lat="45.4181" lon="4.66707">
        <ele>520.23</ele>
        <time>2021-09-18T11:44:51Z</time>
      </trkpt>
      <trkpt lat="45.41808" lon="4.6672">
        <ele>520.14</ele>
        <time>2021-09-18T11:44:52Z</time>
      </trkpt>
      <trkpt lat="45.41807" lon="4.66734">
        <ele>520</ele>
        <time>2021-09-18T11:44:53Z</time>
      </trkpt>
      <trkpt lat="45.41802" lon="4.66865">
        <ele>517.16</ele>
        <time>2021-09-18T11:45:03Z</time>
      </trkpt>
      <trkpt lat="45.418" lon="4.66953">
        <ele>515.1</ele>
        <time>2021-09-18T11:45:10Z</time>
      </trkpt>
      <trkpt lat="45.41794" lon="4.67045">
        <ele>513.98</ele>
        <time>2021-09-18T11:45:17Z</time>
      </trkpt>
      <trkpt lat="45.41792" lon="4.67082">
        <ele>513.06</ele>
        <time>2021-09-18T11:45:20Z</time>
      </trkpt>
      <trkpt lat="45.41792" lon="4.67105">
        <ele>512.11</ele>
        <time>2021-09-18T11:45:22Z</time>
      </trkpt>
      <trkpt lat="45.4179" lon="4.67115">
        <ele>511.62</ele>
        <time>2021-09-18T11:45:23Z</time>
      </trkpt>
      <trkpt lat="45.41785" lon="4.67123">
        <ele>510.96</ele>
        <time>2021-09-18T11:45:24Z</time>
      </trkpt>
      <trkpt lat="45.41778" lon="4.6713">
        <ele>510.23</ele>
        <time>2021-09-18T11:45:25Z</time>
      </trkpt>
      <trkpt lat="45.41771" lon="4.67136">
        <ele>509.38</ele>
        <time>2021-09-18T11:45:26Z</time>
      </trkpt>
      <trkpt lat="45.41762" lon="4.67141">
        <ele>508.83</ele>
        <time>2021-09-18T11:45:27Z</time>
      </trkpt>
      <trkpt lat="45.41753" lon="4.67144">
        <ele>508.52</ele>
        <time>2021-09-18T11:45:28Z</time>
      </trkpt>
      <trkpt lat="45.41744" lon="4.67144">
        <ele>508.28</ele>
        <time>2021-09-18T11:45:29Z</time>
      </trkpt>
      <trkpt lat="45.41736" lon="4.6714">
        <ele>508.07</ele>
        <time>2021-09-18T11:45:30Z</time>
      </trkpt>
      <trkpt lat="45.41728" lon="4.67134">
        <ele>507.92</ele>
        <time>2021-09-18T11:45:31Z</time>
      </trkpt>
      <trkpt lat="45.4172" lon="4.67126">
        <ele>507.71</ele>
        <time>2021-09-18T11:45:32Z</time>
      </trkpt>
      <trkpt lat="45.41713" lon="4.67117">
        <ele>507</ele>
        <time>2021-09-18T11:45:33Z</time>
      </trkpt>
      <trkpt lat="45.41694" lon="4.67087">
        <ele>504.55</ele>
        <time>2021-09-18T11:45:36Z</time>
      </trkpt>
      <trkpt lat="45.41689" lon="4.67075">
        <ele>503.43</ele>
        <time>2021-09-18T11:45:37Z</time>
      </trkpt>
      <trkpt lat="45.41673" lon="4.66993">
        <ele>501.58</ele>
        <time>2021-09-18T11:45:43Z</time>
      </trkpt>
      <trkpt lat="45.41672" lon="4.66949">
        <ele>500.29</ele>
        <time>2021-09-18T11:45:46Z</time>
      </trkpt>
      <trkpt lat="45.41678" lon="4.6688">
        <ele>498.67</ele>
        <time>2021-09-18T11:45:51Z</time>
      </trkpt>
      <trkpt lat="45.41676" lon="4.66869">
        <ele>498.26</ele>
        <time>2021-09-18T11:45:52Z</time>
      </trkpt>
      <trkpt lat="45.41673" lon="4.66859">
        <ele>497.67</ele>
        <time>2021-09-18T11:45:53Z</time>
      </trkpt>
      <trkpt lat="45.41668" lon="4.66852">
        <ele>496.89</ele>
        <time>2021-09-18T11:45:54Z</time>
      </trkpt>
      <trkpt lat="45.41662" lon="4.66848">
        <ele>496.12</ele>
        <time>2021-09-18T11:45:55Z</time>
      </trkpt>
      <trkpt lat="45.41656" lon="4.66848">
        <ele>495.59</ele>
        <time>2021-09-18T11:45:56Z</time>
      </trkpt>
      <trkpt lat="45.4165" lon="4.66853">
        <ele>495.23</ele>
        <time>2021-09-18T11:45:57Z</time>
      </trkpt>
      <trkpt lat="45.41647" lon="4.66861">
        <ele>495.03</ele>
        <time>2021-09-18T11:45:58Z</time>
      </trkpt>
      <trkpt lat="45.41644" lon="4.66871">
        <ele>494.89</ele>
        <time>2021-09-18T11:45:59Z</time>
      </trkpt>
      <trkpt lat="45.41641" lon="4.66881">
        <ele>494.81</ele>
        <time>2021-09-18T11:46:00Z</time>
      </trkpt>
      <trkpt lat="45.41639" lon="4.66892">
        <ele>494.75</ele>
        <time>2021-09-18T11:46:01Z</time>
      </trkpt>
      <trkpt lat="45.41628" lon="4.66976">
        <ele>493.51</ele>
        <time>2021-09-18T11:46:08Z</time>
      </trkpt>
      <trkpt lat="45.41619" lon="4.67058">
        <ele>490.29</ele>
        <time>2021-09-18T11:46:14Z</time>
      </trkpt>
      <trkpt lat="45.41618" lon="4.67072">
        <ele>489.66</ele>
        <time>2021-09-18T11:46:15Z</time>
      </trkpt>
      <trkpt lat="45.41618" lon="4.67087">
        <ele>489.03</ele>
        <time>2021-09-18T11:46:16Z</time>
      </trkpt>
      <trkpt lat="45.41621" lon="4.67162">
        <ele>486.01</ele>
        <time>2021-09-18T11:46:21Z</time>
      </trkpt>
      <trkpt lat="45.41624" lon="4.67237">
        <ele>482.61</ele>
        <time>2021-09-18T11:46:26Z</time>
      </trkpt>
      <trkpt lat="45.41628" lon="4.67298">
        <ele>479.33</ele>
        <time>2021-09-18T11:46:30Z</time>
      </trkpt>
      <trkpt lat="45.41631" lon="4.67374">
        <ele>476.13</ele>
        <time>2021-09-18T11:46:35Z</time>
      </trkpt>
      <trkpt lat="45.41635" lon="4.67435">
        <ele>472.79</ele>
        <time>2021-09-18T11:46:39Z</time>
      </trkpt>
      <trkpt lat="45.41642" lon="4.67512">
        <ele>469.24</ele>
        <time>2021-09-18T11:46:44Z</time>
      </trkpt>
      <trkpt lat="45.41657" lon="4.67603">
        <ele>466.15</ele>
        <time>2021-09-18T11:46:50Z</time>
      </trkpt>
      <trkpt lat="45.41678" lon="4.6769">
        <ele>462.81</ele>
        <time>2021-09-18T11:46:56Z</time>
      </trkpt>
      <trkpt lat="45.41697" lon="4.67762">
        <ele>459.38</ele>
        <time>2021-09-18T11:47:01Z</time>
      </trkpt>
      <trkpt lat="45.41728" lon="4.67842">
        <ele>456.71</ele>
        <time>2021-09-18T11:47:07Z</time>
      </trkpt>
      <trkpt lat="45.41742" lon="4.67861">
        <ele>455.1</ele>
        <time>2021-09-18T11:47:09Z</time>
      </trkpt>
      <trkpt lat="45.4175" lon="4.67868">
        <ele>454.36</ele>
        <time>2021-09-18T11:47:10Z</time>
      </trkpt>
      <trkpt lat="45.41758" lon="4.67875">
        <ele>453.98</ele>
        <time>2021-09-18T11:47:11Z</time>
      </trkpt>
      <trkpt lat="45.41767" lon="4.67879">
        <ele>453.65</ele>
        <time>2021-09-18T11:47:12Z</time>
      </trkpt>
      <trkpt lat="45.41776" lon="4.67882">
        <ele>453.24</ele>
        <time>2021-09-18T11:47:13Z</time>
      </trkpt>
      <trkpt lat="45.41786" lon="4.67884">
        <ele>452.9</ele>
        <time>2021-09-18T11:47:14Z</time>
      </trkpt>
      <trkpt lat="45.41795" lon="4.67883">
        <ele>452.69</ele>
        <time>2021-09-18T11:47:15Z</time>
      </trkpt>
      <trkpt lat="45.41804" lon="4.67882">
        <ele>452.56</ele>
        <time>2021-09-18T11:47:16Z</time>
      </trkpt>
      <trkpt lat="45.41812" lon="4.67879">
        <ele>452.5</ele>
        <time>2021-09-18T11:47:17Z</time>
      </trkpt>
      <trkpt lat="45.41819" lon="4.67875">
        <ele>452.38</ele>
        <time>2021-09-18T11:47:18Z</time>
      </trkpt>
      <trkpt lat="45.41826" lon="4.67869">
        <ele>451.93</ele>
        <time>2021-09-18T11:47:19Z</time>
      </trkpt>
      <trkpt lat="45.41833" lon="4.67863">
        <ele>451.42</ele>
        <time>2021-09-18T11:47:20Z</time>
      </trkpt>
      <trkpt lat="45.41839" lon="4.67855">
        <ele>450.78</ele>
        <time>2021-09-18T11:47:21Z</time>
      </trkpt>
      <trkpt lat="45.41846" lon="4.67847">
        <ele>450.63</ele>
        <time>2021-09-18T11:47:22Z</time>
      </trkpt>
      <trkpt lat="45.41862" lon="4.67825">
        <ele>450.22</ele>
        <time>2021-09-18T11:47:25Z</time>
      </trkpt>
      <trkpt lat="45.41868" lon="4.67822">
        <ele>450.06</ele>
        <time>2021-09-18T11:47:26Z</time>
      </trkpt>
      <trkpt lat="45.41874" lon="4.67821">
        <ele>449.95</ele>
        <time>2021-09-18T11:47:27Z</time>
      </trkpt>
      <trkpt lat="45.4188" lon="4.67822">
        <ele>449.88</ele>
        <time>2021-09-18T11:47:28Z</time>
      </trkpt>
      <trkpt lat="45.41887" lon="4.67825">
        <ele>449.8</ele>
        <time>2021-09-18T11:47:29Z</time>
      </trkpt>
      <trkpt lat="45.41893" lon="4.67831">
        <ele>449.67</ele>
        <time>2021-09-18T11:47:30Z</time>
      </trkpt>
      <trkpt lat="45.41896" lon="4.6784">
        <ele>449.47</ele>
        <time>2021-09-18T11:47:31Z</time>
      </trkpt>
      <trkpt lat="45.41898" lon="4.67851">
        <ele>449.34</ele>
        <time>2021-09-18T11:47:32Z</time>
      </trkpt>
      <trkpt lat="45.41897" lon="4.67862">
        <ele>449.25</ele>
        <time>2021-09-18T11:47:33Z</time>
      </trkpt>
      <trkpt lat="45.41894" lon="4.67873">
        <ele>449.13</ele>
        <time>2021-09-18T11:47:34Z</time>
      </trkpt>
      <trkpt lat="45.41889" lon="4.67884">
        <ele>449.03</ele>
        <time>2021-09-18T11:47:35Z</time>
      </trkpt>
      <trkpt lat="45.41884" lon="4.67894">
        <ele>448.96</ele>
        <time>2021-09-18T11:47:36Z</time>
      </trkpt>
      <trkpt lat="45.41852" lon="4.6796">
        <ele>445.68</ele>
        <time>2021-09-18T11:47:42Z</time>
      </trkpt>
      <trkpt lat="45.41831" lon="4.68005">
        <ele>443.08</ele>
        <time>2021-09-18T11:47:46Z</time>
      </trkpt>
      <trkpt lat="45.41809" lon="4.68051">
        <ele>439.73</ele>
        <time>2021-09-18T11:47:50Z</time>
      </trkpt>
      <trkpt lat="45.4178" lon="4.68113">
        <ele>436.6</ele>
        <time>2021-09-18T11:47:56Z</time>
      </trkpt>
      <trkpt lat="45.41778" lon="4.68124">
        <ele>436.27</ele>
        <time>2021-09-18T11:47:57Z</time>
      </trkpt>
      <trkpt lat="45.41778" lon="4.68134">
        <ele>436.06</ele>
        <time>2021-09-18T11:47:58Z</time>
      </trkpt>
      <trkpt lat="45.4178" lon="4.68145">
        <ele>435.92</ele>
        <time>2021-09-18T11:47:59Z</time>
      </trkpt>
      <trkpt lat="45.41783" lon="4.68156">
        <ele>435.84</ele>
        <time>2021-09-18T11:48:00Z</time>
      </trkpt>
      <trkpt lat="45.41786" lon="4.68167">
        <ele>435.72</ele>
        <time>2021-09-18T11:48:01Z</time>
      </trkpt>
      <trkpt lat="45.41821" lon="4.68267">
        <ele>433.38</ele>
        <time>2021-09-18T11:48:10Z</time>
      </trkpt>
      <trkpt lat="45.41839" lon="4.68311">
        <ele>430.21</ele>
        <time>2021-09-18T11:48:14Z</time>
      </trkpt>
      <trkpt lat="45.41891" lon="4.68423">
        <ele>427.02</ele>
        <time>2021-09-18T11:48:24Z</time>
      </trkpt>
      <trkpt lat="45.41914" lon="4.68468">
        <ele>423.63</ele>
        <time>2021-09-18T11:48:28Z</time>
      </trkpt>
      <trkpt lat="45.41942" lon="4.68525">
        <ele>420.36</ele>
        <time>2021-09-18T11:48:33Z</time>
      </trkpt>
      <trkpt lat="45.41952" lon="4.6855">
        <ele>419.93</ele>
        <time>2021-09-18T11:48:35Z</time>
      </trkpt>
      <trkpt lat="45.41955" lon="4.68564">
        <ele>419.55</ele>
        <time>2021-09-18T11:48:36Z</time>
      </trkpt>
      <trkpt lat="45.41958" lon="4.68578">
        <ele>418.99</ele>
        <time>2021-09-18T11:48:37Z</time>
      </trkpt>
      <trkpt lat="45.41966" lon="4.68621">
        <ele>417.42</ele>
        <time>2021-09-18T11:48:40Z</time>
      </trkpt>
      <trkpt lat="45.41983" lon="4.68712">
        <ele>413.85</ele>
        <time>2021-09-18T11:48:46Z</time>
      </trkpt>
      <trkpt lat="45.41997" lon="4.68794">
        <ele>410.75</ele>
        <time>2021-09-18T11:48:51Z</time>
      </trkpt>
      <trkpt lat="45.42015" lon="4.68915">
        <ele>407.65</ele>
        <time>2021-09-18T11:48:58Z</time>
      </trkpt>
      <trkpt lat="45.42017" lon="4.6898">
        <ele>403.82</ele>
        <time>2021-09-18T11:49:02Z</time>
      </trkpt>
      <trkpt lat="45.42015" lon="4.69007">
        <ele>400.96</ele>
        <time>2021-09-18T11:49:04Z</time>
      </trkpt>
      <trkpt lat="45.42012" lon="4.6902">
        <ele>399.89</ele>
        <time>2021-09-18T11:49:05Z</time>
      </trkpt>
      <trkpt lat="45.42006" lon="4.69046">
        <ele>397.68</ele>
        <time>2021-09-18T11:49:07Z</time>
      </trkpt>
      <trkpt lat="45.42005" lon="4.6906">
        <ele>396.8</ele>
        <time>2021-09-18T11:49:08Z</time>
      </trkpt>
      <trkpt lat="45.42004" lon="4.69089">
        <ele>395.99</ele>
        <time>2021-09-18T11:49:10Z</time>
      </trkpt>
      <trkpt lat="45.41994" lon="4.69189">
        <ele>392.8</ele>
        <time>2021-09-18T11:49:17Z</time>
      </trkpt>
      <trkpt lat="45.41988" lon="4.69245">
        <ele>389.31</ele>
        <time>2021-09-18T11:49:21Z</time>
      </trkpt>
      <trkpt lat="45.41985" lon="4.69284">
        <ele>388.02</ele>
        <time>2021-09-18T11:49:24Z</time>
      </trkpt>
      <trkpt lat="45.41984" lon="4.6938">
        <ele>386.43</ele>
        <time>2021-09-18T11:49:32Z</time>
      </trkpt>
      <trkpt lat="45.41997" lon="4.69497">
        <ele>386.01</ele>
        <time>2021-09-18T11:49:42Z</time>
      </trkpt>
      <trkpt lat="45.42014" lon="4.69609">
        <ele>383.26</ele>
        <time>2021-09-18T11:49:50Z</time>
      </trkpt>
      <trkpt lat="45.42026" lon="4.69666">
        <ele>379.93</ele>
        <time>2021-09-18T11:49:54Z</time>
      </trkpt>
      <trkpt lat="45.42032" lon="4.69694">
        <ele>378.51</ele>
        <time>2021-09-18T11:49:56Z</time>
      </trkpt>
      <trkpt lat="45.42053" lon="4.69772">
        <ele>375.32</ele>
        <time>2021-09-18T11:50:02Z</time>
      </trkpt>
      <trkpt lat="45.42056" lon="4.69785">
        <ele>375.06</ele>
        <time>2021-09-18T11:50:03Z</time>
      </trkpt>
      <trkpt lat="45.42066" lon="4.6985">
        <ele>373.95</ele>
        <time>2021-09-18T11:50:08Z</time>
      </trkpt>
      <trkpt lat="45.42066" lon="4.69863">
        <ele>373.81</ele>
        <time>2021-09-18T11:50:09Z</time>
      </trkpt>
      <trkpt lat="45.42064" lon="4.69876">
        <ele>373.54</ele>
        <time>2021-09-18T11:50:10Z</time>
      </trkpt>
      <trkpt lat="45.42047" lon="4.6998">
        <ele>370.64</ele>
        <time>2021-09-18T11:50:18Z</time>
      </trkpt>
      <trkpt lat="45.4202" lon="4.7009">
        <ele>368.31</ele>
        <time>2021-09-18T11:50:26Z</time>
      </trkpt>
      <trkpt lat="45.42015" lon="4.70102">
        <ele>367.72</ele>
        <time>2021-09-18T11:50:27Z</time>
      </trkpt>
      <trkpt lat="45.42009" lon="4.70115">
        <ele>367.2</ele>
        <time>2021-09-18T11:50:28Z</time>
      </trkpt>
      <trkpt lat="45.41965" lon="4.70183">
        <ele>364.06</ele>
        <time>2021-09-18T11:50:34Z</time>
      </trkpt>
      <trkpt lat="45.41926" lon="4.70239">
        <ele>360.49</ele>
        <time>2021-09-18T11:50:39Z</time>
      </trkpt>
      <trkpt lat="45.41881" lon="4.70307">
        <ele>357.32</ele>
        <time>2021-09-18T11:50:45Z</time>
      </trkpt>
      <trkpt lat="45.41833" lon="4.70366">
        <ele>353.35</ele>
        <time>2021-09-18T11:50:51Z</time>
      </trkpt>
      <trkpt lat="45.41786" lon="4.70404">
        <ele>350.22</ele>
        <time>2021-09-18T11:50:56Z</time>
      </trkpt>
      <trkpt lat="45.41699" lon="4.70473">
        <ele>347.12</ele>
        <time>2021-09-18T11:51:05Z</time>
      </trkpt>
      <trkpt lat="45.41638" lon="4.70525">
        <ele>343.73</ele>
        <time>2021-09-18T11:51:11Z</time>
      </trkpt>
      <trkpt lat="45.41602" lon="4.70571">
        <ele>340.2</ele>
        <time>2021-09-18T11:51:15Z</time>
      </trkpt>
      <trkpt lat="45.41595" lon="4.70585">
        <ele>339.51</ele>
        <time>2021-09-18T11:51:16Z</time>
      </trkpt>
      <trkpt lat="45.41589" lon="4.706">
        <ele>338.58</ele>
        <time>2021-09-18T11:51:17Z</time>
      </trkpt>
      <trkpt lat="45.41583" lon="4.70616">
        <ele>337.11</ele>
        <time>2021-09-18T11:51:18Z</time>
      </trkpt>
      <trkpt lat="45.41576" lon="4.7065">
        <ele>333.56</ele>
        <time>2021-09-18T11:51:20Z</time>
      </trkpt>
      <trkpt lat="45.41571" lon="4.70685">
        <ele>330.55</ele>
        <time>2021-09-18T11:51:22Z</time>
      </trkpt>
      <trkpt lat="45.41564" lon="4.70792">
        <ele>326.83</ele>
        <time>2021-09-18T11:51:28Z</time>
      </trkpt>
      <trkpt lat="45.41552" lon="4.70862">
        <ele>322.84</ele>
        <time>2021-09-18T11:51:32Z</time>
      </trkpt>
      <trkpt lat="45.41535" lon="4.70941">
        <ele>318.61</ele>
        <time>2021-09-18T11:51:37Z</time>
      </trkpt>
      <trkpt lat="45.41535" lon="4.70955">
        <ele>317.64</ele>
        <time>2021-09-18T11:51:38Z</time>
      </trkpt>
      <trkpt lat="45.41537" lon="4.7097">
        <ele>316.85</ele>
        <time>2021-09-18T11:51:39Z</time>
      </trkpt>
      <trkpt lat="45.41541" lon="4.70983">
        <ele>316.35</ele>
        <time>2021-09-18T11:51:40Z</time>
      </trkpt>
      <trkpt lat="45.41548" lon="4.70994">
        <ele>315.5</ele>
        <time>2021-09-18T11:51:41Z</time>
      </trkpt>
      <trkpt lat="45.41555" lon="4.71003">
        <ele>314.4</ele>
        <time>2021-09-18T11:51:42Z</time>
      </trkpt>
      <trkpt lat="45.41565" lon="4.7101">
        <ele>313.49</ele>
        <time>2021-09-18T11:51:43Z</time>
      </trkpt>
      <trkpt lat="45.41575" lon="4.71013">
        <ele>312.82</ele>
        <time>2021-09-18T11:51:44Z</time>
      </trkpt>
      <trkpt lat="45.41586" lon="4.71013">
        <ele>312.32</ele>
        <time>2021-09-18T11:51:45Z</time>
      </trkpt>
      <trkpt lat="45.41596" lon="4.7101">
        <ele>312.04</ele>
        <time>2021-09-18T11:51:46Z</time>
      </trkpt>
      <trkpt lat="45.41607" lon="4.71003">
        <ele>311.59</ele>
        <time>2021-09-18T11:51:47Z</time>
      </trkpt>
      <trkpt lat="45.41616" lon="4.70994">
        <ele>311.35</ele>
        <time>2021-09-18T11:51:48Z</time>
      </trkpt>
      <trkpt lat="45.41624" lon="4.70981">
        <ele>311.17</ele>
        <time>2021-09-18T11:51:49Z</time>
      </trkpt>
      <trkpt lat="45.4163" lon="4.70967">
        <ele>311.06</ele>
        <time>2021-09-18T11:51:50Z</time>
      </trkpt>
      <trkpt lat="45.41637" lon="4.70953">
        <ele>311.01</ele>
        <time>2021-09-18T11:51:51Z</time>
      </trkpt>
      <trkpt lat="45.41644" lon="4.70939">
        <ele>310.86</ele>
        <time>2021-09-18T11:51:52Z</time>
      </trkpt>
      <trkpt lat="45.41652" lon="4.70926">
        <ele>310.75</ele>
        <time>2021-09-18T11:51:53Z</time>
      </trkpt>
      <trkpt lat="45.41661" lon="4.70914">
        <ele>310.05</ele>
        <time>2021-09-18T11:51:54Z</time>
      </trkpt>
      <trkpt lat="45.4167" lon="4.70903">
        <ele>309.4</ele>
        <time>2021-09-18T11:51:55Z</time>
      </trkpt>
      <trkpt lat="45.4168" lon="4.70894">
        <ele>308.94</ele>
        <time>2021-09-18T11:51:56Z</time>
      </trkpt>
      <trkpt lat="45.4172" lon="4.70859">
        <ele>305.86</ele>
        <time>2021-09-18T11:52:00Z</time>
      </trkpt>
      <trkpt lat="45.41741" lon="4.70841">
        <ele>302.2</ele>
        <time>2021-09-18T11:52:02Z</time>
      </trkpt>
      <trkpt lat="45.41778" lon="4.70799">
        <ele>299.98</ele>
        <time>2021-09-18T11:52:06Z</time>
      </trkpt>
      <trkpt lat="45.41786" lon="4.70786">
        <ele>299.44</ele>
        <time>2021-09-18T11:52:07Z</time>
      </trkpt>
      <trkpt lat="45.41793" lon="4.70771">
        <ele>298.8</ele>
        <time>2021-09-18T11:52:08Z</time>
      </trkpt>
      <trkpt lat="45.41831" lon="4.70681">
        <ele>295.54</ele>
        <time>2021-09-18T11:52:14Z</time>
      </trkpt>
      <trkpt lat="45.41846" lon="4.70643">
        <ele>292.19</ele>
        <time>2021-09-18T11:52:17Z</time>
      </trkpt>
      <trkpt lat="45.41859" lon="4.70617">
        <ele>289.65</ele>
        <time>2021-09-18T11:52:20Z</time>
      </trkpt>
      <trkpt lat="45.41864" lon="4.70613">
        <ele>289.31</ele>
        <time>2021-09-18T11:52:21Z</time>
      </trkpt>
      <trkpt lat="45.41869" lon="4.70614">
        <ele>289.13</ele>
        <time>2021-09-18T11:52:22Z</time>
      </trkpt>
      <trkpt lat="45.41873" lon="4.70619">
        <ele>289.05</ele>
        <time>2021-09-18T11:52:23Z</time>
      </trkpt>
      <trkpt lat="45.41874" lon="4.70627">
        <ele>288.99</ele>
        <time>2021-09-18T11:52:24Z</time>
      </trkpt>
      <trkpt lat="45.41873" lon="4.70635">
        <ele>288.92</ele>
        <time>2021-09-18T11:52:25Z</time>
      </trkpt>
      <trkpt lat="45.4187" lon="4.70642">
        <ele>288.86</ele>
        <time>2021-09-18T11:52:26Z</time>
      </trkpt>
      <trkpt lat="45.41866" lon="4.70649">
        <ele>288.67</ele>
        <time>2021-09-18T11:52:27Z</time>
      </trkpt>
      <trkpt lat="45.41862" lon="4.70656">
        <ele>288.57</ele>
        <time>2021-09-18T11:52:28Z</time>
      </trkpt>
      <trkpt lat="45.41852" lon="4.70669">
        <ele>288.41</ele>
        <time>2021-09-18T11:52:30Z</time>
      </trkpt>
      <trkpt lat="45.41847" lon="4.70677">
        <ele>288.34</ele>
        <time>2021-09-18T11:52:31Z</time>
      </trkpt>
      <trkpt lat="45.41844" lon="4.70685">
        <ele>288.3</ele>
        <time>2021-09-18T11:52:32Z</time>
      </trkpt>
      <trkpt lat="45.4184" lon="4.70694">
        <ele>288.17</ele>
        <time>2021-09-18T11:52:33Z</time>
      </trkpt>
      <trkpt lat="45.41838" lon="4.70705">
        <ele>287.94</ele>
        <time>2021-09-18T11:52:34Z</time>
      </trkpt>
      <trkpt lat="45.41836" lon="4.70716">
        <ele>287.5</ele>
        <time>2021-09-18T11:52:35Z</time>
      </trkpt>
      <trkpt lat="45.41834" lon="4.70728">
        <ele>287.01</ele>
        <time>2021-09-18T11:52:36Z</time>
      </trkpt>
      <trkpt lat="45.41832" lon="4.70741">
        <ele>286.39</ele>
        <time>2021-09-18T11:52:37Z</time>
      </trkpt>
      <trkpt lat="45.41813" lon="4.70819">
        <ele>283.55</ele>
        <time>2021-09-18T11:52:43Z</time>
      </trkpt>
      <trkpt lat="45.41803" lon="4.70844">
        <ele>282.7</ele>
        <time>2021-09-18T11:52:45Z</time>
      </trkpt>
      <trkpt lat="45.41796" lon="4.70855">
        <ele>282.4</ele>
        <time>2021-09-18T11:52:46Z</time>
      </trkpt>
      <trkpt lat="45.41788" lon="4.70866">
        <ele>281.74</ele>
        <time>2021-09-18T11:52:47Z</time>
      </trkpt>
      <trkpt lat="45.4178" lon="4.70875">
        <ele>280.87</ele>
        <time>2021-09-18T11:52:48Z</time>
      </trkpt>
      <trkpt lat="45.4177" lon="4.70883">
        <ele>279.82</ele>
        <time>2021-09-18T11:52:49Z</time>
      </trkpt>
      <trkpt lat="45.41761" lon="4.7089">
        <ele>278.55</ele>
        <time>2021-09-18T11:52:50Z</time>
      </trkpt>
      <trkpt lat="45.41733" lon="4.70915">
        <ele>275.35</ele>
        <time>2021-09-18T11:52:53Z</time>
      </trkpt>
      <trkpt lat="45.41724" lon="4.70925">
        <ele>274.58</ele>
        <time>2021-09-18T11:52:54Z</time>
      </trkpt>
      <trkpt lat="45.41716" lon="4.70937">
        <ele>273.75</ele>
        <time>2021-09-18T11:52:55Z</time>
      </trkpt>
      <trkpt lat="45.41709" lon="4.7095">
        <ele>272.86</ele>
        <time>2021-09-18T11:52:56Z</time>
      </trkpt>
      <trkpt lat="45.41703" lon="4.70964">
        <ele>272.11</ele>
        <time>2021-09-18T11:52:57Z</time>
      </trkpt>
      <trkpt lat="45.41697" lon="4.70979">
        <ele>271.54</ele>
        <time>2021-09-18T11:52:58Z</time>
      </trkpt>
      <trkpt lat="45.41686" lon="4.7101">
        <ele>270.85</ele>
        <time>2021-09-18T11:53:00Z</time>
      </trkpt>
      <trkpt lat="45.41651" lon="4.71101">
        <ele>266.84</ele>
        <time>2021-09-18T11:53:06Z</time>
      </trkpt>
      <trkpt lat="45.41644" lon="4.71115">
        <ele>265.63</ele>
        <time>2021-09-18T11:53:07Z</time>
      </trkpt>
      <trkpt lat="45.41635" lon="4.71127">
        <ele>264.65</ele>
        <time>2021-09-18T11:53:08Z</time>
      </trkpt>
      <trkpt lat="45.41626" lon="4.71138">
        <ele>264.11</ele>
        <time>2021-09-18T11:53:09Z</time>
      </trkpt>
      <trkpt lat="45.41616" lon="4.71148">
        <ele>263.42</ele>
        <time>2021-09-18T11:53:10Z</time>
      </trkpt>
      <trkpt lat="45.41605" lon="4.71156">
        <ele>262.57</ele>
        <time>2021-09-18T11:53:11Z</time>
      </trkpt>
      <trkpt lat="45.41594" lon="4.71163">
        <ele>261.33</ele>
        <time>2021-09-18T11:53:12Z</time>
      </trkpt>
      <trkpt lat="45.41583" lon="4.71169">
        <ele>260.25</ele>
        <time>2021-09-18T11:53:13Z</time>
      </trkpt>
      <trkpt lat="45.41573" lon="4.71176">
        <ele>259.37</ele>
        <time>2021-09-18T11:53:14Z</time>
      </trkpt>
      <trkpt lat="45.41563" lon="4.71185">
        <ele>258.3</ele>
        <time>2021-09-18T11:53:15Z</time>
      </trkpt>
      <trkpt lat="45.41554" lon="4.71196">
        <ele>257.57</ele>
        <time>2021-09-18T11:53:16Z</time>
      </trkpt>
      <trkpt lat="45.41547" lon="4.71209">
        <ele>257.16</ele>
        <time>2021-09-18T11:53:17Z</time>
      </trkpt>
      <trkpt lat="45.41541" lon="4.71222">
        <ele>256.75</ele>
        <time>2021-09-18T11:53:18Z</time>
      </trkpt>
      <trkpt lat="45.41536" lon="4.71237">
        <ele>255.74</ele>
        <time>2021-09-18T11:53:19Z</time>
      </trkpt>
      <trkpt lat="45.41512" lon="4.71293">
        <ele>252.23</ele>
        <time>2021-09-18T11:53:23Z</time>
      </trkpt>
      <trkpt lat="45.41498" lon="4.71319">
        <ele>250.43</ele>
        <time>2021-09-18T11:53:25Z</time>
      </trkpt>
      <trkpt lat="45.4149" lon="4.71329">
        <ele>249.8</ele>
        <time>2021-09-18T11:53:26Z</time>
      </trkpt>
      <trkpt lat="45.41481" lon="4.71336">
        <ele>249.47</ele>
        <time>2021-09-18T11:53:27Z</time>
      </trkpt>
      <trkpt lat="45.41472" lon="4.71339">
        <ele>248.92</ele>
        <time>2021-09-18T11:53:28Z</time>
      </trkpt>
      <trkpt lat="45.41463" lon="4.71338">
        <ele>248.37</ele>
        <time>2021-09-18T11:53:29Z</time>
      </trkpt>
      <trkpt lat="45.41455" lon="4.71333">
        <ele>248.07</ele>
        <time>2021-09-18T11:53:30Z</time>
      </trkpt>
      <trkpt lat="45.41447" lon="4.71324">
        <ele>247.39</ele>
        <time>2021-09-18T11:53:31Z</time>
      </trkpt>
      <trkpt lat="45.41439" lon="4.71315">
        <ele>246.93</ele>
        <time>2021-09-18T11:53:32Z</time>
      </trkpt>
      <trkpt lat="45.41393" lon="4.71252">
        <ele>244.03</ele>
        <time>2021-09-18T11:53:38Z</time>
      </trkpt>
      <trkpt lat="45.4138" lon="4.71237">
        <ele>242.76</ele>
        <time>2021-09-18T11:53:40Z</time>
      </trkpt>
      <trkpt lat="45.41373" lon="4.71236">
        <ele>241.81</ele>
        <time>2021-09-18T11:53:41Z</time>
      </trkpt>
      <trkpt lat="45.41366" lon="4.71238">
        <ele>240.66</ele>
        <time>2021-09-18T11:53:42Z</time>
      </trkpt>
      <trkpt lat="45.41363" lon="4.71246">
        <ele>239.86</ele>
        <time>2021-09-18T11:53:43Z</time>
      </trkpt>
      <trkpt lat="45.41362" lon="4.71256">
        <ele>239.24</ele>
        <time>2021-09-18T11:53:44Z</time>
      </trkpt>
      <trkpt lat="45.41364" lon="4.71265">
        <ele>238.63</ele>
        <time>2021-09-18T11:53:45Z</time>
      </trkpt>
      <trkpt lat="45.41369" lon="4.71274">
        <ele>238.4</ele>
        <time>2021-09-18T11:53:46Z</time>
      </trkpt>
      <trkpt lat="45.41375" lon="4.71281">
        <ele>238.18</ele>
        <time>2021-09-18T11:53:47Z</time>
      </trkpt>
      <trkpt lat="45.41382" lon="4.71289">
        <ele>238.03</ele>
        <time>2021-09-18T11:53:48Z</time>
      </trkpt>
      <trkpt lat="45.41426" lon="4.71338">
        <ele>236.41</ele>
        <time>2021-09-18T11:53:54Z</time>
      </trkpt>
      <trkpt lat="45.41432" lon="4.71349">
        <ele>236.29</ele>
        <time>2021-09-18T11:53:55Z</time>
      </trkpt>
      <trkpt lat="45.41436" lon="4.71363">
        <ele>236.09</ele>
        <time>2021-09-18T11:53:56Z</time>
      </trkpt>
      <trkpt lat="45.41439" lon="4.71377">
        <ele>235.45</ele>
        <time>2021-09-18T11:53:57Z</time>
      </trkpt>
      <trkpt lat="45.41442" lon="4.71392">
        <ele>235.03</ele>
        <time>2021-09-18T11:53:58Z</time>
      </trkpt>
      <trkpt lat="45.41446" lon="4.71406">
        <ele>234.76</ele>
        <time>2021-09-18T11:53:59Z</time>
      </trkpt>
      <trkpt lat="45.4145" lon="4.71421">
        <ele>233.91</ele>
        <time>2021-09-18T11:54:00Z</time>
      </trkpt>
      <trkpt lat="45.41455" lon="4.71434">
        <ele>232.86</ele>
        <time>2021-09-18T11:54:01Z</time>
      </trkpt>
      <trkpt lat="45.41462" lon="4.71445">
        <ele>232.11</ele>
        <time>2021-09-18T11:54:02Z</time>
      </trkpt>
      <trkpt lat="45.41471" lon="4.71455">
        <ele>231.56</ele>
        <time>2021-09-18T11:54:03Z</time>
      </trkpt>
      <trkpt lat="45.4148" lon="4.71463">
        <ele>230.8</ele>
        <time>2021-09-18T11:54:04Z</time>
      </trkpt>
      <trkpt lat="45.4149" lon="4.71471">
        <ele>230.02</ele>
        <time>2021-09-18T11:54:05Z</time>
      </trkpt>
      <trkpt lat="45.41527" lon="4.7151">
        <ele>225.57</ele>
        <time>2021-09-18T11:54:09Z</time>
      </trkpt>
      <trkpt lat="45.41533" lon="4.71522">
        <ele>224.27</ele>
        <time>2021-09-18T11:54:10Z</time>
      </trkpt>
      <trkpt lat="45.41538" lon="4.71536">
        <ele>223.21</ele>
        <time>2021-09-18T11:54:11Z</time>
      </trkpt>
      <trkpt lat="45.4154" lon="4.7155">
        <ele>222.68</ele>
        <time>2021-09-18T11:54:12Z</time>
      </trkpt>
      <trkpt lat="45.4154" lon="4.71565">
        <ele>221.74</ele>
        <time>2021-09-18T11:54:13Z</time>
      </trkpt>
      <trkpt lat="45.41538" lon="4.71579">
        <ele>220.79</ele>
        <time>2021-09-18T11:54:14Z</time>
      </trkpt>
      <trkpt lat="45.41534" lon="4.71593">
        <ele>220.03</ele>
        <time>2021-09-18T11:54:15Z</time>
      </trkpt>
      <trkpt lat="45.4152" lon="4.71647">
        <ele>216.77</ele>
        <time>2021-09-18T11:54:19Z</time>
      </trkpt>
      <trkpt lat="45.41495" lon="4.71706">
        <ele>215.29</ele>
        <time>2021-09-18T11:54:24Z</time>
      </trkpt>
      <trkpt lat="45.41473" lon="4.71734">
        <ele>214.75</ele>
        <time>2021-09-18T11:54:27Z</time>
      </trkpt>
      <trkpt lat="45.41465" lon="4.71741">
        <ele>214.62</ele>
        <time>2021-09-18T11:54:28Z</time>
      </trkpt>
      <trkpt lat="45.41404" lon="4.71787">
        <ele>213.48</ele>
        <time>2021-09-18T11:54:35Z</time>
      </trkpt>
      <trkpt lat="45.4136" lon="4.71836">
        <ele>211.21</ele>
        <time>2021-09-18T11:54:41Z</time>
      </trkpt>
      <trkpt lat="45.41354" lon="4.71846">
        <ele>210.66</ele>
        <time>2021-09-18T11:54:42Z</time>
      </trkpt>
      <trkpt lat="45.41349" lon="4.71857">
        <ele>210.2</ele>
        <time>2021-09-18T11:54:43Z</time>
      </trkpt>
      <trkpt lat="45.41345" lon="4.71868">
        <ele>209.94</ele>
        <time>2021-09-18T11:54:44Z</time>
      </trkpt>
      <trkpt lat="45.41343" lon="4.7188">
        <ele>209.69</ele>
        <time>2021-09-18T11:54:45Z</time>
      </trkpt>
      <trkpt lat="45.41341" lon="4.71892">
        <ele>209.47</ele>
        <time>2021-09-18T11:54:46Z</time>
      </trkpt>
      <trkpt lat="45.4134" lon="4.71905">
        <ele>209.28</ele>
        <time>2021-09-18T11:54:47Z</time>
      </trkpt>
      <trkpt lat="45.41334" lon="4.71942">
        <ele>208.89</ele>
        <time>2021-09-18T11:54:50Z</time>
      </trkpt>
      <trkpt lat="45.41331" lon="4.71953">
        <ele>208.28</ele>
        <time>2021-09-18T11:54:51Z</time>
      </trkpt>
      <trkpt lat="45.41327" lon="4.71964">
        <ele>207.75</ele>
        <time>2021-09-18T11:54:52Z</time>
      </trkpt>
      <trkpt lat="45.41323" lon="4.71975">
        <ele>207.44</ele>
        <time>2021-09-18T11:54:53Z</time>
      </trkpt>
      <trkpt lat="45.41318" lon="4.71985">
        <ele>207.16</ele>
        <time>2021-09-18T11:54:54Z</time>
      </trkpt>
      <trkpt lat="45.41285" lon="4.72054">
        <ele>206.05</ele>
        <time>2021-09-18T11:55:01Z</time>
      </trkpt>
      <trkpt lat="45.41282" lon="4.72066">
        <ele>205.92</ele>
        <time>2021-09-18T11:55:02Z</time>
      </trkpt>
      <trkpt lat="45.4128" lon="4.72078">
        <ele>205.2</ele>
        <time>2021-09-18T11:55:03Z</time>
      </trkpt>
      <trkpt lat="45.41278" lon="4.7209">
        <ele>204.96</ele>
        <time>2021-09-18T11:55:04Z</time>
      </trkpt>
      <trkpt lat="45.41278" lon="4.72102">
        <ele>204.77</ele>
        <time>2021-09-18T11:55:05Z</time>
      </trkpt>
      <trkpt lat="45.41279" lon="4.72115">
        <ele>204.59</ele>
        <time>2021-09-18T11:55:06Z</time>
      </trkpt>
      <trkpt lat="45.4128" lon="4.72127">
        <ele>204.47</ele>
        <time>2021-09-18T11:55:07Z</time>
      </trkpt>
      <trkpt lat="45.41283" lon="4.72139">
        <ele>204.21</ele>
        <time>2021-09-18T11:55:08Z</time>
      </trkpt>
      <trkpt lat="45.41288" lon="4.7215">
        <ele>203.94</ele>
        <time>2021-09-18T11:55:09Z</time>
      </trkpt>
      <trkpt lat="45.41293" lon="4.7216">
        <ele>203.53</ele>
        <time>2021-09-18T11:55:10Z</time>
      </trkpt>
      <trkpt lat="45.41299" lon="4.72168">
        <ele>203.11</ele>
        <time>2021-09-18T11:55:11Z</time>
      </trkpt>
      <trkpt lat="45.41306" lon="4.72176">
        <ele>202.72</ele>
        <time>2021-09-18T11:55:12Z</time>
      </trkpt>
      <trkpt lat="45.41314" lon="4.72182">
        <ele>202.24</ele>
        <time>2021-09-18T11:55:13Z</time>
      </trkpt>
      <trkpt lat="45.41322" lon="4.72187">
        <ele>201.86</ele>
        <time>2021-09-18T11:55:14Z</time>
      </trkpt>
      <trkpt lat="45.4133" lon="4.72191">
        <ele>201.64</ele>
        <time>2021-09-18T11:55:15Z</time>
      </trkpt>
      <trkpt lat="45.41346" lon="4.72201">
        <ele>201.45</ele>
        <time>2021-09-18T11:55:17Z</time>
      </trkpt>
      <trkpt lat="45.41354" lon="4.72208">
        <ele>201.34</ele>
        <time>2021-09-18T11:55:18Z</time>
      </trkpt>
      <trkpt lat="45.41361" lon="4.72216">
        <ele>201.27</ele>
        <time>2021-09-18T11:55:19Z</time>
      </trkpt>
      <trkpt lat="45.41366" lon="4.72227">
        <ele>201.22</ele>
        <time>2021-09-18T11:55:20Z</time>
      </trkpt>
      <trkpt lat="45.4137" lon="4.72239">
        <ele>201</ele>
        <time>2021-09-18T11:55:21Z</time>
      </trkpt>
      <trkpt lat="45.41372" lon="4.72252">
        <ele>200.82</ele>
        <time>2021-09-18T11:55:22Z</time>
      </trkpt>
      <trkpt lat="45.41373" lon="4.72264">
        <ele>200.7</ele>
        <time>2021-09-18T11:55:23Z</time>
      </trkpt>
      <trkpt lat="45.41373" lon="4.72278">
        <ele>200.62</ele>
        <time>2021-09-18T11:55:24Z</time>
      </trkpt>
      <trkpt lat="45.41372" lon="4.72291">
        <ele>200.52</ele>
        <time>2021-09-18T11:55:25Z</time>
      </trkpt>
      <trkpt lat="45.4137" lon="4.72304">
        <ele>200.46</ele>
        <time>2021-09-18T11:55:26Z</time>
      </trkpt>
      <trkpt lat="45.41368" lon="4.72316">
        <ele>200.27</ele>
        <time>2021-09-18T11:55:27Z</time>
      </trkpt>
      <trkpt lat="45.41365" lon="4.72328">
        <ele>200.27</ele>
        <time>2021-09-18T11:55:28Z</time>
      </trkpt>
      <trkpt lat="45.41361" lon="4.72339">
        <ele>200.15</ele>
        <time>2021-09-18T11:55:29Z</time>
      </trkpt>
      <trkpt lat="45.41356" lon="4.7235">
        <ele>199.81</ele>
        <time>2021-09-18T11:55:30Z</time>
      </trkpt>
      <trkpt lat="45.41352" lon="4.72361">
        <ele>199.58</ele>
        <time>2021-09-18T11:55:31Z</time>
      </trkpt>
      <trkpt lat="45.41344" lon="4.72383">
        <ele>199.2</ele>
        <time>2021-09-18T11:55:33Z</time>
      </trkpt>
      <trkpt lat="45.41342" lon="4.72394">
        <ele>198.8</ele>
        <time>2021-09-18T11:55:34Z</time>
      </trkpt>
      <trkpt lat="45.41342" lon="4.72407">
        <ele>198.28</ele>
        <time>2021-09-18T11:55:35Z</time>
      </trkpt>
      <trkpt lat="45.41344" lon="4.72419">
        <ele>197.67</ele>
        <time>2021-09-18T11:55:36Z</time>
      </trkpt>
      <trkpt lat="45.41346" lon="4.72431">
        <ele>197.08</ele>
        <time>2021-09-18T11:55:37Z</time>
      </trkpt>
      <trkpt lat="45.41349" lon="4.72442">
        <ele>196.65</ele>
        <time>2021-09-18T11:55:38Z</time>
      </trkpt>
      <trkpt lat="45.41362" lon="4.72529">
        <ele>195.1</ele>
        <time>2021-09-18T11:55:45Z</time>
      </trkpt>
      <trkpt lat="45.41371" lon="4.72619">
        <ele>192.49</ele>
        <time>2021-09-18T11:55:52Z</time>
      </trkpt>
      <trkpt lat="45.41371" lon="4.72633">
        <ele>192.14</ele>
        <time>2021-09-18T11:55:53Z</time>
      </trkpt>
      <trkpt lat="45.4137" lon="4.72646">
        <ele>191.38</ele>
        <time>2021-09-18T11:55:54Z</time>
      </trkpt>
      <trkpt lat="45.41364" lon="4.72698">
        <ele>189.88</ele>
        <time>2021-09-18T11:55:58Z</time>
      </trkpt>
      <trkpt lat="45.41364" lon="4.72711">
        <ele>189.52</ele>
        <time>2021-09-18T11:55:59Z</time>
      </trkpt>
      <trkpt lat="45.41374" lon="4.72808">
        <ele>186.49</ele>
        <time>2021-09-18T11:56:07Z</time>
      </trkpt>
      <trkpt lat="45.41379" lon="4.7285">
        <ele>185.6</ele>
        <time>2021-09-18T11:56:11Z</time>
      </trkpt>
      <trkpt lat="45.41384" lon="4.72917">
        <ele>185.49</ele>
        <time>2021-09-18T11:56:18Z</time>
      </trkpt>
      <trkpt lat="45.41384" lon="4.72926">
        <ele>185.49</ele>
        <time>2021-09-18T11:56:19Z</time>
      </trkpt>
      <trkpt lat="45.41382" lon="4.72936">
        <ele>185.48</ele>
        <time>2021-09-18T11:56:20Z</time>
      </trkpt>
      <trkpt lat="45.41375" lon="4.72975">
        <ele>185.47</ele>
        <time>2021-09-18T11:56:24Z</time>
      </trkpt>
      <trkpt lat="45.41375" lon="4.72985">
        <ele>185.47</ele>
        <time>2021-09-18T11:56:25Z</time>
      </trkpt>
      <trkpt lat="45.41376" lon="4.72995">
        <ele>185.36</ele>
        <time>2021-09-18T11:56:26Z</time>
      </trkpt>
      <trkpt lat="45.41378" lon="4.73004">
        <ele>185.2</ele>
        <time>2021-09-18T11:56:27Z</time>
      </trkpt>
      <trkpt lat="45.41381" lon="4.73012">
        <ele>184.78</ele>
        <time>2021-09-18T11:56:28Z</time>
      </trkpt>
      <trkpt lat="45.41391" lon="4.73043">
        <ele>183.03</ele>
        <time>2021-09-18T11:56:33Z</time>
      </trkpt>
      <trkpt lat="45.4141" lon="4.73089">
        <ele>182.2</ele>
        <time>2021-09-18T11:56:41Z</time>
      </trkpt>
      <trkpt lat="45.41418" lon="4.73114">
        <ele>181.74</ele>
        <time>2021-09-18T11:56:45Z</time>
      </trkpt>
      <trkpt lat="45.4142" lon="4.7312">
        <ele>181.59</ele>
        <time>2021-09-18T11:56:46Z</time>
      </trkpt>
      <trkpt lat="45.41425" lon="4.73136">
        <ele>181.34</ele>
        <time>2021-09-18T11:56:49Z</time>
      </trkpt>
      <trkpt lat="45.41444" lon="4.7319">
        <ele>181.35</ele>
        <time>2021-09-18T11:56:58Z</time>
      </trkpt>
      <trkpt lat="45.41466" lon="4.73257">
        <ele>181.38</ele>
        <time>2021-09-18T11:57:08Z</time>
      </trkpt>
      <trkpt lat="45.41481" lon="4.73298">
        <ele>181.05</ele>
        <time>2021-09-18T11:57:14Z</time>
      </trkpt>
      <trkpt lat="45.41501" lon="4.73366">
        <ele>180.57</ele>
        <time>2021-09-18T11:57:24Z</time>
      </trkpt>
      <trkpt lat="45.41523" lon="4.73442">
        <ele>180.43</ele>
        <time>2021-09-18T11:57:35Z</time>
      </trkpt>
      <trkpt lat="45.4154" lon="4.73508">
        <ele>180.22</ele>
        <time>2021-09-18T11:57:43Z</time>
      </trkpt>
      <trkpt lat="45.41567" lon="4.73584">
        <ele>178.52</ele>
        <time>2021-09-18T11:57:51Z</time>
      </trkpt>
      <trkpt lat="45.41573" lon="4.73593">
        <ele>178.09</ele>
        <time>2021-09-18T11:57:52Z</time>
      </trkpt>
      <trkpt lat="45.41579" lon="4.73601">
        <ele>177.83</ele>
        <time>2021-09-18T11:57:53Z</time>
      </trkpt>
      <trkpt lat="45.41602" lon="4.73626">
        <ele>175.93</ele>
        <time>2021-09-18T11:57:57Z</time>
      </trkpt>
      <trkpt lat="45.41621" lon="4.7364">
        <ele>173.15</ele>
        <time>2021-09-18T11:58:02Z</time>
      </trkpt>
      <trkpt lat="45.41625" lon="4.73643">
        <ele>172.29</ele>
        <time>2021-09-18T11:58:04Z</time>
      </trkpt>
      <trkpt lat="45.41626" lon="4.73642">
        <ele>172.15</ele>
        <time>2021-09-18T11:58:09Z</time>
      </trkpt>
      <trkpt lat="45.41632" lon="4.73646">
        <ele>172.32</ele>
        <time>2021-09-18T11:58:50Z</time>
      </trkpt>
      <trkpt lat="45.41645" lon="4.73664">
        <ele>172.3</ele>
        <time>2021-09-18T11:58:55Z</time>
      </trkpt>
      <trkpt lat="45.41649" lon="4.73668">
        <ele>172.26</ele>
        <time>2021-09-18T11:58:56Z</time>
      </trkpt>
      <trkpt lat="45.41653" lon="4.7367">
        <ele>172.1</ele>
        <time>2021-09-18T11:58:57Z</time>
      </trkpt>
      <trkpt lat="45.41669" lon="4.73679">
        <ele>170.93</ele>
        <time>2021-09-18T11:59:01Z</time>
      </trkpt>
      <trkpt lat="45.41706" lon="4.73701">
        <ele>169.96</ele>
        <time>2021-09-18T11:59:10Z</time>
      </trkpt>
      <trkpt lat="45.41748" lon="4.73725">
        <ele>169.6</ele>
        <time>2021-09-18T11:59:19Z</time>
      </trkpt>
      <trkpt lat="45.41767" lon="4.73737">
        <ele>169.38</ele>
        <time>2021-09-18T11:59:23Z</time>
      </trkpt>
      <trkpt lat="45.41794" lon="4.73764">
        <ele>168.96</ele>
        <time>2021-09-18T11:59:30Z</time>
      </trkpt>
      <trkpt lat="45.41797" lon="4.73768">
        <ele>168.83</ele>
        <time>2021-09-18T11:59:31Z</time>
      </trkpt>
      <trkpt lat="45.41833" lon="4.738">
        <ele>168.34</ele>
        <time>2021-09-18T11:59:39Z</time>
      </trkpt>
      <trkpt lat="45.41885" lon="4.73824">
        <ele>167.4</ele>
        <time>2021-09-18T11:59:48Z</time>
      </trkpt>
      <trkpt lat="45.4189" lon="4.73826">
        <ele>167.38</ele>
        <time>2021-09-18T11:59:49Z</time>
      </trkpt>
      <trkpt lat="45.41895" lon="4.73829">
        <ele>167.31</ele>
        <time>2021-09-18T11:59:50Z</time>
      </trkpt>
      <trkpt lat="45.41899" lon="4.73832">
        <ele>167.27</ele>
        <time>2021-09-18T11:59:51Z</time>
      </trkpt>
      <trkpt lat="45.41904" lon="4.73835">
        <ele>167.24</ele>
        <time>2021-09-18T11:59:52Z</time>
      </trkpt>
      <trkpt lat="45.41909" lon="4.73837">
        <ele>167.22</ele>
        <time>2021-09-18T11:59:53Z</time>
      </trkpt>
      <trkpt lat="45.41917" lon="4.73842">
        <ele>167.15</ele>
        <time>2021-09-18T11:59:55Z</time>
      </trkpt>
      <trkpt lat="45.41919" lon="4.73847">
        <ele>167.13</ele>
        <time>2021-09-18T11:59:56Z</time>
      </trkpt>
      <trkpt lat="45.41919" lon="4.73853">
        <ele>167.1</ele>
        <time>2021-09-18T11:59:57Z</time>
      </trkpt>
      <trkpt lat="45.41918" lon="4.73864">
        <ele>167.07</ele>
        <time>2021-09-18T11:59:59Z</time>
      </trkpt>
      <trkpt lat="45.41916" lon="4.73869">
        <ele>167.07</ele>
        <time>2021-09-18T12:00:00Z</time>
      </trkpt>
      <trkpt lat="45.41914" lon="4.73874">
        <ele>167.07</ele>
        <time>2021-09-18T12:00:01Z</time>
      </trkpt>
      <trkpt lat="45.41911" lon="4.73878">
        <ele>166.83</ele>
        <time>2021-09-18T12:00:02Z</time>
      </trkpt>
      <trkpt lat="45.41907" lon="4.7388">
        <ele>166.64</ele>
        <time>2021-09-18T12:00:03Z</time>
      </trkpt>
      <trkpt lat="45.41903" lon="4.73879">
        <ele>166.47</ele>
        <time>2021-09-18T12:00:04Z</time>
      </trkpt>
      <trkpt lat="45.41898" lon="4.73876">
        <ele>166.38</ele>
        <time>2021-09-18T12:00:05Z</time>
      </trkpt>
      <trkpt lat="45.41857" lon="4.73864">
        <ele>165.78</ele>
        <time>2021-09-18T12:00:13Z</time>
      </trkpt>
      <trkpt lat="45.41843" lon="4.73861">
        <ele>165.61</ele>
        <time>2021-09-18T12:00:16Z</time>
      </trkpt>
      <trkpt lat="45.41838" lon="4.73859">
        <ele>165.54</ele>
        <time>2021-09-18T12:00:17Z</time>
      </trkpt>
      <trkpt lat="45.41834" lon="4.73858">
        <ele>165.5</ele>
        <time>2021-09-18T12:00:18Z</time>
      </trkpt>
      <trkpt lat="45.41802" lon="4.73851">
        <ele>165.33</ele>
        <time>2021-09-18T12:00:25Z</time>
      </trkpt>
      <trkpt lat="45.41797" lon="4.7385">
        <ele>165.32</ele>
        <time>2021-09-18T12:00:26Z</time>
      </trkpt>
      <trkpt lat="45.41793" lon="4.73848">
        <ele>165.31</ele>
        <time>2021-09-18T12:00:27Z</time>
      </trkpt>
      <trkpt lat="45.41789" lon="4.73847">
        <ele>165.31</ele>
        <time>2021-09-18T12:00:28Z</time>
      </trkpt>
      <trkpt lat="45.41784" lon="4.73846">
        <ele>165.29</ele>
        <time>2021-09-18T12:00:29Z</time>
      </trkpt>
      <trkpt lat="45.41779" lon="4.73846">
        <ele>165.28</ele>
        <time>2021-09-18T12:00:30Z</time>
      </trkpt>
      <trkpt lat="45.41775" lon="4.73847">
        <ele>165.27</ele>
        <time>2021-09-18T12:00:31Z</time>
      </trkpt>
      <trkpt lat="45.4177" lon="4.73848">
        <ele>165.27</ele>
        <time>2021-09-18T12:00:32Z</time>
      </trkpt>
      <trkpt lat="45.41747" lon="4.73861">
        <ele>165.33</ele>
        <time>2021-09-18T12:00:39Z</time>
      </trkpt>
      <trkpt lat="45.41743" lon="4.73894">
        <ele>166.91</ele>
        <time>2021-09-18T12:00:45Z</time>
      </trkpt>
      <trkpt lat="45.4174" lon="4.73914">
        <ele>167.15</ele>
        <time>2021-09-18T12:00:48Z</time>
      </trkpt>
      <trkpt lat="45.41736" lon="4.73941">
        <ele>167.12</ele>
        <time>2021-09-18T12:00:54Z</time>
      </trkpt>
      <trkpt lat="45.41734" lon="4.73941">
        <ele>167.08</ele>
        <time>2021-09-18T12:00:55Z</time>
      </trkpt>
      <trkpt lat="45.41732" lon="4.7394">
        <ele>167.05</ele>
        <time>2021-09-18T12:00:56Z</time>
      </trkpt>
      <trkpt lat="45.4173" lon="4.73938">
        <ele>167.02</ele>
        <time>2021-09-18T12:00:57Z</time>
      </trkpt>
      <trkpt lat="45.41727" lon="4.73936">
        <ele>167.01</ele>
        <time>2021-09-18T12:00:58Z</time>
      </trkpt>
      <trkpt lat="45.41719" lon="4.73931">
        <ele>166.93</ele>
        <time>2021-09-18T12:01:00Z</time>
      </trkpt>
      <trkpt lat="45.41678" lon="4.73924">
        <ele>166.56</ele>
        <time>2021-09-18T12:01:08Z</time>
      </trkpt>
      <trkpt lat="45.4162" lon="4.73922">
        <ele>165.18</ele>
        <time>2021-09-18T12:01:19Z</time>
      </trkpt>
      <trkpt lat="45.41568" lon="4.73922">
        <ele>164.96</ele>
        <time>2021-09-18T12:01:28Z</time>
      </trkpt>
      <trkpt lat="45.41518" lon="4.73912">
        <ele>164.52</ele>
        <time>2021-09-18T12:01:37Z</time>
      </trkpt>
      <trkpt lat="45.41506" lon="4.73904">
        <ele>164.52</ele>
        <time>2021-09-18T12:01:40Z</time>
      </trkpt>
      <trkpt lat="45.41496" lon="4.73893">
        <ele>164.57</ele>
        <time>2021-09-18T12:01:43Z</time>
      </trkpt>
      <trkpt lat="45.41493" lon="4.73888">
        <ele>164.64</ele>
        <time>2021-09-18T12:01:44Z</time>
      </trkpt>
      <trkpt lat="45.41491" lon="4.73883">
        <ele>164.72</ele>
        <time>2021-09-18T12:01:45Z</time>
      </trkpt>
      <trkpt lat="45.41489" lon="4.73878">
        <ele>164.77</ele>
        <time>2021-09-18T12:01:46Z</time>
      </trkpt>
      <trkpt lat="45.41487" lon="4.73872">
        <ele>164.81</ele>
        <time>2021-09-18T12:01:47Z</time>
      </trkpt>
      <trkpt lat="45.41485" lon="4.73866">
        <ele>164.86</ele>
        <time>2021-09-18T12:01:48Z</time>
      </trkpt>
      <trkpt lat="45.41474" lon="4.73828">
        <ele>165.64</ele>
        <time>2021-09-18T12:01:55Z</time>
      </trkpt>
      <trkpt lat="45.41473" lon="4.73822">
        <ele>165.67</ele>
        <time>2021-09-18T12:01:56Z</time>
      </trkpt>
      <trkpt lat="45.41471" lon="4.73817">
        <ele>165.69</ele>
        <time>2021-09-18T12:01:57Z</time>
      </trkpt>
      <trkpt lat="45.41457" lon="4.73766">
        <ele>166.59</ele>
        <time>2021-09-18T12:02:06Z</time>
      </trkpt>
      <trkpt lat="45.41446" lon="4.73747">
        <ele>167.15</ele>
        <time>2021-09-18T12:02:11Z</time>
      </trkpt>
      <trkpt lat="45.41442" lon="4.73747">
        <ele>167.18</ele>
        <time>2021-09-18T12:02:12Z</time>
      </trkpt>
      <trkpt lat="45.4144" lon="4.7375">
        <ele>167.21</ele>
        <time>2021-09-18T12:02:13Z</time>
      </trkpt>
      <trkpt lat="45.4144" lon="4.73755">
        <ele>167.25</ele>
        <time>2021-09-18T12:02:14Z</time>
      </trkpt>
      <trkpt lat="45.41441" lon="4.73759">
        <ele>167.28</ele>
        <time>2021-09-18T12:02:15Z</time>
      </trkpt>
      <trkpt lat="45.41443" lon="4.73764">
        <ele>167.3</ele>
        <time>2021-09-18T12:02:16Z</time>
      </trkpt>
      <trkpt lat="45.41444" lon="4.7377">
        <ele>167.42</ele>
        <time>2021-09-18T12:02:17Z</time>
      </trkpt>
      <trkpt lat="45.41446" lon="4.73776">
        <ele>167.63</ele>
        <time>2021-09-18T12:02:18Z</time>
      </trkpt>
      <trkpt lat="45.41449" lon="4.73788">
        <ele>167.9</ele>
        <time>2021-09-18T12:02:20Z</time>
      </trkpt>
      <trkpt lat="45.41462" lon="4.73842">
        <ele>167.92</ele>
        <time>2021-09-18T12:02:28Z</time>
      </trkpt>
      <trkpt lat="45.41464" lon="4.73849">
        <ele>167.7</ele>
        <time>2021-09-18T12:02:29Z</time>
      </trkpt>
      <trkpt lat="45.41474" lon="4.73916">
        <ele>167.34</ele>
        <time>2021-09-18T12:02:38Z</time>
      </trkpt>
      <trkpt lat="45.41474" lon="4.73922">
        <ele>167.34</ele>
        <time>2021-09-18T12:02:39Z</time>
      </trkpt>
      <trkpt lat="45.41475" lon="4.73929">
        <ele>167.3</ele>
        <time>2021-09-18T12:02:40Z</time>
      </trkpt>
      <trkpt lat="45.41476" lon="4.73979">
        <ele>167.3</ele>
        <time>2021-09-18T12:02:48Z</time>
      </trkpt>
      <trkpt lat="45.41476" lon="4.73985">
        <ele>167.39</ele>
        <time>2021-09-18T12:02:49Z</time>
      </trkpt>
      <trkpt lat="45.41478" lon="4.73992">
        <ele>167.43</ele>
        <time>2021-09-18T12:02:50Z</time>
      </trkpt>
      <trkpt lat="45.4148" lon="4.73998">
        <ele>167.46</ele>
        <time>2021-09-18T12:02:51Z</time>
      </trkpt>
      <trkpt lat="45.41482" lon="4.74004">
        <ele>167.47</ele>
        <time>2021-09-18T12:02:52Z</time>
      </trkpt>
      <trkpt lat="45.41485" lon="4.7401">
        <ele>167.48</ele>
        <time>2021-09-18T12:02:53Z</time>
      </trkpt>
      <trkpt lat="45.41489" lon="4.74014">
        <ele>167.48</ele>
        <time>2021-09-18T12:02:54Z</time>
      </trkpt>
      <trkpt lat="45.41494" lon="4.74017">
        <ele>167.48</ele>
        <time>2021-09-18T12:02:55Z</time>
      </trkpt>
      <trkpt lat="45.41499" lon="4.74018">
        <ele>167.48</ele>
        <time>2021-09-18T12:02:56Z</time>
      </trkpt>
      <trkpt lat="45.41504" lon="4.74019">
        <ele>167.48</ele>
        <time>2021-09-18T12:02:57Z</time>
      </trkpt>
      <trkpt lat="45.4151" lon="4.74019">
        <ele>167.48</ele>
        <time>2021-09-18T12:02:58Z</time>
      </trkpt>
      <trkpt lat="45.41551" lon="4.74016">
        <ele>167.25</ele>
        <time>2021-09-18T12:03:06Z</time>
      </trkpt>
      <trkpt lat="45.41577" lon="4.74014">
        <ele>167.25</ele>
        <time>2021-09-18T12:03:12Z</time>
      </trkpt>
      <trkpt lat="45.41586" lon="4.74014">
        <ele>167.3</ele>
        <time>2021-09-18T12:03:14Z</time>
      </trkpt>
      <trkpt lat="45.41591" lon="4.74014">
        <ele>167.35</ele>
        <time>2021-09-18T12:03:15Z</time>
      </trkpt>
      <trkpt lat="45.41601" lon="4.74013">
        <ele>167.38</ele>
        <time>2021-09-18T12:03:17Z</time>
      </trkpt>
      <trkpt lat="45.41611" lon="4.74013">
        <ele>167.39</ele>
        <time>2021-09-18T12:03:19Z</time>
      </trkpt>
      <trkpt lat="45.41621" lon="4.74011">
        <ele>167.39</ele>
        <time>2021-09-18T12:03:21Z</time>
      </trkpt>
      <trkpt lat="45.41626" lon="4.74011">
        <ele>167.39</ele>
        <time>2021-09-18T12:03:22Z</time>
      </trkpt>
      <trkpt lat="45.41632" lon="4.74013">
        <ele>167.39</ele>
        <time>2021-09-18T12:03:23Z</time>
      </trkpt>
      <trkpt lat="45.41637" lon="4.74014">
        <ele>167.38</ele>
        <time>2021-09-18T12:03:24Z</time>
      </trkpt>
      <trkpt lat="45.41642" lon="4.74015">
        <ele>167.38</ele>
        <time>2021-09-18T12:03:25Z</time>
      </trkpt>
      <trkpt lat="45.41697" lon="4.7402">
        <ele>167.29</ele>
        <time>2021-09-18T12:03:35Z</time>
      </trkpt>
      <trkpt lat="45.41721" lon="4.74023">
        <ele>167.36</ele>
        <time>2021-09-18T12:03:40Z</time>
      </trkpt>
      <trkpt lat="45.41736" lon="4.74024">
        <ele>167.42</ele>
        <time>2021-09-18T12:03:44Z</time>
      </trkpt>
      <trkpt lat="45.41741" lon="4.74024">
        <ele>167.45</ele>
        <time>2021-09-18T12:03:45Z</time>
      </trkpt>
      <trkpt lat="45.41776" lon="4.74031">
        <ele>167.47</ele>
        <time>2021-09-18T12:03:52Z</time>
      </trkpt>
      <trkpt lat="45.41824" lon="4.74044">
        <ele>167.12</ele>
        <time>2021-09-18T12:04:01Z</time>
      </trkpt>
      <trkpt lat="45.41873" lon="4.74055">
        <ele>167.04</ele>
        <time>2021-09-18T12:04:10Z</time>
      </trkpt>
      <trkpt lat="45.41928" lon="4.74074">
        <ele>167.16</ele>
        <time>2021-09-18T12:04:20Z</time>
      </trkpt>
      <trkpt lat="45.41989" lon="4.74098">
        <ele>167.32</ele>
        <time>2021-09-18T12:04:31Z</time>
      </trkpt>
      <trkpt lat="45.42003" lon="4.74104">
        <ele>167.39</ele>
        <time>2021-09-18T12:04:34Z</time>
      </trkpt>
      <trkpt lat="45.42027" lon="4.74114">
        <ele>167.42</ele>
        <time>2021-09-18T12:04:39Z</time>
      </trkpt>
      <trkpt lat="45.42041" lon="4.74122">
        <ele>167.43</ele>
        <time>2021-09-18T12:04:42Z</time>
      </trkpt>
      <trkpt lat="45.42052" lon="4.74126">
        <ele>167.45</ele>
        <time>2021-09-18T12:04:44Z</time>
      </trkpt>
      <trkpt lat="45.42057" lon="4.74129">
        <ele>167.45</ele>
        <time>2021-09-18T12:04:45Z</time>
      </trkpt>
      <trkpt lat="45.42072" lon="4.74137">
        <ele>167.46</ele>
        <time>2021-09-18T12:04:48Z</time>
      </trkpt>
      <trkpt lat="45.42077" lon="4.7414">
        <ele>167.46</ele>
        <time>2021-09-18T12:04:49Z</time>
      </trkpt>
      <trkpt lat="45.42093" lon="4.74149">
        <ele>167.47</ele>
        <time>2021-09-18T12:04:52Z</time>
      </trkpt>
      <trkpt lat="45.42099" lon="4.74152">
        <ele>167.47</ele>
        <time>2021-09-18T12:04:53Z</time>
      </trkpt>
      <trkpt lat="45.42104" lon="4.74155">
        <ele>167.47</ele>
        <time>2021-09-18T12:04:54Z</time>
      </trkpt>
      <trkpt lat="45.4212" lon="4.74164">
        <ele>167.42</ele>
        <time>2021-09-18T12:04:57Z</time>
      </trkpt>
      <trkpt lat="45.4213" lon="4.74171">
        <ele>167.42</ele>
        <time>2021-09-18T12:04:59Z</time>
      </trkpt>
      <trkpt lat="45.42135" lon="4.74174">
        <ele>167.42</ele>
        <time>2021-09-18T12:05:00Z</time>
      </trkpt>
      <trkpt lat="45.42169" lon="4.74199">
        <ele>167.41</ele>
        <time>2021-09-18T12:05:07Z</time>
      </trkpt>
      <trkpt lat="45.42196" lon="4.7422">
        <ele>167.53</ele>
        <time>2021-09-18T12:05:14Z</time>
      </trkpt>
      <trkpt lat="45.422" lon="4.74223">
        <ele>167.56</ele>
        <time>2021-09-18T12:05:15Z</time>
      </trkpt>
      <trkpt lat="45.42204" lon="4.74226">
        <ele>167.62</ele>
        <time>2021-09-18T12:05:16Z</time>
      </trkpt>
      <trkpt lat="45.42208" lon="4.7423">
        <ele>167.65</ele>
        <time>2021-09-18T12:05:17Z</time>
      </trkpt>
      <trkpt lat="45.42213" lon="4.74234">
        <ele>167.67</ele>
        <time>2021-09-18T12:05:18Z</time>
      </trkpt>
      <trkpt lat="45.42217" lon="4.74238">
        <ele>167.7</ele>
        <time>2021-09-18T12:05:19Z</time>
      </trkpt>
      <trkpt lat="45.42221" lon="4.74242">
        <ele>167.7</ele>
        <time>2021-09-18T12:05:20Z</time>
      </trkpt>
      <trkpt lat="45.42226" lon="4.74246">
        <ele>167.71</ele>
        <time>2021-09-18T12:05:21Z</time>
      </trkpt>
      <trkpt lat="45.4223" lon="4.7425">
        <ele>167.71</ele>
        <time>2021-09-18T12:05:22Z</time>
      </trkpt>
      <trkpt lat="45.42234" lon="4.74254">
        <ele>167.71</ele>
        <time>2021-09-18T12:05:23Z</time>
      </trkpt>
      <trkpt lat="45.42238" lon="4.74258">
        <ele>167.71</ele>
        <time>2021-09-18T12:05:24Z</time>
      </trkpt>
      <trkpt lat="45.42243" lon="4.74263">
        <ele>167.71</ele>
        <time>2021-09-18T12:05:25Z</time>
      </trkpt>
      <trkpt lat="45.42248" lon="4.74267">
        <ele>167.71</ele>
        <time>2021-09-18T12:05:26Z</time>
      </trkpt>
      <trkpt lat="45.42252" lon="4.74272">
        <ele>167.71</ele>
        <time>2021-09-18T12:05:27Z</time>
      </trkpt>
      <trkpt lat="45.42256" lon="4.74276">
        <ele>167.7</ele>
        <time>2021-09-18T12:05:28Z</time>
      </trkpt>
      <trkpt lat="45.42265" lon="4.74285">
        <ele>167.7</ele>
        <time>2021-09-18T12:05:30Z</time>
      </trkpt>
      <trkpt lat="45.42302" lon="4.74327">
        <ele>167.66</ele>
        <time>2021-09-18T12:05:38Z</time>
      </trkpt>
      <trkpt lat="45.4232" lon="4.74351">
        <ele>167.66</ele>
        <time>2021-09-18T12:05:43Z</time>
      </trkpt>
      <trkpt lat="45.4236" lon="4.74399">
        <ele>167.67</ele>
        <time>2021-09-18T12:05:53Z</time>
      </trkpt>
      <trkpt lat="45.42402" lon="4.74449">
        <ele>167.47</ele>
        <time>2021-09-18T12:06:03Z</time>
      </trkpt>
      <trkpt lat="45.42406" lon="4.74454">
        <ele>167.46</ele>
        <time>2021-09-18T12:06:04Z</time>
      </trkpt>
      <trkpt lat="45.42427" lon="4.7448">
        <ele>167.35</ele>
        <time>2021-09-18T12:06:09Z</time>
      </trkpt>
      <trkpt lat="45.42431" lon="4.74486">
        <ele>167.35</ele>
        <time>2021-09-18T12:06:10Z</time>
      </trkpt>
      <trkpt lat="45.4247" lon="4.74532">
        <ele>167.49</ele>
        <time>2021-09-18T12:06:19Z</time>
      </trkpt>
      <trkpt lat="45.42509" lon="4.74579">
        <ele>167.56</ele>
        <time>2021-09-18T12:06:28Z</time>
      </trkpt>
      <trkpt lat="45.42548" lon="4.74627">
        <ele>167.44</ele>
        <time>2021-09-18T12:06:37Z</time>
      </trkpt>
      <trkpt lat="45.42557" lon="4.74638">
        <ele>167.38</ele>
        <time>2021-09-18T12:06:39Z</time>
      </trkpt>
      <trkpt lat="45.42561" lon="4.74643">
        <ele>167.35</ele>
        <time>2021-09-18T12:06:40Z</time>
      </trkpt>
      <trkpt lat="45.42566" lon="4.74648">
        <ele>167.33</ele>
        <time>2021-09-18T12:06:41Z</time>
      </trkpt>
      <trkpt lat="45.42596" lon="4.74686">
        <ele>167.29</ele>
        <time>2021-09-18T12:06:48Z</time>
      </trkpt>
      <trkpt lat="45.42646" lon="4.74745">
        <ele>167.28</ele>
        <time>2021-09-18T12:06:59Z</time>
      </trkpt>
      <trkpt lat="45.42688" lon="4.74798">
        <ele>167.43</ele>
        <time>2021-09-18T12:07:09Z</time>
      </trkpt>
      <trkpt lat="45.42733" lon="4.74852">
        <ele>167.44</ele>
        <time>2021-09-18T12:07:19Z</time>
      </trkpt>
      <trkpt lat="45.42777" lon="4.74905">
        <ele>167.49</ele>
        <time>2021-09-18T12:07:29Z</time>
      </trkpt>
      <trkpt lat="45.42821" lon="4.74959">
        <ele>167.55</ele>
        <time>2021-09-18T12:07:39Z</time>
      </trkpt>
      <trkpt lat="45.42867" lon="4.75014">
        <ele>167.61</ele>
        <time>2021-09-18T12:07:49Z</time>
      </trkpt>
      <trkpt lat="45.42898" lon="4.75053">
        <ele>167.5</ele>
        <time>2021-09-18T12:07:56Z</time>
      </trkpt>
      <trkpt lat="45.42944" lon="4.7511">
        <ele>167.49</ele>
        <time>2021-09-18T12:08:06Z</time>
      </trkpt>
      <trkpt lat="45.42986" lon="4.75169">
        <ele>167.66</ele>
        <time>2021-09-18T12:08:16Z</time>
      </trkpt>
      <trkpt lat="45.43031" lon="4.75238">
        <ele>167.84</ele>
        <time>2021-09-18T12:08:27Z</time>
      </trkpt>
      <trkpt lat="45.43075" lon="4.75312">
        <ele>167.84</ele>
        <time>2021-09-18T12:08:38Z</time>
      </trkpt>
      <trkpt lat="45.43082" lon="4.75325">
        <ele>167.84</ele>
        <time>2021-09-18T12:08:40Z</time>
      </trkpt>
      <trkpt lat="45.43106" lon="4.75371">
        <ele>167.99</ele>
        <time>2021-09-18T12:08:48Z</time>
      </trkpt>
      <trkpt lat="45.43117" lon="4.75391">
        <ele>168.34</ele>
        <time>2021-09-18T12:08:52Z</time>
      </trkpt>
      <trkpt lat="45.43123" lon="4.75401">
        <ele>168.57</ele>
        <time>2021-09-18T12:08:54Z</time>
      </trkpt>
      <trkpt lat="45.43127" lon="4.75405">
        <ele>168.61</ele>
        <time>2021-09-18T12:08:55Z</time>
      </trkpt>
      <trkpt lat="45.43131" lon="4.7541">
        <ele>168.63</ele>
        <time>2021-09-18T12:08:56Z</time>
      </trkpt>
      <trkpt lat="45.43135" lon="4.75415">
        <ele>168.64</ele>
        <time>2021-09-18T12:08:57Z</time>
      </trkpt>
      <trkpt lat="45.43139" lon="4.7542">
        <ele>168.65</ele>
        <time>2021-09-18T12:08:58Z</time>
      </trkpt>
      <trkpt lat="45.43143" lon="4.75425">
        <ele>168.65</ele>
        <time>2021-09-18T12:08:59Z</time>
      </trkpt>
      <trkpt lat="45.43179" lon="4.75466">
        <ele>168.42</ele>
        <time>2021-09-18T12:09:07Z</time>
      </trkpt>
      <trkpt lat="45.43209" lon="4.75498">
        <ele>168.17</ele>
        <time>2021-09-18T12:09:14Z</time>
      </trkpt>
      <trkpt lat="45.43213" lon="4.75502">
        <ele>168.16</ele>
        <time>2021-09-18T12:09:15Z</time>
      </trkpt>
      <trkpt lat="45.43225" lon="4.75513">
        <ele>168.15</ele>
        <time>2021-09-18T12:09:18Z</time>
      </trkpt>
      <trkpt lat="45.43237" lon="4.75522">
        <ele>168.17</ele>
        <time>2021-09-18T12:09:21Z</time>
      </trkpt>
      <trkpt lat="45.43242" lon="4.75525">
        <ele>168.18</ele>
        <time>2021-09-18T12:09:22Z</time>
      </trkpt>
      <trkpt lat="45.43246" lon="4.75528">
        <ele>168.21</ele>
        <time>2021-09-18T12:09:23Z</time>
      </trkpt>
      <trkpt lat="45.43249" lon="4.75531">
        <ele>168.22</ele>
        <time>2021-09-18T12:09:24Z</time>
      </trkpt>
      <trkpt lat="45.43253" lon="4.75535">
        <ele>168.24</ele>
        <time>2021-09-18T12:09:25Z</time>
      </trkpt>
      <trkpt lat="45.43257" lon="4.75538">
        <ele>168.25</ele>
        <time>2021-09-18T12:09:26Z</time>
      </trkpt>
      <trkpt lat="45.43261" lon="4.75541">
        <ele>168.26</ele>
        <time>2021-09-18T12:09:27Z</time>
      </trkpt>
      <trkpt lat="45.43266" lon="4.75545">
        <ele>168.27</ele>
        <time>2021-09-18T12:09:28Z</time>
      </trkpt>
      <trkpt lat="45.43303" lon="4.75569">
        <ele>168.2</ele>
        <time>2021-09-18T12:09:36Z</time>
      </trkpt>
      <trkpt lat="45.43338" lon="4.75591">
        <ele>167.84</ele>
        <time>2021-09-18T12:09:43Z</time>
      </trkpt>
      <trkpt lat="45.43373" lon="4.75613">
        <ele>167.69</ele>
        <time>2021-09-18T12:09:50Z</time>
      </trkpt>
      <trkpt lat="45.43402" lon="4.75638">
        <ele>167.67</ele>
        <time>2021-09-18T12:09:56Z</time>
      </trkpt>
      <trkpt lat="45.43434" lon="4.75685">
        <ele>167.55</ele>
        <time>2021-09-18T12:10:04Z</time>
      </trkpt>
      <trkpt lat="45.43441" lon="4.75695">
        <ele>167.55</ele>
        <time>2021-09-18T12:10:06Z</time>
      </trkpt>
      <trkpt lat="45.43452" lon="4.75707">
        <ele>167.61</ele>
        <time>2021-09-18T12:10:09Z</time>
      </trkpt>
      <trkpt lat="45.43457" lon="4.7571">
        <ele>167.63</ele>
        <time>2021-09-18T12:10:10Z</time>
      </trkpt>
      <trkpt lat="45.43473" lon="4.7572">
        <ele>168.02</ele>
        <time>2021-09-18T12:10:14Z</time>
      </trkpt>
      <trkpt lat="45.43477" lon="4.75721">
        <ele>168.11</ele>
        <time>2021-09-18T12:10:15Z</time>
      </trkpt>
      <trkpt lat="45.4351" lon="4.75735">
        <ele>168.35</ele>
        <time>2021-09-18T12:10:22Z</time>
      </trkpt>
      <trkpt lat="45.43514" lon="4.75737">
        <ele>168.35</ele>
        <time>2021-09-18T12:10:23Z</time>
      </trkpt>
      <trkpt lat="45.43519" lon="4.75739">
        <ele>168.37</ele>
        <time>2021-09-18T12:10:24Z</time>
      </trkpt>
      <trkpt lat="45.4354" lon="4.75746">
        <ele>168.41</ele>
        <time>2021-09-18T12:10:28Z</time>
      </trkpt>
      <trkpt lat="45.43595" lon="4.75758">
        <ele>168.14</ele>
        <time>2021-09-18T12:10:38Z</time>
      </trkpt>
      <trkpt lat="45.43638" lon="4.75762">
        <ele>168.12</ele>
        <time>2021-09-18T12:10:46Z</time>
      </trkpt>
      <trkpt lat="45.43676" lon="4.75755">
        <ele>168.16</ele>
        <time>2021-09-18T12:10:53Z</time>
      </trkpt>
      <trkpt lat="45.43687" lon="4.75751">
        <ele>168.13</ele>
        <time>2021-09-18T12:10:55Z</time>
      </trkpt>
      <trkpt lat="45.43709" lon="4.7574">
        <ele>168.19</ele>
        <time>2021-09-18T12:11:00Z</time>
      </trkpt>
      <trkpt lat="45.43713" lon="4.75737">
        <ele>168.19</ele>
        <time>2021-09-18T12:11:01Z</time>
      </trkpt>
      <trkpt lat="45.43717" lon="4.75733">
        <ele>168.22</ele>
        <time>2021-09-18T12:11:02Z</time>
      </trkpt>
      <trkpt lat="45.4372" lon="4.75729">
        <ele>168.24</ele>
        <time>2021-09-18T12:11:03Z</time>
      </trkpt>
      <trkpt lat="45.43723" lon="4.75725">
        <ele>168.25</ele>
        <time>2021-09-18T12:11:04Z</time>
      </trkpt>
      <trkpt lat="45.43726" lon="4.75721">
        <ele>168.25</ele>
        <time>2021-09-18T12:11:05Z</time>
      </trkpt>
      <trkpt lat="45.43729" lon="4.75717">
        <ele>168.25</ele>
        <time>2021-09-18T12:11:06Z</time>
      </trkpt>
      <trkpt lat="45.43749" lon="4.75695">
        <ele>168.68</ele>
        <time>2021-09-18T12:11:12Z</time>
      </trkpt>
      <trkpt lat="45.43765" lon="4.7568">
        <ele>168.76</ele>
        <time>2021-09-18T12:11:16Z</time>
      </trkpt>
      <trkpt lat="45.438" lon="4.7566">
        <ele>168.65</ele>
        <time>2021-09-18T12:11:23Z</time>
      </trkpt>
      <trkpt lat="45.43826" lon="4.7565">
        <ele>168.53</ele>
        <time>2021-09-18T12:11:28Z</time>
      </trkpt>
      <trkpt lat="45.4386" lon="4.75646">
        <ele>168.49</ele>
        <time>2021-09-18T12:11:34Z</time>
      </trkpt>
      <trkpt lat="45.43887" lon="4.75647">
        <ele>168.51</ele>
        <time>2021-09-18T12:11:40Z</time>
      </trkpt>
      <trkpt lat="45.43906" lon="4.75652">
        <ele>168.58</ele>
        <time>2021-09-18T12:11:45Z</time>
      </trkpt>
      <trkpt lat="45.43924" lon="4.75661">
        <ele>168.85</ele>
        <time>2021-09-18T12:11:49Z</time>
      </trkpt>
      <trkpt lat="45.43968" lon="4.75673">
        <ele>168.87</ele>
        <time>2021-09-18T12:11:57Z</time>
      </trkpt>
      <trkpt lat="45.44013" lon="4.7568">
        <ele>168.69</ele>
        <time>2021-09-18T12:12:05Z</time>
      </trkpt>
      <trkpt lat="45.44019" lon="4.75679">
        <ele>168.68</ele>
        <time>2021-09-18T12:12:06Z</time>
      </trkpt>
      <trkpt lat="45.44024" lon="4.75677">
        <ele>168.68</ele>
        <time>2021-09-18T12:12:07Z</time>
      </trkpt>
      <trkpt lat="45.4404" lon="4.75672">
        <ele>168.66</ele>
        <time>2021-09-18T12:12:10Z</time>
      </trkpt>
      <trkpt lat="45.44073" lon="4.75658">
        <ele>168.6</ele>
        <time>2021-09-18T12:12:16Z</time>
      </trkpt>
      <trkpt lat="45.44087" lon="4.75643">
        <ele>168.56</ele>
        <time>2021-09-18T12:12:19Z</time>
      </trkpt>
      <trkpt lat="45.44098" lon="4.75628">
        <ele>168.54</ele>
        <time>2021-09-18T12:12:22Z</time>
      </trkpt>
      <trkpt lat="45.44104" lon="4.75617">
        <ele>168.52</ele>
        <time>2021-09-18T12:12:24Z</time>
      </trkpt>
      <trkpt lat="45.44117" lon="4.75584">
        <ele>168.5</ele>
        <time>2021-09-18T12:12:30Z</time>
      </trkpt>
      <trkpt lat="45.44132" lon="4.75557">
        <ele>168.69</ele>
        <time>2021-09-18T12:12:36Z</time>
      </trkpt>
      <trkpt lat="45.44136" lon="4.75552">
        <ele>168.73</ele>
        <time>2021-09-18T12:12:37Z</time>
      </trkpt>
      <trkpt lat="45.44139" lon="4.75548">
        <ele>168.82</ele>
        <time>2021-09-18T12:12:38Z</time>
      </trkpt>
      <trkpt lat="45.44144" lon="4.75545">
        <ele>168.82</ele>
        <time>2021-09-18T12:12:39Z</time>
      </trkpt>
      <trkpt lat="45.44148" lon="4.75542">
        <ele>168.92</ele>
        <time>2021-09-18T12:12:40Z</time>
      </trkpt>
      <trkpt lat="45.44153" lon="4.75539">
        <ele>168.95</ele>
        <time>2021-09-18T12:12:41Z</time>
      </trkpt>
      <trkpt lat="45.44159" lon="4.75537">
        <ele>168.96</ele>
        <time>2021-09-18T12:12:42Z</time>
      </trkpt>
      <trkpt lat="45.44164" lon="4.75536">
        <ele>168.97</ele>
        <time>2021-09-18T12:12:43Z</time>
      </trkpt>
      <trkpt lat="45.44187" lon="4.75536">
        <ele>168.97</ele>
        <time>2021-09-18T12:12:47Z</time>
      </trkpt>
      <trkpt lat="45.44209" lon="4.75545">
        <ele>168.93</ele>
        <time>2021-09-18T12:12:51Z</time>
      </trkpt>
      <trkpt lat="45.44233" lon="4.75565">
        <ele>168.66</ele>
        <time>2021-09-18T12:12:56Z</time>
      </trkpt>
      <trkpt lat="45.44238" lon="4.75567">
        <ele>168.61</ele>
        <time>2021-09-18T12:12:57Z</time>
      </trkpt>
      <trkpt lat="45.44244" lon="4.7557">
        <ele>168.44</ele>
        <time>2021-09-18T12:12:58Z</time>
      </trkpt>
      <trkpt lat="45.44249" lon="4.75572">
        <ele>168.36</ele>
        <time>2021-09-18T12:12:59Z</time>
      </trkpt>
      <trkpt lat="45.44255" lon="4.75573">
        <ele>168.31</ele>
        <time>2021-09-18T12:13:00Z</time>
      </trkpt>
      <trkpt lat="45.44266" lon="4.75575">
        <ele>168.28</ele>
        <time>2021-09-18T12:13:02Z</time>
      </trkpt>
      <trkpt lat="45.44307" lon="4.75564">
        <ele>168.32</ele>
        <time>2021-09-18T12:13:09Z</time>
      </trkpt>
      <trkpt lat="45.44337" lon="4.75548">
        <ele>168.44</ele>
        <time>2021-09-18T12:13:15Z</time>
      </trkpt>
      <trkpt lat="45.44347" lon="4.75541">
        <ele>168.46</ele>
        <time>2021-09-18T12:13:17Z</time>
      </trkpt>
      <trkpt lat="45.44355" lon="4.75535">
        <ele>168.48</ele>
        <time>2021-09-18T12:13:19Z</time>
      </trkpt>
      <trkpt lat="45.44383" lon="4.75512">
        <ele>168.5</ele>
        <time>2021-09-18T12:13:25Z</time>
      </trkpt>
      <trkpt lat="45.44393" lon="4.75505">
        <ele>168.5</ele>
        <time>2021-09-18T12:13:27Z</time>
      </trkpt>
      <trkpt lat="45.44399" lon="4.75502">
        <ele>168.5</ele>
        <time>2021-09-18T12:13:28Z</time>
      </trkpt>
      <trkpt lat="45.4444" lon="4.75496">
        <ele>168.53</ele>
        <time>2021-09-18T12:13:35Z</time>
      </trkpt>
      <trkpt lat="45.44487" lon="4.75498">
        <ele>168.53</ele>
        <time>2021-09-18T12:13:43Z</time>
      </trkpt>
      <trkpt lat="45.44493" lon="4.75497">
        <ele>168.59</ele>
        <time>2021-09-18T12:13:44Z</time>
      </trkpt>
      <trkpt lat="45.44538" lon="4.75478">
        <ele>168.84</ele>
        <time>2021-09-18T12:13:52Z</time>
      </trkpt>
      <trkpt lat="45.44589" lon="4.75457">
        <ele>168.45</ele>
        <time>2021-09-18T12:14:01Z</time>
      </trkpt>
      <trkpt lat="45.44624" lon="4.75442">
        <ele>168.39</ele>
        <time>2021-09-18T12:14:09Z</time>
      </trkpt>
      <trkpt lat="45.44632" lon="4.75438">
        <ele>168.53</ele>
        <time>2021-09-18T12:14:11Z</time>
      </trkpt>
      <trkpt lat="45.44669" lon="4.75423">
        <ele>168.98</ele>
        <time>2021-09-18T12:14:19Z</time>
      </trkpt>
      <trkpt lat="45.44712" lon="4.75407">
        <ele>168.85</ele>
        <time>2021-09-18T12:14:27Z</time>
      </trkpt>
      <trkpt lat="45.44762" lon="4.75391">
        <ele>168.58</ele>
        <time>2021-09-18T12:14:36Z</time>
      </trkpt>
      <trkpt lat="45.44831" lon="4.75376">
        <ele>168.68</ele>
        <time>2021-09-18T12:14:48Z</time>
      </trkpt>
      <trkpt lat="45.44885" lon="4.75373">
        <ele>168.74</ele>
        <time>2021-09-18T12:14:57Z</time>
      </trkpt>
      <trkpt lat="45.44936" lon="4.75374">
        <ele>168.96</ele>
        <time>2021-09-18T12:15:06Z</time>
      </trkpt>
      <trkpt lat="45.44995" lon="4.75379">
        <ele>169.06</ele>
        <time>2021-09-18T12:15:16Z</time>
      </trkpt>
      <trkpt lat="45.45046" lon="4.75382">
        <ele>168.98</ele>
        <time>2021-09-18T12:15:25Z</time>
      </trkpt>
      <trkpt lat="45.45116" lon="4.75393">
        <ele>168.98</ele>
        <time>2021-09-18T12:15:37Z</time>
      </trkpt>
      <trkpt lat="45.45168" lon="4.75398">
        <ele>168.99</ele>
        <time>2021-09-18T12:15:46Z</time>
      </trkpt>
      <trkpt lat="45.45221" lon="4.75403">
        <ele>169.01</ele>
        <time>2021-09-18T12:15:57Z</time>
      </trkpt>
      <trkpt lat="45.4523" lon="4.75404">
        <ele>169.03</ele>
        <time>2021-09-18T12:15:59Z</time>
      </trkpt>
      <trkpt lat="45.45239" lon="4.75405">
        <ele>169.04</ele>
        <time>2021-09-18T12:16:01Z</time>
      </trkpt>
      <trkpt lat="45.4526" lon="4.75407">
        <ele>169.02</ele>
        <time>2021-09-18T12:16:05Z</time>
      </trkpt>
      <trkpt lat="45.45308" lon="4.75411">
        <ele>168.78</ele>
        <time>2021-09-18T12:16:13Z</time>
      </trkpt>
      <trkpt lat="45.45349" lon="4.75414">
        <ele>167.97</ele>
        <time>2021-09-18T12:16:20Z</time>
      </trkpt>
      <trkpt lat="45.4538" lon="4.75417">
        <ele>167.96</ele>
        <time>2021-09-18T12:16:27Z</time>
      </trkpt>
      <trkpt lat="45.45418" lon="4.75421">
        <ele>168.77</ele>
        <time>2021-09-18T12:16:35Z</time>
      </trkpt>
      <trkpt lat="45.45466" lon="4.75429">
        <ele>168.73</ele>
        <time>2021-09-18T12:16:43Z</time>
      </trkpt>
      <trkpt lat="45.45484" lon="4.75434">
        <ele>168.45</ele>
        <time>2021-09-18T12:16:46Z</time>
      </trkpt>
      <trkpt lat="45.45511" lon="4.75447">
        <ele>167.8</ele>
        <time>2021-09-18T12:16:51Z</time>
      </trkpt>
      <trkpt lat="45.45521" lon="4.75454">
        <ele>167.75</ele>
        <time>2021-09-18T12:16:53Z</time>
      </trkpt>
      <trkpt lat="45.45556" lon="4.75486">
        <ele>167.93</ele>
        <time>2021-09-18T12:17:02Z</time>
      </trkpt>
      <trkpt lat="45.4557" lon="4.75503">
        <ele>168.06</ele>
        <time>2021-09-18T12:17:06Z</time>
      </trkpt>
      <trkpt lat="45.45598" lon="4.75546">
        <ele>168.17</ele>
        <time>2021-09-18T12:17:15Z</time>
      </trkpt>
      <trkpt lat="45.45604" lon="4.75559">
        <ele>168.14</ele>
        <time>2021-09-18T12:17:17Z</time>
      </trkpt>
      <trkpt lat="45.45622" lon="4.75609">
        <ele>167.84</ele>
        <time>2021-09-18T12:17:25Z</time>
      </trkpt>
      <trkpt lat="45.45636" lon="4.75643">
        <ele>167.62</ele>
        <time>2021-09-18T12:17:32Z</time>
      </trkpt>
      <trkpt lat="45.45655" lon="4.75693">
        <ele>167.97</ele>
        <time>2021-09-18T12:17:40Z</time>
      </trkpt>
      <trkpt lat="45.4566" lon="4.75707">
        <ele>167.94</ele>
        <time>2021-09-18T12:17:42Z</time>
      </trkpt>
      <trkpt lat="45.45663" lon="4.75714">
        <ele>167.94</ele>
        <time>2021-09-18T12:17:43Z</time>
      </trkpt>
      <trkpt lat="45.45666" lon="4.75721">
        <ele>167.94</ele>
        <time>2021-09-18T12:17:44Z</time>
      </trkpt>
      <trkpt lat="45.45681" lon="4.75764">
        <ele>166.03</ele>
        <time>2021-09-18T12:17:51Z</time>
      </trkpt>
      <trkpt lat="45.45683" lon="4.7577">
        <ele>166</ele>
        <time>2021-09-18T12:17:52Z</time>
      </trkpt>
      <trkpt lat="45.45684" lon="4.75776">
        <ele>165.99</ele>
        <time>2021-09-18T12:17:53Z</time>
      </trkpt>
      <trkpt lat="45.45695" lon="4.7583">
        <ele>166.17</ele>
        <time>2021-09-18T12:18:02Z</time>
      </trkpt>
      <trkpt lat="45.457" lon="4.75858">
        <ele>166.57</ele>
        <time>2021-09-18T12:18:06Z</time>
      </trkpt>
      <trkpt lat="45.45701" lon="4.75864">
        <ele>166.59</ele>
        <time>2021-09-18T12:18:07Z</time>
      </trkpt>
      <trkpt lat="45.4571" lon="4.75919">
        <ele>166.66</ele>
        <time>2021-09-18T12:18:15Z</time>
      </trkpt>
      <trkpt lat="45.45711" lon="4.75926">
        <ele>166.6</ele>
        <time>2021-09-18T12:18:16Z</time>
      </trkpt>
      <trkpt lat="45.45712" lon="4.75932">
        <ele>166.52</ele>
        <time>2021-09-18T12:18:17Z</time>
      </trkpt>
      <trkpt lat="45.45713" lon="4.75937">
        <ele>166.5</ele>
        <time>2021-09-18T12:18:18Z</time>
      </trkpt>
      <trkpt lat="45.45715" lon="4.7594">
        <ele>166.49</ele>
        <time>2021-09-18T12:18:19Z</time>
      </trkpt>
      <trkpt lat="45.45718" lon="4.75943">
        <ele>166.49</ele>
        <time>2021-09-18T12:18:20Z</time>
      </trkpt>
      <trkpt lat="45.45722" lon="4.75943">
        <ele>166.49</ele>
        <time>2021-09-18T12:18:21Z</time>
      </trkpt>
      <trkpt lat="45.45726" lon="4.75942">
        <ele>166.49</ele>
        <time>2021-09-18T12:18:22Z</time>
      </trkpt>
      <trkpt lat="45.4573" lon="4.75944">
        <ele>166.49</ele>
        <time>2021-09-18T12:18:23Z</time>
      </trkpt>
      <trkpt lat="45.45732" lon="4.75948">
        <ele>166.53</ele>
        <time>2021-09-18T12:18:24Z</time>
      </trkpt>
      <trkpt lat="45.45734" lon="4.75953">
        <ele>166.59</ele>
        <time>2021-09-18T12:18:25Z</time>
      </trkpt>
      <trkpt lat="45.45735" lon="4.75958">
        <ele>166.68</ele>
        <time>2021-09-18T12:18:26Z</time>
      </trkpt>
      <trkpt lat="45.45738" lon="4.75963">
        <ele>166.84</ele>
        <time>2021-09-18T12:18:27Z</time>
      </trkpt>
      <trkpt lat="45.45741" lon="4.75968">
        <ele>166.94</ele>
        <time>2021-09-18T12:18:28Z</time>
      </trkpt>
      <trkpt lat="45.45745" lon="4.75973">
        <ele>167.04</ele>
        <time>2021-09-18T12:18:29Z</time>
      </trkpt>
      <trkpt lat="45.4576" lon="4.75989">
        <ele>167.59</ele>
        <time>2021-09-18T12:18:33Z</time>
      </trkpt>
      <trkpt lat="45.45764" lon="4.75991">
        <ele>167.83</ele>
        <time>2021-09-18T12:18:34Z</time>
      </trkpt>
      <trkpt lat="45.45768" lon="4.75992">
        <ele>167.95</ele>
        <time>2021-09-18T12:18:35Z</time>
      </trkpt>
      <trkpt lat="45.45772" lon="4.75992">
        <ele>168.02</ele>
        <time>2021-09-18T12:18:36Z</time>
      </trkpt>
      <trkpt lat="45.45776" lon="4.75991">
        <ele>168.1</ele>
        <time>2021-09-18T12:18:37Z</time>
      </trkpt>
      <trkpt lat="45.45779" lon="4.7599">
        <ele>168.13</ele>
        <time>2021-09-18T12:18:38Z</time>
      </trkpt>
      <trkpt lat="45.45786" lon="4.7599">
        <ele>168.2</ele>
        <time>2021-09-18T12:18:40Z</time>
      </trkpt>
      <trkpt lat="45.45789" lon="4.75991">
        <ele>168.29</ele>
        <time>2021-09-18T12:18:41Z</time>
      </trkpt>
      <trkpt lat="45.45793" lon="4.7599">
        <ele>168.42</ele>
        <time>2021-09-18T12:18:42Z</time>
      </trkpt>
      <trkpt lat="45.45824" lon="4.75987">
        <ele>169.14</ele>
        <time>2021-09-18T12:18:50Z</time>
      </trkpt>
      <trkpt lat="45.45835" lon="4.76001">
        <ele>169.28</ele>
        <time>2021-09-18T12:18:55Z</time>
      </trkpt>
      <trkpt lat="45.45844" lon="4.76018">
        <ele>169.65</ele>
        <time>2021-09-18T12:18:58Z</time>
      </trkpt>
      <trkpt lat="45.45864" lon="4.76062">
        <ele>170.08</ele>
        <time>2021-09-18T12:19:06Z</time>
      </trkpt>
      <trkpt lat="45.45872" lon="4.76091">
        <ele>169.98</ele>
        <time>2021-09-18T12:19:12Z</time>
      </trkpt>
      <trkpt lat="45.45865" lon="4.76108">
        <ele>169.75</ele>
        <time>2021-09-18T12:19:16Z</time>
      </trkpt>
      <trkpt lat="45.45842" lon="4.76142">
        <ele>168.83</ele>
        <time>2021-09-18T12:19:24Z</time>
      </trkpt>
      <trkpt lat="45.4582" lon="4.76175">
        <ele>168.01</ele>
        <time>2021-09-18T12:19:33Z</time>
      </trkpt>
      <trkpt lat="45.45819" lon="4.76178">
        <ele>168</ele>
        <time>2021-09-18T12:19:34Z</time>
      </trkpt>
      <trkpt lat="45.45819" lon="4.7618">
        <ele>167.99</ele>
        <time>2021-09-18T12:19:35Z</time>
      </trkpt>
      <trkpt lat="45.4582" lon="4.76207">
        <ele>168.11</ele>
        <time>2021-09-18T12:19:41Z</time>
      </trkpt>
      <trkpt lat="45.45822" lon="4.76239">
        <ele>168.11</ele>
        <time>2021-09-18T12:19:47Z</time>
      </trkpt>
      <trkpt lat="45.45822" lon="4.76272">
        <ele>168.14</ele>
        <time>2021-09-18T12:19:54Z</time>
      </trkpt>
      <trkpt lat="45.45822" lon="4.7629">
        <ele>168.07</ele>
        <time>2021-09-18T12:19:59Z</time>
      </trkpt>
      <trkpt lat="45.4582" lon="4.76291">
        <ele>168.06</ele>
        <time>2021-09-18T12:20:00Z</time>
      </trkpt>
      <trkpt lat="45.45812" lon="4.76291">
        <ele>168.16</ele>
        <time>2021-09-18T12:20:06Z</time>
      </trkpt>
      <trkpt lat="45.4581" lon="4.76296">
        <ele>168.11</ele>
        <time>2021-09-18T12:20:09Z</time>
      </trkpt>
      <trkpt lat="45.45811" lon="4.76301">
        <ele>168.07</ele>
        <time>2021-09-18T12:20:11Z</time>
      </trkpt>
      <trkpt lat="45.45811" lon="4.76305">
        <ele>168.06</ele>
        <time>2021-09-18T12:20:12Z</time>
      </trkpt>
      <trkpt lat="45.45811" lon="4.76308">
        <ele>168.06</ele>
        <time>2021-09-18T12:20:13Z</time>
      </trkpt>
      <trkpt lat="45.45812" lon="4.76312">
        <ele>168.06</ele>
        <time>2021-09-18T12:20:14Z</time>
      </trkpt>
      <trkpt lat="45.45812" lon="4.76315">
        <ele>168.06</ele>
        <time>2021-09-18T12:20:15Z</time>
      </trkpt>
      <trkpt lat="45.45816" lon="4.76347">
        <ele>167.84</ele>
        <time>2021-09-18T12:20:23Z</time>
      </trkpt>
      <trkpt lat="45.45818" lon="4.76379">
        <ele>167.59</ele>
        <time>2021-09-18T12:20:29Z</time>
      </trkpt>
      <trkpt lat="45.45823" lon="4.76442">
        <ele>167.22</ele>
        <time>2021-09-18T12:20:39Z</time>
      </trkpt>
      <trkpt lat="45.45826" lon="4.76484">
        <ele>167.12</ele>
        <time>2021-09-18T12:20:46Z</time>
      </trkpt>
      <trkpt lat="45.4583" lon="4.76512">
        <ele>167.45</ele>
        <time>2021-09-18T12:20:51Z</time>
      </trkpt>
      <trkpt lat="45.4583" lon="4.76518">
        <ele>167.62</ele>
        <time>2021-09-18T12:20:52Z</time>
      </trkpt>
      <trkpt lat="45.4583" lon="4.76524">
        <ele>167.7</ele>
        <time>2021-09-18T12:20:53Z</time>
      </trkpt>
      <trkpt lat="45.45828" lon="4.76543">
        <ele>167.77</ele>
        <time>2021-09-18T12:20:56Z</time>
      </trkpt>
      <trkpt lat="45.45819" lon="4.76587">
        <ele>167.83</ele>
        <time>2021-09-18T12:21:05Z</time>
      </trkpt>
      <trkpt lat="45.45814" lon="4.76621">
        <ele>167.55</ele>
        <time>2021-09-18T12:21:12Z</time>
      </trkpt>
      <trkpt lat="45.45809" lon="4.76657">
        <ele>167.56</ele>
        <time>2021-09-18T12:21:19Z</time>
      </trkpt>
      <trkpt lat="45.45805" lon="4.76682">
        <ele>167.39</ele>
        <time>2021-09-18T12:21:23Z</time>
      </trkpt>
      <trkpt lat="45.45799" lon="4.76715">
        <ele>167.31</ele>
        <time>2021-09-18T12:21:30Z</time>
      </trkpt>
      <trkpt lat="45.45795" lon="4.76748">
        <ele>167.32</ele>
        <time>2021-09-18T12:21:37Z</time>
      </trkpt>
      <trkpt lat="45.45786" lon="4.76805">
        <ele>167.24</ele>
        <time>2021-09-18T12:21:47Z</time>
      </trkpt>
      <trkpt lat="45.45784" lon="4.76827">
        <ele>167.18</ele>
        <time>2021-09-18T12:21:51Z</time>
      </trkpt>
      <trkpt lat="45.45785" lon="4.76838">
        <ele>167.18</ele>
        <time>2021-09-18T12:21:53Z</time>
      </trkpt>
      <trkpt lat="45.45786" lon="4.76844">
        <ele>167.18</ele>
        <time>2021-09-18T12:21:54Z</time>
      </trkpt>
      <trkpt lat="45.45789" lon="4.76878">
        <ele>167.16</ele>
        <time>2021-09-18T12:22:00Z</time>
      </trkpt>
      <trkpt lat="45.45789" lon="4.76884">
        <ele>167.19</ele>
        <time>2021-09-18T12:22:01Z</time>
      </trkpt>
      <trkpt lat="45.45789" lon="4.7689">
        <ele>167.23</ele>
        <time>2021-09-18T12:22:02Z</time>
      </trkpt>
      <trkpt lat="45.45788" lon="4.76896">
        <ele>167.26</ele>
        <time>2021-09-18T12:22:03Z</time>
      </trkpt>
      <trkpt lat="45.45789" lon="4.76933">
        <ele>167.53</ele>
        <time>2021-09-18T12:22:10Z</time>
      </trkpt>
      <trkpt lat="45.45792" lon="4.76948">
        <ele>167.57</ele>
        <time>2021-09-18T12:22:14Z</time>
      </trkpt>
      <trkpt lat="45.45789" lon="4.7695">
        <ele>167.65</ele>
        <time>2021-09-18T12:22:16Z</time>
      </trkpt>
      <trkpt lat="45.45788" lon="4.76951">
        <ele>167.66</ele>
        <time>2021-09-18T12:22:17Z</time>
      </trkpt>
      <trkpt lat="45.45786" lon="4.76954">
        <ele>167.68</ele>
        <time>2021-09-18T12:22:18Z</time>
      </trkpt>
      <trkpt lat="45.45786" lon="4.76957">
        <ele>167.69</ele>
        <time>2021-09-18T12:22:19Z</time>
      </trkpt>
      <trkpt lat="45.45786" lon="4.7696">
        <ele>167.72</ele>
        <time>2021-09-18T12:22:20Z</time>
      </trkpt>
      <trkpt lat="45.45785" lon="4.76964">
        <ele>167.98</ele>
        <time>2021-09-18T12:22:21Z</time>
      </trkpt>
      <trkpt lat="45.45785" lon="4.76968">
        <ele>168.12</ele>
        <time>2021-09-18T12:22:22Z</time>
      </trkpt>
      <trkpt lat="45.45785" lon="4.76971">
        <ele>168.2</ele>
        <time>2021-09-18T12:22:23Z</time>
      </trkpt>
      <trkpt lat="45.45785" lon="4.76975">
        <ele>168.26</ele>
        <time>2021-09-18T12:22:24Z</time>
      </trkpt>
      <trkpt lat="45.45784" lon="4.77016">
        <ele>168.43</ele>
        <time>2021-09-18T12:22:32Z</time>
      </trkpt>
      <trkpt lat="45.45786" lon="4.77028">
        <ele>168.4</ele>
        <time>2021-09-18T12:22:36Z</time>
      </trkpt>
      <trkpt lat="45.45787" lon="4.77027">
        <ele>168.43</ele>
        <time>2021-09-18T12:22:37Z</time>
      </trkpt>
      <trkpt lat="45.45788" lon="4.77024">
        <ele>168.48</ele>
        <time>2021-09-18T12:22:38Z</time>
      </trkpt>
      <trkpt lat="45.45788" lon="4.77022">
        <ele>168.49</ele>
        <time>2021-09-18T12:22:39Z</time>
      </trkpt>
      <trkpt lat="45.45788" lon="4.77019">
        <ele>168.44</ele>
        <time>2021-09-18T12:22:40Z</time>
      </trkpt>
      <trkpt lat="45.45788" lon="4.77016">
        <ele>168.42</ele>
        <time>2021-09-18T12:22:41Z</time>
      </trkpt>
      <trkpt lat="45.45786" lon="4.77013">
        <ele>168.41</ele>
        <time>2021-09-18T12:22:42Z</time>
      </trkpt>
      <trkpt lat="45.45784" lon="4.76999">
        <ele>168.26</ele>
        <time>2021-09-18T12:22:47Z</time>
      </trkpt>
      <trkpt lat="45.45784" lon="4.76996">
        <ele>168.33</ele>
        <time>2021-09-18T12:22:51Z</time>
      </trkpt>
      <trkpt lat="45.45782" lon="4.76995">
        <ele>168.33</ele>
        <time>2021-09-18T12:22:55Z</time>
      </trkpt>
      <trkpt lat="45.45781" lon="4.76994">
        <ele>168.33</ele>
        <time>2021-09-18T12:22:59Z</time>
      </trkpt>
      <trkpt lat="45.45786" lon="4.77006">
        <ele>169.01</ele>
        <time>2021-09-18T12:27:50Z</time>
      </trkpt>
      <trkpt lat="45.45783" lon="4.77024">
        <ele>169.06</ele>
        <time>2021-09-18T12:27:56Z</time>
      </trkpt>
      <trkpt lat="45.45781" lon="4.77041">
        <ele>169.09</ele>
        <time>2021-09-18T12:28:03Z</time>
      </trkpt>
      <trkpt lat="45.45782" lon="4.77043">
        <ele>169.1</ele>
        <time>2021-09-18T12:28:04Z</time>
      </trkpt>
      <trkpt lat="45.45783" lon="4.77046">
        <ele>169.11</ele>
        <time>2021-09-18T12:28:05Z</time>
      </trkpt>
      <trkpt lat="45.45781" lon="4.77069">
        <ele>169.34</ele>
        <time>2021-09-18T12:28:11Z</time>
      </trkpt>
      <trkpt lat="45.45785" lon="4.77094">
        <ele>169.36</ele>
        <time>2021-09-18T12:28:17Z</time>
      </trkpt>
      <trkpt lat="45.45801" lon="4.77121">
        <ele>169.28</ele>
        <time>2021-09-18T12:28:26Z</time>
      </trkpt>
      <trkpt lat="45.45816" lon="4.77136">
        <ele>169.27</ele>
        <time>2021-09-18T12:28:31Z</time>
      </trkpt>
      <trkpt lat="45.45841" lon="4.77154">
        <ele>169.28</ele>
        <time>2021-09-18T12:28:40Z</time>
      </trkpt>
      <trkpt lat="45.45864" lon="4.77171">
        <ele>169.22</ele>
        <time>2021-09-18T12:28:47Z</time>
      </trkpt>
      <trkpt lat="45.4589" lon="4.77188">
        <ele>169.19</ele>
        <time>2021-09-18T12:28:56Z</time>
      </trkpt>
      <trkpt lat="45.459" lon="4.77195">
        <ele>169.15</ele>
        <time>2021-09-18T12:28:59Z</time>
      </trkpt>
      <trkpt lat="45.45904" lon="4.77198">
        <ele>169.15</ele>
        <time>2021-09-18T12:29:00Z</time>
      </trkpt>
      <trkpt lat="45.45908" lon="4.772">
        <ele>169.13</ele>
        <time>2021-09-18T12:29:01Z</time>
      </trkpt>
      <trkpt lat="45.45933" lon="4.77222">
        <ele>168.92</ele>
        <time>2021-09-18T12:29:08Z</time>
      </trkpt>
      <trkpt lat="45.45935" lon="4.77227">
        <ele>168.92</ele>
        <time>2021-09-18T12:29:09Z</time>
      </trkpt>
      <trkpt lat="45.45938" lon="4.77242">
        <ele>168.92</ele>
        <time>2021-09-18T12:29:12Z</time>
      </trkpt>
      <trkpt lat="45.45942" lon="4.77253">
        <ele>168.9</ele>
        <time>2021-09-18T12:29:14Z</time>
      </trkpt>
      <trkpt lat="45.45953" lon="4.77296">
        <ele>168.96</ele>
        <time>2021-09-18T12:29:22Z</time>
      </trkpt>
      <trkpt lat="45.45966" lon="4.77322">
        <ele>169.08</ele>
        <time>2021-09-18T12:29:28Z</time>
      </trkpt>
      <trkpt lat="45.45978" lon="4.77361">
        <ele>169.08</ele>
        <time>2021-09-18T12:29:35Z</time>
      </trkpt>
      <trkpt lat="45.45981" lon="4.77367">
        <ele>169.06</ele>
        <time>2021-09-18T12:29:36Z</time>
      </trkpt>
      <trkpt lat="45.46008" lon="4.77425">
        <ele>168.78</ele>
        <time>2021-09-18T12:29:46Z</time>
      </trkpt>
      <trkpt lat="45.4601" lon="4.77431">
        <ele>168.75</ele>
        <time>2021-09-18T12:29:47Z</time>
      </trkpt>
      <trkpt lat="45.46012" lon="4.77437">
        <ele>168.73</ele>
        <time>2021-09-18T12:29:48Z</time>
      </trkpt>
      <trkpt lat="45.46013" lon="4.77443">
        <ele>168.69</ele>
        <time>2021-09-18T12:29:49Z</time>
      </trkpt>
      <trkpt lat="45.46029" lon="4.77502">
        <ele>168.03</ele>
        <time>2021-09-18T12:29:58Z</time>
      </trkpt>
      <trkpt lat="45.46037" lon="4.77564">
        <ele>167.88</ele>
        <time>2021-09-18T12:30:07Z</time>
      </trkpt>
      <trkpt lat="45.46046" lon="4.77645">
        <ele>168</ele>
        <time>2021-09-18T12:30:18Z</time>
      </trkpt>
      <trkpt lat="45.46048" lon="4.77652">
        <ele>168</ele>
        <time>2021-09-18T12:30:19Z</time>
      </trkpt>
      <trkpt lat="45.4605" lon="4.77658">
        <ele>168</ele>
        <time>2021-09-18T12:30:20Z</time>
      </trkpt>
      <trkpt lat="45.46053" lon="4.77663">
        <ele>168</ele>
        <time>2021-09-18T12:30:21Z</time>
      </trkpt>
      <trkpt lat="45.46056" lon="4.77668">
        <ele>167.98</ele>
        <time>2021-09-18T12:30:22Z</time>
      </trkpt>
      <trkpt lat="45.4606" lon="4.77672">
        <ele>168</ele>
        <time>2021-09-18T12:30:23Z</time>
      </trkpt>
      <trkpt lat="45.46065" lon="4.77675">
        <ele>168.02</ele>
        <time>2021-09-18T12:30:24Z</time>
      </trkpt>
      <trkpt lat="45.46069" lon="4.77678">
        <ele>168.03</ele>
        <time>2021-09-18T12:30:25Z</time>
      </trkpt>
      <trkpt lat="45.46073" lon="4.7768">
        <ele>168.06</ele>
        <time>2021-09-18T12:30:26Z</time>
      </trkpt>
      <trkpt lat="45.46078" lon="4.77683">
        <ele>168.09</ele>
        <time>2021-09-18T12:30:27Z</time>
      </trkpt>
      <trkpt lat="45.46082" lon="4.77686">
        <ele>168.1</ele>
        <time>2021-09-18T12:30:28Z</time>
      </trkpt>
      <trkpt lat="45.46109" lon="4.77703">
        <ele>168.24</ele>
        <time>2021-09-18T12:30:34Z</time>
      </trkpt>
      <trkpt lat="45.46153" lon="4.77739">
        <ele>168.46</ele>
        <time>2021-09-18T12:30:44Z</time>
      </trkpt>
      <trkpt lat="45.46193" lon="4.77779">
        <ele>168.68</ele>
        <time>2021-09-18T12:30:54Z</time>
      </trkpt>
      <trkpt lat="45.46248" lon="4.77837">
        <ele>169.39</ele>
        <time>2021-09-18T12:31:07Z</time>
      </trkpt>
      <trkpt lat="45.46277" lon="4.77865">
        <ele>169.42</ele>
        <time>2021-09-18T12:31:14Z</time>
      </trkpt>
      <trkpt lat="45.46282" lon="4.77868">
        <ele>169.45</ele>
        <time>2021-09-18T12:31:15Z</time>
      </trkpt>
      <trkpt lat="45.46291" lon="4.77875">
        <ele>169.48</ele>
        <time>2021-09-18T12:31:17Z</time>
      </trkpt>
      <trkpt lat="45.46335" lon="4.77898">
        <ele>169.8</ele>
        <time>2021-09-18T12:31:26Z</time>
      </trkpt>
      <trkpt lat="45.46379" lon="4.77923">
        <ele>169.98</ele>
        <time>2021-09-18T12:31:35Z</time>
      </trkpt>
      <trkpt lat="45.46389" lon="4.77927">
        <ele>169.98</ele>
        <time>2021-09-18T12:31:37Z</time>
      </trkpt>
      <trkpt lat="45.46394" lon="4.77928">
        <ele>169.98</ele>
        <time>2021-09-18T12:31:38Z</time>
      </trkpt>
      <trkpt lat="45.46399" lon="4.7793">
        <ele>169.98</ele>
        <time>2021-09-18T12:31:39Z</time>
      </trkpt>
      <trkpt lat="45.46405" lon="4.7793">
        <ele>169.98</ele>
        <time>2021-09-18T12:31:40Z</time>
      </trkpt>
      <trkpt lat="45.4641" lon="4.7793">
        <ele>169.98</ele>
        <time>2021-09-18T12:31:41Z</time>
      </trkpt>
      <trkpt lat="45.46415" lon="4.7793">
        <ele>170.02</ele>
        <time>2021-09-18T12:31:42Z</time>
      </trkpt>
      <trkpt lat="45.46441" lon="4.77939">
        <ele>170.12</ele>
        <time>2021-09-18T12:31:48Z</time>
      </trkpt>
      <trkpt lat="45.46455" lon="4.77945">
        <ele>170.22</ele>
        <time>2021-09-18T12:31:53Z</time>
      </trkpt>
      <trkpt lat="45.46463" lon="4.77946">
        <ele>170.25</ele>
        <time>2021-09-18T12:31:55Z</time>
      </trkpt>
      <trkpt lat="45.46467" lon="4.77946">
        <ele>170.28</ele>
        <time>2021-09-18T12:31:56Z</time>
      </trkpt>
      <trkpt lat="45.46471" lon="4.77946">
        <ele>170.3</ele>
        <time>2021-09-18T12:31:57Z</time>
      </trkpt>
      <trkpt lat="45.46481" lon="4.77942">
        <ele>170.78</ele>
        <time>2021-09-18T12:32:00Z</time>
      </trkpt>
      <trkpt lat="45.46484" lon="4.77939">
        <ele>170.84</ele>
        <time>2021-09-18T12:32:01Z</time>
      </trkpt>
      <trkpt lat="45.46486" lon="4.77934">
        <ele>170.87</ele>
        <time>2021-09-18T12:32:02Z</time>
      </trkpt>
      <trkpt lat="45.46488" lon="4.77928">
        <ele>170.9</ele>
        <time>2021-09-18T12:32:03Z</time>
      </trkpt>
      <trkpt lat="45.46489" lon="4.77922">
        <ele>170.91</ele>
        <time>2021-09-18T12:32:04Z</time>
      </trkpt>
      <trkpt lat="45.4649" lon="4.77916">
        <ele>170.92</ele>
        <time>2021-09-18T12:32:05Z</time>
      </trkpt>
      <trkpt lat="45.46495" lon="4.77873">
        <ele>170.99</ele>
        <time>2021-09-18T12:32:12Z</time>
      </trkpt>
      <trkpt lat="45.46497" lon="4.77867">
        <ele>170.98</ele>
        <time>2021-09-18T12:32:13Z</time>
      </trkpt>
      <trkpt lat="45.46499" lon="4.77863">
        <ele>170.97</ele>
        <time>2021-09-18T12:32:14Z</time>
      </trkpt>
      <trkpt lat="45.46502" lon="4.77859">
        <ele>170.96</ele>
        <time>2021-09-18T12:32:15Z</time>
      </trkpt>
      <trkpt lat="45.46504" lon="4.77855">
        <ele>170.95</ele>
        <time>2021-09-18T12:32:16Z</time>
      </trkpt>
      <trkpt lat="45.46507" lon="4.77851">
        <ele>170.92</ele>
        <time>2021-09-18T12:32:17Z</time>
      </trkpt>
      <trkpt lat="45.46533" lon="4.77813">
        <ele>170.64</ele>
        <time>2021-09-18T12:32:25Z</time>
      </trkpt>
      <trkpt lat="45.4657" lon="4.77757">
        <ele>170.28</ele>
        <time>2021-09-18T12:32:35Z</time>
      </trkpt>
      <trkpt lat="45.46583" lon="4.77739">
        <ele>170.14</ele>
        <time>2021-09-18T12:32:40Z</time>
      </trkpt>
      <trkpt lat="45.46577" lon="4.7775">
        <ele>170.66</ele>
        <time>2021-09-18T12:32:50Z</time>
      </trkpt>
      <trkpt lat="45.46577" lon="4.77751">
        <ele>170.75</ele>
        <time>2021-09-18T12:32:53Z</time>
      </trkpt>
      <trkpt lat="45.46577" lon="4.77745">
        <ele>171.07</ele>
        <time>2021-09-18T12:33:15Z</time>
      </trkpt>
      <trkpt lat="45.46578" lon="4.77743">
        <ele>171.07</ele>
        <time>2021-09-18T12:33:16Z</time>
      </trkpt>
      <trkpt lat="45.46579" lon="4.77742">
        <ele>171.07</ele>
        <time>2021-09-18T12:33:17Z</time>
      </trkpt>
      <trkpt lat="45.4659" lon="4.77729">
        <ele>171.05</ele>
        <time>2021-09-18T12:33:24Z</time>
      </trkpt>
      <trkpt lat="45.46598" lon="4.7772">
        <ele>171</ele>
        <time>2021-09-18T12:33:28Z</time>
      </trkpt>
      <trkpt lat="45.46601" lon="4.77719">
        <ele>170.99</ele>
        <time>2021-09-18T12:33:29Z</time>
      </trkpt>
      <trkpt lat="45.46604" lon="4.7772">
        <ele>170.98</ele>
        <time>2021-09-18T12:33:30Z</time>
      </trkpt>
      <trkpt lat="45.46608" lon="4.77723">
        <ele>170.97</ele>
        <time>2021-09-18T12:33:31Z</time>
      </trkpt>
      <trkpt lat="45.46612" lon="4.77727">
        <ele>170.96</ele>
        <time>2021-09-18T12:33:32Z</time>
      </trkpt>
      <trkpt lat="45.46616" lon="4.77731">
        <ele>170.91</ele>
        <time>2021-09-18T12:33:33Z</time>
      </trkpt>
      <trkpt lat="45.46619" lon="4.77736">
        <ele>170.89</ele>
        <time>2021-09-18T12:33:34Z</time>
      </trkpt>
      <trkpt lat="45.46644" lon="4.77768">
        <ele>170.49</ele>
        <time>2021-09-18T12:33:42Z</time>
      </trkpt>
      <trkpt lat="45.46666" lon="4.77797">
        <ele>170.29</ele>
        <time>2021-09-18T12:33:51Z</time>
      </trkpt>
      <trkpt lat="45.46683" lon="4.77826">
        <ele>170.27</ele>
        <time>2021-09-18T12:33:59Z</time>
      </trkpt>
      <trkpt lat="45.46699" lon="4.77851">
        <ele>170.21</ele>
        <time>2021-09-18T12:34:06Z</time>
      </trkpt>
      <trkpt lat="45.46716" lon="4.77872">
        <ele>169.82</ele>
        <time>2021-09-18T12:34:12Z</time>
      </trkpt>
      <trkpt lat="45.46727" lon="4.77884">
        <ele>169.77</ele>
        <time>2021-09-18T12:34:15Z</time>
      </trkpt>
      <trkpt lat="45.4673" lon="4.77886">
        <ele>169.75</ele>
        <time>2021-09-18T12:34:16Z</time>
      </trkpt>
      <trkpt lat="45.46744" lon="4.77897">
        <ele>169.73</ele>
        <time>2021-09-18T12:34:21Z</time>
      </trkpt>
      <trkpt lat="45.46748" lon="4.77897">
        <ele>169.73</ele>
        <time>2021-09-18T12:34:22Z</time>
      </trkpt>
      <trkpt lat="45.46752" lon="4.77897">
        <ele>169.73</ele>
        <time>2021-09-18T12:34:23Z</time>
      </trkpt>
      <trkpt lat="45.46756" lon="4.77896">
        <ele>169.73</ele>
        <time>2021-09-18T12:34:24Z</time>
      </trkpt>
      <trkpt lat="45.46761" lon="4.77895">
        <ele>169.73</ele>
        <time>2021-09-18T12:34:25Z</time>
      </trkpt>
      <trkpt lat="45.46766" lon="4.77895">
        <ele>169.73</ele>
        <time>2021-09-18T12:34:26Z</time>
      </trkpt>
      <trkpt lat="45.4677" lon="4.77894">
        <ele>169.73</ele>
        <time>2021-09-18T12:34:27Z</time>
      </trkpt>
      <trkpt lat="45.46813" lon="4.77887">
        <ele>170.23</ele>
        <time>2021-09-18T12:34:35Z</time>
      </trkpt>
      <trkpt lat="45.46856" lon="4.77882">
        <ele>170.13</ele>
        <time>2021-09-18T12:34:44Z</time>
      </trkpt>
      <trkpt lat="45.46903" lon="4.77874">
        <ele>169.92</ele>
        <time>2021-09-18T12:34:53Z</time>
      </trkpt>
      <trkpt lat="45.46939" lon="4.77868">
        <ele>170.08</ele>
        <time>2021-09-18T12:35:00Z</time>
      </trkpt>
      <trkpt lat="45.46976" lon="4.77862">
        <ele>170.2</ele>
        <time>2021-09-18T12:35:07Z</time>
      </trkpt>
      <trkpt lat="45.46981" lon="4.7786">
        <ele>170.29</ele>
        <time>2021-09-18T12:35:08Z</time>
      </trkpt>
      <trkpt lat="45.46985" lon="4.77855">
        <ele>170.41</ele>
        <time>2021-09-18T12:35:09Z</time>
      </trkpt>
      <trkpt lat="45.46988" lon="4.7785">
        <ele>170.49</ele>
        <time>2021-09-18T12:35:10Z</time>
      </trkpt>
      <trkpt lat="45.46996" lon="4.77842">
        <ele>170.61</ele>
        <time>2021-09-18T12:35:12Z</time>
      </trkpt>
      <trkpt lat="45.47013" lon="4.77817">
        <ele>170.85</ele>
        <time>2021-09-18T12:35:17Z</time>
      </trkpt>
      <trkpt lat="45.47017" lon="4.77812">
        <ele>170.92</ele>
        <time>2021-09-18T12:35:18Z</time>
      </trkpt>
      <trkpt lat="45.47034" lon="4.77795">
        <ele>171.43</ele>
        <time>2021-09-18T12:35:22Z</time>
      </trkpt>
      <trkpt lat="45.47038" lon="4.7779">
        <ele>171.51</ele>
        <time>2021-09-18T12:35:23Z</time>
      </trkpt>
      <trkpt lat="45.47042" lon="4.77785">
        <ele>171.57</ele>
        <time>2021-09-18T12:35:24Z</time>
      </trkpt>
      <trkpt lat="45.47064" lon="4.77755">
        <ele>171.69</ele>
        <time>2021-09-18T12:35:30Z</time>
      </trkpt>
      <trkpt lat="45.47068" lon="4.77752">
        <ele>171.7</ele>
        <time>2021-09-18T12:35:31Z</time>
      </trkpt>
      <trkpt lat="45.47071" lon="4.77753">
        <ele>171.72</ele>
        <time>2021-09-18T12:35:32Z</time>
      </trkpt>
      <trkpt lat="45.47074" lon="4.77755">
        <ele>171.73</ele>
        <time>2021-09-18T12:35:33Z</time>
      </trkpt>
      <trkpt lat="45.47075" lon="4.77758">
        <ele>171.74</ele>
        <time>2021-09-18T12:35:34Z</time>
      </trkpt>
      <trkpt lat="45.47076" lon="4.77759">
        <ele>171.76</ele>
        <time>2021-09-18T12:35:35Z</time>
      </trkpt>
      <trkpt lat="45.47077" lon="4.77763">
        <ele>171.84</ele>
        <time>2021-09-18T12:35:37Z</time>
      </trkpt>
      <trkpt lat="45.47078" lon="4.77765">
        <ele>171.92</ele>
        <time>2021-09-18T12:35:38Z</time>
      </trkpt>
      <trkpt lat="45.47079" lon="4.77768">
        <ele>172.14</ele>
        <time>2021-09-18T12:35:39Z</time>
      </trkpt>
      <trkpt lat="45.4708" lon="4.77771">
        <ele>172.33</ele>
        <time>2021-09-18T12:35:40Z</time>
      </trkpt>
      <trkpt lat="45.47081" lon="4.77773">
        <ele>172.58</ele>
        <time>2021-09-18T12:35:41Z</time>
      </trkpt>
      <trkpt lat="45.47083" lon="4.77776">
        <ele>172.82</ele>
        <time>2021-09-18T12:35:42Z</time>
      </trkpt>
      <trkpt lat="45.47084" lon="4.77778">
        <ele>173.05</ele>
        <time>2021-09-18T12:35:43Z</time>
      </trkpt>
      <trkpt lat="45.47084" lon="4.7778">
        <ele>173.18</ele>
        <time>2021-09-18T12:35:44Z</time>
      </trkpt>
      <trkpt lat="45.47085" lon="4.77783">
        <ele>173.27</ele>
        <time>2021-09-18T12:35:45Z</time>
      </trkpt>
      <trkpt lat="45.47088" lon="4.77783">
        <ele>173.32</ele>
        <time>2021-09-18T12:35:46Z</time>
      </trkpt>
      <trkpt lat="45.47091" lon="4.77782">
        <ele>173.35</ele>
        <time>2021-09-18T12:35:47Z</time>
      </trkpt>
      <trkpt lat="45.47094" lon="4.77779">
        <ele>173.36</ele>
        <time>2021-09-18T12:35:48Z</time>
      </trkpt>
      <trkpt lat="45.47118" lon="4.77766">
        <ele>173.34</ele>
        <time>2021-09-18T12:35:55Z</time>
      </trkpt>
      <trkpt lat="45.47141" lon="4.77757">
        <ele>173.33</ele>
        <time>2021-09-18T12:36:02Z</time>
      </trkpt>
      <trkpt lat="45.47162" lon="4.77771">
        <ele>173.55</ele>
        <time>2021-09-18T12:36:08Z</time>
      </trkpt>
      <trkpt lat="45.47176" lon="4.77783">
        <ele>173.67</ele>
        <time>2021-09-18T12:36:13Z</time>
      </trkpt>
      <trkpt lat="45.47179" lon="4.77784">
        <ele>173.75</ele>
        <time>2021-09-18T12:36:15Z</time>
      </trkpt>
      <trkpt lat="45.47192" lon="4.77793">
        <ele>173.82</ele>
        <time>2021-09-18T12:36:19Z</time>
      </trkpt>
      <trkpt lat="45.4722" lon="4.77816">
        <ele>173.65</ele>
        <time>2021-09-18T12:36:25Z</time>
      </trkpt>
      <trkpt lat="45.4725" lon="4.7784">
        <ele>172.6</ele>
        <time>2021-09-18T12:36:31Z</time>
      </trkpt>
      <trkpt lat="45.47254" lon="4.77843">
        <ele>172.12</ele>
        <time>2021-09-18T12:36:33Z</time>
      </trkpt>
      <trkpt lat="45.47257" lon="4.77842">
        <ele>171.86</ele>
        <time>2021-09-18T12:36:34Z</time>
      </trkpt>
      <trkpt lat="45.47259" lon="4.77843">
        <ele>171.57</ele>
        <time>2021-09-18T12:36:35Z</time>
      </trkpt>
      <trkpt lat="45.47261" lon="4.77845">
        <ele>171.25</ele>
        <time>2021-09-18T12:36:36Z</time>
      </trkpt>
      <trkpt lat="45.47264" lon="4.77848">
        <ele>171.08</ele>
        <time>2021-09-18T12:36:37Z</time>
      </trkpt>
      <trkpt lat="45.47267" lon="4.7785">
        <ele>170.96</ele>
        <time>2021-09-18T12:36:38Z</time>
      </trkpt>
      <trkpt lat="45.4727" lon="4.77852">
        <ele>170.87</ele>
        <time>2021-09-18T12:36:39Z</time>
      </trkpt>
      <trkpt lat="45.47274" lon="4.77854">
        <ele>170.81</ele>
        <time>2021-09-18T12:36:40Z</time>
      </trkpt>
      <trkpt lat="45.47278" lon="4.77857">
        <ele>170.75</ele>
        <time>2021-09-18T12:36:41Z</time>
      </trkpt>
      <trkpt lat="45.47281" lon="4.7786">
        <ele>170.6</ele>
        <time>2021-09-18T12:36:42Z</time>
      </trkpt>
      <trkpt lat="45.47313" lon="4.77878">
        <ele>170.12</ele>
        <time>2021-09-18T12:36:49Z</time>
      </trkpt>
      <trkpt lat="45.47332" lon="4.77887">
        <ele>170.09</ele>
        <time>2021-09-18T12:36:54Z</time>
      </trkpt>
      <trkpt lat="45.47345" lon="4.77893">
        <ele>170.22</ele>
        <time>2021-09-18T12:37:00Z</time>
      </trkpt>
      <trkpt lat="45.47347" lon="4.77893">
        <ele>170.41</ele>
        <time>2021-09-18T12:37:01Z</time>
      </trkpt>
      <trkpt lat="45.4735" lon="4.77893">
        <ele>170.63</ele>
        <time>2021-09-18T12:37:02Z</time>
      </trkpt>
      <trkpt lat="45.47352" lon="4.77894">
        <ele>170.85</ele>
        <time>2021-09-18T12:37:03Z</time>
      </trkpt>
      <trkpt lat="45.47355" lon="4.77897">
        <ele>171</ele>
        <time>2021-09-18T12:37:04Z</time>
      </trkpt>
      <trkpt lat="45.47359" lon="4.77898">
        <ele>171.16</ele>
        <time>2021-09-18T12:37:05Z</time>
      </trkpt>
      <trkpt lat="45.4738" lon="4.77909">
        <ele>171.32</ele>
        <time>2021-09-18T12:37:10Z</time>
      </trkpt>
      <trkpt lat="45.47389" lon="4.77913">
        <ele>171.32</ele>
        <time>2021-09-18T12:37:12Z</time>
      </trkpt>
      <trkpt lat="45.47393" lon="4.77916">
        <ele>171.32</ele>
        <time>2021-09-18T12:37:13Z</time>
      </trkpt>
      <trkpt lat="45.47398" lon="4.77919">
        <ele>171.27</ele>
        <time>2021-09-18T12:37:14Z</time>
      </trkpt>
      <trkpt lat="45.47403" lon="4.77921">
        <ele>171.19</ele>
        <time>2021-09-18T12:37:15Z</time>
      </trkpt>
      <trkpt lat="45.47408" lon="4.77923">
        <ele>170.98</ele>
        <time>2021-09-18T12:37:16Z</time>
      </trkpt>
      <trkpt lat="45.47413" lon="4.77926">
        <ele>170.8</ele>
        <time>2021-09-18T12:37:17Z</time>
      </trkpt>
      <trkpt lat="45.47418" lon="4.77928">
        <ele>170.65</ele>
        <time>2021-09-18T12:37:18Z</time>
      </trkpt>
      <trkpt lat="45.47429" lon="4.77932">
        <ele>170.51</ele>
        <time>2021-09-18T12:37:20Z</time>
      </trkpt>
      <trkpt lat="45.47434" lon="4.77934">
        <ele>170.48</ele>
        <time>2021-09-18T12:37:21Z</time>
      </trkpt>
      <trkpt lat="45.47438" lon="4.77937">
        <ele>170.46</ele>
        <time>2021-09-18T12:37:22Z</time>
      </trkpt>
      <trkpt lat="45.4744" lon="4.77939">
        <ele>170.45</ele>
        <time>2021-09-18T12:37:23Z</time>
      </trkpt>
      <trkpt lat="45.47442" lon="4.77941">
        <ele>170.45</ele>
        <time>2021-09-18T12:37:24Z</time>
      </trkpt>
      <trkpt lat="45.47455" lon="4.77952">
        <ele>170.45</ele>
        <time>2021-09-18T12:37:30Z</time>
      </trkpt>
      <trkpt lat="45.47475" lon="4.77968">
        <ele>170.36</ele>
        <time>2021-09-18T12:37:36Z</time>
      </trkpt>
      <trkpt lat="45.47503" lon="4.77989">
        <ele>170.32</ele>
        <time>2021-09-18T12:37:43Z</time>
      </trkpt>
      <trkpt lat="45.47516" lon="4.77998">
        <ele>170.3</ele>
        <time>2021-09-18T12:37:46Z</time>
      </trkpt>
      <trkpt lat="45.47535" lon="4.78017">
        <ele>170.28</ele>
        <time>2021-09-18T12:37:51Z</time>
      </trkpt>
      <trkpt lat="45.47543" lon="4.78023">
        <ele>170.28</ele>
        <time>2021-09-18T12:37:53Z</time>
      </trkpt>
      <trkpt lat="45.47547" lon="4.78025">
        <ele>170.28</ele>
        <time>2021-09-18T12:37:54Z</time>
      </trkpt>
      <trkpt lat="45.4755" lon="4.78026">
        <ele>170.29</ele>
        <time>2021-09-18T12:37:55Z</time>
      </trkpt>
      <trkpt lat="45.47553" lon="4.78026">
        <ele>170.29</ele>
        <time>2021-09-18T12:37:56Z</time>
      </trkpt>
      <trkpt lat="45.47556" lon="4.78025">
        <ele>170.31</ele>
        <time>2021-09-18T12:37:57Z</time>
      </trkpt>
      <trkpt lat="45.47558" lon="4.78025">
        <ele>170.33</ele>
        <time>2021-09-18T12:37:58Z</time>
      </trkpt>
      <trkpt lat="45.47561" lon="4.78027">
        <ele>170.34</ele>
        <time>2021-09-18T12:37:59Z</time>
      </trkpt>
      <trkpt lat="45.47581" lon="4.78041">
        <ele>170.97</ele>
        <time>2021-09-18T12:38:05Z</time>
      </trkpt>
      <trkpt lat="45.47595" lon="4.78052">
        <ele>171.04</ele>
        <time>2021-09-18T12:38:08Z</time>
      </trkpt>
      <trkpt lat="45.47599" lon="4.78055">
        <ele>171.04</ele>
        <time>2021-09-18T12:38:09Z</time>
      </trkpt>
      <trkpt lat="45.47603" lon="4.78058">
        <ele>171.04</ele>
        <time>2021-09-18T12:38:10Z</time>
      </trkpt>
      <trkpt lat="45.47619" lon="4.7807">
        <ele>170.83</ele>
        <time>2021-09-18T12:38:14Z</time>
      </trkpt>
      <trkpt lat="45.47622" lon="4.78073">
        <ele>170.58</ele>
        <time>2021-09-18T12:38:15Z</time>
      </trkpt>
      <trkpt lat="45.47639" lon="4.78086">
        <ele>170.29</ele>
        <time>2021-09-18T12:38:20Z</time>
      </trkpt>
      <trkpt lat="45.47649" lon="4.78093">
        <ele>170.28</ele>
        <time>2021-09-18T12:38:22Z</time>
      </trkpt>
      <trkpt lat="45.47654" lon="4.78098">
        <ele>170.25</ele>
        <time>2021-09-18T12:38:23Z</time>
      </trkpt>
      <trkpt lat="45.47658" lon="4.78104">
        <ele>170.24</ele>
        <time>2021-09-18T12:38:24Z</time>
      </trkpt>
      <trkpt lat="45.47663" lon="4.7811">
        <ele>170.23</ele>
        <time>2021-09-18T12:38:25Z</time>
      </trkpt>
      <trkpt lat="45.47664" lon="4.78117">
        <ele>170.25</ele>
        <time>2021-09-18T12:38:26Z</time>
      </trkpt>
      <trkpt lat="45.47666" lon="4.78123">
        <ele>170.33</ele>
        <time>2021-09-18T12:38:27Z</time>
      </trkpt>
      <trkpt lat="45.47666" lon="4.78129">
        <ele>170.35</ele>
        <time>2021-09-18T12:38:28Z</time>
      </trkpt>
      <trkpt lat="45.47666" lon="4.78135">
        <ele>170.37</ele>
        <time>2021-09-18T12:38:29Z</time>
      </trkpt>
      <trkpt lat="45.47665" lon="4.78142">
        <ele>170.43</ele>
        <time>2021-09-18T12:38:30Z</time>
      </trkpt>
      <trkpt lat="45.47663" lon="4.78157">
        <ele>170.5</ele>
        <time>2021-09-18T12:38:32Z</time>
      </trkpt>
      <trkpt lat="45.47663" lon="4.78176">
        <ele>170.77</ele>
        <time>2021-09-18T12:38:35Z</time>
      </trkpt>
      <trkpt lat="45.47665" lon="4.78181">
        <ele>170.82</ele>
        <time>2021-09-18T12:38:36Z</time>
      </trkpt>
      <trkpt lat="45.47667" lon="4.78186">
        <ele>170.85</ele>
        <time>2021-09-18T12:38:37Z</time>
      </trkpt>
      <trkpt lat="45.47671" lon="4.78189">
        <ele>170.86</ele>
        <time>2021-09-18T12:38:38Z</time>
      </trkpt>
      <trkpt lat="45.47675" lon="4.7819">
        <ele>170.87</ele>
        <time>2021-09-18T12:38:39Z</time>
      </trkpt>
      <trkpt lat="45.47678" lon="4.78191">
        <ele>170.87</ele>
        <time>2021-09-18T12:38:40Z</time>
      </trkpt>
      <trkpt lat="45.47688" lon="4.78194">
        <ele>170.87</ele>
        <time>2021-09-18T12:38:42Z</time>
      </trkpt>
      <trkpt lat="45.47711" lon="4.78198">
        <ele>170.85</ele>
        <time>2021-09-18T12:38:47Z</time>
      </trkpt>
      <trkpt lat="45.47716" lon="4.78199">
        <ele>170.83</ele>
        <time>2021-09-18T12:38:48Z</time>
      </trkpt>
      <trkpt lat="45.4772" lon="4.782">
        <ele>170.81</ele>
        <time>2021-09-18T12:38:49Z</time>
      </trkpt>
      <trkpt lat="45.47729" lon="4.78202">
        <ele>170.79</ele>
        <time>2021-09-18T12:38:51Z</time>
      </trkpt>
      <trkpt lat="45.47761" lon="4.78219">
        <ele>170.74</ele>
        <time>2021-09-18T12:38:58Z</time>
      </trkpt>
      <trkpt lat="45.4779" lon="4.7823">
        <ele>170.68</ele>
        <time>2021-09-18T12:39:05Z</time>
      </trkpt>
      <trkpt lat="45.47804" lon="4.78236">
        <ele>170.68</ele>
        <time>2021-09-18T12:39:09Z</time>
      </trkpt>
      <trkpt lat="45.47809" lon="4.78236">
        <ele>170.68</ele>
        <time>2021-09-18T12:39:10Z</time>
      </trkpt>
      <trkpt lat="45.47818" lon="4.78237">
        <ele>170.69</ele>
        <time>2021-09-18T12:39:12Z</time>
      </trkpt>
      <trkpt lat="45.47823" lon="4.78237">
        <ele>170.69</ele>
        <time>2021-09-18T12:39:13Z</time>
      </trkpt>
      <trkpt lat="45.47838" lon="4.7824">
        <ele>170.74</ele>
        <time>2021-09-18T12:39:16Z</time>
      </trkpt>
      <trkpt lat="45.47842" lon="4.78242">
        <ele>170.85</ele>
        <time>2021-09-18T12:39:17Z</time>
      </trkpt>
      <trkpt lat="45.47847" lon="4.78246">
        <ele>170.93</ele>
        <time>2021-09-18T12:39:18Z</time>
      </trkpt>
      <trkpt lat="45.47879" lon="4.78277">
        <ele>171.07</ele>
        <time>2021-09-18T12:39:25Z</time>
      </trkpt>
      <trkpt lat="45.47914" lon="4.78298">
        <ele>170.81</ele>
        <time>2021-09-18T12:39:32Z</time>
      </trkpt>
      <trkpt lat="45.47918" lon="4.78302">
        <ele>170.62</ele>
        <time>2021-09-18T12:39:33Z</time>
      </trkpt>
      <trkpt lat="45.47922" lon="4.78307">
        <ele>170.51</ele>
        <time>2021-09-18T12:39:34Z</time>
      </trkpt>
      <trkpt lat="45.47925" lon="4.78313">
        <ele>170.43</ele>
        <time>2021-09-18T12:39:35Z</time>
      </trkpt>
      <trkpt lat="45.47929" lon="4.78318">
        <ele>170.39</ele>
        <time>2021-09-18T12:39:36Z</time>
      </trkpt>
      <trkpt lat="45.4794" lon="4.78337">
        <ele>170.26</ele>
        <time>2021-09-18T12:39:39Z</time>
      </trkpt>
      <trkpt lat="45.47946" lon="4.78351">
        <ele>170.21</ele>
        <time>2021-09-18T12:39:41Z</time>
      </trkpt>
      <trkpt lat="45.47951" lon="4.78365">
        <ele>170.2</ele>
        <time>2021-09-18T12:39:43Z</time>
      </trkpt>
      <trkpt lat="45.47953" lon="4.78371">
        <ele>170.2</ele>
        <time>2021-09-18T12:39:44Z</time>
      </trkpt>
      <trkpt lat="45.47957" lon="4.7839">
        <ele>170.33</ele>
        <time>2021-09-18T12:39:48Z</time>
      </trkpt>
      <trkpt lat="45.47956" lon="4.78392">
        <ele>170.36</ele>
        <time>2021-09-18T12:39:49Z</time>
      </trkpt>
      <trkpt lat="45.47955" lon="4.78394">
        <ele>170.42</ele>
        <time>2021-09-18T12:39:50Z</time>
      </trkpt>
      <trkpt lat="45.47954" lon="4.78396">
        <ele>170.55</ele>
        <time>2021-09-18T12:39:51Z</time>
      </trkpt>
      <trkpt lat="45.47953" lon="4.784">
        <ele>170.83</ele>
        <time>2021-09-18T12:39:52Z</time>
      </trkpt>
      <trkpt lat="45.47951" lon="4.78404">
        <ele>171.13</ele>
        <time>2021-09-18T12:39:53Z</time>
      </trkpt>
      <trkpt lat="45.47946" lon="4.78427">
        <ele>172.42</ele>
        <time>2021-09-18T12:39:58Z</time>
      </trkpt>
      <trkpt lat="45.47947" lon="4.78432">
        <ele>172.46</ele>
        <time>2021-09-18T12:39:59Z</time>
      </trkpt>
      <trkpt lat="45.4795" lon="4.78437">
        <ele>172.48</ele>
        <time>2021-09-18T12:40:00Z</time>
      </trkpt>
      <trkpt lat="45.47954" lon="4.78441">
        <ele>172.49</ele>
        <time>2021-09-18T12:40:01Z</time>
      </trkpt>
      <trkpt lat="45.47959" lon="4.78448">
        <ele>172.5</ele>
        <time>2021-09-18T12:40:02Z</time>
      </trkpt>
      <trkpt lat="45.47992" lon="4.78495">
        <ele>171.84</ele>
        <time>2021-09-18T12:40:09Z</time>
      </trkpt>
      <trkpt lat="45.48024" lon="4.78541">
        <ele>170.35</ele>
        <time>2021-09-18T12:40:16Z</time>
      </trkpt>
      <trkpt lat="45.48051" lon="4.78586">
        <ele>170.39</ele>
        <time>2021-09-18T12:40:23Z</time>
      </trkpt>
      <trkpt lat="45.48065" lon="4.78629">
        <ele>170.8</ele>
        <time>2021-09-18T12:40:30Z</time>
      </trkpt>
      <trkpt lat="45.48071" lon="4.7865">
        <ele>170.91</ele>
        <time>2021-09-18T12:40:34Z</time>
      </trkpt>
      <trkpt lat="45.48072" lon="4.78656">
        <ele>170.93</ele>
        <time>2021-09-18T12:40:35Z</time>
      </trkpt>
      <trkpt lat="45.48079" lon="4.78705">
        <ele>171.05</ele>
        <time>2021-09-18T12:40:42Z</time>
      </trkpt>
      <trkpt lat="45.48073" lon="4.78768">
        <ele>171.03</ele>
        <time>2021-09-18T12:40:50Z</time>
      </trkpt>
      <trkpt lat="45.48061" lon="4.78822">
        <ele>170.75</ele>
        <time>2021-09-18T12:40:58Z</time>
      </trkpt>
      <trkpt lat="45.48061" lon="4.78828">
        <ele>170.74</ele>
        <time>2021-09-18T12:40:59Z</time>
      </trkpt>
      <trkpt lat="45.48063" lon="4.78833">
        <ele>170.73</ele>
        <time>2021-09-18T12:41:00Z</time>
      </trkpt>
      <trkpt lat="45.48066" lon="4.78835">
        <ele>170.73</ele>
        <time>2021-09-18T12:41:01Z</time>
      </trkpt>
      <trkpt lat="45.4807" lon="4.78837">
        <ele>170.73</ele>
        <time>2021-09-18T12:41:02Z</time>
      </trkpt>
      <trkpt lat="45.48101" lon="4.78846">
        <ele>171.26</ele>
        <time>2021-09-18T12:41:09Z</time>
      </trkpt>
      <trkpt lat="45.4816" lon="4.78859">
        <ele>171.38</ele>
        <time>2021-09-18T12:41:21Z</time>
      </trkpt>
      <trkpt lat="45.4817" lon="4.78861">
        <ele>171.38</ele>
        <time>2021-09-18T12:41:23Z</time>
      </trkpt>
      <trkpt lat="45.48213" lon="4.78865">
        <ele>171.63</ele>
        <time>2021-09-18T12:41:32Z</time>
      </trkpt>
      <trkpt lat="45.4824" lon="4.78866">
        <ele>172.75</ele>
        <time>2021-09-18T12:41:39Z</time>
      </trkpt>
      <trkpt lat="45.48264" lon="4.78871">
        <ele>174.67</ele>
        <time>2021-09-18T12:41:45Z</time>
      </trkpt>
      <trkpt lat="45.48276" lon="4.78875">
        <ele>175.69</ele>
        <time>2021-09-18T12:41:48Z</time>
      </trkpt>
      <trkpt lat="45.4828" lon="4.78878">
        <ele>175.83</ele>
        <time>2021-09-18T12:41:49Z</time>
      </trkpt>
      <trkpt lat="45.48282" lon="4.78882">
        <ele>175.93</ele>
        <time>2021-09-18T12:41:50Z</time>
      </trkpt>
      <trkpt lat="45.48284" lon="4.78887">
        <ele>175.98</ele>
        <time>2021-09-18T12:41:51Z</time>
      </trkpt>
      <trkpt lat="45.48286" lon="4.78892">
        <ele>176.01</ele>
        <time>2021-09-18T12:41:52Z</time>
      </trkpt>
      <trkpt lat="45.48289" lon="4.78902">
        <ele>176.03</ele>
        <time>2021-09-18T12:41:54Z</time>
      </trkpt>
      <trkpt lat="45.48301" lon="4.78945">
        <ele>175.99</ele>
        <time>2021-09-18T12:42:03Z</time>
      </trkpt>
      <trkpt lat="45.48306" lon="4.78984">
        <ele>176.01</ele>
        <time>2021-09-18T12:42:10Z</time>
      </trkpt>
      <trkpt lat="45.48313" lon="4.79062">
        <ele>175.13</ele>
        <time>2021-09-18T12:42:22Z</time>
      </trkpt>
      <trkpt lat="45.4832" lon="4.7912">
        <ele>174.8</ele>
        <time>2021-09-18T12:42:31Z</time>
      </trkpt>
      <trkpt lat="45.48325" lon="4.79171">
        <ele>174.78</ele>
        <time>2021-09-18T12:42:39Z</time>
      </trkpt>
      <trkpt lat="45.48329" lon="4.79222">
        <ele>174.92</ele>
        <time>2021-09-18T12:42:47Z</time>
      </trkpt>
      <trkpt lat="45.4833" lon="4.79228">
        <ele>174.95</ele>
        <time>2021-09-18T12:42:48Z</time>
      </trkpt>
      <trkpt lat="45.48331" lon="4.79235">
        <ele>175</ele>
        <time>2021-09-18T12:42:49Z</time>
      </trkpt>
      <trkpt lat="45.48342" lon="4.79293">
        <ele>175.17</ele>
        <time>2021-09-18T12:42:57Z</time>
      </trkpt>
      <trkpt lat="45.48357" lon="4.79368">
        <ele>174.46</ele>
        <time>2021-09-18T12:43:07Z</time>
      </trkpt>
      <trkpt lat="45.4837" lon="4.79427">
        <ele>174.04</ele>
        <time>2021-09-18T12:43:16Z</time>
      </trkpt>
      <trkpt lat="45.48374" lon="4.79442">
        <ele>174.02</ele>
        <time>2021-09-18T12:43:19Z</time>
      </trkpt>
      <trkpt lat="45.48377" lon="4.79455">
        <ele>174.02</ele>
        <time>2021-09-18T12:43:21Z</time>
      </trkpt>
      <trkpt lat="45.48379" lon="4.7947">
        <ele>174.02</ele>
        <time>2021-09-18T12:43:23Z</time>
      </trkpt>
      <trkpt lat="45.4838" lon="4.79477">
        <ele>174.01</ele>
        <time>2021-09-18T12:43:24Z</time>
      </trkpt>
      <trkpt lat="45.48379" lon="4.79485">
        <ele>174.01</ele>
        <time>2021-09-18T12:43:25Z</time>
      </trkpt>
      <trkpt lat="45.48379" lon="4.79492">
        <ele>174.01</ele>
        <time>2021-09-18T12:43:26Z</time>
      </trkpt>
      <trkpt lat="45.48378" lon="4.79499">
        <ele>174.01</ele>
        <time>2021-09-18T12:43:27Z</time>
      </trkpt>
      <trkpt lat="45.48376" lon="4.79506">
        <ele>174.01</ele>
        <time>2021-09-18T12:43:28Z</time>
      </trkpt>
      <trkpt lat="45.48375" lon="4.79513">
        <ele>174.01</ele>
        <time>2021-09-18T12:43:29Z</time>
      </trkpt>
      <trkpt lat="45.4836" lon="4.79574">
        <ele>173.35</ele>
        <time>2021-09-18T12:43:38Z</time>
      </trkpt>
      <trkpt lat="45.4835" lon="4.7962">
        <ele>172.37</ele>
        <time>2021-09-18T12:43:45Z</time>
      </trkpt>
      <trkpt lat="45.48349" lon="4.79627">
        <ele>172.32</ele>
        <time>2021-09-18T12:43:46Z</time>
      </trkpt>
      <trkpt lat="45.48344" lon="4.79672">
        <ele>171.98</ele>
        <time>2021-09-18T12:43:53Z</time>
      </trkpt>
      <trkpt lat="45.48343" lon="4.79678">
        <ele>171.88</ele>
        <time>2021-09-18T12:43:54Z</time>
      </trkpt>
      <trkpt lat="45.48342" lon="4.79684">
        <ele>171.83</ele>
        <time>2021-09-18T12:43:55Z</time>
      </trkpt>
      <trkpt lat="45.48342" lon="4.7969">
        <ele>171.8</ele>
        <time>2021-09-18T12:43:56Z</time>
      </trkpt>
      <trkpt lat="45.48342" lon="4.79697">
        <ele>171.79</ele>
        <time>2021-09-18T12:43:57Z</time>
      </trkpt>
      <trkpt lat="45.48341" lon="4.79704">
        <ele>171.78</ele>
        <time>2021-09-18T12:43:58Z</time>
      </trkpt>
      <trkpt lat="45.48341" lon="4.79711">
        <ele>171.78</ele>
        <time>2021-09-18T12:43:59Z</time>
      </trkpt>
      <trkpt lat="45.48335" lon="4.79772">
        <ele>171.75</ele>
        <time>2021-09-18T12:44:07Z</time>
      </trkpt>
      <trkpt lat="45.48329" lon="4.79838">
        <ele>171.71</ele>
        <time>2021-09-18T12:44:15Z</time>
      </trkpt>
      <trkpt lat="45.48331" lon="4.79855">
        <ele>171.6</ele>
        <time>2021-09-18T12:44:17Z</time>
      </trkpt>
      <trkpt lat="45.48332" lon="4.79862">
        <ele>171.51</ele>
        <time>2021-09-18T12:44:18Z</time>
      </trkpt>
      <trkpt lat="45.48336" lon="4.79877">
        <ele>171.42</ele>
        <time>2021-09-18T12:44:20Z</time>
      </trkpt>
      <trkpt lat="45.48338" lon="4.79883">
        <ele>171.38</ele>
        <time>2021-09-18T12:44:21Z</time>
      </trkpt>
      <trkpt lat="45.48366" lon="4.79936">
        <ele>171.07</ele>
        <time>2021-09-18T12:44:30Z</time>
      </trkpt>
      <trkpt lat="45.48391" lon="4.79979">
        <ele>171.33</ele>
        <time>2021-09-18T12:44:37Z</time>
      </trkpt>
      <trkpt lat="45.48417" lon="4.80029">
        <ele>171.69</ele>
        <time>2021-09-18T12:44:45Z</time>
      </trkpt>
      <trkpt lat="45.48443" lon="4.8009">
        <ele>171.81</ele>
        <time>2021-09-18T12:44:54Z</time>
      </trkpt>
      <trkpt lat="45.48467" lon="4.80153">
        <ele>171.19</ele>
        <time>2021-09-18T12:45:03Z</time>
      </trkpt>
      <trkpt lat="45.48486" lon="4.80218">
        <ele>170.93</ele>
        <time>2021-09-18T12:45:12Z</time>
      </trkpt>
      <trkpt lat="45.485" lon="4.80268">
        <ele>171.02</ele>
        <time>2021-09-18T12:45:19Z</time>
      </trkpt>
      <trkpt lat="45.48519" lon="4.80326">
        <ele>171.32</ele>
        <time>2021-09-18T12:45:27Z</time>
      </trkpt>
      <trkpt lat="45.48537" lon="4.80378">
        <ele>171.36</ele>
        <time>2021-09-18T12:45:35Z</time>
      </trkpt>
      <trkpt lat="45.48561" lon="4.80437">
        <ele>171.43</ele>
        <time>2021-09-18T12:45:44Z</time>
      </trkpt>
      <trkpt lat="45.48564" lon="4.80443">
        <ele>171.51</ele>
        <time>2021-09-18T12:45:45Z</time>
      </trkpt>
      <trkpt lat="45.48572" lon="4.80464">
        <ele>171.64</ele>
        <time>2021-09-18T12:45:48Z</time>
      </trkpt>
      <trkpt lat="45.48578" lon="4.80478">
        <ele>171.69</ele>
        <time>2021-09-18T12:45:50Z</time>
      </trkpt>
      <trkpt lat="45.48595" lon="4.80524">
        <ele>171.89</ele>
        <time>2021-09-18T12:45:57Z</time>
      </trkpt>
      <trkpt lat="45.48617" lon="4.80587">
        <ele>171.87</ele>
        <time>2021-09-18T12:46:06Z</time>
      </trkpt>
      <trkpt lat="45.48634" lon="4.80642">
        <ele>171.64</ele>
        <time>2021-09-18T12:46:14Z</time>
      </trkpt>
      <trkpt lat="45.48648" lon="4.80703">
        <ele>171.84</ele>
        <time>2021-09-18T12:46:23Z</time>
      </trkpt>
      <trkpt lat="45.48649" lon="4.80709">
        <ele>171.87</ele>
        <time>2021-09-18T12:46:24Z</time>
      </trkpt>
      <trkpt lat="45.4865" lon="4.80714">
        <ele>171.88</ele>
        <time>2021-09-18T12:46:25Z</time>
      </trkpt>
      <trkpt lat="45.48655" lon="4.80749">
        <ele>172.89</ele>
        <time>2021-09-18T12:46:32Z</time>
      </trkpt>
      <trkpt lat="45.48653" lon="4.80777">
        <ele>173.86</ele>
        <time>2021-09-18T12:46:38Z</time>
      </trkpt>
      <trkpt lat="45.48652" lon="4.80783">
        <ele>173.87</ele>
        <time>2021-09-18T12:46:39Z</time>
      </trkpt>
      <trkpt lat="45.48652" lon="4.80789">
        <ele>173.87</ele>
        <time>2021-09-18T12:46:40Z</time>
      </trkpt>
      <trkpt lat="45.48652" lon="4.80796">
        <ele>173.87</ele>
        <time>2021-09-18T12:46:41Z</time>
      </trkpt>
      <trkpt lat="45.48648" lon="4.8084">
        <ele>173.86</ele>
        <time>2021-09-18T12:46:49Z</time>
      </trkpt>
      <trkpt lat="45.48643" lon="4.80884">
        <ele>173.84</ele>
        <time>2021-09-18T12:46:58Z</time>
      </trkpt>
      <trkpt lat="45.48641" lon="4.80903">
        <ele>173.84</ele>
        <time>2021-09-18T12:47:01Z</time>
      </trkpt>
      <trkpt lat="45.4864" lon="4.8091">
        <ele>173.84</ele>
        <time>2021-09-18T12:47:02Z</time>
      </trkpt>
      <trkpt lat="45.48639" lon="4.80916">
        <ele>173.84</ele>
        <time>2021-09-18T12:47:03Z</time>
      </trkpt>
      <trkpt lat="45.48635" lon="4.80962">
        <ele>173.48</ele>
        <time>2021-09-18T12:47:10Z</time>
      </trkpt>
      <trkpt lat="45.48634" lon="4.80969">
        <ele>173.44</ele>
        <time>2021-09-18T12:47:11Z</time>
      </trkpt>
      <trkpt lat="45.48633" lon="4.81009">
        <ele>173.29</ele>
        <time>2021-09-18T12:47:17Z</time>
      </trkpt>
      <trkpt lat="45.48638" lon="4.81047">
        <ele>173.19</ele>
        <time>2021-09-18T12:47:23Z</time>
      </trkpt>
      <trkpt lat="45.48639" lon="4.81053">
        <ele>173.18</ele>
        <time>2021-09-18T12:47:24Z</time>
      </trkpt>
      <trkpt lat="45.48647" lon="4.81073">
        <ele>173.12</ele>
        <time>2021-09-18T12:47:28Z</time>
      </trkpt>
      <trkpt lat="45.48652" lon="4.81084">
        <ele>173.09</ele>
        <time>2021-09-18T12:47:30Z</time>
      </trkpt>
      <trkpt lat="45.48654" lon="4.81089">
        <ele>173.06</ele>
        <time>2021-09-18T12:47:31Z</time>
      </trkpt>
      <trkpt lat="45.48657" lon="4.81094">
        <ele>173.07</ele>
        <time>2021-09-18T12:47:32Z</time>
      </trkpt>
      <trkpt lat="45.48659" lon="4.81099">
        <ele>173.07</ele>
        <time>2021-09-18T12:47:33Z</time>
      </trkpt>
      <trkpt lat="45.48661" lon="4.81104">
        <ele>173.07</ele>
        <time>2021-09-18T12:47:34Z</time>
      </trkpt>
      <trkpt lat="45.48681" lon="4.81147">
        <ele>173.22</ele>
        <time>2021-09-18T12:47:42Z</time>
      </trkpt>
      <trkpt lat="45.48682" lon="4.81153">
        <ele>173.22</ele>
        <time>2021-09-18T12:47:43Z</time>
      </trkpt>
      <trkpt lat="45.4868" lon="4.8116">
        <ele>173.23</ele>
        <time>2021-09-18T12:47:44Z</time>
      </trkpt>
      <trkpt lat="45.48677" lon="4.81166">
        <ele>173.35</ele>
        <time>2021-09-18T12:47:45Z</time>
      </trkpt>
      <trkpt lat="45.48674" lon="4.81172">
        <ele>173.46</ele>
        <time>2021-09-18T12:47:46Z</time>
      </trkpt>
      <trkpt lat="45.48669" lon="4.81176">
        <ele>173.52</ele>
        <time>2021-09-18T12:47:47Z</time>
      </trkpt>
      <trkpt lat="45.48664" lon="4.8118">
        <ele>173.55</ele>
        <time>2021-09-18T12:47:48Z</time>
      </trkpt>
      <trkpt lat="45.48628" lon="4.81213">
        <ele>173.28</ele>
        <time>2021-09-18T12:47:56Z</time>
      </trkpt>
      <trkpt lat="45.48615" lon="4.81224">
        <ele>173.19</ele>
        <time>2021-09-18T12:47:59Z</time>
      </trkpt>
      <trkpt lat="45.48611" lon="4.81228">
        <ele>173.09</ele>
        <time>2021-09-18T12:48:00Z</time>
      </trkpt>
      <trkpt lat="45.48593" lon="4.81253">
        <ele>173</ele>
        <time>2021-09-18T12:48:07Z</time>
      </trkpt>
      <trkpt lat="45.48594" lon="4.81261">
        <ele>173</ele>
        <time>2021-09-18T12:48:09Z</time>
      </trkpt>
      <trkpt lat="45.48596" lon="4.81265">
        <ele>173</ele>
        <time>2021-09-18T12:48:10Z</time>
      </trkpt>
      <trkpt lat="45.48598" lon="4.81269">
        <ele>173.05</ele>
        <time>2021-09-18T12:48:11Z</time>
      </trkpt>
      <trkpt lat="45.486" lon="4.81273">
        <ele>173.12</ele>
        <time>2021-09-18T12:48:12Z</time>
      </trkpt>
      <trkpt lat="45.48603" lon="4.81278">
        <ele>173.26</ele>
        <time>2021-09-18T12:48:13Z</time>
      </trkpt>
      <trkpt lat="45.48626" lon="4.8133">
        <ele>173.42</ele>
        <time>2021-09-18T12:48:22Z</time>
      </trkpt>
      <trkpt lat="45.48656" lon="4.8139">
        <ele>173.08</ele>
        <time>2021-09-18T12:48:31Z</time>
      </trkpt>
      <trkpt lat="45.48679" lon="4.81437">
        <ele>173.02</ele>
        <time>2021-09-18T12:48:38Z</time>
      </trkpt>
      <trkpt lat="45.48708" lon="4.81488">
        <ele>172.91</ele>
        <time>2021-09-18T12:48:47Z</time>
      </trkpt>
      <trkpt lat="45.48723" lon="4.81502">
        <ele>172.98</ele>
        <time>2021-09-18T12:48:51Z</time>
      </trkpt>
      <trkpt lat="45.48728" lon="4.81505">
        <ele>172.98</ele>
        <time>2021-09-18T12:48:52Z</time>
      </trkpt>
      <trkpt lat="45.48742" lon="4.81512">
        <ele>172.98</ele>
        <time>2021-09-18T12:48:55Z</time>
      </trkpt>
      <trkpt lat="45.48747" lon="4.81514">
        <ele>172.99</ele>
        <time>2021-09-18T12:48:56Z</time>
      </trkpt>
      <trkpt lat="45.48752" lon="4.81515">
        <ele>173</ele>
        <time>2021-09-18T12:48:57Z</time>
      </trkpt>
      <trkpt lat="45.48772" lon="4.81526">
        <ele>173.1</ele>
        <time>2021-09-18T12:49:01Z</time>
      </trkpt>
      <trkpt lat="45.48777" lon="4.8153">
        <ele>173.12</ele>
        <time>2021-09-18T12:49:02Z</time>
      </trkpt>
      <trkpt lat="45.48819" lon="4.81569">
        <ele>173.21</ele>
        <time>2021-09-18T12:49:11Z</time>
      </trkpt>
      <trkpt lat="45.48868" lon="4.81617">
        <ele>173.22</ele>
        <time>2021-09-18T12:49:21Z</time>
      </trkpt>
      <trkpt lat="45.48921" lon="4.81665">
        <ele>173.12</ele>
        <time>2021-09-18T12:49:31Z</time>
      </trkpt>
      <trkpt lat="45.48972" lon="4.81715">
        <ele>172.98</ele>
        <time>2021-09-18T12:49:41Z</time>
      </trkpt>
      <trkpt lat="45.49002" lon="4.81741">
        <ele>172.99</ele>
        <time>2021-09-18T12:49:47Z</time>
      </trkpt>
      <trkpt lat="45.49007" lon="4.81744">
        <ele>172.99</ele>
        <time>2021-09-18T12:49:48Z</time>
      </trkpt>
      <trkpt lat="45.4905" lon="4.81781">
        <ele>172.86</ele>
        <time>2021-09-18T12:49:57Z</time>
      </trkpt>
      <trkpt lat="45.49086" lon="4.81811">
        <ele>172.38</ele>
        <time>2021-09-18T12:50:05Z</time>
      </trkpt>
      <trkpt lat="45.49117" lon="4.8183">
        <ele>172.37</ele>
        <time>2021-09-18T12:50:11Z</time>
      </trkpt>
      <trkpt lat="45.4916" lon="4.81849">
        <ele>172.48</ele>
        <time>2021-09-18T12:50:19Z</time>
      </trkpt>
      <trkpt lat="45.49202" lon="4.81879">
        <ele>172.47</ele>
        <time>2021-09-18T12:50:27Z</time>
      </trkpt>
      <trkpt lat="45.49235" lon="4.81908">
        <ele>172.31</ele>
        <time>2021-09-18T12:50:34Z</time>
      </trkpt>
      <trkpt lat="45.49265" lon="4.81939">
        <ele>172.35</ele>
        <time>2021-09-18T12:50:42Z</time>
      </trkpt>
      <trkpt lat="45.49269" lon="4.81943">
        <ele>172.38</ele>
        <time>2021-09-18T12:50:43Z</time>
      </trkpt>
      <trkpt lat="45.49278" lon="4.81954">
        <ele>172.53</ele>
        <time>2021-09-18T12:50:46Z</time>
      </trkpt>
      <trkpt lat="45.49285" lon="4.8196">
        <ele>172.56</ele>
        <time>2021-09-18T12:50:48Z</time>
      </trkpt>
      <trkpt lat="45.49292" lon="4.81966">
        <ele>172.57</ele>
        <time>2021-09-18T12:50:50Z</time>
      </trkpt>
      <trkpt lat="45.49295" lon="4.8197">
        <ele>172.57</ele>
        <time>2021-09-18T12:50:51Z</time>
      </trkpt>
      <trkpt lat="45.49298" lon="4.81975">
        <ele>172.57</ele>
        <time>2021-09-18T12:50:52Z</time>
      </trkpt>
      <trkpt lat="45.493" lon="4.81979">
        <ele>172.57</ele>
        <time>2021-09-18T12:50:53Z</time>
      </trkpt>
      <trkpt lat="45.49302" lon="4.81984">
        <ele>172.57</ele>
        <time>2021-09-18T12:50:54Z</time>
      </trkpt>
      <trkpt lat="45.49304" lon="4.81988">
        <ele>172.48</ele>
        <time>2021-09-18T12:50:55Z</time>
      </trkpt>
      <trkpt lat="45.49306" lon="4.81992">
        <ele>172.48</ele>
        <time>2021-09-18T12:50:56Z</time>
      </trkpt>
      <trkpt lat="45.49307" lon="4.81997">
        <ele>172.2</ele>
        <time>2021-09-18T12:50:57Z</time>
      </trkpt>
      <trkpt lat="45.49309" lon="4.82002">
        <ele>172.15</ele>
        <time>2021-09-18T12:50:58Z</time>
      </trkpt>
      <trkpt lat="45.49311" lon="4.82005">
        <ele>172.11</ele>
        <time>2021-09-18T12:50:59Z</time>
      </trkpt>
      <trkpt lat="45.49314" lon="4.82007">
        <ele>172.08</ele>
        <time>2021-09-18T12:51:00Z</time>
      </trkpt>
      <trkpt lat="45.49317" lon="4.82009">
        <ele>172.06</ele>
        <time>2021-09-18T12:51:01Z</time>
      </trkpt>
      <trkpt lat="45.4932" lon="4.8201">
        <ele>172.02</ele>
        <time>2021-09-18T12:51:02Z</time>
      </trkpt>
      <trkpt lat="45.49323" lon="4.82012">
        <ele>172.01</ele>
        <time>2021-09-18T12:51:03Z</time>
      </trkpt>
      <trkpt lat="45.49325" lon="4.82014">
        <ele>172</ele>
        <time>2021-09-18T12:51:04Z</time>
      </trkpt>
      <trkpt lat="45.49329" lon="4.8202">
        <ele>171.98</ele>
        <time>2021-09-18T12:51:06Z</time>
      </trkpt>
      <trkpt lat="45.4933" lon="4.82023">
        <ele>171.98</ele>
        <time>2021-09-18T12:51:07Z</time>
      </trkpt>
      <trkpt lat="45.49333" lon="4.82026">
        <ele>171.97</ele>
        <time>2021-09-18T12:51:08Z</time>
      </trkpt>
      <trkpt lat="45.49356" lon="4.82047">
        <ele>171.91</ele>
        <time>2021-09-18T12:51:14Z</time>
      </trkpt>
      <trkpt lat="45.4937" lon="4.82058">
        <ele>171.87</ele>
        <time>2021-09-18T12:51:17Z</time>
      </trkpt>
      <trkpt lat="45.49407" lon="4.82093">
        <ele>171.61</ele>
        <time>2021-09-18T12:51:26Z</time>
      </trkpt>
      <trkpt lat="45.49425" lon="4.82111">
        <ele>172.14</ele>
        <time>2021-09-18T12:51:32Z</time>
      </trkpt>
      <trkpt lat="45.49428" lon="4.82115">
        <ele>172.34</ele>
        <time>2021-09-18T12:51:33Z</time>
      </trkpt>
      <trkpt lat="45.49432" lon="4.82119">
        <ele>172.45</ele>
        <time>2021-09-18T12:51:34Z</time>
      </trkpt>
      <trkpt lat="45.49444" lon="4.8213">
        <ele>172.65</ele>
        <time>2021-09-18T12:51:37Z</time>
      </trkpt>
      <trkpt lat="45.4948" lon="4.82149">
        <ele>172.82</ele>
        <time>2021-09-18T12:51:44Z</time>
      </trkpt>
      <trkpt lat="45.49518" lon="4.82168">
        <ele>172.87</ele>
        <time>2021-09-18T12:51:51Z</time>
      </trkpt>
      <trkpt lat="45.49523" lon="4.82172">
        <ele>172.88</ele>
        <time>2021-09-18T12:51:52Z</time>
      </trkpt>
      <trkpt lat="45.49527" lon="4.82177">
        <ele>172.88</ele>
        <time>2021-09-18T12:51:53Z</time>
      </trkpt>
      <trkpt lat="45.49556" lon="4.82203">
        <ele>172.93</ele>
        <time>2021-09-18T12:52:00Z</time>
      </trkpt>
      <trkpt lat="45.49577" lon="4.82218">
        <ele>173.07</ele>
        <time>2021-09-18T12:52:05Z</time>
      </trkpt>
      <trkpt lat="45.49582" lon="4.82221">
        <ele>173.11</ele>
        <time>2021-09-18T12:52:06Z</time>
      </trkpt>
      <trkpt lat="45.49587" lon="4.82224">
        <ele>173.21</ele>
        <time>2021-09-18T12:52:07Z</time>
      </trkpt>
      <trkpt lat="45.49592" lon="4.82229">
        <ele>173.28</ele>
        <time>2021-09-18T12:52:08Z</time>
      </trkpt>
      <trkpt lat="45.49596" lon="4.82233">
        <ele>173.3</ele>
        <time>2021-09-18T12:52:09Z</time>
      </trkpt>
      <trkpt lat="45.496" lon="4.82238">
        <ele>173.32</ele>
        <time>2021-09-18T12:52:10Z</time>
      </trkpt>
      <trkpt lat="45.49609" lon="4.82246">
        <ele>173.33</ele>
        <time>2021-09-18T12:52:12Z</time>
      </trkpt>
      <trkpt lat="45.49613" lon="4.82248">
        <ele>173.4</ele>
        <time>2021-09-18T12:52:13Z</time>
      </trkpt>
      <trkpt lat="45.49617" lon="4.82248">
        <ele>173.42</ele>
        <time>2021-09-18T12:52:14Z</time>
      </trkpt>
      <trkpt lat="45.49621" lon="4.82247">
        <ele>173.44</ele>
        <time>2021-09-18T12:52:15Z</time>
      </trkpt>
      <trkpt lat="45.49625" lon="4.82244">
        <ele>173.47</ele>
        <time>2021-09-18T12:52:16Z</time>
      </trkpt>
      <trkpt lat="45.49629" lon="4.82243">
        <ele>173.49</ele>
        <time>2021-09-18T12:52:17Z</time>
      </trkpt>
      <trkpt lat="45.49633" lon="4.82245">
        <ele>173.5</ele>
        <time>2021-09-18T12:52:18Z</time>
      </trkpt>
      <trkpt lat="45.49635" lon="4.82249">
        <ele>173.5</ele>
        <time>2021-09-18T12:52:19Z</time>
      </trkpt>
      <trkpt lat="45.49637" lon="4.82253">
        <ele>173.52</ele>
        <time>2021-09-18T12:52:20Z</time>
      </trkpt>
      <trkpt lat="45.49639" lon="4.82258">
        <ele>173.56</ele>
        <time>2021-09-18T12:52:21Z</time>
      </trkpt>
      <trkpt lat="45.49642" lon="4.82262">
        <ele>173.7</ele>
        <time>2021-09-18T12:52:22Z</time>
      </trkpt>
      <trkpt lat="45.49645" lon="4.82267">
        <ele>173.83</ele>
        <time>2021-09-18T12:52:23Z</time>
      </trkpt>
      <trkpt lat="45.4967" lon="4.82305">
        <ele>174.07</ele>
        <time>2021-09-18T12:52:31Z</time>
      </trkpt>
      <trkpt lat="45.497" lon="4.82352">
        <ele>174.63</ele>
        <time>2021-09-18T12:52:41Z</time>
      </trkpt>
      <trkpt lat="45.49728" lon="4.82406">
        <ele>175.55</ele>
        <time>2021-09-18T12:52:50Z</time>
      </trkpt>
      <trkpt lat="45.49748" lon="4.82445">
        <ele>175.43</ele>
        <time>2021-09-18T12:52:58Z</time>
      </trkpt>
      <trkpt lat="45.49758" lon="4.82468">
        <ele>175.37</ele>
        <time>2021-09-18T12:53:03Z</time>
      </trkpt>
      <trkpt lat="45.49758" lon="4.82473">
        <ele>175.35</ele>
        <time>2021-09-18T12:53:04Z</time>
      </trkpt>
      <trkpt lat="45.49757" lon="4.82479">
        <ele>175.25</ele>
        <time>2021-09-18T12:53:05Z</time>
      </trkpt>
      <trkpt lat="45.49754" lon="4.82483">
        <ele>175.23</ele>
        <time>2021-09-18T12:53:06Z</time>
      </trkpt>
      <trkpt lat="45.49752" lon="4.82487">
        <ele>175.23</ele>
        <time>2021-09-18T12:53:07Z</time>
      </trkpt>
      <trkpt lat="45.49749" lon="4.8249">
        <ele>175.23</ele>
        <time>2021-09-18T12:53:08Z</time>
      </trkpt>
      <trkpt lat="45.49746" lon="4.82494">
        <ele>175.23</ele>
        <time>2021-09-18T12:53:09Z</time>
      </trkpt>
      <trkpt lat="45.49723" lon="4.8252">
        <ele>175.02</ele>
        <time>2021-09-18T12:53:15Z</time>
      </trkpt>
      <trkpt lat="45.49684" lon="4.82565">
        <ele>174.26</ele>
        <time>2021-09-18T12:53:26Z</time>
      </trkpt>
      <trkpt lat="45.49668" lon="4.82589">
        <ele>174.08</ele>
        <time>2021-09-18T12:53:32Z</time>
      </trkpt>
      <trkpt lat="45.49669" lon="4.82594">
        <ele>174.08</ele>
        <time>2021-09-18T12:53:33Z</time>
      </trkpt>
      <trkpt lat="45.49671" lon="4.82599">
        <ele>174.06</ele>
        <time>2021-09-18T12:53:34Z</time>
      </trkpt>
      <trkpt lat="45.49688" lon="4.82633">
        <ele>173.95</ele>
        <time>2021-09-18T12:53:41Z</time>
      </trkpt>
      <trkpt lat="45.49692" lon="4.82638">
        <ele>173.95</ele>
        <time>2021-09-18T12:53:42Z</time>
      </trkpt>
      <trkpt lat="45.4971" lon="4.82668">
        <ele>173.82</ele>
        <time>2021-09-18T12:53:47Z</time>
      </trkpt>
      <trkpt lat="45.49714" lon="4.82675">
        <ele>173.75</ele>
        <time>2021-09-18T12:53:48Z</time>
      </trkpt>
      <trkpt lat="45.49755" lon="4.82744">
        <ele>172.93</ele>
        <time>2021-09-18T12:53:59Z</time>
      </trkpt>
      <trkpt lat="45.49786" lon="4.82793">
        <ele>172.86</ele>
        <time>2021-09-18T12:54:07Z</time>
      </trkpt>
      <trkpt lat="45.4979" lon="4.82799">
        <ele>172.86</ele>
        <time>2021-09-18T12:54:08Z</time>
      </trkpt>
      <trkpt lat="45.49821" lon="4.8285">
        <ele>172.86</ele>
        <time>2021-09-18T12:54:16Z</time>
      </trkpt>
      <trkpt lat="45.49839" lon="4.8288">
        <ele>172.86</ele>
        <time>2021-09-18T12:54:21Z</time>
      </trkpt>
      <trkpt lat="45.49846" lon="4.82892">
        <ele>172.92</ele>
        <time>2021-09-18T12:54:23Z</time>
      </trkpt>
      <trkpt lat="45.4985" lon="4.82898">
        <ele>172.96</ele>
        <time>2021-09-18T12:54:24Z</time>
      </trkpt>
      <trkpt lat="45.49881" lon="4.82949">
        <ele>173</ele>
        <time>2021-09-18T12:54:32Z</time>
      </trkpt>
      <trkpt lat="45.4992" lon="4.83015">
        <ele>172.93</ele>
        <time>2021-09-18T12:54:42Z</time>
      </trkpt>
      <trkpt lat="45.49956" lon="4.83076">
        <ele>172.88</ele>
        <time>2021-09-18T12:54:51Z</time>
      </trkpt>
      <trkpt lat="45.49986" lon="4.8314">
        <ele>172.39</ele>
        <time>2021-09-18T12:55:00Z</time>
      </trkpt>
      <trkpt lat="45.50011" lon="4.83202">
        <ele>172.24</ele>
        <time>2021-09-18T12:55:09Z</time>
      </trkpt>
      <trkpt lat="45.50035" lon="4.83273">
        <ele>172.23</ele>
        <time>2021-09-18T12:55:18Z</time>
      </trkpt>
      <trkpt lat="45.50047" lon="4.83331">
        <ele>171.93</ele>
        <time>2021-09-18T12:55:25Z</time>
      </trkpt>
      <trkpt lat="45.50066" lon="4.83411">
        <ele>171.86</ele>
        <time>2021-09-18T12:55:35Z</time>
      </trkpt>
      <trkpt lat="45.50072" lon="4.83435">
        <ele>171.86</ele>
        <time>2021-09-18T12:55:38Z</time>
      </trkpt>
      <trkpt lat="45.50083" lon="4.83484">
        <ele>171.94</ele>
        <time>2021-09-18T12:55:45Z</time>
      </trkpt>
      <trkpt lat="45.5009" lon="4.83512">
        <ele>171.95</ele>
        <time>2021-09-18T12:55:50Z</time>
      </trkpt>
      <trkpt lat="45.50096" lon="4.83531">
        <ele>172.16</ele>
        <time>2021-09-18T12:55:53Z</time>
      </trkpt>
      <trkpt lat="45.50097" lon="4.83538">
        <ele>172.3</ele>
        <time>2021-09-18T12:55:54Z</time>
      </trkpt>
      <trkpt lat="45.50102" lon="4.83559">
        <ele>172.44</ele>
        <time>2021-09-18T12:55:57Z</time>
      </trkpt>
      <trkpt lat="45.50115" lon="4.83609">
        <ele>172.56</ele>
        <time>2021-09-18T12:56:04Z</time>
      </trkpt>
      <trkpt lat="45.50124" lon="4.83645">
        <ele>172.52</ele>
        <time>2021-09-18T12:56:09Z</time>
      </trkpt>
      <trkpt lat="45.50146" lon="4.83723">
        <ele>172.53</ele>
        <time>2021-09-18T12:56:20Z</time>
      </trkpt>
      <trkpt lat="45.50155" lon="4.8375">
        <ele>172.45</ele>
        <time>2021-09-18T12:56:24Z</time>
      </trkpt>
      <trkpt lat="45.50158" lon="4.83757">
        <ele>172.5</ele>
        <time>2021-09-18T12:56:25Z</time>
      </trkpt>
      <trkpt lat="45.5016" lon="4.83764">
        <ele>172.53</ele>
        <time>2021-09-18T12:56:26Z</time>
      </trkpt>
      <trkpt lat="45.50162" lon="4.83771">
        <ele>172.54</ele>
        <time>2021-09-18T12:56:27Z</time>
      </trkpt>
      <trkpt lat="45.50165" lon="4.83777">
        <ele>172.55</ele>
        <time>2021-09-18T12:56:28Z</time>
      </trkpt>
      <trkpt lat="45.50168" lon="4.83783">
        <ele>172.55</ele>
        <time>2021-09-18T12:56:29Z</time>
      </trkpt>
      <trkpt lat="45.50171" lon="4.83789">
        <ele>172.59</ele>
        <time>2021-09-18T12:56:30Z</time>
      </trkpt>
      <trkpt lat="45.50174" lon="4.83794">
        <ele>172.61</ele>
        <time>2021-09-18T12:56:31Z</time>
      </trkpt>
      <trkpt lat="45.50182" lon="4.8381">
        <ele>172.86</ele>
        <time>2021-09-18T12:56:34Z</time>
      </trkpt>
      <trkpt lat="45.50184" lon="4.83816">
        <ele>172.99</ele>
        <time>2021-09-18T12:56:35Z</time>
      </trkpt>
      <trkpt lat="45.50185" lon="4.83821">
        <ele>173.1</ele>
        <time>2021-09-18T12:56:36Z</time>
      </trkpt>
      <trkpt lat="45.50186" lon="4.83827">
        <ele>173.29</ele>
        <time>2021-09-18T12:56:37Z</time>
      </trkpt>
      <trkpt lat="45.50186" lon="4.83832">
        <ele>173.51</ele>
        <time>2021-09-18T12:56:38Z</time>
      </trkpt>
      <trkpt lat="45.50186" lon="4.83838">
        <ele>173.91</ele>
        <time>2021-09-18T12:56:39Z</time>
      </trkpt>
      <trkpt lat="45.50184" lon="4.83843">
        <ele>174.29</ele>
        <time>2021-09-18T12:56:40Z</time>
      </trkpt>
      <trkpt lat="45.50181" lon="4.83849">
        <ele>174.57</ele>
        <time>2021-09-18T12:56:41Z</time>
      </trkpt>
      <trkpt lat="45.50176" lon="4.83858">
        <ele>175.04</ele>
        <time>2021-09-18T12:56:43Z</time>
      </trkpt>
      <trkpt lat="45.50172" lon="4.83861">
        <ele>175.19</ele>
        <time>2021-09-18T12:56:44Z</time>
      </trkpt>
      <trkpt lat="45.5016" lon="4.83868">
        <ele>175.47</ele>
        <time>2021-09-18T12:56:47Z</time>
      </trkpt>
      <trkpt lat="45.50158" lon="4.83872">
        <ele>175.54</ele>
        <time>2021-09-18T12:56:48Z</time>
      </trkpt>
      <trkpt lat="45.50156" lon="4.83877">
        <ele>175.59</ele>
        <time>2021-09-18T12:56:49Z</time>
      </trkpt>
      <trkpt lat="45.50155" lon="4.83882">
        <ele>175.64</ele>
        <time>2021-09-18T12:56:50Z</time>
      </trkpt>
      <trkpt lat="45.50154" lon="4.83888">
        <ele>175.66</ele>
        <time>2021-09-18T12:56:51Z</time>
      </trkpt>
      <trkpt lat="45.50159" lon="4.8391">
        <ele>175.77</ele>
        <time>2021-09-18T12:56:55Z</time>
      </trkpt>
      <trkpt lat="45.50164" lon="4.83921">
        <ele>175.83</ele>
        <time>2021-09-18T12:56:57Z</time>
      </trkpt>
      <trkpt lat="45.50192" lon="4.83977">
        <ele>176.09</ele>
        <time>2021-09-18T12:57:07Z</time>
      </trkpt>
      <trkpt lat="45.50225" lon="4.84029">
        <ele>175.92</ele>
        <time>2021-09-18T12:57:16Z</time>
      </trkpt>
      <trkpt lat="45.50252" lon="4.84073">
        <ele>175.57</ele>
        <time>2021-09-18T12:57:23Z</time>
      </trkpt>
      <trkpt lat="45.5029" lon="4.84121">
        <ele>175.52</ele>
        <time>2021-09-18T12:57:32Z</time>
      </trkpt>
      <trkpt lat="45.50334" lon="4.84173">
        <ele>175.83</ele>
        <time>2021-09-18T12:57:42Z</time>
      </trkpt>
      <trkpt lat="45.50379" lon="4.84226">
        <ele>175.65</ele>
        <time>2021-09-18T12:57:52Z</time>
      </trkpt>
      <trkpt lat="45.5044" lon="4.84296">
        <ele>175.33</ele>
        <time>2021-09-18T12:58:05Z</time>
      </trkpt>
      <trkpt lat="45.50483" lon="4.84347">
        <ele>175.62</ele>
        <time>2021-09-18T12:58:14Z</time>
      </trkpt>
      <trkpt lat="45.50537" lon="4.84415">
        <ele>175.9</ele>
        <time>2021-09-18T12:58:26Z</time>
      </trkpt>
      <trkpt lat="45.50574" lon="4.84462">
        <ele>175.98</ele>
        <time>2021-09-18T12:58:34Z</time>
      </trkpt>
      <trkpt lat="45.50628" lon="4.84534">
        <ele>176.07</ele>
        <time>2021-09-18T12:58:46Z</time>
      </trkpt>
      <trkpt lat="45.50657" lon="4.84574">
        <ele>176.23</ele>
        <time>2021-09-18T12:58:54Z</time>
      </trkpt>
      <trkpt lat="45.50671" lon="4.84594">
        <ele>176.42</ele>
        <time>2021-09-18T12:58:58Z</time>
      </trkpt>
      <trkpt lat="45.50675" lon="4.84599">
        <ele>176.46</ele>
        <time>2021-09-18T12:58:59Z</time>
      </trkpt>
      <trkpt lat="45.50713" lon="4.84651">
        <ele>176.51</ele>
        <time>2021-09-18T12:59:08Z</time>
      </trkpt>
      <trkpt lat="45.50758" lon="4.84713">
        <ele>176.13</ele>
        <time>2021-09-18T12:59:18Z</time>
      </trkpt>
      <trkpt lat="45.50802" lon="4.84775">
        <ele>176.07</ele>
        <time>2021-09-18T12:59:28Z</time>
      </trkpt>
      <trkpt lat="45.50851" lon="4.84842">
        <ele>175.9</ele>
        <time>2021-09-18T12:59:39Z</time>
      </trkpt>
      <trkpt lat="45.50901" lon="4.84909">
        <ele>176.06</ele>
        <time>2021-09-18T12:59:50Z</time>
      </trkpt>
      <trkpt lat="45.50939" lon="4.84962">
        <ele>176.08</ele>
        <time>2021-09-18T12:59:59Z</time>
      </trkpt>
      <trkpt lat="45.50994" lon="4.85033">
        <ele>175.17</ele>
        <time>2021-09-18T13:00:11Z</time>
      </trkpt>
      <trkpt lat="45.51044" lon="4.851">
        <ele>175.46</ele>
        <time>2021-09-18T13:00:22Z</time>
      </trkpt>
      <trkpt lat="45.51058" lon="4.85118">
        <ele>175.62</ele>
        <time>2021-09-18T13:00:25Z</time>
      </trkpt>
      <trkpt lat="45.51063" lon="4.85123">
        <ele>175.65</ele>
        <time>2021-09-18T13:00:26Z</time>
      </trkpt>
      <trkpt lat="45.51067" lon="4.85129">
        <ele>175.66</ele>
        <time>2021-09-18T13:00:27Z</time>
      </trkpt>
      <trkpt lat="45.51086" lon="4.85155">
        <ele>175.71</ele>
        <time>2021-09-18T13:00:32Z</time>
      </trkpt>
      <trkpt lat="45.51112" lon="4.8519">
        <ele>176.13</ele>
        <time>2021-09-18T13:00:40Z</time>
      </trkpt>
      <trkpt lat="45.51144" lon="4.85231">
        <ele>176.26</ele>
        <time>2021-09-18T13:00:49Z</time>
      </trkpt>
      <trkpt lat="45.51184" lon="4.85279">
        <ele>176.25</ele>
        <time>2021-09-18T13:00:59Z</time>
      </trkpt>
      <trkpt lat="45.51188" lon="4.85284">
        <ele>176.19</ele>
        <time>2021-09-18T13:01:00Z</time>
      </trkpt>
      <trkpt lat="45.51191" lon="4.8529">
        <ele>176.16</ele>
        <time>2021-09-18T13:01:01Z</time>
      </trkpt>
      <trkpt lat="45.51196" lon="4.85301">
        <ele>176.13</ele>
        <time>2021-09-18T13:01:03Z</time>
      </trkpt>
      <trkpt lat="45.51199" lon="4.85304">
        <ele>176.17</ele>
        <time>2021-09-18T13:01:04Z</time>
      </trkpt>
      <trkpt lat="45.51202" lon="4.85307">
        <ele>176.21</ele>
        <time>2021-09-18T13:01:05Z</time>
      </trkpt>
      <trkpt lat="45.51206" lon="4.8531">
        <ele>176.25</ele>
        <time>2021-09-18T13:01:06Z</time>
      </trkpt>
      <trkpt lat="45.51209" lon="4.85313">
        <ele>176.28</ele>
        <time>2021-09-18T13:01:07Z</time>
      </trkpt>
      <trkpt lat="45.51229" lon="4.85334">
        <ele>176.94</ele>
        <time>2021-09-18T13:01:14Z</time>
      </trkpt>
      <trkpt lat="45.5124" lon="4.8535">
        <ele>177.13</ele>
        <time>2021-09-18T13:01:18Z</time>
      </trkpt>
      <trkpt lat="45.51244" lon="4.85352">
        <ele>177.13</ele>
        <time>2021-09-18T13:01:19Z</time>
      </trkpt>
      <trkpt lat="45.51248" lon="4.85351">
        <ele>177.13</ele>
        <time>2021-09-18T13:01:20Z</time>
      </trkpt>
      <trkpt lat="45.51252" lon="4.85349">
        <ele>177.13</ele>
        <time>2021-09-18T13:01:21Z</time>
      </trkpt>
      <trkpt lat="45.51255" lon="4.85346">
        <ele>177.13</ele>
        <time>2021-09-18T13:01:22Z</time>
      </trkpt>
      <trkpt lat="45.51259" lon="4.85343">
        <ele>177.13</ele>
        <time>2021-09-18T13:01:23Z</time>
      </trkpt>
      <trkpt lat="45.51283" lon="4.85332">
        <ele>176.7</ele>
        <time>2021-09-18T13:01:30Z</time>
      </trkpt>
      <trkpt lat="45.51286" lon="4.85333">
        <ele>176.7</ele>
        <time>2021-09-18T13:01:31Z</time>
      </trkpt>
      <trkpt lat="45.5129" lon="4.85336">
        <ele>176.65</ele>
        <time>2021-09-18T13:01:32Z</time>
      </trkpt>
      <trkpt lat="45.51294" lon="4.8534">
        <ele>176.63</ele>
        <time>2021-09-18T13:01:33Z</time>
      </trkpt>
      <trkpt lat="45.51297" lon="4.85346">
        <ele>176.6</ele>
        <time>2021-09-18T13:01:34Z</time>
      </trkpt>
      <trkpt lat="45.51301" lon="4.85351">
        <ele>176.59</ele>
        <time>2021-09-18T13:01:35Z</time>
      </trkpt>
      <trkpt lat="45.51304" lon="4.85356">
        <ele>176.58</ele>
        <time>2021-09-18T13:01:36Z</time>
      </trkpt>
      <trkpt lat="45.51307" lon="4.85362">
        <ele>176.58</ele>
        <time>2021-09-18T13:01:37Z</time>
      </trkpt>
      <trkpt lat="45.51327" lon="4.85403">
        <ele>176.26</ele>
        <time>2021-09-18T13:01:45Z</time>
      </trkpt>
      <trkpt lat="45.5134" lon="4.85433">
        <ele>176.09</ele>
        <time>2021-09-18T13:01:51Z</time>
      </trkpt>
      <trkpt lat="45.5136" lon="4.85483">
        <ele>176.13</ele>
        <time>2021-09-18T13:01:59Z</time>
      </trkpt>
      <trkpt lat="45.51388" lon="4.85545">
        <ele>175.61</ele>
        <time>2021-09-18T13:02:08Z</time>
      </trkpt>
      <trkpt lat="45.51418" lon="4.85606">
        <ele>175.09</ele>
        <time>2021-09-18T13:02:17Z</time>
      </trkpt>
      <trkpt lat="45.51432" lon="4.85632">
        <ele>174.98</ele>
        <time>2021-09-18T13:02:21Z</time>
      </trkpt>
      <trkpt lat="45.51436" lon="4.85637">
        <ele>174.97</ele>
        <time>2021-09-18T13:02:22Z</time>
      </trkpt>
      <trkpt lat="45.51469" lon="4.85684">
        <ele>175.03</ele>
        <time>2021-09-18T13:02:30Z</time>
      </trkpt>
      <trkpt lat="45.51507" lon="4.85734">
        <ele>174.95</ele>
        <time>2021-09-18T13:02:39Z</time>
      </trkpt>
      <trkpt lat="45.51545" lon="4.8578">
        <ele>174.9</ele>
        <time>2021-09-18T13:02:48Z</time>
      </trkpt>
      <trkpt lat="45.51549" lon="4.85786">
        <ele>174.9</ele>
        <time>2021-09-18T13:02:49Z</time>
      </trkpt>
      <trkpt lat="45.51591" lon="4.85838">
        <ele>174.86</ele>
        <time>2021-09-18T13:02:59Z</time>
      </trkpt>
      <trkpt lat="45.51625" lon="4.85881">
        <ele>174.9</ele>
        <time>2021-09-18T13:03:07Z</time>
      </trkpt>
      <trkpt lat="45.51659" lon="4.85923">
        <ele>174.93</ele>
        <time>2021-09-18T13:03:15Z</time>
      </trkpt>
      <trkpt lat="45.51684" lon="4.85954">
        <ele>174.93</ele>
        <time>2021-09-18T13:03:23Z</time>
      </trkpt>
      <trkpt lat="45.51688" lon="4.85958">
        <ele>174.93</ele>
        <time>2021-09-18T13:03:24Z</time>
      </trkpt>
      <trkpt lat="45.51695" lon="4.85967">
        <ele>175.02</ele>
        <time>2021-09-18T13:03:26Z</time>
      </trkpt>
      <trkpt lat="45.51698" lon="4.85972">
        <ele>175.09</ele>
        <time>2021-09-18T13:03:27Z</time>
      </trkpt>
      <trkpt lat="45.51702" lon="4.85976">
        <ele>175.29</ele>
        <time>2021-09-18T13:03:28Z</time>
      </trkpt>
      <trkpt lat="45.51742" lon="4.86025">
        <ele>175.65</ele>
        <time>2021-09-18T13:03:38Z</time>
      </trkpt>
      <trkpt lat="45.51746" lon="4.8603">
        <ele>175.65</ele>
        <time>2021-09-18T13:03:39Z</time>
      </trkpt>
      <trkpt lat="45.51783" lon="4.86076">
        <ele>175.76</ele>
        <time>2021-09-18T13:03:48Z</time>
      </trkpt>
      <trkpt lat="45.51824" lon="4.86119">
        <ele>175.79</ele>
        <time>2021-09-18T13:03:57Z</time>
      </trkpt>
      <trkpt lat="45.51852" lon="4.86148">
        <ele>175.51</ele>
        <time>2021-09-18T13:04:03Z</time>
      </trkpt>
      <trkpt lat="45.51893" lon="4.86191">
        <ele>175.41</ele>
        <time>2021-09-18T13:04:12Z</time>
      </trkpt>
      <trkpt lat="45.51929" lon="4.86227">
        <ele>175.6</ele>
        <time>2021-09-18T13:04:21Z</time>
      </trkpt>
      <trkpt lat="45.51967" lon="4.86269">
        <ele>175.75</ele>
        <time>2021-09-18T13:04:30Z</time>
      </trkpt>
      <trkpt lat="45.52013" lon="4.8632">
        <ele>175.38</ele>
        <time>2021-09-18T13:04:40Z</time>
      </trkpt>
      <trkpt lat="45.52046" lon="4.8636">
        <ele>175.4</ele>
        <time>2021-09-18T13:04:49Z</time>
      </trkpt>
      <trkpt lat="45.5208" lon="4.86398">
        <ele>175.59</ele>
        <time>2021-09-18T13:04:57Z</time>
      </trkpt>
      <trkpt lat="45.52123" lon="4.86448">
        <ele>175.52</ele>
        <time>2021-09-18T13:05:07Z</time>
      </trkpt>
      <trkpt lat="45.52166" lon="4.86496">
        <ele>175.46</ele>
        <time>2021-09-18T13:05:17Z</time>
      </trkpt>
      <trkpt lat="45.52197" lon="4.8653">
        <ele>175.54</ele>
        <time>2021-09-18T13:05:24Z</time>
      </trkpt>
      <trkpt lat="45.52227" lon="4.86565">
        <ele>175.59</ele>
        <time>2021-09-18T13:05:31Z</time>
      </trkpt>
      <trkpt lat="45.52249" lon="4.86591">
        <ele>175.7</ele>
        <time>2021-09-18T13:05:37Z</time>
      </trkpt>
      <trkpt lat="45.52274" lon="4.8662">
        <ele>175.91</ele>
        <time>2021-09-18T13:05:45Z</time>
      </trkpt>
      <trkpt lat="45.52285" lon="4.86634">
        <ele>175.91</ele>
        <time>2021-09-18T13:05:48Z</time>
      </trkpt>
      <trkpt lat="45.52289" lon="4.8664">
        <ele>175.91</ele>
        <time>2021-09-18T13:05:49Z</time>
      </trkpt>
      <trkpt lat="45.52311" lon="4.86681">
        <ele>175.67</ele>
        <time>2021-09-18T13:05:57Z</time>
      </trkpt>
      <trkpt lat="45.52327" lon="4.86703">
        <ele>175.59</ele>
        <time>2021-09-18T13:06:02Z</time>
      </trkpt>
      <trkpt lat="45.5235" lon="4.86734">
        <ele>175.59</ele>
        <time>2021-09-18T13:06:09Z</time>
      </trkpt>
      <trkpt lat="45.52357" lon="4.86743">
        <ele>175.65</ele>
        <time>2021-09-18T13:06:11Z</time>
      </trkpt>
      <trkpt lat="45.5239" lon="4.86788">
        <ele>175.63</ele>
        <time>2021-09-18T13:06:21Z</time>
      </trkpt>
      <trkpt lat="45.52417" lon="4.86813">
        <ele>175.7</ele>
        <time>2021-09-18T13:06:28Z</time>
      </trkpt>
      <trkpt lat="45.52426" lon="4.8682">
        <ele>175.73</ele>
        <time>2021-09-18T13:06:30Z</time>
      </trkpt>
      <trkpt lat="45.5243" lon="4.86824">
        <ele>175.71</ele>
        <time>2021-09-18T13:06:31Z</time>
      </trkpt>
      <trkpt lat="45.52453" lon="4.8684">
        <ele>175.51</ele>
        <time>2021-09-18T13:06:36Z</time>
      </trkpt>
      <trkpt lat="45.52462" lon="4.86848">
        <ele>175.45</ele>
        <time>2021-09-18T13:06:38Z</time>
      </trkpt>
      <trkpt lat="45.525" lon="4.86876">
        <ele>175.01</ele>
        <time>2021-09-18T13:06:46Z</time>
      </trkpt>
      <trkpt lat="45.52532" lon="4.86902">
        <ele>175.29</ele>
        <time>2021-09-18T13:06:53Z</time>
      </trkpt>
      <trkpt lat="45.52549" lon="4.86914">
        <ele>175.52</ele>
        <time>2021-09-18T13:06:57Z</time>
      </trkpt>
      <trkpt lat="45.52588" lon="4.86939">
        <ele>175.69</ele>
        <time>2021-09-18T13:07:05Z</time>
      </trkpt>
      <trkpt lat="45.52593" lon="4.86942">
        <ele>175.72</ele>
        <time>2021-09-18T13:07:06Z</time>
      </trkpt>
      <trkpt lat="45.5263" lon="4.8697">
        <ele>175.87</ele>
        <time>2021-09-18T13:07:15Z</time>
      </trkpt>
      <trkpt lat="45.52647" lon="4.86984">
        <ele>175.9</ele>
        <time>2021-09-18T13:07:20Z</time>
      </trkpt>
      <trkpt lat="45.52651" lon="4.86988">
        <ele>175.89</ele>
        <time>2021-09-18T13:07:21Z</time>
      </trkpt>
      <trkpt lat="45.52655" lon="4.86992">
        <ele>175.88</ele>
        <time>2021-09-18T13:07:22Z</time>
      </trkpt>
      <trkpt lat="45.52692" lon="4.87017">
        <ele>175.75</ele>
        <time>2021-09-18T13:07:30Z</time>
      </trkpt>
      <trkpt lat="45.52713" lon="4.8703">
        <ele>175.81</ele>
        <time>2021-09-18T13:07:34Z</time>
      </trkpt>
      <trkpt lat="45.52724" lon="4.87036">
        <ele>175.81</ele>
        <time>2021-09-18T13:07:36Z</time>
      </trkpt>
      <trkpt lat="45.52768" lon="4.87068">
        <ele>175.83</ele>
        <time>2021-09-18T13:07:45Z</time>
      </trkpt>
      <trkpt lat="45.52772" lon="4.87071">
        <ele>175.83</ele>
        <time>2021-09-18T13:07:46Z</time>
      </trkpt>
      <trkpt lat="45.52781" lon="4.87075">
        <ele>175.86</ele>
        <time>2021-09-18T13:07:48Z</time>
      </trkpt>
      <trkpt lat="45.52822" lon="4.87102">
        <ele>175.74</ele>
        <time>2021-09-18T13:07:56Z</time>
      </trkpt>
      <trkpt lat="45.52861" lon="4.87125">
        <ele>175.62</ele>
        <time>2021-09-18T13:08:03Z</time>
      </trkpt>
      <trkpt lat="45.52877" lon="4.87133">
        <ele>175.54</ele>
        <time>2021-09-18T13:08:06Z</time>
      </trkpt>
      <trkpt lat="45.52883" lon="4.87135">
        <ele>175.53</ele>
        <time>2021-09-18T13:08:07Z</time>
      </trkpt>
      <trkpt lat="45.52922" lon="4.87146">
        <ele>175.66</ele>
        <time>2021-09-18T13:08:14Z</time>
      </trkpt>
      <trkpt lat="45.52959" lon="4.87153">
        <ele>175.69</ele>
        <time>2021-09-18T13:08:20Z</time>
      </trkpt>
      <trkpt lat="45.53002" lon="4.87163">
        <ele>175.63</ele>
        <time>2021-09-18T13:08:27Z</time>
      </trkpt>
      <trkpt lat="45.53008" lon="4.87166">
        <ele>175.6</ele>
        <time>2021-09-18T13:08:28Z</time>
      </trkpt>
      <trkpt lat="45.53029" lon="4.87172">
        <ele>175.55</ele>
        <time>2021-09-18T13:08:32Z</time>
      </trkpt>
      <trkpt lat="45.53038" lon="4.87174">
        <ele>175.52</ele>
        <time>2021-09-18T13:08:34Z</time>
      </trkpt>
      <trkpt lat="45.53043" lon="4.87175">
        <ele>175.52</ele>
        <time>2021-09-18T13:08:35Z</time>
      </trkpt>
      <trkpt lat="45.53049" lon="4.87176">
        <ele>175.52</ele>
        <time>2021-09-18T13:08:36Z</time>
      </trkpt>
      <trkpt lat="45.53082" lon="4.87177">
        <ele>175.57</ele>
        <time>2021-09-18T13:08:42Z</time>
      </trkpt>
      <trkpt lat="45.53106" lon="4.87175">
        <ele>175.58</ele>
        <time>2021-09-18T13:08:46Z</time>
      </trkpt>
      <trkpt lat="45.53118" lon="4.87172">
        <ele>175.57</ele>
        <time>2021-09-18T13:08:48Z</time>
      </trkpt>
      <trkpt lat="45.53165" lon="4.87148">
        <ele>175.5</ele>
        <time>2021-09-18T13:08:56Z</time>
      </trkpt>
      <trkpt lat="45.53171" lon="4.87144">
        <ele>175.5</ele>
        <time>2021-09-18T13:08:57Z</time>
      </trkpt>
      <trkpt lat="45.53176" lon="4.8714">
        <ele>175.5</ele>
        <time>2021-09-18T13:08:58Z</time>
      </trkpt>
      <trkpt lat="45.5322" lon="4.87103">
        <ele>175.65</ele>
        <time>2021-09-18T13:09:07Z</time>
      </trkpt>
      <trkpt lat="45.53265" lon="4.87063">
        <ele>175.72</ele>
        <time>2021-09-18T13:09:16Z</time>
      </trkpt>
      <trkpt lat="45.53315" lon="4.87019">
        <ele>175.51</ele>
        <time>2021-09-18T13:09:26Z</time>
      </trkpt>
      <trkpt lat="45.53351" lon="4.86978">
        <ele>175.65</ele>
        <time>2021-09-18T13:09:34Z</time>
      </trkpt>
      <trkpt lat="45.53378" lon="4.8694">
        <ele>175.87</ele>
        <time>2021-09-18T13:09:41Z</time>
      </trkpt>
      <trkpt lat="45.53419" lon="4.86881">
        <ele>175.93</ele>
        <time>2021-09-18T13:09:51Z</time>
      </trkpt>
      <trkpt lat="45.53423" lon="4.86876">
        <ele>175.96</ele>
        <time>2021-09-18T13:09:52Z</time>
      </trkpt>
      <trkpt lat="45.53427" lon="4.8687">
        <ele>175.99</ele>
        <time>2021-09-18T13:09:53Z</time>
      </trkpt>
      <trkpt lat="45.53458" lon="4.86824">
        <ele>176.02</ele>
        <time>2021-09-18T13:10:01Z</time>
      </trkpt>
      <trkpt lat="45.53486" lon="4.8678">
        <ele>176.11</ele>
        <time>2021-09-18T13:10:08Z</time>
      </trkpt>
      <trkpt lat="45.53508" lon="4.86735">
        <ele>176.13</ele>
        <time>2021-09-18T13:10:15Z</time>
      </trkpt>
      <trkpt lat="45.53528" lon="4.86698">
        <ele>176.46</ele>
        <time>2021-09-18T13:10:23Z</time>
      </trkpt>
      <trkpt lat="45.53532" lon="4.86688">
        <ele>176.5</ele>
        <time>2021-09-18T13:10:25Z</time>
      </trkpt>
      <trkpt lat="45.53536" lon="4.86675">
        <ele>176.52</ele>
        <time>2021-09-18T13:10:27Z</time>
      </trkpt>
      <trkpt lat="45.53558" lon="4.86626">
        <ele>176.5</ele>
        <time>2021-09-18T13:10:34Z</time>
      </trkpt>
      <trkpt lat="45.5359" lon="4.86548">
        <ele>176.07</ele>
        <time>2021-09-18T13:10:44Z</time>
      </trkpt>
      <trkpt lat="45.53612" lon="4.86483">
        <ele>175.99</ele>
        <time>2021-09-18T13:10:52Z</time>
      </trkpt>
      <trkpt lat="45.53625" lon="4.86439">
        <ele>176.02</ele>
        <time>2021-09-18T13:10:58Z</time>
      </trkpt>
      <trkpt lat="45.53629" lon="4.86425">
        <ele>176.02</ele>
        <time>2021-09-18T13:11:00Z</time>
      </trkpt>
      <trkpt lat="45.5363" lon="4.86419">
        <ele>176.03</ele>
        <time>2021-09-18T13:11:01Z</time>
      </trkpt>
      <trkpt lat="45.53634" lon="4.86404">
        <ele>176.07</ele>
        <time>2021-09-18T13:11:03Z</time>
      </trkpt>
      <trkpt lat="45.53648" lon="4.86351">
        <ele>176.25</ele>
        <time>2021-09-18T13:11:10Z</time>
      </trkpt>
      <trkpt lat="45.53665" lon="4.86303">
        <ele>176.72</ele>
        <time>2021-09-18T13:11:18Z</time>
      </trkpt>
      <trkpt lat="45.53667" lon="4.86298">
        <ele>176.76</ele>
        <time>2021-09-18T13:11:19Z</time>
      </trkpt>
      <trkpt lat="45.5367" lon="4.86293">
        <ele>176.78</ele>
        <time>2021-09-18T13:11:20Z</time>
      </trkpt>
      <trkpt lat="45.53672" lon="4.86288">
        <ele>176.79</ele>
        <time>2021-09-18T13:11:21Z</time>
      </trkpt>
      <trkpt lat="45.53674" lon="4.86282">
        <ele>176.8</ele>
        <time>2021-09-18T13:11:22Z</time>
      </trkpt>
      <trkpt lat="45.53676" lon="4.86278">
        <ele>176.84</ele>
        <time>2021-09-18T13:11:23Z</time>
      </trkpt>
      <trkpt lat="45.53679" lon="4.86273">
        <ele>176.92</ele>
        <time>2021-09-18T13:11:24Z</time>
      </trkpt>
      <trkpt lat="45.53681" lon="4.86269">
        <ele>177</ele>
        <time>2021-09-18T13:11:25Z</time>
      </trkpt>
      <trkpt lat="45.53683" lon="4.86265">
        <ele>177.07</ele>
        <time>2021-09-18T13:11:26Z</time>
      </trkpt>
      <trkpt lat="45.53685" lon="4.86261">
        <ele>177.12</ele>
        <time>2021-09-18T13:11:27Z</time>
      </trkpt>
      <trkpt lat="45.53688" lon="4.86256">
        <ele>177.14</ele>
        <time>2021-09-18T13:11:28Z</time>
      </trkpt>
      <trkpt lat="45.53701" lon="4.86221">
        <ele>177.16</ele>
        <time>2021-09-18T13:11:34Z</time>
      </trkpt>
      <trkpt lat="45.53719" lon="4.86174">
        <ele>177.05</ele>
        <time>2021-09-18T13:11:41Z</time>
      </trkpt>
      <trkpt lat="45.53722" lon="4.86158">
        <ele>177.03</ele>
        <time>2021-09-18T13:11:43Z</time>
      </trkpt>
      <trkpt lat="45.53725" lon="4.86151">
        <ele>177.03</ele>
        <time>2021-09-18T13:11:44Z</time>
      </trkpt>
      <trkpt lat="45.53742" lon="4.86087">
        <ele>177.01</ele>
        <time>2021-09-18T13:11:52Z</time>
      </trkpt>
      <trkpt lat="45.53752" lon="4.86024">
        <ele>177.04</ele>
        <time>2021-09-18T13:12:00Z</time>
      </trkpt>
      <trkpt lat="45.53756" lon="4.85994">
        <ele>177.04</ele>
        <time>2021-09-18T13:12:04Z</time>
      </trkpt>
      <trkpt lat="45.53757" lon="4.85986">
        <ele>177.04</ele>
        <time>2021-09-18T13:12:05Z</time>
      </trkpt>
      <trkpt lat="45.53766" lon="4.85937">
        <ele>177.05</ele>
        <time>2021-09-18T13:12:12Z</time>
      </trkpt>
      <trkpt lat="45.53769" lon="4.85925">
        <ele>177.08</ele>
        <time>2021-09-18T13:12:14Z</time>
      </trkpt>
      <trkpt lat="45.53774" lon="4.85874">
        <ele>177.26</ele>
        <time>2021-09-18T13:12:21Z</time>
      </trkpt>
      <trkpt lat="45.53774" lon="4.85867">
        <ele>177.28</ele>
        <time>2021-09-18T13:12:22Z</time>
      </trkpt>
      <trkpt lat="45.53782" lon="4.85819">
        <ele>177.38</ele>
        <time>2021-09-18T13:12:29Z</time>
      </trkpt>
      <trkpt lat="45.53789" lon="4.85769">
        <ele>177.4</ele>
        <time>2021-09-18T13:12:36Z</time>
      </trkpt>
      <trkpt lat="45.53791" lon="4.85761">
        <ele>177.4</ele>
        <time>2021-09-18T13:12:37Z</time>
      </trkpt>
      <trkpt lat="45.53792" lon="4.85754">
        <ele>177.4</ele>
        <time>2021-09-18T13:12:38Z</time>
      </trkpt>
      <trkpt lat="45.538" lon="4.85701">
        <ele>177.38</ele>
        <time>2021-09-18T13:12:45Z</time>
      </trkpt>
      <trkpt lat="45.53806" lon="4.85659">
        <ele>177.45</ele>
        <time>2021-09-18T13:12:51Z</time>
      </trkpt>
      <trkpt lat="45.53809" lon="4.85639">
        <ele>177.53</ele>
        <time>2021-09-18T13:12:54Z</time>
      </trkpt>
      <trkpt lat="45.53809" lon="4.85632">
        <ele>177.54</ele>
        <time>2021-09-18T13:12:55Z</time>
      </trkpt>
      <trkpt lat="45.53811" lon="4.85625">
        <ele>177.54</ele>
        <time>2021-09-18T13:12:56Z</time>
      </trkpt>
      <trkpt lat="45.53812" lon="4.85618">
        <ele>177.54</ele>
        <time>2021-09-18T13:12:57Z</time>
      </trkpt>
      <trkpt lat="45.53815" lon="4.85613">
        <ele>177.54</ele>
        <time>2021-09-18T13:12:58Z</time>
      </trkpt>
      <trkpt lat="45.53817" lon="4.85607">
        <ele>177.54</ele>
        <time>2021-09-18T13:12:59Z</time>
      </trkpt>
      <trkpt lat="45.53819" lon="4.85602">
        <ele>177.54</ele>
        <time>2021-09-18T13:13:00Z</time>
      </trkpt>
      <trkpt lat="45.5382" lon="4.85595">
        <ele>177.54</ele>
        <time>2021-09-18T13:13:01Z</time>
      </trkpt>
      <trkpt lat="45.53821" lon="4.85589">
        <ele>177.52</ele>
        <time>2021-09-18T13:13:02Z</time>
      </trkpt>
      <trkpt lat="45.53822" lon="4.85582">
        <ele>177.3</ele>
        <time>2021-09-18T13:13:03Z</time>
      </trkpt>
      <trkpt lat="45.53832" lon="4.8554">
        <ele>177.02</ele>
        <time>2021-09-18T13:13:10Z</time>
      </trkpt>
      <trkpt lat="45.53837" lon="4.85509">
        <ele>177.06</ele>
        <time>2021-09-18T13:13:15Z</time>
      </trkpt>
      <trkpt lat="45.5384" lon="4.85475">
        <ele>177.56</ele>
        <time>2021-09-18T13:13:21Z</time>
      </trkpt>
      <trkpt lat="45.53842" lon="4.85472">
        <ele>177.58</ele>
        <time>2021-09-18T13:13:22Z</time>
      </trkpt>
      <trkpt lat="45.53844" lon="4.85471">
        <ele>177.63</ele>
        <time>2021-09-18T13:13:23Z</time>
      </trkpt>
      <trkpt lat="45.53846" lon="4.85471">
        <ele>177.67</ele>
        <time>2021-09-18T13:13:24Z</time>
      </trkpt>
      <trkpt lat="45.53848" lon="4.85471">
        <ele>177.72</ele>
        <time>2021-09-18T13:13:25Z</time>
      </trkpt>
      <trkpt lat="45.53859" lon="4.85473">
        <ele>178.67</ele>
        <time>2021-09-18T13:13:33Z</time>
      </trkpt>
      <trkpt lat="45.53874" lon="4.85477">
        <ele>178.83</ele>
        <time>2021-09-18T13:13:40Z</time>
      </trkpt>
      <trkpt lat="45.53887" lon="4.8548">
        <ele>178.83</ele>
        <time>2021-09-18T13:13:44Z</time>
      </trkpt>
      <trkpt lat="45.53891" lon="4.85482">
        <ele>178.83</ele>
        <time>2021-09-18T13:13:45Z</time>
      </trkpt>
      <trkpt lat="45.53895" lon="4.85484">
        <ele>178.81</ele>
        <time>2021-09-18T13:13:46Z</time>
      </trkpt>
      <trkpt lat="45.53899" lon="4.85486">
        <ele>178.8</ele>
        <time>2021-09-18T13:13:47Z</time>
      </trkpt>
      <trkpt lat="45.53903" lon="4.85487">
        <ele>178.77</ele>
        <time>2021-09-18T13:13:48Z</time>
      </trkpt>
      <trkpt lat="45.53907" lon="4.85487">
        <ele>178.72</ele>
        <time>2021-09-18T13:13:49Z</time>
      </trkpt>
      <trkpt lat="45.53916" lon="4.85485">
        <ele>178.1</ele>
        <time>2021-09-18T13:13:52Z</time>
      </trkpt>
      <trkpt lat="45.53919" lon="4.85482">
        <ele>177.73</ele>
        <time>2021-09-18T13:13:53Z</time>
      </trkpt>
      <trkpt lat="45.53921" lon="4.85477">
        <ele>177.54</ele>
        <time>2021-09-18T13:13:54Z</time>
      </trkpt>
      <trkpt lat="45.53925" lon="4.85467">
        <ele>177.35</ele>
        <time>2021-09-18T13:13:56Z</time>
      </trkpt>
      <trkpt lat="45.53929" lon="4.85454">
        <ele>177.22</ele>
        <time>2021-09-18T13:13:58Z</time>
      </trkpt>
      <trkpt lat="45.53938" lon="4.85411">
        <ele>177.07</ele>
        <time>2021-09-18T13:14:05Z</time>
      </trkpt>
      <trkpt lat="45.5394" lon="4.85398">
        <ele>177.13</ele>
        <time>2021-09-18T13:14:07Z</time>
      </trkpt>
      <trkpt lat="45.53941" lon="4.8539">
        <ele>177.14</ele>
        <time>2021-09-18T13:14:08Z</time>
      </trkpt>
      <trkpt lat="45.53949" lon="4.85327">
        <ele>177.06</ele>
        <time>2021-09-18T13:14:16Z</time>
      </trkpt>
      <trkpt lat="45.53951" lon="4.85297">
        <ele>176.98</ele>
        <time>2021-09-18T13:14:20Z</time>
      </trkpt>
      <trkpt lat="45.53956" lon="4.85248">
        <ele>176.85</ele>
        <time>2021-09-18T13:14:26Z</time>
      </trkpt>
      <trkpt lat="45.53961" lon="4.85208">
        <ele>176.85</ele>
        <time>2021-09-18T13:14:31Z</time>
      </trkpt>
      <trkpt lat="45.53966" lon="4.85156">
        <ele>176.86</ele>
        <time>2021-09-18T13:14:38Z</time>
      </trkpt>
      <trkpt lat="45.53972" lon="4.85102">
        <ele>176.87</ele>
        <time>2021-09-18T13:14:45Z</time>
      </trkpt>
      <trkpt lat="45.53978" lon="4.8505">
        <ele>176.93</ele>
        <time>2021-09-18T13:14:52Z</time>
      </trkpt>
      <trkpt lat="45.53987" lon="4.84978">
        <ele>176.95</ele>
        <time>2021-09-18T13:15:01Z</time>
      </trkpt>
      <trkpt lat="45.53994" lon="4.84913">
        <ele>176.95</ele>
        <time>2021-09-18T13:15:09Z</time>
      </trkpt>
      <trkpt lat="45.53998" lon="4.84865">
        <ele>176.95</ele>
        <time>2021-09-18T13:15:15Z</time>
      </trkpt>
      <trkpt lat="45.54007" lon="4.84799">
        <ele>177.09</ele>
        <time>2021-09-18T13:15:23Z</time>
      </trkpt>
      <trkpt lat="45.5401" lon="4.84775">
        <ele>177.21</ele>
        <time>2021-09-18T13:15:26Z</time>
      </trkpt>
      <trkpt lat="45.54014" lon="4.84734">
        <ele>177.25</ele>
        <time>2021-09-18T13:15:31Z</time>
      </trkpt>
      <trkpt lat="45.54016" lon="4.84717">
        <ele>177.27</ele>
        <time>2021-09-18T13:15:33Z</time>
      </trkpt>
      <trkpt lat="45.54023" lon="4.84648">
        <ele>177.17</ele>
        <time>2021-09-18T13:15:41Z</time>
      </trkpt>
      <trkpt lat="45.5403" lon="4.84583">
        <ele>177.15</ele>
        <time>2021-09-18T13:15:49Z</time>
      </trkpt>
      <trkpt lat="45.54039" lon="4.84522">
        <ele>177.29</ele>
        <time>2021-09-18T13:15:58Z</time>
      </trkpt>
      <trkpt lat="45.54049" lon="4.84463">
        <ele>177.52</ele>
        <time>2021-09-18T13:16:06Z</time>
      </trkpt>
      <trkpt lat="45.54059" lon="4.84397">
        <ele>177.42</ele>
        <time>2021-09-18T13:16:14Z</time>
      </trkpt>
      <trkpt lat="45.5407" lon="4.84343">
        <ele>177.45</ele>
        <time>2021-09-18T13:16:21Z</time>
      </trkpt>
      <trkpt lat="45.54086" lon="4.84273">
        <ele>177.63</ele>
        <time>2021-09-18T13:16:30Z</time>
      </trkpt>
      <trkpt lat="45.541" lon="4.84202">
        <ele>177.67</ele>
        <time>2021-09-18T13:16:39Z</time>
      </trkpt>
      <trkpt lat="45.54116" lon="4.84127">
        <ele>177.31</ele>
        <time>2021-09-18T13:16:48Z</time>
      </trkpt>
      <trkpt lat="45.54128" lon="4.84073">
        <ele>177.25</ele>
        <time>2021-09-18T13:16:55Z</time>
      </trkpt>
      <trkpt lat="45.5414" lon="4.84014">
        <ele>177.6</ele>
        <time>2021-09-18T13:17:03Z</time>
      </trkpt>
      <trkpt lat="45.54156" lon="4.83945">
        <ele>177.86</ele>
        <time>2021-09-18T13:17:12Z</time>
      </trkpt>
      <trkpt lat="45.54176" lon="4.83876">
        <ele>177.74</ele>
        <time>2021-09-18T13:17:21Z</time>
      </trkpt>
      <trkpt lat="45.54196" lon="4.83808">
        <ele>177.78</ele>
        <time>2021-09-18T13:17:30Z</time>
      </trkpt>
      <trkpt lat="45.54219" lon="4.83739">
        <ele>177.99</ele>
        <time>2021-09-18T13:17:39Z</time>
      </trkpt>
      <trkpt lat="45.54243" lon="4.83671">
        <ele>178.04</ele>
        <time>2021-09-18T13:17:48Z</time>
      </trkpt>
      <trkpt lat="45.54261" lon="4.83621">
        <ele>178.19</ele>
        <time>2021-09-18T13:17:55Z</time>
      </trkpt>
      <trkpt lat="45.54277" lon="4.83586">
        <ele>178.44</ele>
        <time>2021-09-18T13:18:01Z</time>
      </trkpt>
      <trkpt lat="45.54283" lon="4.83575">
        <ele>178.55</ele>
        <time>2021-09-18T13:18:03Z</time>
      </trkpt>
      <trkpt lat="45.54285" lon="4.83568">
        <ele>178.59</ele>
        <time>2021-09-18T13:18:04Z</time>
      </trkpt>
      <trkpt lat="45.54308" lon="4.83514">
        <ele>178.7</ele>
        <time>2021-09-18T13:18:13Z</time>
      </trkpt>
      <trkpt lat="45.54317" lon="4.83494">
        <ele>178.63</ele>
        <time>2021-09-18T13:18:16Z</time>
      </trkpt>
      <trkpt lat="45.54326" lon="4.83477">
        <ele>178.43</ele>
        <time>2021-09-18T13:18:19Z</time>
      </trkpt>
      <trkpt lat="45.54333" lon="4.83461">
        <ele>178.37</ele>
        <time>2021-09-18T13:18:22Z</time>
      </trkpt>
      <trkpt lat="45.54335" lon="4.83456">
        <ele>178.37</ele>
        <time>2021-09-18T13:18:23Z</time>
      </trkpt>
      <trkpt lat="45.54341" lon="4.83444">
        <ele>178.37</ele>
        <time>2021-09-18T13:18:25Z</time>
      </trkpt>
      <trkpt lat="45.54344" lon="4.83438">
        <ele>178.36</ele>
        <time>2021-09-18T13:18:26Z</time>
      </trkpt>
      <trkpt lat="45.54367" lon="4.83395">
        <ele>178.46</ele>
        <time>2021-09-18T13:18:34Z</time>
      </trkpt>
      <trkpt lat="45.54372" lon="4.83384">
        <ele>178.49</ele>
        <time>2021-09-18T13:18:36Z</time>
      </trkpt>
      <trkpt lat="45.54375" lon="4.83379">
        <ele>178.49</ele>
        <time>2021-09-18T13:18:37Z</time>
      </trkpt>
      <trkpt lat="45.54378" lon="4.83373">
        <ele>178.49</ele>
        <time>2021-09-18T13:18:38Z</time>
      </trkpt>
      <trkpt lat="45.54413" lon="4.83311">
        <ele>178.26</ele>
        <time>2021-09-18T13:18:48Z</time>
      </trkpt>
      <trkpt lat="45.54451" lon="4.83245">
        <ele>177.21</ele>
        <time>2021-09-18T13:18:58Z</time>
      </trkpt>
      <trkpt lat="45.54483" lon="4.83197">
        <ele>177.3</ele>
        <time>2021-09-18T13:19:07Z</time>
      </trkpt>
      <trkpt lat="45.54491" lon="4.83186">
        <ele>177.42</ele>
        <time>2021-09-18T13:19:09Z</time>
      </trkpt>
      <trkpt lat="45.54495" lon="4.8318">
        <ele>177.46</ele>
        <time>2021-09-18T13:19:10Z</time>
      </trkpt>
      <trkpt lat="45.5451" lon="4.83155">
        <ele>177.97</ele>
        <time>2021-09-18T13:19:14Z</time>
      </trkpt>
      <trkpt lat="45.54513" lon="4.83148">
        <ele>178.01</ele>
        <time>2021-09-18T13:19:15Z</time>
      </trkpt>
      <trkpt lat="45.54519" lon="4.83134">
        <ele>178.03</ele>
        <time>2021-09-18T13:19:17Z</time>
      </trkpt>
      <trkpt lat="45.54523" lon="4.83128">
        <ele>178.03</ele>
        <time>2021-09-18T13:19:18Z</time>
      </trkpt>
      <trkpt lat="45.54528" lon="4.83122">
        <ele>178.03</ele>
        <time>2021-09-18T13:19:19Z</time>
      </trkpt>
      <trkpt lat="45.54564" lon="4.83068">
        <ele>178.12</ele>
        <time>2021-09-18T13:19:28Z</time>
      </trkpt>
      <trkpt lat="45.54607" lon="4.83007">
        <ele>178.75</ele>
        <time>2021-09-18T13:19:38Z</time>
      </trkpt>
      <trkpt lat="45.54656" lon="4.82941">
        <ele>179.53</ele>
        <time>2021-09-18T13:19:49Z</time>
      </trkpt>
      <trkpt lat="45.54665" lon="4.82929">
        <ele>179.57</ele>
        <time>2021-09-18T13:19:51Z</time>
      </trkpt>
      <trkpt lat="45.54668" lon="4.82923">
        <ele>179.59</ele>
        <time>2021-09-18T13:19:52Z</time>
      </trkpt>
      <trkpt lat="45.54671" lon="4.82915">
        <ele>179.6</ele>
        <time>2021-09-18T13:19:53Z</time>
      </trkpt>
      <trkpt lat="45.54673" lon="4.82907">
        <ele>179.6</ele>
        <time>2021-09-18T13:19:54Z</time>
      </trkpt>
      <trkpt lat="45.54674" lon="4.82898">
        <ele>179.65</ele>
        <time>2021-09-18T13:19:55Z</time>
      </trkpt>
      <trkpt lat="45.54675" lon="4.8289">
        <ele>179.68</ele>
        <time>2021-09-18T13:19:56Z</time>
      </trkpt>
      <trkpt lat="45.54676" lon="4.82881">
        <ele>179.69</ele>
        <time>2021-09-18T13:19:57Z</time>
      </trkpt>
      <trkpt lat="45.54679" lon="4.82825">
        <ele>179.7</ele>
        <time>2021-09-18T13:20:04Z</time>
      </trkpt>
      <trkpt lat="45.54683" lon="4.82779">
        <ele>179.72</ele>
        <time>2021-09-18T13:20:11Z</time>
      </trkpt>
      <trkpt lat="45.54691" lon="4.82728">
        <ele>179.67</ele>
        <time>2021-09-18T13:20:19Z</time>
      </trkpt>
      <trkpt lat="45.54693" lon="4.82723">
        <ele>179.68</ele>
        <time>2021-09-18T13:20:20Z</time>
      </trkpt>
      <trkpt lat="45.54695" lon="4.82718">
        <ele>179.69</ele>
        <time>2021-09-18T13:20:21Z</time>
      </trkpt>
      <trkpt lat="45.54714" lon="4.82678">
        <ele>179.9</ele>
        <time>2021-09-18T13:20:28Z</time>
      </trkpt>
      <trkpt lat="45.54717" lon="4.82674">
        <ele>179.94</ele>
        <time>2021-09-18T13:20:29Z</time>
      </trkpt>
      <trkpt lat="45.5472" lon="4.8267">
        <ele>179.96</ele>
        <time>2021-09-18T13:20:30Z</time>
      </trkpt>
      <trkpt lat="45.54724" lon="4.82667">
        <ele>179.98</ele>
        <time>2021-09-18T13:20:31Z</time>
      </trkpt>
      <trkpt lat="45.54727" lon="4.82664">
        <ele>180.01</ele>
        <time>2021-09-18T13:20:32Z</time>
      </trkpt>
      <trkpt lat="45.54737" lon="4.82657">
        <ele>180.07</ele>
        <time>2021-09-18T13:20:35Z</time>
      </trkpt>
      <trkpt lat="45.54765" lon="4.82632">
        <ele>180.49</ele>
        <time>2021-09-18T13:20:42Z</time>
      </trkpt>
      <trkpt lat="45.5477" lon="4.82628">
        <ele>180.51</ele>
        <time>2021-09-18T13:20:43Z</time>
      </trkpt>
      <trkpt lat="45.54804" lon="4.82596">
        <ele>180.57</ele>
        <time>2021-09-18T13:20:51Z</time>
      </trkpt>
      <trkpt lat="45.54844" lon="4.82559">
        <ele>180.52</ele>
        <time>2021-09-18T13:21:00Z</time>
      </trkpt>
      <trkpt lat="45.54878" lon="4.82531">
        <ele>180.51</ele>
        <time>2021-09-18T13:21:08Z</time>
      </trkpt>
      <trkpt lat="45.549" lon="4.82512">
        <ele>180.67</ele>
        <time>2021-09-18T13:21:14Z</time>
      </trkpt>
      <trkpt lat="45.54904" lon="4.82509">
        <ele>180.7</ele>
        <time>2021-09-18T13:21:15Z</time>
      </trkpt>
      <trkpt lat="45.54937" lon="4.8248">
        <ele>180.83</ele>
        <time>2021-09-18T13:21:23Z</time>
      </trkpt>
      <trkpt lat="45.54977" lon="4.82446">
        <ele>180.76</ele>
        <time>2021-09-18T13:21:32Z</time>
      </trkpt>
      <trkpt lat="45.55015" lon="4.82412">
        <ele>180.52</ele>
        <time>2021-09-18T13:21:41Z</time>
      </trkpt>
      <trkpt lat="45.55022" lon="4.82406">
        <ele>180.47</ele>
        <time>2021-09-18T13:21:43Z</time>
      </trkpt>
      <trkpt lat="45.55026" lon="4.82403">
        <ele>180.46</ele>
        <time>2021-09-18T13:21:44Z</time>
      </trkpt>
      <trkpt lat="45.5503" lon="4.82398">
        <ele>180.43</ele>
        <time>2021-09-18T13:21:45Z</time>
      </trkpt>
      <trkpt lat="45.55035" lon="4.82394">
        <ele>180.41</ele>
        <time>2021-09-18T13:21:46Z</time>
      </trkpt>
      <trkpt lat="45.55039" lon="4.8239">
        <ele>180.4</ele>
        <time>2021-09-18T13:21:47Z</time>
      </trkpt>
      <trkpt lat="45.55072" lon="4.82352">
        <ele>180.23</ele>
        <time>2021-09-18T13:21:55Z</time>
      </trkpt>
      <trkpt lat="45.55107" lon="4.82304">
        <ele>180.21</ele>
        <time>2021-09-18T13:22:04Z</time>
      </trkpt>
      <trkpt lat="45.55121" lon="4.82284">
        <ele>180.29</ele>
        <time>2021-09-18T13:22:08Z</time>
      </trkpt>
      <trkpt lat="45.55145" lon="4.82244">
        <ele>180.32</ele>
        <time>2021-09-18T13:22:15Z</time>
      </trkpt>
      <trkpt lat="45.5517" lon="4.82198">
        <ele>180.24</ele>
        <time>2021-09-18T13:22:23Z</time>
      </trkpt>
      <trkpt lat="45.5519" lon="4.82162">
        <ele>180.42</ele>
        <time>2021-09-18T13:22:31Z</time>
      </trkpt>
      <trkpt lat="45.55193" lon="4.82153">
        <ele>180.49</ele>
        <time>2021-09-18T13:22:33Z</time>
      </trkpt>
      <trkpt lat="45.55193" lon="4.82149">
        <ele>180.52</ele>
        <time>2021-09-18T13:22:34Z</time>
      </trkpt>
      <trkpt lat="45.55192" lon="4.82145">
        <ele>180.54</ele>
        <time>2021-09-18T13:22:35Z</time>
      </trkpt>
      <trkpt lat="45.55191" lon="4.8214">
        <ele>180.59</ele>
        <time>2021-09-18T13:22:36Z</time>
      </trkpt>
      <trkpt lat="45.55191" lon="4.82135">
        <ele>180.64</ele>
        <time>2021-09-18T13:22:37Z</time>
      </trkpt>
      <trkpt lat="45.55192" lon="4.82129">
        <ele>180.7</ele>
        <time>2021-09-18T13:22:38Z</time>
      </trkpt>
      <trkpt lat="45.55195" lon="4.82124">
        <ele>180.78</ele>
        <time>2021-09-18T13:22:39Z</time>
      </trkpt>
      <trkpt lat="45.55198" lon="4.82119">
        <ele>180.81</ele>
        <time>2021-09-18T13:22:40Z</time>
      </trkpt>
      <trkpt lat="45.55201" lon="4.82114">
        <ele>180.83</ele>
        <time>2021-09-18T13:22:41Z</time>
      </trkpt>
      <trkpt lat="45.55207" lon="4.82105">
        <ele>180.85</ele>
        <time>2021-09-18T13:22:43Z</time>
      </trkpt>
      <trkpt lat="45.55227" lon="4.82078">
        <ele>180.85</ele>
        <time>2021-09-18T13:22:49Z</time>
      </trkpt>
      <trkpt lat="45.55231" lon="4.82073">
        <ele>180.82</ele>
        <time>2021-09-18T13:22:50Z</time>
      </trkpt>
      <trkpt lat="45.55263" lon="4.82039">
        <ele>180.77</ele>
        <time>2021-09-18T13:22:59Z</time>
      </trkpt>
      <trkpt lat="45.55271" lon="4.82031">
        <ele>180.71</ele>
        <time>2021-09-18T13:23:01Z</time>
      </trkpt>
      <trkpt lat="45.55275" lon="4.82027">
        <ele>180.68</ele>
        <time>2021-09-18T13:23:02Z</time>
      </trkpt>
      <trkpt lat="45.55279" lon="4.82023">
        <ele>180.65</ele>
        <time>2021-09-18T13:23:03Z</time>
      </trkpt>
      <trkpt lat="45.55297" lon="4.82004">
        <ele>180.78</ele>
        <time>2021-09-18T13:23:09Z</time>
      </trkpt>
      <trkpt lat="45.55318" lon="4.81985">
        <ele>180.78</ele>
        <time>2021-09-18T13:23:15Z</time>
      </trkpt>
      <trkpt lat="45.55332" lon="4.81965">
        <ele>180.81</ele>
        <time>2021-09-18T13:23:21Z</time>
      </trkpt>
      <trkpt lat="45.55346" lon="4.8195">
        <ele>180.81</ele>
        <time>2021-09-18T13:23:25Z</time>
      </trkpt>
      <trkpt lat="45.5535" lon="4.81944">
        <ele>180.81</ele>
        <time>2021-09-18T13:23:26Z</time>
      </trkpt>
      <trkpt lat="45.55354" lon="4.81938">
        <ele>180.81</ele>
        <time>2021-09-18T13:23:27Z</time>
      </trkpt>
      <trkpt lat="45.55362" lon="4.81928">
        <ele>180.81</ele>
        <time>2021-09-18T13:23:29Z</time>
      </trkpt>
      <trkpt lat="45.55366" lon="4.81923">
        <ele>180.81</ele>
        <time>2021-09-18T13:23:30Z</time>
      </trkpt>
      <trkpt lat="45.5537" lon="4.81917">
        <ele>180.81</ele>
        <time>2021-09-18T13:23:31Z</time>
      </trkpt>
      <trkpt lat="45.55392" lon="4.81872">
        <ele>180.61</ele>
        <time>2021-09-18T13:23:38Z</time>
      </trkpt>
      <trkpt lat="45.55407" lon="4.8184">
        <ele>180.53</ele>
        <time>2021-09-18T13:23:43Z</time>
      </trkpt>
      <trkpt lat="45.55439" lon="4.81784">
        <ele>180.51</ele>
        <time>2021-09-18T13:23:52Z</time>
      </trkpt>
      <trkpt lat="45.55467" lon="4.81736">
        <ele>180.58</ele>
        <time>2021-09-18T13:24:00Z</time>
      </trkpt>
      <trkpt lat="45.55473" lon="4.81724">
        <ele>180.59</ele>
        <time>2021-09-18T13:24:02Z</time>
      </trkpt>
      <trkpt lat="45.55477" lon="4.81719">
        <ele>180.6</ele>
        <time>2021-09-18T13:24:03Z</time>
      </trkpt>
      <trkpt lat="45.55513" lon="4.81671">
        <ele>180.67</ele>
        <time>2021-09-18T13:24:12Z</time>
      </trkpt>
      <trkpt lat="45.55525" lon="4.81654">
        <ele>180.71</ele>
        <time>2021-09-18T13:24:15Z</time>
      </trkpt>
      <trkpt lat="45.5553" lon="4.81649">
        <ele>180.72</ele>
        <time>2021-09-18T13:24:16Z</time>
      </trkpt>
      <trkpt lat="45.55563" lon="4.81615">
        <ele>180.93</ele>
        <time>2021-09-18T13:24:24Z</time>
      </trkpt>
      <trkpt lat="45.55573" lon="4.81603">
        <ele>180.98</ele>
        <time>2021-09-18T13:24:27Z</time>
      </trkpt>
      <trkpt lat="45.55577" lon="4.816">
        <ele>181</ele>
        <time>2021-09-18T13:24:28Z</time>
      </trkpt>
      <trkpt lat="45.55581" lon="4.81596">
        <ele>181.03</ele>
        <time>2021-09-18T13:24:29Z</time>
      </trkpt>
      <trkpt lat="45.55585" lon="4.81592">
        <ele>181.09</ele>
        <time>2021-09-18T13:24:30Z</time>
      </trkpt>
      <trkpt lat="45.5559" lon="4.81588">
        <ele>181.17</ele>
        <time>2021-09-18T13:24:31Z</time>
      </trkpt>
      <trkpt lat="45.55618" lon="4.81565">
        <ele>181.43</ele>
        <time>2021-09-18T13:24:38Z</time>
      </trkpt>
      <trkpt lat="45.55643" lon="4.81546">
        <ele>181.5</ele>
        <time>2021-09-18T13:24:44Z</time>
      </trkpt>
      <trkpt lat="45.5566" lon="4.81532">
        <ele>181.5</ele>
        <time>2021-09-18T13:24:49Z</time>
      </trkpt>
      <trkpt lat="45.55675" lon="4.81516">
        <ele>181.5</ele>
        <time>2021-09-18T13:24:53Z</time>
      </trkpt>
      <trkpt lat="45.55709" lon="4.81491">
        <ele>181.44</ele>
        <time>2021-09-18T13:25:02Z</time>
      </trkpt>
      <trkpt lat="45.55739" lon="4.81473">
        <ele>181.46</ele>
        <time>2021-09-18T13:25:09Z</time>
      </trkpt>
      <trkpt lat="45.55765" lon="4.81457">
        <ele>181.51</ele>
        <time>2021-09-18T13:25:15Z</time>
      </trkpt>
      <trkpt lat="45.55796" lon="4.81435">
        <ele>181.63</ele>
        <time>2021-09-18T13:25:22Z</time>
      </trkpt>
      <trkpt lat="45.55804" lon="4.81428">
        <ele>181.63</ele>
        <time>2021-09-18T13:25:24Z</time>
      </trkpt>
      <trkpt lat="45.55844" lon="4.81405">
        <ele>181.66</ele>
        <time>2021-09-18T13:25:33Z</time>
      </trkpt>
      <trkpt lat="45.55849" lon="4.81403">
        <ele>181.66</ele>
        <time>2021-09-18T13:25:34Z</time>
      </trkpt>
      <trkpt lat="45.55854" lon="4.81401">
        <ele>181.66</ele>
        <time>2021-09-18T13:25:35Z</time>
      </trkpt>
      <trkpt lat="45.5586" lon="4.81398">
        <ele>181.68</ele>
        <time>2021-09-18T13:25:36Z</time>
      </trkpt>
      <trkpt lat="45.55865" lon="4.81395">
        <ele>181.7</ele>
        <time>2021-09-18T13:25:37Z</time>
      </trkpt>
      <trkpt lat="45.5587" lon="4.81393">
        <ele>181.72</ele>
        <time>2021-09-18T13:25:38Z</time>
      </trkpt>
      <trkpt lat="45.55875" lon="4.8139">
        <ele>181.73</ele>
        <time>2021-09-18T13:25:39Z</time>
      </trkpt>
      <trkpt lat="45.5588" lon="4.81387">
        <ele>181.75</ele>
        <time>2021-09-18T13:25:40Z</time>
      </trkpt>
      <trkpt lat="45.5589" lon="4.8138">
        <ele>181.8</ele>
        <time>2021-09-18T13:25:42Z</time>
      </trkpt>
      <trkpt lat="45.55895" lon="4.81376">
        <ele>181.83</ele>
        <time>2021-09-18T13:25:43Z</time>
      </trkpt>
      <trkpt lat="45.55938" lon="4.81346">
        <ele>181.85</ele>
        <time>2021-09-18T13:25:51Z</time>
      </trkpt>
      <trkpt lat="45.56" lon="4.81306">
        <ele>181.56</ele>
        <time>2021-09-18T13:26:01Z</time>
      </trkpt>
      <trkpt lat="45.56026" lon="4.81287">
        <ele>181.49</ele>
        <time>2021-09-18T13:26:06Z</time>
      </trkpt>
      <trkpt lat="45.56032" lon="4.81283">
        <ele>181.49</ele>
        <time>2021-09-18T13:26:07Z</time>
      </trkpt>
      <trkpt lat="45.56083" lon="4.81249">
        <ele>181.29</ele>
        <time>2021-09-18T13:26:16Z</time>
      </trkpt>
      <trkpt lat="45.56115" lon="4.81224">
        <ele>181.34</ele>
        <time>2021-09-18T13:26:22Z</time>
      </trkpt>
      <trkpt lat="45.56125" lon="4.81216">
        <ele>181.61</ele>
        <time>2021-09-18T13:26:25Z</time>
      </trkpt>
      <trkpt lat="45.56127" lon="4.81213">
        <ele>181.68</ele>
        <time>2021-09-18T13:26:26Z</time>
      </trkpt>
      <trkpt lat="45.5613" lon="4.81212">
        <ele>181.78</ele>
        <time>2021-09-18T13:26:27Z</time>
      </trkpt>
      <trkpt lat="45.56136" lon="4.81211">
        <ele>181.89</ele>
        <time>2021-09-18T13:26:31Z</time>
      </trkpt>
      <trkpt lat="45.56138" lon="4.81211">
        <ele>181.99</ele>
        <time>2021-09-18T13:26:32Z</time>
      </trkpt>
      <trkpt lat="45.5614" lon="4.8121">
        <ele>182.15</ele>
        <time>2021-09-18T13:26:33Z</time>
      </trkpt>
      <trkpt lat="45.56141" lon="4.81208">
        <ele>182.31</ele>
        <time>2021-09-18T13:26:34Z</time>
      </trkpt>
      <trkpt lat="45.56142" lon="4.81205">
        <ele>182.52</ele>
        <time>2021-09-18T13:26:35Z</time>
      </trkpt>
      <trkpt lat="45.56144" lon="4.81202">
        <ele>182.69</ele>
        <time>2021-09-18T13:26:36Z</time>
      </trkpt>
      <trkpt lat="45.56149" lon="4.8118">
        <ele>183.15</ele>
        <time>2021-09-18T13:26:41Z</time>
      </trkpt>
      <trkpt lat="45.56144" lon="4.81157">
        <ele>183.31</ele>
        <time>2021-09-18T13:26:46Z</time>
      </trkpt>
      <trkpt lat="45.56142" lon="4.81146">
        <ele>183.37</ele>
        <time>2021-09-18T13:26:48Z</time>
      </trkpt>
      <trkpt lat="45.56141" lon="4.8114">
        <ele>183.38</ele>
        <time>2021-09-18T13:26:49Z</time>
      </trkpt>
      <trkpt lat="45.5614" lon="4.81135">
        <ele>183.39</ele>
        <time>2021-09-18T13:26:50Z</time>
      </trkpt>
      <trkpt lat="45.56131" lon="4.81095">
        <ele>183.48</ele>
        <time>2021-09-18T13:26:57Z</time>
      </trkpt>
      <trkpt lat="45.56128" lon="4.81076">
        <ele>183.51</ele>
        <time>2021-09-18T13:27:00Z</time>
      </trkpt>
      <trkpt lat="45.56125" lon="4.81034">
        <ele>183.9</ele>
        <time>2021-09-18T13:27:08Z</time>
      </trkpt>
      <trkpt lat="45.56125" lon="4.81028">
        <ele>184.02</ele>
        <time>2021-09-18T13:27:09Z</time>
      </trkpt>
      <trkpt lat="45.56129" lon="4.80972">
        <ele>184.21</ele>
        <time>2021-09-18T13:27:17Z</time>
      </trkpt>
      <trkpt lat="45.56145" lon="4.80914">
        <ele>184.16</ele>
        <time>2021-09-18T13:27:25Z</time>
      </trkpt>
      <trkpt lat="45.5615" lon="4.809">
        <ele>184.16</ele>
        <time>2021-09-18T13:27:27Z</time>
      </trkpt>
      <trkpt lat="45.56153" lon="4.80894">
        <ele>184.16</ele>
        <time>2021-09-18T13:27:28Z</time>
      </trkpt>
      <trkpt lat="45.56189" lon="4.80835">
        <ele>184.19</ele>
        <time>2021-09-18T13:27:38Z</time>
      </trkpt>
      <trkpt lat="45.56221" lon="4.80788">
        <ele>184.1</ele>
        <time>2021-09-18T13:27:46Z</time>
      </trkpt>
      <trkpt lat="45.56248" lon="4.80751">
        <ele>184.09</ele>
        <time>2021-09-18T13:27:53Z</time>
      </trkpt>
      <trkpt lat="45.56274" lon="4.80714">
        <ele>184.15</ele>
        <time>2021-09-18T13:28:00Z</time>
      </trkpt>
      <trkpt lat="45.56306" lon="4.80667">
        <ele>184.64</ele>
        <time>2021-09-18T13:28:09Z</time>
      </trkpt>
      <trkpt lat="45.5634" lon="4.80617">
        <ele>184.89</ele>
        <time>2021-09-18T13:28:18Z</time>
      </trkpt>
      <trkpt lat="45.56385" lon="4.80553">
        <ele>184.96</ele>
        <time>2021-09-18T13:28:29Z</time>
      </trkpt>
      <trkpt lat="45.56427" lon="4.8049">
        <ele>184.99</ele>
        <time>2021-09-18T13:28:39Z</time>
      </trkpt>
      <trkpt lat="45.56466" lon="4.80434">
        <ele>184.97</ele>
        <time>2021-09-18T13:28:48Z</time>
      </trkpt>
      <trkpt lat="45.56514" lon="4.80365">
        <ele>184.87</ele>
        <time>2021-09-18T13:28:59Z</time>
      </trkpt>
      <trkpt lat="45.56563" lon="4.80298">
        <ele>185.14</ele>
        <time>2021-09-18T13:29:10Z</time>
      </trkpt>
      <trkpt lat="45.56613" lon="4.80228">
        <ele>185.41</ele>
        <time>2021-09-18T13:29:21Z</time>
      </trkpt>
      <trkpt lat="45.56659" lon="4.80166">
        <ele>185.45</ele>
        <time>2021-09-18T13:29:31Z</time>
      </trkpt>
      <trkpt lat="45.56697" lon="4.80116">
        <ele>185.61</ele>
        <time>2021-09-18T13:29:39Z</time>
      </trkpt>
      <trkpt lat="45.56763" lon="4.80036">
        <ele>186.06</ele>
        <time>2021-09-18T13:29:52Z</time>
      </trkpt>
      <trkpt lat="45.56819" lon="4.7997">
        <ele>186.07</ele>
        <time>2021-09-18T13:30:03Z</time>
      </trkpt>
      <trkpt lat="45.56858" lon="4.79922">
        <ele>186.03</ele>
        <time>2021-09-18T13:30:11Z</time>
      </trkpt>
      <trkpt lat="45.56873" lon="4.79906">
        <ele>186</ele>
        <time>2021-09-18T13:30:14Z</time>
      </trkpt>
      <trkpt lat="45.56879" lon="4.79901">
        <ele>185.99</ele>
        <time>2021-09-18T13:30:15Z</time>
      </trkpt>
      <trkpt lat="45.56922" lon="4.79865">
        <ele>185.99</ele>
        <time>2021-09-18T13:30:24Z</time>
      </trkpt>
      <trkpt lat="45.56956" lon="4.79825">
        <ele>187.22</ele>
        <time>2021-09-18T13:30:32Z</time>
      </trkpt>
      <trkpt lat="45.5696" lon="4.7982">
        <ele>187.49</ele>
        <time>2021-09-18T13:30:33Z</time>
      </trkpt>
      <trkpt lat="45.56972" lon="4.79803">
        <ele>187.67</ele>
        <time>2021-09-18T13:30:36Z</time>
      </trkpt>
      <trkpt lat="45.57009" lon="4.79753">
        <ele>187.89</ele>
        <time>2021-09-18T13:30:45Z</time>
      </trkpt>
      <trkpt lat="45.57038" lon="4.79714">
        <ele>187.78</ele>
        <time>2021-09-18T13:30:53Z</time>
      </trkpt>
      <trkpt lat="45.57063" lon="4.79678">
        <ele>187.61</ele>
        <time>2021-09-18T13:31:00Z</time>
      </trkpt>
      <trkpt lat="45.57093" lon="4.79635">
        <ele>187.3</ele>
        <time>2021-09-18T13:31:07Z</time>
      </trkpt>
      <trkpt lat="45.57098" lon="4.79631">
        <ele>187.25</ele>
        <time>2021-09-18T13:31:08Z</time>
      </trkpt>
      <trkpt lat="45.57103" lon="4.79628">
        <ele>187.01</ele>
        <time>2021-09-18T13:31:09Z</time>
      </trkpt>
      <trkpt lat="45.57109" lon="4.79625">
        <ele>186.8</ele>
        <time>2021-09-18T13:31:10Z</time>
      </trkpt>
      <trkpt lat="45.57114" lon="4.79621">
        <ele>186.64</ele>
        <time>2021-09-18T13:31:11Z</time>
      </trkpt>
      <trkpt lat="45.57119" lon="4.79616">
        <ele>186.55</ele>
        <time>2021-09-18T13:31:12Z</time>
      </trkpt>
      <trkpt lat="45.57123" lon="4.7961">
        <ele>186.47</ele>
        <time>2021-09-18T13:31:13Z</time>
      </trkpt>
      <trkpt lat="45.57158" lon="4.79562">
        <ele>186.09</ele>
        <time>2021-09-18T13:31:22Z</time>
      </trkpt>
      <trkpt lat="45.57195" lon="4.79527">
        <ele>186.08</ele>
        <time>2021-09-18T13:31:30Z</time>
      </trkpt>
      <trkpt lat="45.57209" lon="4.79519">
        <ele>186.17</ele>
        <time>2021-09-18T13:31:33Z</time>
      </trkpt>
      <trkpt lat="45.5724" lon="4.79491">
        <ele>187.48</ele>
        <time>2021-09-18T13:31:40Z</time>
      </trkpt>
      <trkpt lat="45.57244" lon="4.79485">
        <ele>187.69</ele>
        <time>2021-09-18T13:31:41Z</time>
      </trkpt>
      <trkpt lat="45.57247" lon="4.79478">
        <ele>187.81</ele>
        <time>2021-09-18T13:31:42Z</time>
      </trkpt>
      <trkpt lat="45.57249" lon="4.79471">
        <ele>188.1</ele>
        <time>2021-09-18T13:31:43Z</time>
      </trkpt>
      <trkpt lat="45.57251" lon="4.79463">
        <ele>188.31</ele>
        <time>2021-09-18T13:31:44Z</time>
      </trkpt>
      <trkpt lat="45.57252" lon="4.79456">
        <ele>188.49</ele>
        <time>2021-09-18T13:31:45Z</time>
      </trkpt>
      <trkpt lat="45.57252" lon="4.7945">
        <ele>188.64</ele>
        <time>2021-09-18T13:31:46Z</time>
      </trkpt>
      <trkpt lat="45.57252" lon="4.79443">
        <ele>188.88</ele>
        <time>2021-09-18T13:31:47Z</time>
      </trkpt>
      <trkpt lat="45.57251" lon="4.79437">
        <ele>189.11</ele>
        <time>2021-09-18T13:31:48Z</time>
      </trkpt>
      <trkpt lat="45.57249" lon="4.79418">
        <ele>189.54</ele>
        <time>2021-09-18T13:31:51Z</time>
      </trkpt>
      <trkpt lat="45.57249" lon="4.79412">
        <ele>189.58</ele>
        <time>2021-09-18T13:31:52Z</time>
      </trkpt>
      <trkpt lat="45.57252" lon="4.79406">
        <ele>189.64</ele>
        <time>2021-09-18T13:31:53Z</time>
      </trkpt>
      <trkpt lat="45.57254" lon="4.79401">
        <ele>189.68</ele>
        <time>2021-09-18T13:31:54Z</time>
      </trkpt>
      <trkpt lat="45.57258" lon="4.79396">
        <ele>189.7</ele>
        <time>2021-09-18T13:31:55Z</time>
      </trkpt>
      <trkpt lat="45.57262" lon="4.79391">
        <ele>189.71</ele>
        <time>2021-09-18T13:31:56Z</time>
      </trkpt>
      <trkpt lat="45.57299" lon="4.79344">
        <ele>189.45</ele>
        <time>2021-09-18T13:32:04Z</time>
      </trkpt>
      <trkpt lat="45.57342" lon="4.7929">
        <ele>186.93</ele>
        <time>2021-09-18T13:32:13Z</time>
      </trkpt>
      <trkpt lat="45.57389" lon="4.7923">
        <ele>186.02</ele>
        <time>2021-09-18T13:32:22Z</time>
      </trkpt>
      <trkpt lat="45.57455" lon="4.7915">
        <ele>184.82</ele>
        <time>2021-09-18T13:32:34Z</time>
      </trkpt>
      <trkpt lat="45.57498" lon="4.79099">
        <ele>183.73</ele>
        <time>2021-09-18T13:32:42Z</time>
      </trkpt>
      <trkpt lat="45.57544" lon="4.7905">
        <ele>183.38</ele>
        <time>2021-09-18T13:32:50Z</time>
      </trkpt>
      <trkpt lat="45.57586" lon="4.78993">
        <ele>183.21</ele>
        <time>2021-09-18T13:32:58Z</time>
      </trkpt>
      <trkpt lat="45.57627" lon="4.7894">
        <ele>182.85</ele>
        <time>2021-09-18T13:33:06Z</time>
      </trkpt>
      <trkpt lat="45.57662" lon="4.78892">
        <ele>182.29</ele>
        <time>2021-09-18T13:33:13Z</time>
      </trkpt>
      <trkpt lat="45.57699" lon="4.78835">
        <ele>181.83</ele>
        <time>2021-09-18T13:33:21Z</time>
      </trkpt>
      <trkpt lat="45.57753" lon="4.78754">
        <ele>181.81</ele>
        <time>2021-09-18T13:33:33Z</time>
      </trkpt>
      <trkpt lat="45.57787" lon="4.78686">
        <ele>182.31</ele>
        <time>2021-09-18T13:33:42Z</time>
      </trkpt>
      <trkpt lat="45.57812" lon="4.78622">
        <ele>182.48</ele>
        <time>2021-09-18T13:33:50Z</time>
      </trkpt>
      <trkpt lat="45.57831" lon="4.78561">
        <ele>184</ele>
        <time>2021-09-18T13:33:57Z</time>
      </trkpt>
      <trkpt lat="45.5785" lon="4.78499">
        <ele>184.12</ele>
        <time>2021-09-18T13:34:04Z</time>
      </trkpt>
      <trkpt lat="45.57864" lon="4.78452">
        <ele>183.97</ele>
        <time>2021-09-18T13:34:10Z</time>
      </trkpt>
      <trkpt lat="45.57866" lon="4.78445">
        <ele>183.95</ele>
        <time>2021-09-18T13:34:11Z</time>
      </trkpt>
      <trkpt lat="45.57877" lon="4.78409">
        <ele>183.78</ele>
        <time>2021-09-18T13:34:16Z</time>
      </trkpt>
      <trkpt lat="45.57882" lon="4.78392">
        <ele>183.74</ele>
        <time>2021-09-18T13:34:18Z</time>
      </trkpt>
      <trkpt lat="45.57884" lon="4.78384">
        <ele>183.73</ele>
        <time>2021-09-18T13:34:19Z</time>
      </trkpt>
      <trkpt lat="45.57909" lon="4.78309">
        <ele>183.34</ele>
        <time>2021-09-18T13:34:28Z</time>
      </trkpt>
      <trkpt lat="45.57921" lon="4.78277">
        <ele>183.17</ele>
        <time>2021-09-18T13:34:32Z</time>
      </trkpt>
      <trkpt lat="45.5794" lon="4.7822">
        <ele>183.15</ele>
        <time>2021-09-18T13:34:39Z</time>
      </trkpt>
      <trkpt lat="45.57958" lon="4.78165">
        <ele>183.38</ele>
        <time>2021-09-18T13:34:46Z</time>
      </trkpt>
      <trkpt lat="45.57984" lon="4.78091">
        <ele>183.14</ele>
        <time>2021-09-18T13:34:55Z</time>
      </trkpt>
      <trkpt lat="45.58008" lon="4.78017">
        <ele>182.98</ele>
        <time>2021-09-18T13:35:04Z</time>
      </trkpt>
      <trkpt lat="45.58016" lon="4.77993">
        <ele>183.04</ele>
        <time>2021-09-18T13:35:07Z</time>
      </trkpt>
      <trkpt lat="45.58036" lon="4.77952">
        <ele>183.21</ele>
        <time>2021-09-18T13:35:13Z</time>
      </trkpt>
      <trkpt lat="45.58054" lon="4.77918">
        <ele>183.79</ele>
        <time>2021-09-18T13:35:19Z</time>
      </trkpt>
      <trkpt lat="45.58057" lon="4.77914">
        <ele>183.91</ele>
        <time>2021-09-18T13:35:20Z</time>
      </trkpt>
      <trkpt lat="45.58059" lon="4.77911">
        <ele>184.03</ele>
        <time>2021-09-18T13:35:21Z</time>
      </trkpt>
      <trkpt lat="45.58061" lon="4.77908">
        <ele>184.1</ele>
        <time>2021-09-18T13:35:22Z</time>
      </trkpt>
      <trkpt lat="45.58064" lon="4.77906">
        <ele>184.2</ele>
        <time>2021-09-18T13:35:23Z</time>
      </trkpt>
      <trkpt lat="45.58075" lon="4.7789">
        <ele>184.83</ele>
        <time>2021-09-18T13:35:29Z</time>
      </trkpt>
      <trkpt lat="45.58077" lon="4.77887">
        <ele>186.19</ele>
        <time>2021-09-18T13:35:34Z</time>
      </trkpt>
      <trkpt lat="45.5808" lon="4.77877">
        <ele>187.01</ele>
        <time>2021-09-18T13:35:43Z</time>
      </trkpt>
      <trkpt lat="45.58081" lon="4.77875">
        <ele>187.01</ele>
        <time>2021-09-18T13:35:44Z</time>
      </trkpt>
      <trkpt lat="45.58083" lon="4.77872">
        <ele>187.01</ele>
        <time>2021-09-18T13:35:45Z</time>
      </trkpt>
      <trkpt lat="45.58085" lon="4.77869">
        <ele>187.01</ele>
        <time>2021-09-18T13:35:46Z</time>
      </trkpt>
      <trkpt lat="45.58106" lon="4.77846">
        <ele>186.67</ele>
        <time>2021-09-18T13:35:54Z</time>
      </trkpt>
      <trkpt lat="45.58138" lon="4.77823">
        <ele>185.83</ele>
        <time>2021-09-18T13:36:02Z</time>
      </trkpt>
      <trkpt lat="45.58143" lon="4.7782">
        <ele>185.67</ele>
        <time>2021-09-18T13:36:03Z</time>
      </trkpt>
      <trkpt lat="45.58186" lon="4.77789">
        <ele>183.91</ele>
        <time>2021-09-18T13:36:11Z</time>
      </trkpt>
      <trkpt lat="45.58229" lon="4.77758">
        <ele>182.77</ele>
        <time>2021-09-18T13:36:19Z</time>
      </trkpt>
      <trkpt lat="45.58279" lon="4.77722">
        <ele>182.79</ele>
        <time>2021-09-18T13:36:28Z</time>
      </trkpt>
      <trkpt lat="45.58332" lon="4.77694">
        <ele>182.91</ele>
        <time>2021-09-18T13:36:37Z</time>
      </trkpt>
      <trkpt lat="45.58407" lon="4.77661">
        <ele>182.81</ele>
        <time>2021-09-18T13:36:50Z</time>
      </trkpt>
      <trkpt lat="45.58413" lon="4.77657">
        <ele>182.8</ele>
        <time>2021-09-18T13:36:51Z</time>
      </trkpt>
      <trkpt lat="45.58471" lon="4.77598">
        <ele>182.63</ele>
        <time>2021-09-18T13:37:03Z</time>
      </trkpt>
      <trkpt lat="45.58475" lon="4.77593">
        <ele>182.7</ele>
        <time>2021-09-18T13:37:04Z</time>
      </trkpt>
      <trkpt lat="45.58479" lon="4.77587">
        <ele>182.75</ele>
        <time>2021-09-18T13:37:05Z</time>
      </trkpt>
      <trkpt lat="45.58485" lon="4.77576">
        <ele>182.89</ele>
        <time>2021-09-18T13:37:07Z</time>
      </trkpt>
      <trkpt lat="45.5849" lon="4.77571">
        <ele>183.01</ele>
        <time>2021-09-18T13:37:08Z</time>
      </trkpt>
      <trkpt lat="45.58494" lon="4.77567">
        <ele>183.06</ele>
        <time>2021-09-18T13:37:09Z</time>
      </trkpt>
      <trkpt lat="45.58499" lon="4.77562">
        <ele>183.09</ele>
        <time>2021-09-18T13:37:10Z</time>
      </trkpt>
      <trkpt lat="45.58503" lon="4.77556">
        <ele>183.11</ele>
        <time>2021-09-18T13:37:11Z</time>
      </trkpt>
      <trkpt lat="45.58507" lon="4.7755">
        <ele>183.12</ele>
        <time>2021-09-18T13:37:12Z</time>
      </trkpt>
      <trkpt lat="45.58543" lon="4.77494">
        <ele>183.53</ele>
        <time>2021-09-18T13:37:21Z</time>
      </trkpt>
      <trkpt lat="45.58572" lon="4.7743">
        <ele>183.55</ele>
        <time>2021-09-18T13:37:30Z</time>
      </trkpt>
      <trkpt lat="45.58599" lon="4.77343">
        <ele>183.55</ele>
        <time>2021-09-18T13:37:41Z</time>
      </trkpt>
      <trkpt lat="45.58619" lon="4.77271">
        <ele>184.09</ele>
        <time>2021-09-18T13:37:50Z</time>
      </trkpt>
      <trkpt lat="45.5864" lon="4.772">
        <ele>184.92</ele>
        <time>2021-09-18T13:37:59Z</time>
      </trkpt>
      <trkpt lat="45.58643" lon="4.77193">
        <ele>184.94</ele>
        <time>2021-09-18T13:38:00Z</time>
      </trkpt>
      <trkpt lat="45.58646" lon="4.77187">
        <ele>184.96</ele>
        <time>2021-09-18T13:38:01Z</time>
      </trkpt>
      <trkpt lat="45.5865" lon="4.77181">
        <ele>184.98</ele>
        <time>2021-09-18T13:38:02Z</time>
      </trkpt>
      <trkpt lat="45.58659" lon="4.77169">
        <ele>184.99</ele>
        <time>2021-09-18T13:38:04Z</time>
      </trkpt>
      <trkpt lat="45.58663" lon="4.77163">
        <ele>184.99</ele>
        <time>2021-09-18T13:38:05Z</time>
      </trkpt>
      <trkpt lat="45.58671" lon="4.7715">
        <ele>184.96</ele>
        <time>2021-09-18T13:38:07Z</time>
      </trkpt>
      <trkpt lat="45.58676" lon="4.77146">
        <ele>184.99</ele>
        <time>2021-09-18T13:38:08Z</time>
      </trkpt>
      <trkpt lat="45.58682" lon="4.77142">
        <ele>185.01</ele>
        <time>2021-09-18T13:38:09Z</time>
      </trkpt>
      <trkpt lat="45.58719" lon="4.77128">
        <ele>185.29</ele>
        <time>2021-09-18T13:38:15Z</time>
      </trkpt>
      <trkpt lat="45.58774" lon="4.77117">
        <ele>185.43</ele>
        <time>2021-09-18T13:38:24Z</time>
      </trkpt>
      <trkpt lat="45.58844" lon="4.77105">
        <ele>185.08</ele>
        <time>2021-09-18T13:38:35Z</time>
      </trkpt>
      <trkpt lat="45.589" lon="4.77094">
        <ele>184.75</ele>
        <time>2021-09-18T13:38:44Z</time>
      </trkpt>
      <trkpt lat="45.58937" lon="4.77086">
        <ele>184.77</ele>
        <time>2021-09-18T13:38:51Z</time>
      </trkpt>
      <trkpt lat="45.59004" lon="4.77081">
        <ele>186.12</ele>
        <time>2021-09-18T13:39:03Z</time>
      </trkpt>
      <trkpt lat="45.59057" lon="4.77075">
        <ele>186.84</ele>
        <time>2021-09-18T13:39:13Z</time>
      </trkpt>
      <trkpt lat="45.59069" lon="4.77072">
        <ele>186.57</ele>
        <time>2021-09-18T13:39:18Z</time>
      </trkpt>
      <trkpt lat="45.59069" lon="4.77072">
        <ele>186.49</ele>
        <time>2021-09-18T13:39:21Z</time>
      </trkpt>
      <trkpt lat="45.59076" lon="4.77069">
        <ele>186.69</ele>
        <time>2021-09-18T13:39:38Z</time>
      </trkpt>
      <trkpt lat="45.59079" lon="4.77068">
        <ele>186.69</ele>
        <time>2021-09-18T13:39:39Z</time>
      </trkpt>
      <trkpt lat="45.59107" lon="4.77062">
        <ele>186.26</ele>
        <time>2021-09-18T13:39:46Z</time>
      </trkpt>
      <trkpt lat="45.59156" lon="4.77047">
        <ele>185.78</ele>
        <time>2021-09-18T13:39:56Z</time>
      </trkpt>
      <trkpt lat="45.59174" lon="4.77041">
        <ele>185.72</ele>
        <time>2021-09-18T13:40:00Z</time>
      </trkpt>
      <trkpt lat="45.59216" lon="4.77033">
        <ele>185.63</ele>
        <time>2021-09-18T13:40:09Z</time>
      </trkpt>
      <trkpt lat="45.59266" lon="4.77024">
        <ele>185.33</ele>
        <time>2021-09-18T13:40:19Z</time>
      </trkpt>
      <trkpt lat="45.59297" lon="4.7702">
        <ele>184.93</ele>
        <time>2021-09-18T13:40:25Z</time>
      </trkpt>
      <trkpt lat="45.59302" lon="4.77019">
        <ele>184.86</ele>
        <time>2021-09-18T13:40:26Z</time>
      </trkpt>
      <trkpt lat="45.59354" lon="4.77009">
        <ele>184.76</ele>
        <time>2021-09-18T13:40:36Z</time>
      </trkpt>
      <trkpt lat="45.59392" lon="4.77002">
        <ele>184.87</ele>
        <time>2021-09-18T13:40:44Z</time>
      </trkpt>
      <trkpt lat="45.59407" lon="4.76999">
        <ele>185.12</ele>
        <time>2021-09-18T13:40:50Z</time>
      </trkpt>
      <trkpt lat="45.59408" lon="4.76999">
        <ele>185.25</ele>
        <time>2021-09-18T13:40:52Z</time>
      </trkpt>
      <trkpt lat="45.59414" lon="4.76997">
        <ele>185.76</ele>
        <time>2021-09-18T13:41:06Z</time>
      </trkpt>
      <trkpt lat="45.59433" lon="4.76994">
        <ele>185.67</ele>
        <time>2021-09-18T13:41:12Z</time>
      </trkpt>
      <trkpt lat="45.59457" lon="4.76993">
        <ele>185.23</ele>
        <time>2021-09-18T13:41:17Z</time>
      </trkpt>
      <trkpt lat="45.59462" lon="4.76993">
        <ele>185.18</ele>
        <time>2021-09-18T13:41:18Z</time>
      </trkpt>
      <trkpt lat="45.59495" lon="4.76985">
        <ele>185.1</ele>
        <time>2021-09-18T13:41:25Z</time>
      </trkpt>
      <trkpt lat="45.59546" lon="4.76974">
        <ele>185.13</ele>
        <time>2021-09-18T13:41:35Z</time>
      </trkpt>
      <trkpt lat="45.59593" lon="4.76963">
        <ele>185.24</ele>
        <time>2021-09-18T13:41:44Z</time>
      </trkpt>
      <trkpt lat="45.59656" lon="4.76954">
        <ele>185.55</ele>
        <time>2021-09-18T13:41:56Z</time>
      </trkpt>
      <trkpt lat="45.59704" lon="4.76945">
        <ele>185.76</ele>
        <time>2021-09-18T13:42:05Z</time>
      </trkpt>
      <trkpt lat="45.5975" lon="4.76936">
        <ele>185.83</ele>
        <time>2021-09-18T13:42:14Z</time>
      </trkpt>
      <trkpt lat="45.5976" lon="4.76935">
        <ele>185.83</ele>
        <time>2021-09-18T13:42:16Z</time>
      </trkpt>
      <trkpt lat="45.59766" lon="4.76934">
        <ele>185.83</ele>
        <time>2021-09-18T13:42:17Z</time>
      </trkpt>
      <trkpt lat="45.59808" lon="4.76927">
        <ele>185.98</ele>
        <time>2021-09-18T13:42:25Z</time>
      </trkpt>
      <trkpt lat="45.59844" lon="4.7692">
        <ele>186.08</ele>
        <time>2021-09-18T13:42:33Z</time>
      </trkpt>
      <trkpt lat="45.59861" lon="4.76916">
        <ele>186.24</ele>
        <time>2021-09-18T13:42:39Z</time>
      </trkpt>
      <trkpt lat="45.59879" lon="4.76914">
        <ele>186.72</ele>
        <time>2021-09-18T13:42:46Z</time>
      </trkpt>
      <trkpt lat="45.59908" lon="4.76918">
        <ele>186.8</ele>
        <time>2021-09-18T13:42:53Z</time>
      </trkpt>
      <trkpt lat="45.59952" lon="4.7694">
        <ele>186.64</ele>
        <time>2021-09-18T13:43:02Z</time>
      </trkpt>
      <trkpt lat="45.60004" lon="4.76962">
        <ele>186.38</ele>
        <time>2021-09-18T13:43:12Z</time>
      </trkpt>
      <trkpt lat="45.60053" lon="4.76981">
        <ele>186.23</ele>
        <time>2021-09-18T13:43:22Z</time>
      </trkpt>
      <trkpt lat="45.60106" lon="4.77003">
        <ele>186.05</ele>
        <time>2021-09-18T13:43:32Z</time>
      </trkpt>
      <trkpt lat="45.60159" lon="4.77029">
        <ele>186.49</ele>
        <time>2021-09-18T13:43:43Z</time>
      </trkpt>
      <trkpt lat="45.60171" lon="4.77035">
        <ele>186.77</ele>
        <time>2021-09-18T13:43:48Z</time>
      </trkpt>
      <trkpt lat="45.60172" lon="4.77035">
        <ele>187.63</ele>
        <time>2021-09-18T13:43:53Z</time>
      </trkpt>
      <trkpt lat="45.6018" lon="4.77039">
        <ele>188.26</ele>
        <time>2021-09-18T13:44:14Z</time>
      </trkpt>
      <trkpt lat="45.60202" lon="4.77051">
        <ele>188.2</ele>
        <time>2021-09-18T13:44:21Z</time>
      </trkpt>
      <trkpt lat="45.60245" lon="4.77067">
        <ele>188</ele>
        <time>2021-09-18T13:44:31Z</time>
      </trkpt>
      <trkpt lat="45.60303" lon="4.77085">
        <ele>188.25</ele>
        <time>2021-09-18T13:44:42Z</time>
      </trkpt>
      <trkpt lat="45.60366" lon="4.77111">
        <ele>188.93</ele>
        <time>2021-09-18T13:44:53Z</time>
      </trkpt>
      <trkpt lat="45.60433" lon="4.77138">
        <ele>188.75</ele>
        <time>2021-09-18T13:45:04Z</time>
      </trkpt>
      <trkpt lat="45.60507" lon="4.77167">
        <ele>188.33</ele>
        <time>2021-09-18T13:45:16Z</time>
      </trkpt>
      <trkpt lat="45.60547" lon="4.77188">
        <ele>188.21</ele>
        <time>2021-09-18T13:45:23Z</time>
      </trkpt>
      <trkpt lat="45.6059" lon="4.77206">
        <ele>188.31</ele>
        <time>2021-09-18T13:45:31Z</time>
      </trkpt>
      <trkpt lat="45.60634" lon="4.77225">
        <ele>188.53</ele>
        <time>2021-09-18T13:45:40Z</time>
      </trkpt>
      <trkpt lat="45.60655" lon="4.77235">
        <ele>188.71</ele>
        <time>2021-09-18T13:45:47Z</time>
      </trkpt>
      <trkpt lat="45.60672" lon="4.77243">
        <ele>189.63</ele>
        <time>2021-09-18T13:45:54Z</time>
      </trkpt>
      <trkpt lat="45.60689" lon="4.77252">
        <ele>190.07</ele>
        <time>2021-09-18T13:46:00Z</time>
      </trkpt>
      <trkpt lat="45.60717" lon="4.77263">
        <ele>190.29</ele>
        <time>2021-09-18T13:46:07Z</time>
      </trkpt>
      <trkpt lat="45.60726" lon="4.77266">
        <ele>190.31</ele>
        <time>2021-09-18T13:46:09Z</time>
      </trkpt>
      <trkpt lat="45.60772" lon="4.77267">
        <ele>190.58</ele>
        <time>2021-09-18T13:46:18Z</time>
      </trkpt>
      <trkpt lat="45.60819" lon="4.77254">
        <ele>190.82</ele>
        <time>2021-09-18T13:46:27Z</time>
      </trkpt>
      <trkpt lat="45.60866" lon="4.77232">
        <ele>190.82</ele>
        <time>2021-09-18T13:46:36Z</time>
      </trkpt>
      <trkpt lat="45.60903" lon="4.77212">
        <ele>190.89</ele>
        <time>2021-09-18T13:46:43Z</time>
      </trkpt>
      <trkpt lat="45.6097" lon="4.77181">
        <ele>190.6</ele>
        <time>2021-09-18T13:46:55Z</time>
      </trkpt>
      <trkpt lat="45.61025" lon="4.77153">
        <ele>190.5</ele>
        <time>2021-09-18T13:47:05Z</time>
      </trkpt>
      <trkpt lat="45.61077" lon="4.77128">
        <ele>190.61</ele>
        <time>2021-09-18T13:47:14Z</time>
      </trkpt>
      <trkpt lat="45.61133" lon="4.77102">
        <ele>191.27</ele>
        <time>2021-09-18T13:47:24Z</time>
      </trkpt>
      <trkpt lat="45.61168" lon="4.77088">
        <ele>191.48</ele>
        <time>2021-09-18T13:47:32Z</time>
      </trkpt>
      <trkpt lat="45.61208" lon="4.77068">
        <ele>191.77</ele>
        <time>2021-09-18T13:47:41Z</time>
      </trkpt>
      <trkpt lat="45.61249" lon="4.77047">
        <ele>191.96</ele>
        <time>2021-09-18T13:47:50Z</time>
      </trkpt>
      <trkpt lat="45.61258" lon="4.77043">
        <ele>192.03</ele>
        <time>2021-09-18T13:47:52Z</time>
      </trkpt>
      <trkpt lat="45.61292" lon="4.77025">
        <ele>192.24</ele>
        <time>2021-09-18T13:48:00Z</time>
      </trkpt>
      <trkpt lat="45.61306" lon="4.77018">
        <ele>192.28</ele>
        <time>2021-09-18T13:48:03Z</time>
      </trkpt>
      <trkpt lat="45.61311" lon="4.77015">
        <ele>192.32</ele>
        <time>2021-09-18T13:48:04Z</time>
      </trkpt>
      <trkpt lat="45.61315" lon="4.77012">
        <ele>192.38</ele>
        <time>2021-09-18T13:48:05Z</time>
      </trkpt>
      <trkpt lat="45.6132" lon="4.77009">
        <ele>192.4</ele>
        <time>2021-09-18T13:48:06Z</time>
      </trkpt>
      <trkpt lat="45.61324" lon="4.77006">
        <ele>192.43</ele>
        <time>2021-09-18T13:48:07Z</time>
      </trkpt>
      <trkpt lat="45.61329" lon="4.77003">
        <ele>192.48</ele>
        <time>2021-09-18T13:48:08Z</time>
      </trkpt>
      <trkpt lat="45.61334" lon="4.77001">
        <ele>192.54</ele>
        <time>2021-09-18T13:48:09Z</time>
      </trkpt>
      <trkpt lat="45.61374" lon="4.76981">
        <ele>192.81</ele>
        <time>2021-09-18T13:48:17Z</time>
      </trkpt>
      <trkpt lat="45.61381" lon="4.76978">
        <ele>192.95</ele>
        <time>2021-09-18T13:48:18Z</time>
      </trkpt>
      <trkpt lat="45.61386" lon="4.76974">
        <ele>193.02</ele>
        <time>2021-09-18T13:48:19Z</time>
      </trkpt>
      <trkpt lat="45.61407" lon="4.76964">
        <ele>193.16</ele>
        <time>2021-09-18T13:48:23Z</time>
      </trkpt>
      <trkpt lat="45.61412" lon="4.76961">
        <ele>193.2</ele>
        <time>2021-09-18T13:48:24Z</time>
      </trkpt>
      <trkpt lat="45.6146" lon="4.76937">
        <ele>193.35</ele>
        <time>2021-09-18T13:48:33Z</time>
      </trkpt>
      <trkpt lat="45.61533" lon="4.76901">
        <ele>193.91</ele>
        <time>2021-09-18T13:48:47Z</time>
      </trkpt>
      <trkpt lat="45.61608" lon="4.76865">
        <ele>194.33</ele>
        <time>2021-09-18T13:49:01Z</time>
      </trkpt>
      <trkpt lat="45.61649" lon="4.76846">
        <ele>194.32</ele>
        <time>2021-09-18T13:49:09Z</time>
      </trkpt>
      <trkpt lat="45.61676" lon="4.76838">
        <ele>194.32</ele>
        <time>2021-09-18T13:49:14Z</time>
      </trkpt>
      <trkpt lat="45.61681" lon="4.76839">
        <ele>194.32</ele>
        <time>2021-09-18T13:49:15Z</time>
      </trkpt>
      <trkpt lat="45.61686" lon="4.7684">
        <ele>194.44</ele>
        <time>2021-09-18T13:49:16Z</time>
      </trkpt>
      <trkpt lat="45.61691" lon="4.76844">
        <ele>194.49</ele>
        <time>2021-09-18T13:49:17Z</time>
      </trkpt>
      <trkpt lat="45.61696" lon="4.76848">
        <ele>194.52</ele>
        <time>2021-09-18T13:49:18Z</time>
      </trkpt>
      <trkpt lat="45.617" lon="4.76853">
        <ele>194.58</ele>
        <time>2021-09-18T13:49:19Z</time>
      </trkpt>
      <trkpt lat="45.61705" lon="4.76856">
        <ele>194.65</ele>
        <time>2021-09-18T13:49:20Z</time>
      </trkpt>
      <trkpt lat="45.6171" lon="4.76857">
        <ele>194.69</ele>
        <time>2021-09-18T13:49:21Z</time>
      </trkpt>
      <trkpt lat="45.61716" lon="4.76856">
        <ele>194.71</ele>
        <time>2021-09-18T13:49:22Z</time>
      </trkpt>
      <trkpt lat="45.61721" lon="4.76854">
        <ele>194.72</ele>
        <time>2021-09-18T13:49:23Z</time>
      </trkpt>
      <trkpt lat="45.61726" lon="4.7685">
        <ele>194.73</ele>
        <time>2021-09-18T13:49:24Z</time>
      </trkpt>
      <trkpt lat="45.61731" lon="4.76846">
        <ele>194.8</ele>
        <time>2021-09-18T13:49:25Z</time>
      </trkpt>
      <trkpt lat="45.61736" lon="4.76843">
        <ele>194.82</ele>
        <time>2021-09-18T13:49:26Z</time>
      </trkpt>
      <trkpt lat="45.61741" lon="4.7684">
        <ele>194.87</ele>
        <time>2021-09-18T13:49:27Z</time>
      </trkpt>
      <trkpt lat="45.61752" lon="4.76835">
        <ele>194.96</ele>
        <time>2021-09-18T13:49:29Z</time>
      </trkpt>
      <trkpt lat="45.61756" lon="4.76832">
        <ele>194.98</ele>
        <time>2021-09-18T13:49:30Z</time>
      </trkpt>
      <trkpt lat="45.61761" lon="4.76827">
        <ele>194.97</ele>
        <time>2021-09-18T13:49:31Z</time>
      </trkpt>
      <trkpt lat="45.61764" lon="4.76821">
        <ele>194.96</ele>
        <time>2021-09-18T13:49:32Z</time>
      </trkpt>
      <trkpt lat="45.61768" lon="4.76816">
        <ele>194.98</ele>
        <time>2021-09-18T13:49:33Z</time>
      </trkpt>
      <trkpt lat="45.61775" lon="4.76804">
        <ele>195.08</ele>
        <time>2021-09-18T13:49:35Z</time>
      </trkpt>
      <trkpt lat="45.61786" lon="4.76789">
        <ele>195.24</ele>
        <time>2021-09-18T13:49:38Z</time>
      </trkpt>
      <trkpt lat="45.61791" lon="4.76785">
        <ele>195.26</ele>
        <time>2021-09-18T13:49:39Z</time>
      </trkpt>
      <trkpt lat="45.61809" lon="4.7677">
        <ele>195.28</ele>
        <time>2021-09-18T13:49:43Z</time>
      </trkpt>
      <trkpt lat="45.61849" lon="4.76748">
        <ele>195.6</ele>
        <time>2021-09-18T13:49:51Z</time>
      </trkpt>
      <trkpt lat="45.61859" lon="4.76743">
        <ele>195.79</ele>
        <time>2021-09-18T13:49:53Z</time>
      </trkpt>
      <trkpt lat="45.61915" lon="4.76714">
        <ele>196.7</ele>
        <time>2021-09-18T13:50:04Z</time>
      </trkpt>
      <trkpt lat="45.61963" lon="4.76691">
        <ele>197.13</ele>
        <time>2021-09-18T13:50:14Z</time>
      </trkpt>
      <trkpt lat="45.62003" lon="4.7667">
        <ele>197.43</ele>
        <time>2021-09-18T13:50:22Z</time>
      </trkpt>
      <trkpt lat="45.62008" lon="4.76668">
        <ele>197.45</ele>
        <time>2021-09-18T13:50:23Z</time>
      </trkpt>
      <trkpt lat="45.62013" lon="4.76665">
        <ele>197.47</ele>
        <time>2021-09-18T13:50:24Z</time>
      </trkpt>
      <trkpt lat="45.62066" lon="4.76635">
        <ele>197.87</ele>
        <time>2021-09-18T13:50:35Z</time>
      </trkpt>
      <trkpt lat="45.62109" lon="4.76607">
        <ele>198.17</ele>
        <time>2021-09-18T13:50:44Z</time>
      </trkpt>
      <trkpt lat="45.62132" lon="4.7659">
        <ele>198.77</ele>
        <time>2021-09-18T13:50:49Z</time>
      </trkpt>
      <trkpt lat="45.6218" lon="4.76547">
        <ele>199.57</ele>
        <time>2021-09-18T13:51:00Z</time>
      </trkpt>
      <trkpt lat="45.62185" lon="4.76543">
        <ele>199.62</ele>
        <time>2021-09-18T13:51:01Z</time>
      </trkpt>
      <trkpt lat="45.62223" lon="4.76503">
        <ele>199.73</ele>
        <time>2021-09-18T13:51:10Z</time>
      </trkpt>
      <trkpt lat="45.62261" lon="4.76462">
        <ele>199.92</ele>
        <time>2021-09-18T13:51:19Z</time>
      </trkpt>
      <trkpt lat="45.6229" lon="4.76431">
        <ele>200.2</ele>
        <time>2021-09-18T13:51:26Z</time>
      </trkpt>
      <trkpt lat="45.62325" lon="4.76392">
        <ele>200.83</ele>
        <time>2021-09-18T13:51:35Z</time>
      </trkpt>
      <trkpt lat="45.62356" lon="4.76359">
        <ele>201.2</ele>
        <time>2021-09-18T13:51:42Z</time>
      </trkpt>
      <trkpt lat="45.6236" lon="4.76355">
        <ele>201.21</ele>
        <time>2021-09-18T13:51:43Z</time>
      </trkpt>
      <trkpt lat="45.62392" lon="4.76319">
        <ele>201.22</ele>
        <time>2021-09-18T13:51:52Z</time>
      </trkpt>
      <trkpt lat="45.62415" lon="4.76296">
        <ele>201.23</ele>
        <time>2021-09-18T13:51:58Z</time>
      </trkpt>
      <trkpt lat="45.62422" lon="4.76287">
        <ele>201.23</ele>
        <time>2021-09-18T13:52:00Z</time>
      </trkpt>
      <trkpt lat="45.62426" lon="4.76283">
        <ele>201.23</ele>
        <time>2021-09-18T13:52:01Z</time>
      </trkpt>
      <trkpt lat="45.62434" lon="4.76274">
        <ele>201.18</ele>
        <time>2021-09-18T13:52:03Z</time>
      </trkpt>
      <trkpt lat="45.62438" lon="4.7627">
        <ele>201.18</ele>
        <time>2021-09-18T13:52:04Z</time>
      </trkpt>
      <trkpt lat="45.62458" lon="4.76247">
        <ele>201.02</ele>
        <time>2021-09-18T13:52:09Z</time>
      </trkpt>
      <trkpt lat="45.62467" lon="4.76239">
        <ele>200.98</ele>
        <time>2021-09-18T13:52:11Z</time>
      </trkpt>
      <trkpt lat="45.62471" lon="4.76234">
        <ele>200.96</ele>
        <time>2021-09-18T13:52:12Z</time>
      </trkpt>
      <trkpt lat="45.62475" lon="4.7623">
        <ele>200.95</ele>
        <time>2021-09-18T13:52:13Z</time>
      </trkpt>
      <trkpt lat="45.62518" lon="4.76187">
        <ele>200.74</ele>
        <time>2021-09-18T13:52:23Z</time>
      </trkpt>
      <trkpt lat="45.62563" lon="4.7615">
        <ele>201.19</ele>
        <time>2021-09-18T13:52:33Z</time>
      </trkpt>
      <trkpt lat="45.62587" lon="4.7613">
        <ele>201.46</ele>
        <time>2021-09-18T13:52:39Z</time>
      </trkpt>
      <trkpt lat="45.62605" lon="4.76117">
        <ele>201.98</ele>
        <time>2021-09-18T13:52:44Z</time>
      </trkpt>
      <trkpt lat="45.62642" lon="4.76085">
        <ele>202.83</ele>
        <time>2021-09-18T13:52:53Z</time>
      </trkpt>
      <trkpt lat="45.62689" lon="4.76047">
        <ele>203.04</ele>
        <time>2021-09-18T13:53:03Z</time>
      </trkpt>
      <trkpt lat="45.62716" lon="4.76024">
        <ele>203.29</ele>
        <time>2021-09-18T13:53:09Z</time>
      </trkpt>
      <trkpt lat="45.6272" lon="4.7602">
        <ele>203.37</ele>
        <time>2021-09-18T13:53:10Z</time>
      </trkpt>
      <trkpt lat="45.62725" lon="4.76017">
        <ele>203.42</ele>
        <time>2021-09-18T13:53:11Z</time>
      </trkpt>
      <trkpt lat="45.62729" lon="4.76013">
        <ele>203.47</ele>
        <time>2021-09-18T13:53:12Z</time>
      </trkpt>
      <trkpt lat="45.62734" lon="4.76009">
        <ele>203.5</ele>
        <time>2021-09-18T13:53:13Z</time>
      </trkpt>
      <trkpt lat="45.62788" lon="4.75966">
        <ele>203.73</ele>
        <time>2021-09-18T13:53:24Z</time>
      </trkpt>
      <trkpt lat="45.62837" lon="4.75925">
        <ele>203.73</ele>
        <time>2021-09-18T13:53:34Z</time>
      </trkpt>
      <trkpt lat="45.62865" lon="4.75902">
        <ele>204.25</ele>
        <time>2021-09-18T13:53:41Z</time>
      </trkpt>
      <trkpt lat="45.62885" lon="4.75885">
        <ele>205.21</ele>
        <time>2021-09-18T13:53:47Z</time>
      </trkpt>
      <trkpt lat="45.62927" lon="4.7585">
        <ele>205.96</ele>
        <time>2021-09-18T13:53:58Z</time>
      </trkpt>
      <trkpt lat="45.62965" lon="4.75819">
        <ele>206.26</ele>
        <time>2021-09-18T13:54:08Z</time>
      </trkpt>
      <trkpt lat="45.63003" lon="4.75792">
        <ele>206.73</ele>
        <time>2021-09-18T13:54:17Z</time>
      </trkpt>
      <trkpt lat="45.63043" lon="4.75769">
        <ele>206.84</ele>
        <time>2021-09-18T13:54:26Z</time>
      </trkpt>
      <trkpt lat="45.63047" lon="4.75767">
        <ele>206.85</ele>
        <time>2021-09-18T13:54:27Z</time>
      </trkpt>
      <trkpt lat="45.63083" lon="4.7575">
        <ele>207.14</ele>
        <time>2021-09-18T13:54:35Z</time>
      </trkpt>
      <trkpt lat="45.63088" lon="4.75748">
        <ele>207.23</ele>
        <time>2021-09-18T13:54:36Z</time>
      </trkpt>
      <trkpt lat="45.63092" lon="4.75747">
        <ele>207.44</ele>
        <time>2021-09-18T13:54:37Z</time>
      </trkpt>
      <trkpt lat="45.63124" lon="4.75729">
        <ele>207.74</ele>
        <time>2021-09-18T13:54:45Z</time>
      </trkpt>
      <trkpt lat="45.63147" lon="4.75718">
        <ele>207.93</ele>
        <time>2021-09-18T13:54:52Z</time>
      </trkpt>
      <trkpt lat="45.63169" lon="4.75707">
        <ele>208.52</ele>
        <time>2021-09-18T13:54:59Z</time>
      </trkpt>
      <trkpt lat="45.63209" lon="4.75688">
        <ele>208.96</ele>
        <time>2021-09-18T13:55:08Z</time>
      </trkpt>
      <trkpt lat="45.63263" lon="4.75663">
        <ele>209.57</ele>
        <time>2021-09-18T13:55:19Z</time>
      </trkpt>
      <trkpt lat="45.633" lon="4.75646">
        <ele>210.11</ele>
        <time>2021-09-18T13:55:28Z</time>
      </trkpt>
      <trkpt lat="45.63304" lon="4.75644">
        <ele>210.19</ele>
        <time>2021-09-18T13:55:29Z</time>
      </trkpt>
      <trkpt lat="45.63346" lon="4.75625">
        <ele>210.73</ele>
        <time>2021-09-18T13:55:39Z</time>
      </trkpt>
      <trkpt lat="45.63383" lon="4.75611">
        <ele>210.81</ele>
        <time>2021-09-18T13:55:48Z</time>
      </trkpt>
      <trkpt lat="45.63423" lon="4.75595">
        <ele>210.66</ele>
        <time>2021-09-18T13:55:56Z</time>
      </trkpt>
      <trkpt lat="45.63471" lon="4.75588">
        <ele>210.49</ele>
        <time>2021-09-18T13:56:05Z</time>
      </trkpt>
      <trkpt lat="45.63517" lon="4.75593">
        <ele>210.81</ele>
        <time>2021-09-18T13:56:14Z</time>
      </trkpt>
      <trkpt lat="45.63553" lon="4.75602">
        <ele>211.12</ele>
        <time>2021-09-18T13:56:22Z</time>
      </trkpt>
      <trkpt lat="45.63594" lon="4.75613">
        <ele>211.48</ele>
        <time>2021-09-18T13:56:31Z</time>
      </trkpt>
      <trkpt lat="45.63624" lon="4.75621">
        <ele>211.86</ele>
        <time>2021-09-18T13:56:39Z</time>
      </trkpt>
      <trkpt lat="45.63663" lon="4.75627">
        <ele>212.14</ele>
        <time>2021-09-18T13:56:47Z</time>
      </trkpt>
      <trkpt lat="45.63703" lon="4.75629">
        <ele>212.17</ele>
        <time>2021-09-18T13:56:55Z</time>
      </trkpt>
      <trkpt lat="45.63758" lon="4.75632">
        <ele>212.17</ele>
        <time>2021-09-18T13:57:05Z</time>
      </trkpt>
      <trkpt lat="45.63804" lon="4.75634">
        <ele>212.5</ele>
        <time>2021-09-18T13:57:14Z</time>
      </trkpt>
      <trkpt lat="45.63857" lon="4.75635">
        <ele>213.99</ele>
        <time>2021-09-18T13:57:25Z</time>
      </trkpt>
      <trkpt lat="45.63901" lon="4.75633">
        <ele>214.86</ele>
        <time>2021-09-18T13:57:35Z</time>
      </trkpt>
      <trkpt lat="45.63945" lon="4.75621">
        <ele>216.07</ele>
        <time>2021-09-18T13:57:45Z</time>
      </trkpt>
      <trkpt lat="45.63979" lon="4.75601">
        <ele>217.3</ele>
        <time>2021-09-18T13:57:54Z</time>
      </trkpt>
      <trkpt lat="45.63998" lon="4.75587">
        <ele>217.5</ele>
        <time>2021-09-18T13:57:59Z</time>
      </trkpt>
      <trkpt lat="45.64002" lon="4.75585">
        <ele>217.52</ele>
        <time>2021-09-18T13:58:00Z</time>
      </trkpt>
      <trkpt lat="45.64006" lon="4.75585">
        <ele>217.54</ele>
        <time>2021-09-18T13:58:01Z</time>
      </trkpt>
      <trkpt lat="45.6401" lon="4.75585">
        <ele>217.56</ele>
        <time>2021-09-18T13:58:02Z</time>
      </trkpt>
      <trkpt lat="45.64014" lon="4.75585">
        <ele>217.59</ele>
        <time>2021-09-18T13:58:03Z</time>
      </trkpt>
      <trkpt lat="45.64017" lon="4.75584">
        <ele>217.67</ele>
        <time>2021-09-18T13:58:04Z</time>
      </trkpt>
      <trkpt lat="45.6402" lon="4.75582">
        <ele>217.75</ele>
        <time>2021-09-18T13:58:05Z</time>
      </trkpt>
      <trkpt lat="45.64023" lon="4.75579">
        <ele>217.8</ele>
        <time>2021-09-18T13:58:06Z</time>
      </trkpt>
      <trkpt lat="45.64026" lon="4.75575">
        <ele>217.82</ele>
        <time>2021-09-18T13:58:07Z</time>
      </trkpt>
      <trkpt lat="45.64027" lon="4.7557">
        <ele>217.85</ele>
        <time>2021-09-18T13:58:08Z</time>
      </trkpt>
      <trkpt lat="45.64028" lon="4.75563">
        <ele>217.86</ele>
        <time>2021-09-18T13:58:09Z</time>
      </trkpt>
      <trkpt lat="45.64028" lon="4.75557">
        <ele>217.87</ele>
        <time>2021-09-18T13:58:10Z</time>
      </trkpt>
      <trkpt lat="45.64029" lon="4.75551">
        <ele>217.87</ele>
        <time>2021-09-18T13:58:11Z</time>
      </trkpt>
      <trkpt lat="45.6403" lon="4.75538">
        <ele>217.8</ele>
        <time>2021-09-18T13:58:13Z</time>
      </trkpt>
      <trkpt lat="45.64033" lon="4.75531">
        <ele>217.77</ele>
        <time>2021-09-18T13:58:14Z</time>
      </trkpt>
      <trkpt lat="45.64036" lon="4.75526">
        <ele>217.75</ele>
        <time>2021-09-18T13:58:15Z</time>
      </trkpt>
      <trkpt lat="45.64066" lon="4.75485">
        <ele>217.63</ele>
        <time>2021-09-18T13:58:24Z</time>
      </trkpt>
      <trkpt lat="45.64105" lon="4.75437">
        <ele>217.63</ele>
        <time>2021-09-18T13:58:35Z</time>
      </trkpt>
      <trkpt lat="45.64111" lon="4.75429">
        <ele>217.64</ele>
        <time>2021-09-18T13:58:37Z</time>
      </trkpt>
      <trkpt lat="45.64144" lon="4.75385">
        <ele>217.63</ele>
        <time>2021-09-18T13:58:48Z</time>
      </trkpt>
      <trkpt lat="45.64171" lon="4.75352">
        <ele>218.02</ele>
        <time>2021-09-18T13:58:57Z</time>
      </trkpt>
      <trkpt lat="45.64199" lon="4.75317">
        <ele>218.52</ele>
        <time>2021-09-18T13:59:06Z</time>
      </trkpt>
      <trkpt lat="45.64232" lon="4.75281">
        <ele>219.53</ele>
        <time>2021-09-18T13:59:16Z</time>
      </trkpt>
      <trkpt lat="45.64265" lon="4.75253">
        <ele>220.26</ele>
        <time>2021-09-18T13:59:25Z</time>
      </trkpt>
      <trkpt lat="45.64308" lon="4.75225">
        <ele>220.2</ele>
        <time>2021-09-18T13:59:36Z</time>
      </trkpt>
      <trkpt lat="45.64312" lon="4.75223">
        <ele>220.2</ele>
        <time>2021-09-18T13:59:37Z</time>
      </trkpt>
      <trkpt lat="45.64357" lon="4.75204">
        <ele>221.09</ele>
        <time>2021-09-18T13:59:48Z</time>
      </trkpt>
      <trkpt lat="45.64402" lon="4.75193">
        <ele>222.85</ele>
        <time>2021-09-18T13:59:59Z</time>
      </trkpt>
      <trkpt lat="45.64449" lon="4.75185">
        <ele>224.16</ele>
        <time>2021-09-18T14:00:10Z</time>
      </trkpt>
      <trkpt lat="45.64492" lon="4.7518">
        <ele>225.36</ele>
        <time>2021-09-18T14:00:20Z</time>
      </trkpt>
      <trkpt lat="45.6454" lon="4.75177">
        <ele>226.45</ele>
        <time>2021-09-18T14:00:31Z</time>
      </trkpt>
      <trkpt lat="45.64584" lon="4.75173">
        <ele>227.9</ele>
        <time>2021-09-18T14:00:41Z</time>
      </trkpt>
      <trkpt lat="45.64638" lon="4.75169">
        <ele>229.28</ele>
        <time>2021-09-18T14:00:53Z</time>
      </trkpt>
      <trkpt lat="45.64682" lon="4.75166">
        <ele>230.72</ele>
        <time>2021-09-18T14:01:03Z</time>
      </trkpt>
      <trkpt lat="45.64711" lon="4.75163">
        <ele>230.93</ele>
        <time>2021-09-18T14:01:10Z</time>
      </trkpt>
      <trkpt lat="45.64757" lon="4.75159">
        <ele>231</ele>
        <time>2021-09-18T14:01:21Z</time>
      </trkpt>
      <trkpt lat="45.648" lon="4.75155">
        <ele>230.92</ele>
        <time>2021-09-18T14:01:31Z</time>
      </trkpt>
      <trkpt lat="45.64857" lon="4.7515">
        <ele>230.61</ele>
        <time>2021-09-18T14:01:42Z</time>
      </trkpt>
      <trkpt lat="45.64878" lon="4.75148">
        <ele>230.61</ele>
        <time>2021-09-18T14:01:46Z</time>
      </trkpt>
      <trkpt lat="45.64883" lon="4.75148">
        <ele>230.61</ele>
        <time>2021-09-18T14:01:47Z</time>
      </trkpt>
      <trkpt lat="45.64924" lon="4.75145">
        <ele>230.88</ele>
        <time>2021-09-18T14:01:57Z</time>
      </trkpt>
      <trkpt lat="45.64968" lon="4.75141">
        <ele>230.97</ele>
        <time>2021-09-18T14:02:06Z</time>
      </trkpt>
      <trkpt lat="45.6503" lon="4.75136">
        <ele>231.03</ele>
        <time>2021-09-18T14:02:18Z</time>
      </trkpt>
      <trkpt lat="45.65077" lon="4.75132">
        <ele>231.45</ele>
        <time>2021-09-18T14:02:27Z</time>
      </trkpt>
      <trkpt lat="45.65114" lon="4.75128">
        <ele>231.71</ele>
        <time>2021-09-18T14:02:35Z</time>
      </trkpt>
      <trkpt lat="45.65119" lon="4.75127">
        <ele>231.77</ele>
        <time>2021-09-18T14:02:36Z</time>
      </trkpt>
      <trkpt lat="45.65149" lon="4.75122">
        <ele>231.85</ele>
        <time>2021-09-18T14:02:42Z</time>
      </trkpt>
      <trkpt lat="45.6519" lon="4.75118">
        <ele>232.22</ele>
        <time>2021-09-18T14:02:51Z</time>
      </trkpt>
      <trkpt lat="45.65204" lon="4.75118">
        <ele>232.28</ele>
        <time>2021-09-18T14:02:54Z</time>
      </trkpt>
      <trkpt lat="45.65242" lon="4.75117">
        <ele>232.81</ele>
        <time>2021-09-18T14:03:03Z</time>
      </trkpt>
      <trkpt lat="45.65261" lon="4.75115">
        <ele>232.84</ele>
        <time>2021-09-18T14:03:08Z</time>
      </trkpt>
      <trkpt lat="45.65266" lon="4.75117">
        <ele>232.84</ele>
        <time>2021-09-18T14:03:09Z</time>
      </trkpt>
      <trkpt lat="45.65269" lon="4.75121">
        <ele>232.84</ele>
        <time>2021-09-18T14:03:10Z</time>
      </trkpt>
      <trkpt lat="45.65272" lon="4.75126">
        <ele>232.61</ele>
        <time>2021-09-18T14:03:11Z</time>
      </trkpt>
      <trkpt lat="45.65272" lon="4.75132">
        <ele>232.49</ele>
        <time>2021-09-18T14:03:12Z</time>
      </trkpt>
      <trkpt lat="45.65272" lon="4.75139">
        <ele>232.43</ele>
        <time>2021-09-18T14:03:13Z</time>
      </trkpt>
      <trkpt lat="45.65272" lon="4.75145">
        <ele>232.4</ele>
        <time>2021-09-18T14:03:14Z</time>
      </trkpt>
      <trkpt lat="45.65264" lon="4.75193">
        <ele>232.46</ele>
        <time>2021-09-18T14:03:22Z</time>
      </trkpt>
      <trkpt lat="45.65257" lon="4.75257">
        <ele>232.18</ele>
        <time>2021-09-18T14:03:32Z</time>
      </trkpt>
      <trkpt lat="45.65253" lon="4.7528">
        <ele>231.97</ele>
        <time>2021-09-18T14:03:36Z</time>
      </trkpt>
      <trkpt lat="45.65252" lon="4.75287">
        <ele>231.96</ele>
        <time>2021-09-18T14:03:37Z</time>
      </trkpt>
      <trkpt lat="45.65236" lon="4.75348">
        <ele>231.58</ele>
        <time>2021-09-18T14:03:46Z</time>
      </trkpt>
      <trkpt lat="45.65215" lon="4.7543">
        <ele>231.09</ele>
        <time>2021-09-18T14:03:57Z</time>
      </trkpt>
      <trkpt lat="45.65203" lon="4.75499">
        <ele>231.03</ele>
        <time>2021-09-18T14:04:06Z</time>
      </trkpt>
      <trkpt lat="45.65193" lon="4.75574">
        <ele>230.77</ele>
        <time>2021-09-18T14:04:16Z</time>
      </trkpt>
      <trkpt lat="45.65188" lon="4.75637">
        <ele>230.65</ele>
        <time>2021-09-18T14:04:26Z</time>
      </trkpt>
      <trkpt lat="45.65187" lon="4.75684">
        <ele>230.64</ele>
        <time>2021-09-18T14:04:34Z</time>
      </trkpt>
      <trkpt lat="45.65186" lon="4.75765">
        <ele>230.16</ele>
        <time>2021-09-18T14:04:45Z</time>
      </trkpt>
      <trkpt lat="45.65186" lon="4.75856">
        <ele>229.99</ele>
        <time>2021-09-18T14:04:57Z</time>
      </trkpt>
      <trkpt lat="45.65186" lon="4.75864">
        <ele>229.99</ele>
        <time>2021-09-18T14:04:58Z</time>
      </trkpt>
      <trkpt lat="45.65183" lon="4.75934">
        <ele>230.28</ele>
        <time>2021-09-18T14:05:08Z</time>
      </trkpt>
      <trkpt lat="45.65181" lon="4.75973">
        <ele>230.89</ele>
        <time>2021-09-18T14:05:14Z</time>
      </trkpt>
      <trkpt lat="45.65181" lon="4.75979">
        <ele>230.98</ele>
        <time>2021-09-18T14:05:15Z</time>
      </trkpt>
      <trkpt lat="45.65179" lon="4.75999">
        <ele>231.19</ele>
        <time>2021-09-18T14:05:18Z</time>
      </trkpt>
      <trkpt lat="45.65179" lon="4.76006">
        <ele>231.41</ele>
        <time>2021-09-18T14:05:19Z</time>
      </trkpt>
      <trkpt lat="45.65165" lon="4.76075">
        <ele>232.12</ele>
        <time>2021-09-18T14:05:29Z</time>
      </trkpt>
      <trkpt lat="45.65152" lon="4.76129">
        <ele>232</ele>
        <time>2021-09-18T14:05:37Z</time>
      </trkpt>
      <trkpt lat="45.65139" lon="4.76184">
        <ele>231.86</ele>
        <time>2021-09-18T14:05:45Z</time>
      </trkpt>
      <trkpt lat="45.6512" lon="4.76249">
        <ele>231.57</ele>
        <time>2021-09-18T14:05:54Z</time>
      </trkpt>
      <trkpt lat="45.65098" lon="4.76309">
        <ele>230.8</ele>
        <time>2021-09-18T14:06:01Z</time>
      </trkpt>
      <trkpt lat="45.65093" lon="4.76329">
        <ele>230.32</ele>
        <time>2021-09-18T14:06:03Z</time>
      </trkpt>
      <trkpt lat="45.65091" lon="4.76341">
        <ele>229.92</ele>
        <time>2021-09-18T14:06:04Z</time>
      </trkpt>
      <trkpt lat="45.6509" lon="4.76352">
        <ele>229.39</ele>
        <time>2021-09-18T14:06:05Z</time>
      </trkpt>
      <trkpt lat="45.6509" lon="4.76364">
        <ele>228.91</ele>
        <time>2021-09-18T14:06:06Z</time>
      </trkpt>
      <trkpt lat="45.65091" lon="4.76376">
        <ele>228.49</ele>
        <time>2021-09-18T14:06:07Z</time>
      </trkpt>
      <trkpt lat="45.65092" lon="4.76388">
        <ele>228.07</ele>
        <time>2021-09-18T14:06:08Z</time>
      </trkpt>
      <trkpt lat="45.65101" lon="4.76451">
        <ele>225.11</ele>
        <time>2021-09-18T14:06:13Z</time>
      </trkpt>
      <trkpt lat="45.65102" lon="4.76464">
        <ele>224.47</ele>
        <time>2021-09-18T14:06:14Z</time>
      </trkpt>
      <trkpt lat="45.65101" lon="4.76476">
        <ele>223.85</ele>
        <time>2021-09-18T14:06:15Z</time>
      </trkpt>
      <trkpt lat="45.65099" lon="4.76487">
        <ele>223.18</ele>
        <time>2021-09-18T14:06:16Z</time>
      </trkpt>
      <trkpt lat="45.65095" lon="4.76497">
        <ele>222.51</ele>
        <time>2021-09-18T14:06:17Z</time>
      </trkpt>
      <trkpt lat="45.65091" lon="4.76505">
        <ele>222.06</ele>
        <time>2021-09-18T14:06:18Z</time>
      </trkpt>
      <trkpt lat="45.65087" lon="4.76514">
        <ele>221.82</ele>
        <time>2021-09-18T14:06:19Z</time>
      </trkpt>
      <trkpt lat="45.65077" lon="4.76539">
        <ele>221.62</ele>
        <time>2021-09-18T14:06:22Z</time>
      </trkpt>
      <trkpt lat="45.65075" lon="4.76548">
        <ele>221.58</ele>
        <time>2021-09-18T14:06:23Z</time>
      </trkpt>
      <trkpt lat="45.65073" lon="4.76558">
        <ele>221.47</ele>
        <time>2021-09-18T14:06:24Z</time>
      </trkpt>
      <trkpt lat="45.65065" lon="4.76639">
        <ele>221.16</ele>
        <time>2021-09-18T14:06:33Z</time>
      </trkpt>
      <trkpt lat="45.65057" lon="4.76679">
        <ele>221.37</ele>
        <time>2021-09-18T14:06:39Z</time>
      </trkpt>
      <trkpt lat="45.65056" lon="4.76685">
        <ele>221.37</ele>
        <time>2021-09-18T14:06:40Z</time>
      </trkpt>
      <trkpt lat="45.65056" lon="4.7669">
        <ele>221.37</ele>
        <time>2021-09-18T14:06:41Z</time>
      </trkpt>
      <trkpt lat="45.65046" lon="4.76728">
        <ele>222.46</ele>
        <time>2021-09-18T14:06:49Z</time>
      </trkpt>
      <trkpt lat="45.65034" lon="4.7677">
        <ele>225</ele>
        <time>2021-09-18T14:06:58Z</time>
      </trkpt>
      <trkpt lat="45.65022" lon="4.76815">
        <ele>225.93</ele>
        <time>2021-09-18T14:07:08Z</time>
      </trkpt>
      <trkpt lat="45.65023" lon="4.76847">
        <ele>227.07</ele>
        <time>2021-09-18T14:07:15Z</time>
      </trkpt>
      <trkpt lat="45.65028" lon="4.76876">
        <ele>228.44</ele>
        <time>2021-09-18T14:07:22Z</time>
      </trkpt>
      <trkpt lat="45.65034" lon="4.76905">
        <ele>229.01</ele>
        <time>2021-09-18T14:07:29Z</time>
      </trkpt>
      <trkpt lat="45.65039" lon="4.76931">
        <ele>229.22</ele>
        <time>2021-09-18T14:07:35Z</time>
      </trkpt>
      <trkpt lat="45.65042" lon="4.76959">
        <ele>229.69</ele>
        <time>2021-09-18T14:07:42Z</time>
      </trkpt>
      <trkpt lat="45.65042" lon="4.76962">
        <ele>229.74</ele>
        <time>2021-09-18T14:07:43Z</time>
      </trkpt>
      <trkpt lat="45.65043" lon="4.76966">
        <ele>229.8</ele>
        <time>2021-09-18T14:07:44Z</time>
      </trkpt>
      <trkpt lat="45.65043" lon="4.7697">
        <ele>229.88</ele>
        <time>2021-09-18T14:07:45Z</time>
      </trkpt>
      <trkpt lat="45.65043" lon="4.76974">
        <ele>230.01</ele>
        <time>2021-09-18T14:07:46Z</time>
      </trkpt>
      <trkpt lat="45.65044" lon="4.76977">
        <ele>230.1</ele>
        <time>2021-09-18T14:07:47Z</time>
      </trkpt>
      <trkpt lat="45.65045" lon="4.76981">
        <ele>230.3</ele>
        <time>2021-09-18T14:07:48Z</time>
      </trkpt>
      <trkpt lat="45.65044" lon="4.76986">
        <ele>230.57</ele>
        <time>2021-09-18T14:07:49Z</time>
      </trkpt>
      <trkpt lat="45.65044" lon="4.7699">
        <ele>230.72</ele>
        <time>2021-09-18T14:07:50Z</time>
      </trkpt>
      <trkpt lat="45.65044" lon="4.76994">
        <ele>230.83</ele>
        <time>2021-09-18T14:07:51Z</time>
      </trkpt>
      <trkpt lat="45.65044" lon="4.76998">
        <ele>230.9</ele>
        <time>2021-09-18T14:07:52Z</time>
      </trkpt>
      <trkpt lat="45.65044" lon="4.77002">
        <ele>230.96</ele>
        <time>2021-09-18T14:07:53Z</time>
      </trkpt>
      <trkpt lat="45.65044" lon="4.77006">
        <ele>231.31</ele>
        <time>2021-09-18T14:07:54Z</time>
      </trkpt>
      <trkpt lat="45.65045" lon="4.77011">
        <ele>231.43</ele>
        <time>2021-09-18T14:07:55Z</time>
      </trkpt>
      <trkpt lat="45.65046" lon="4.77015">
        <ele>231.7</ele>
        <time>2021-09-18T14:07:56Z</time>
      </trkpt>
      <trkpt lat="45.65045" lon="4.77019">
        <ele>231.86</ele>
        <time>2021-09-18T14:07:57Z</time>
      </trkpt>
      <trkpt lat="45.65045" lon="4.77024">
        <ele>232.03</ele>
        <time>2021-09-18T14:07:58Z</time>
      </trkpt>
      <trkpt lat="45.65047" lon="4.77028">
        <ele>232.18</ele>
        <time>2021-09-18T14:07:59Z</time>
      </trkpt>
      <trkpt lat="45.65047" lon="4.77033">
        <ele>232.27</ele>
        <time>2021-09-18T14:08:00Z</time>
      </trkpt>
      <trkpt lat="45.65048" lon="4.77036">
        <ele>232.39</ele>
        <time>2021-09-18T14:08:01Z</time>
      </trkpt>
      <trkpt lat="45.65051" lon="4.77067">
        <ele>233.85</ele>
        <time>2021-09-18T14:08:08Z</time>
      </trkpt>
      <trkpt lat="45.65052" lon="4.77085">
        <ele>234.11</ele>
        <time>2021-09-18T14:08:12Z</time>
      </trkpt>
      <trkpt lat="45.65052" lon="4.77089">
        <ele>234.16</ele>
        <time>2021-09-18T14:08:13Z</time>
      </trkpt>
      <trkpt lat="45.65052" lon="4.77093">
        <ele>234.2</ele>
        <time>2021-09-18T14:08:14Z</time>
      </trkpt>
      <trkpt lat="45.65053" lon="4.77098">
        <ele>234.23</ele>
        <time>2021-09-18T14:08:15Z</time>
      </trkpt>
      <trkpt lat="45.65052" lon="4.77102">
        <ele>234.26</ele>
        <time>2021-09-18T14:08:16Z</time>
      </trkpt>
      <trkpt lat="45.65052" lon="4.77106">
        <ele>234.31</ele>
        <time>2021-09-18T14:08:17Z</time>
      </trkpt>
      <trkpt lat="45.65053" lon="4.77138">
        <ele>234.84</ele>
        <time>2021-09-18T14:08:24Z</time>
      </trkpt>
      <trkpt lat="45.65054" lon="4.7717">
        <ele>235.47</ele>
        <time>2021-09-18T14:08:31Z</time>
      </trkpt>
      <trkpt lat="45.65055" lon="4.77193">
        <ele>235.88</ele>
        <time>2021-09-18T14:08:36Z</time>
      </trkpt>
      <trkpt lat="45.65062" lon="4.77223">
        <ele>236.99</ele>
        <time>2021-09-18T14:08:43Z</time>
      </trkpt>
      <trkpt lat="45.65063" lon="4.77227">
        <ele>237.12</ele>
        <time>2021-09-18T14:08:44Z</time>
      </trkpt>
      <trkpt lat="45.65064" lon="4.77231">
        <ele>237.55</ele>
        <time>2021-09-18T14:08:45Z</time>
      </trkpt>
      <trkpt lat="45.65066" lon="4.77234">
        <ele>237.74</ele>
        <time>2021-09-18T14:08:46Z</time>
      </trkpt>
      <trkpt lat="45.65068" lon="4.77237">
        <ele>237.97</ele>
        <time>2021-09-18T14:08:47Z</time>
      </trkpt>
      <trkpt lat="45.65069" lon="4.7724">
        <ele>238.19</ele>
        <time>2021-09-18T14:08:48Z</time>
      </trkpt>
      <trkpt lat="45.65071" lon="4.77243">
        <ele>238.37</ele>
        <time>2021-09-18T14:08:49Z</time>
      </trkpt>
      <trkpt lat="45.65073" lon="4.77246">
        <ele>238.59</ele>
        <time>2021-09-18T14:08:50Z</time>
      </trkpt>
      <trkpt lat="45.65075" lon="4.77248">
        <ele>238.78</ele>
        <time>2021-09-18T14:08:51Z</time>
      </trkpt>
      <trkpt lat="45.65077" lon="4.77251">
        <ele>239.05</ele>
        <time>2021-09-18T14:08:52Z</time>
      </trkpt>
      <trkpt lat="45.65078" lon="4.77255">
        <ele>239.25</ele>
        <time>2021-09-18T14:08:53Z</time>
      </trkpt>
      <trkpt lat="45.65079" lon="4.77258">
        <ele>239.42</ele>
        <time>2021-09-18T14:08:54Z</time>
      </trkpt>
      <trkpt lat="45.65081" lon="4.77261">
        <ele>239.71</ele>
        <time>2021-09-18T14:08:55Z</time>
      </trkpt>
      <trkpt lat="45.65082" lon="4.77264">
        <ele>240.01</ele>
        <time>2021-09-18T14:08:56Z</time>
      </trkpt>
      <trkpt lat="45.65083" lon="4.77267">
        <ele>240.25</ele>
        <time>2021-09-18T14:08:57Z</time>
      </trkpt>
      <trkpt lat="45.65085" lon="4.7727">
        <ele>240.41</ele>
        <time>2021-09-18T14:08:58Z</time>
      </trkpt>
      <trkpt lat="45.65087" lon="4.77272">
        <ele>240.55</ele>
        <time>2021-09-18T14:08:59Z</time>
      </trkpt>
      <trkpt lat="45.65088" lon="4.77275">
        <ele>240.75</ele>
        <time>2021-09-18T14:09:00Z</time>
      </trkpt>
      <trkpt lat="45.6509" lon="4.77278">
        <ele>240.99</ele>
        <time>2021-09-18T14:09:01Z</time>
      </trkpt>
      <trkpt lat="45.65092" lon="4.77281">
        <ele>241.18</ele>
        <time>2021-09-18T14:09:02Z</time>
      </trkpt>
      <trkpt lat="45.65093" lon="4.77284">
        <ele>241.31</ele>
        <time>2021-09-18T14:09:03Z</time>
      </trkpt>
      <trkpt lat="45.65094" lon="4.77288">
        <ele>241.45</ele>
        <time>2021-09-18T14:09:04Z</time>
      </trkpt>
      <trkpt lat="45.65095" lon="4.77291">
        <ele>241.73</ele>
        <time>2021-09-18T14:09:05Z</time>
      </trkpt>
      <trkpt lat="45.65095" lon="4.77295">
        <ele>242</ele>
        <time>2021-09-18T14:09:06Z</time>
      </trkpt>
      <trkpt lat="45.65096" lon="4.77299">
        <ele>242.18</ele>
        <time>2021-09-18T14:09:07Z</time>
      </trkpt>
      <trkpt lat="45.65097" lon="4.77303">
        <ele>242.42</ele>
        <time>2021-09-18T14:09:08Z</time>
      </trkpt>
      <trkpt lat="45.65098" lon="4.77306">
        <ele>242.6</ele>
        <time>2021-09-18T14:09:09Z</time>
      </trkpt>
      <trkpt lat="45.65098" lon="4.7731">
        <ele>242.78</ele>
        <time>2021-09-18T14:09:10Z</time>
      </trkpt>
      <trkpt lat="45.65098" lon="4.77314">
        <ele>243.18</ele>
        <time>2021-09-18T14:09:11Z</time>
      </trkpt>
      <trkpt lat="45.65098" lon="4.77318">
        <ele>243.42</ele>
        <time>2021-09-18T14:09:12Z</time>
      </trkpt>
      <trkpt lat="45.65099" lon="4.77322">
        <ele>243.59</ele>
        <time>2021-09-18T14:09:13Z</time>
      </trkpt>
      <trkpt lat="45.65098" lon="4.77325">
        <ele>243.78</ele>
        <time>2021-09-18T14:09:14Z</time>
      </trkpt>
      <trkpt lat="45.65099" lon="4.77329">
        <ele>243.96</ele>
        <time>2021-09-18T14:09:15Z</time>
      </trkpt>
      <trkpt lat="45.65101" lon="4.77332">
        <ele>244.1</ele>
        <time>2021-09-18T14:09:16Z</time>
      </trkpt>
      <trkpt lat="45.651" lon="4.77336">
        <ele>244.38</ele>
        <time>2021-09-18T14:09:17Z</time>
      </trkpt>
      <trkpt lat="45.651" lon="4.7734">
        <ele>244.62</ele>
        <time>2021-09-18T14:09:18Z</time>
      </trkpt>
      <trkpt lat="45.65101" lon="4.77344">
        <ele>244.85</ele>
        <time>2021-09-18T14:09:19Z</time>
      </trkpt>
      <trkpt lat="45.65102" lon="4.77348">
        <ele>245.07</ele>
        <time>2021-09-18T14:09:20Z</time>
      </trkpt>
      <trkpt lat="45.65101" lon="4.77352">
        <ele>245.38</ele>
        <time>2021-09-18T14:09:21Z</time>
      </trkpt>
      <trkpt lat="45.65102" lon="4.77356">
        <ele>245.66</ele>
        <time>2021-09-18T14:09:22Z</time>
      </trkpt>
      <trkpt lat="45.65104" lon="4.77359">
        <ele>246.05</ele>
        <time>2021-09-18T14:09:23Z</time>
      </trkpt>
      <trkpt lat="45.65104" lon="4.77364">
        <ele>246.47</ele>
        <time>2021-09-18T14:09:24Z</time>
      </trkpt>
      <trkpt lat="45.65104" lon="4.77367">
        <ele>246.81</ele>
        <time>2021-09-18T14:09:25Z</time>
      </trkpt>
      <trkpt lat="45.65104" lon="4.7737">
        <ele>247.04</ele>
        <time>2021-09-18T14:09:26Z</time>
      </trkpt>
      <trkpt lat="45.65106" lon="4.77373">
        <ele>247.22</ele>
        <time>2021-09-18T14:09:27Z</time>
      </trkpt>
      <trkpt lat="45.65107" lon="4.77376">
        <ele>247.44</ele>
        <time>2021-09-18T14:09:28Z</time>
      </trkpt>
      <trkpt lat="45.65107" lon="4.7738">
        <ele>247.69</ele>
        <time>2021-09-18T14:09:29Z</time>
      </trkpt>
      <trkpt lat="45.65108" lon="4.77383">
        <ele>247.92</ele>
        <time>2021-09-18T14:09:30Z</time>
      </trkpt>
      <trkpt lat="45.65109" lon="4.77386">
        <ele>248.13</ele>
        <time>2021-09-18T14:09:31Z</time>
      </trkpt>
      <trkpt lat="45.65111" lon="4.77389">
        <ele>248.29</ele>
        <time>2021-09-18T14:09:32Z</time>
      </trkpt>
      <trkpt lat="45.65112" lon="4.77392">
        <ele>248.48</ele>
        <time>2021-09-18T14:09:33Z</time>
      </trkpt>
      <trkpt lat="45.65113" lon="4.77395">
        <ele>248.71</ele>
        <time>2021-09-18T14:09:34Z</time>
      </trkpt>
      <trkpt lat="45.65115" lon="4.77398">
        <ele>249.02</ele>
        <time>2021-09-18T14:09:35Z</time>
      </trkpt>
      <trkpt lat="45.65116" lon="4.774">
        <ele>249.33</ele>
        <time>2021-09-18T14:09:36Z</time>
      </trkpt>
      <trkpt lat="45.65118" lon="4.77403">
        <ele>249.46</ele>
        <time>2021-09-18T14:09:37Z</time>
      </trkpt>
      <trkpt lat="45.65119" lon="4.77406">
        <ele>249.55</ele>
        <time>2021-09-18T14:09:38Z</time>
      </trkpt>
      <trkpt lat="45.6512" lon="4.77409">
        <ele>249.65</ele>
        <time>2021-09-18T14:09:39Z</time>
      </trkpt>
      <trkpt lat="45.65123" lon="4.77412">
        <ele>249.73</ele>
        <time>2021-09-18T14:09:40Z</time>
      </trkpt>
      <trkpt lat="45.65124" lon="4.77415">
        <ele>249.78</ele>
        <time>2021-09-18T14:09:41Z</time>
      </trkpt>
      <trkpt lat="45.65125" lon="4.77418">
        <ele>249.89</ele>
        <time>2021-09-18T14:09:42Z</time>
      </trkpt>
      <trkpt lat="45.65127" lon="4.77421">
        <ele>250.04</ele>
        <time>2021-09-18T14:09:43Z</time>
      </trkpt>
      <trkpt lat="45.65129" lon="4.77423">
        <ele>250.19</ele>
        <time>2021-09-18T14:09:44Z</time>
      </trkpt>
      <trkpt lat="45.6513" lon="4.77426">
        <ele>250.28</ele>
        <time>2021-09-18T14:09:45Z</time>
      </trkpt>
      <trkpt lat="45.65132" lon="4.77429">
        <ele>250.41</ele>
        <time>2021-09-18T14:09:46Z</time>
      </trkpt>
      <trkpt lat="45.65134" lon="4.77432">
        <ele>250.51</ele>
        <time>2021-09-18T14:09:47Z</time>
      </trkpt>
      <trkpt lat="45.65137" lon="4.77434">
        <ele>250.57</ele>
        <time>2021-09-18T14:09:48Z</time>
      </trkpt>
      <trkpt lat="45.65138" lon="4.77437">
        <ele>250.62</ele>
        <time>2021-09-18T14:09:49Z</time>
      </trkpt>
      <trkpt lat="45.6514" lon="4.7744">
        <ele>250.7</ele>
        <time>2021-09-18T14:09:50Z</time>
      </trkpt>
      <trkpt lat="45.65143" lon="4.77441">
        <ele>250.89</ele>
        <time>2021-09-18T14:09:51Z</time>
      </trkpt>
      <trkpt lat="45.65145" lon="4.77443">
        <ele>251.03</ele>
        <time>2021-09-18T14:09:52Z</time>
      </trkpt>
      <trkpt lat="45.65147" lon="4.77447">
        <ele>251.14</ele>
        <time>2021-09-18T14:09:53Z</time>
      </trkpt>
      <trkpt lat="45.65148" lon="4.7745">
        <ele>251.33</ele>
        <time>2021-09-18T14:09:54Z</time>
      </trkpt>
      <trkpt lat="45.6515" lon="4.77453">
        <ele>251.5</ele>
        <time>2021-09-18T14:09:55Z</time>
      </trkpt>
      <trkpt lat="45.65152" lon="4.77457">
        <ele>251.69</ele>
        <time>2021-09-18T14:09:56Z</time>
      </trkpt>
      <trkpt lat="45.65153" lon="4.7746">
        <ele>251.92</ele>
        <time>2021-09-18T14:09:57Z</time>
      </trkpt>
      <trkpt lat="45.65155" lon="4.77464">
        <ele>252.13</ele>
        <time>2021-09-18T14:09:58Z</time>
      </trkpt>
      <trkpt lat="45.65157" lon="4.77467">
        <ele>252.39</ele>
        <time>2021-09-18T14:09:59Z</time>
      </trkpt>
      <trkpt lat="45.65158" lon="4.77471">
        <ele>252.62</ele>
        <time>2021-09-18T14:10:00Z</time>
      </trkpt>
      <trkpt lat="45.6516" lon="4.77475">
        <ele>252.89</ele>
        <time>2021-09-18T14:10:01Z</time>
      </trkpt>
      <trkpt lat="45.65168" lon="4.77497">
        <ele>254.3</ele>
        <time>2021-09-18T14:10:07Z</time>
      </trkpt>
      <trkpt lat="45.65173" lon="4.7752">
        <ele>255.2</ele>
        <time>2021-09-18T14:10:13Z</time>
      </trkpt>
      <trkpt lat="45.65173" lon="4.77524">
        <ele>255.25</ele>
        <time>2021-09-18T14:10:14Z</time>
      </trkpt>
      <trkpt lat="45.65174" lon="4.77527">
        <ele>255.3</ele>
        <time>2021-09-18T14:10:15Z</time>
      </trkpt>
      <trkpt lat="45.6518" lon="4.77552">
        <ele>255.89</ele>
        <time>2021-09-18T14:10:21Z</time>
      </trkpt>
      <trkpt lat="45.65187" lon="4.77583">
        <ele>256.48</ele>
        <time>2021-09-18T14:10:29Z</time>
      </trkpt>
      <trkpt lat="45.65196" lon="4.77618">
        <ele>256.86</ele>
        <time>2021-09-18T14:10:38Z</time>
      </trkpt>
      <trkpt lat="45.65202" lon="4.77641">
        <ele>257.06</ele>
        <time>2021-09-18T14:10:45Z</time>
      </trkpt>
      <trkpt lat="45.65209" lon="4.77677">
        <ele>257.48</ele>
        <time>2021-09-18T14:10:53Z</time>
      </trkpt>
      <trkpt lat="45.65212" lon="4.77694">
        <ele>257.62</ele>
        <time>2021-09-18T14:10:57Z</time>
      </trkpt>
      <trkpt lat="45.65213" lon="4.77699">
        <ele>257.63</ele>
        <time>2021-09-18T14:10:58Z</time>
      </trkpt>
      <trkpt lat="45.65214" lon="4.77704">
        <ele>257.64</ele>
        <time>2021-09-18T14:10:59Z</time>
      </trkpt>
      <trkpt lat="45.65214" lon="4.77708">
        <ele>257.65</ele>
        <time>2021-09-18T14:11:00Z</time>
      </trkpt>
      <trkpt lat="45.65215" lon="4.77713">
        <ele>257.66</ele>
        <time>2021-09-18T14:11:01Z</time>
      </trkpt>
      <trkpt lat="45.65217" lon="4.77717">
        <ele>257.67</ele>
        <time>2021-09-18T14:11:02Z</time>
      </trkpt>
      <trkpt lat="45.65218" lon="4.77722">
        <ele>257.67</ele>
        <time>2021-09-18T14:11:03Z</time>
      </trkpt>
      <trkpt lat="45.65218" lon="4.77726">
        <ele>257.68</ele>
        <time>2021-09-18T14:11:04Z</time>
      </trkpt>
      <trkpt lat="45.65219" lon="4.77731">
        <ele>257.73</ele>
        <time>2021-09-18T14:11:05Z</time>
      </trkpt>
      <trkpt lat="45.6522" lon="4.77736">
        <ele>257.84</ele>
        <time>2021-09-18T14:11:06Z</time>
      </trkpt>
      <trkpt lat="45.65221" lon="4.7774">
        <ele>257.99</ele>
        <time>2021-09-18T14:11:07Z</time>
      </trkpt>
      <trkpt lat="45.65222" lon="4.77745">
        <ele>258.09</ele>
        <time>2021-09-18T14:11:08Z</time>
      </trkpt>
      <trkpt lat="45.65228" lon="4.77788">
        <ele>258.76</ele>
        <time>2021-09-18T14:11:17Z</time>
      </trkpt>
      <trkpt lat="45.65232" lon="4.7784">
        <ele>260.09</ele>
        <time>2021-09-18T14:11:27Z</time>
      </trkpt>
      <trkpt lat="45.65235" lon="4.77889">
        <ele>261.36</ele>
        <time>2021-09-18T14:11:36Z</time>
      </trkpt>
      <trkpt lat="45.65242" lon="4.77926">
        <ele>262.08</ele>
        <time>2021-09-18T14:11:43Z</time>
      </trkpt>
      <trkpt lat="45.65254" lon="4.77958">
        <ele>263.37</ele>
        <time>2021-09-18T14:11:50Z</time>
      </trkpt>
      <trkpt lat="45.65264" lon="4.77987">
        <ele>263.67</ele>
        <time>2021-09-18T14:11:57Z</time>
      </trkpt>
      <trkpt lat="45.65269" lon="4.78003">
        <ele>263.8</ele>
        <time>2021-09-18T14:12:00Z</time>
      </trkpt>
      <trkpt lat="45.6528" lon="4.78067">
        <ele>264.04</ele>
        <time>2021-09-18T14:12:11Z</time>
      </trkpt>
      <trkpt lat="45.65285" lon="4.78117">
        <ele>264.31</ele>
        <time>2021-09-18T14:12:19Z</time>
      </trkpt>
      <trkpt lat="45.65285" lon="4.78123">
        <ele>264.32</ele>
        <time>2021-09-18T14:12:20Z</time>
      </trkpt>
      <trkpt lat="45.65286" lon="4.78169">
        <ele>264.39</ele>
        <time>2021-09-18T14:12:28Z</time>
      </trkpt>
      <trkpt lat="45.65286" lon="4.78186">
        <ele>264.37</ele>
        <time>2021-09-18T14:12:31Z</time>
      </trkpt>
      <trkpt lat="45.65289" lon="4.78211">
        <ele>264.34</ele>
        <time>2021-09-18T14:12:35Z</time>
      </trkpt>
      <trkpt lat="45.65299" lon="4.78251">
        <ele>264.35</ele>
        <time>2021-09-18T14:12:41Z</time>
      </trkpt>
      <trkpt lat="45.65302" lon="4.78257">
        <ele>264.35</ele>
        <time>2021-09-18T14:12:42Z</time>
      </trkpt>
      <trkpt lat="45.65304" lon="4.78263">
        <ele>264.36</ele>
        <time>2021-09-18T14:12:43Z</time>
      </trkpt>
      <trkpt lat="45.65311" lon="4.78282">
        <ele>264.37</ele>
        <time>2021-09-18T14:12:46Z</time>
      </trkpt>
      <trkpt lat="45.65329" lon="4.78314">
        <ele>264.65</ele>
        <time>2021-09-18T14:12:53Z</time>
      </trkpt>
      <trkpt lat="45.65334" lon="4.78322">
        <ele>264.76</ele>
        <time>2021-09-18T14:12:55Z</time>
      </trkpt>
      <trkpt lat="45.65362" lon="4.78376">
        <ele>265.61</ele>
        <time>2021-09-18T14:13:05Z</time>
      </trkpt>
      <trkpt lat="45.65393" lon="4.78438">
        <ele>265.6</ele>
        <time>2021-09-18T14:13:16Z</time>
      </trkpt>
      <trkpt lat="45.65407" lon="4.78469">
        <ele>265.31</ele>
        <time>2021-09-18T14:13:22Z</time>
      </trkpt>
      <trkpt lat="45.65409" lon="4.78475">
        <ele>265.29</ele>
        <time>2021-09-18T14:13:23Z</time>
      </trkpt>
      <trkpt lat="45.65422" lon="4.78526">
        <ele>265.15</ele>
        <time>2021-09-18T14:13:31Z</time>
      </trkpt>
      <trkpt lat="45.65422" lon="4.78533">
        <ele>265.15</ele>
        <time>2021-09-18T14:13:32Z</time>
      </trkpt>
      <trkpt lat="45.65424" lon="4.7854">
        <ele>265.15</ele>
        <time>2021-09-18T14:13:33Z</time>
      </trkpt>
      <trkpt lat="45.6543" lon="4.78563">
        <ele>264.87</ele>
        <time>2021-09-18T14:13:37Z</time>
      </trkpt>
      <trkpt lat="45.65431" lon="4.78569">
        <ele>264.83</ele>
        <time>2021-09-18T14:13:38Z</time>
      </trkpt>
      <trkpt lat="45.6543" lon="4.78575">
        <ele>264.79</ele>
        <time>2021-09-18T14:13:39Z</time>
      </trkpt>
      <trkpt lat="45.65428" lon="4.78649">
        <ele>264.26</ele>
        <time>2021-09-18T14:13:51Z</time>
      </trkpt>
      <trkpt lat="45.65428" lon="4.78714">
        <ele>263.37</ele>
        <time>2021-09-18T14:14:02Z</time>
      </trkpt>
      <trkpt lat="45.6543" lon="4.78757">
        <ele>263.32</ele>
        <time>2021-09-18T14:14:09Z</time>
      </trkpt>
      <trkpt lat="45.65431" lon="4.78763">
        <ele>263.3</ele>
        <time>2021-09-18T14:14:10Z</time>
      </trkpt>
      <trkpt lat="45.65436" lon="4.78825">
        <ele>263</ele>
        <time>2021-09-18T14:14:19Z</time>
      </trkpt>
      <trkpt lat="45.65438" lon="4.78888">
        <ele>262.47</ele>
        <time>2021-09-18T14:14:28Z</time>
      </trkpt>
      <trkpt lat="45.65448" lon="4.78947">
        <ele>262.36</ele>
        <time>2021-09-18T14:14:37Z</time>
      </trkpt>
      <trkpt lat="45.65458" lon="4.79012">
        <ele>262.37</ele>
        <time>2021-09-18T14:14:46Z</time>
      </trkpt>
      <trkpt lat="45.65465" lon="4.79062">
        <ele>262.47</ele>
        <time>2021-09-18T14:14:54Z</time>
      </trkpt>
      <trkpt lat="45.65465" lon="4.79068">
        <ele>262.47</ele>
        <time>2021-09-18T14:14:55Z</time>
      </trkpt>
      <trkpt lat="45.65465" lon="4.79074">
        <ele>262.47</ele>
        <time>2021-09-18T14:14:56Z</time>
      </trkpt>
      <trkpt lat="45.65462" lon="4.79121">
        <ele>262.59</ele>
        <time>2021-09-18T14:15:05Z</time>
      </trkpt>
      <trkpt lat="45.65457" lon="4.79174">
        <ele>262.51</ele>
        <time>2021-09-18T14:15:14Z</time>
      </trkpt>
      <trkpt lat="45.65454" lon="4.79219">
        <ele>261.79</ele>
        <time>2021-09-18T14:15:21Z</time>
      </trkpt>
      <trkpt lat="45.65454" lon="4.79231">
        <ele>261.4</ele>
        <time>2021-09-18T14:15:23Z</time>
      </trkpt>
      <trkpt lat="45.65452" lon="4.79278">
        <ele>260.69</ele>
        <time>2021-09-18T14:15:32Z</time>
      </trkpt>
      <trkpt lat="45.6545" lon="4.79307">
        <ele>261.37</ele>
        <time>2021-09-18T14:15:39Z</time>
      </trkpt>
      <trkpt lat="45.65446" lon="4.79332">
        <ele>262.19</ele>
        <time>2021-09-18T14:15:44Z</time>
      </trkpt>
      <trkpt lat="45.65447" lon="4.79339">
        <ele>262.22</ele>
        <time>2021-09-18T14:15:45Z</time>
      </trkpt>
      <trkpt lat="45.65448" lon="4.79345">
        <ele>262.24</ele>
        <time>2021-09-18T14:15:46Z</time>
      </trkpt>
      <trkpt lat="45.6545" lon="4.7935">
        <ele>262.25</ele>
        <time>2021-09-18T14:15:47Z</time>
      </trkpt>
      <trkpt lat="45.65452" lon="4.79355">
        <ele>262.26</ele>
        <time>2021-09-18T14:15:48Z</time>
      </trkpt>
      <trkpt lat="45.65469" lon="4.7939">
        <ele>262.78</ele>
        <time>2021-09-18T14:15:57Z</time>
      </trkpt>
      <trkpt lat="45.65482" lon="4.79421">
        <ele>264.15</ele>
        <time>2021-09-18T14:16:06Z</time>
      </trkpt>
      <trkpt lat="45.65501" lon="4.7945">
        <ele>266.06</ele>
        <time>2021-09-18T14:16:16Z</time>
      </trkpt>
      <trkpt lat="45.65515" lon="4.79461">
        <ele>267.15</ele>
        <time>2021-09-18T14:16:22Z</time>
      </trkpt>
      <trkpt lat="45.65525" lon="4.79463">
        <ele>267.76</ele>
        <time>2021-09-18T14:16:26Z</time>
      </trkpt>
      <trkpt lat="45.65528" lon="4.79463">
        <ele>267.9</ele>
        <time>2021-09-18T14:16:27Z</time>
      </trkpt>
      <trkpt lat="45.6553" lon="4.79463">
        <ele>268.02</ele>
        <time>2021-09-18T14:16:28Z</time>
      </trkpt>
      <trkpt lat="45.65533" lon="4.79463">
        <ele>268.48</ele>
        <time>2021-09-18T14:16:29Z</time>
      </trkpt>
      <trkpt lat="45.65535" lon="4.79462">
        <ele>268.77</ele>
        <time>2021-09-18T14:16:30Z</time>
      </trkpt>
      <trkpt lat="45.65538" lon="4.79462">
        <ele>269</ele>
        <time>2021-09-18T14:16:31Z</time>
      </trkpt>
      <trkpt lat="45.65561" lon="4.79453">
        <ele>271.08</ele>
        <time>2021-09-18T14:16:41Z</time>
      </trkpt>
      <trkpt lat="45.65581" lon="4.79442">
        <ele>271.9</ele>
        <time>2021-09-18T14:16:49Z</time>
      </trkpt>
      <trkpt lat="45.656" lon="4.79435">
        <ele>273.74</ele>
        <time>2021-09-18T14:16:57Z</time>
      </trkpt>
      <trkpt lat="45.65601" lon="4.79437">
        <ele>273.87</ele>
        <time>2021-09-18T14:16:58Z</time>
      </trkpt>
      <trkpt lat="45.65601" lon="4.7944">
        <ele>273.96</ele>
        <time>2021-09-18T14:16:59Z</time>
      </trkpt>
      <trkpt lat="45.65601" lon="4.79443">
        <ele>274.03</ele>
        <time>2021-09-18T14:17:00Z</time>
      </trkpt>
      <trkpt lat="45.65601" lon="4.79447">
        <ele>274.25</ele>
        <time>2021-09-18T14:17:01Z</time>
      </trkpt>
      <trkpt lat="45.65602" lon="4.79449">
        <ele>274.37</ele>
        <time>2021-09-18T14:17:02Z</time>
      </trkpt>
      <trkpt lat="45.65602" lon="4.79452">
        <ele>274.63</ele>
        <time>2021-09-18T14:17:03Z</time>
      </trkpt>
      <trkpt lat="45.65602" lon="4.79454">
        <ele>274.88</ele>
        <time>2021-09-18T14:17:04Z</time>
      </trkpt>
      <trkpt lat="45.65602" lon="4.79457">
        <ele>275.04</ele>
        <time>2021-09-18T14:17:05Z</time>
      </trkpt>
      <trkpt lat="45.65602" lon="4.79461">
        <ele>275.19</ele>
        <time>2021-09-18T14:17:06Z</time>
      </trkpt>
      <trkpt lat="45.65603" lon="4.79463">
        <ele>275.39</ele>
        <time>2021-09-18T14:17:07Z</time>
      </trkpt>
      <trkpt lat="45.65605" lon="4.79465">
        <ele>275.59</ele>
        <time>2021-09-18T14:17:08Z</time>
      </trkpt>
      <trkpt lat="45.65606" lon="4.79468">
        <ele>275.84</ele>
        <time>2021-09-18T14:17:09Z</time>
      </trkpt>
      <trkpt lat="45.65606" lon="4.79471">
        <ele>276.14</ele>
        <time>2021-09-18T14:17:10Z</time>
      </trkpt>
      <trkpt lat="45.65608" lon="4.79473">
        <ele>276.39</ele>
        <time>2021-09-18T14:17:11Z</time>
      </trkpt>
      <trkpt lat="45.6561" lon="4.79475">
        <ele>276.73</ele>
        <time>2021-09-18T14:17:12Z</time>
      </trkpt>
      <trkpt lat="45.65611" lon="4.79477">
        <ele>277.03</ele>
        <time>2021-09-18T14:17:13Z</time>
      </trkpt>
      <trkpt lat="45.65612" lon="4.7948">
        <ele>277.31</ele>
        <time>2021-09-18T14:17:14Z</time>
      </trkpt>
      <trkpt lat="45.65614" lon="4.79482">
        <ele>277.55</ele>
        <time>2021-09-18T14:17:15Z</time>
      </trkpt>
      <trkpt lat="45.65616" lon="4.79484">
        <ele>277.68</ele>
        <time>2021-09-18T14:17:16Z</time>
      </trkpt>
      <trkpt lat="45.65618" lon="4.79486">
        <ele>277.81</ele>
        <time>2021-09-18T14:17:17Z</time>
      </trkpt>
      <trkpt lat="45.6562" lon="4.79488">
        <ele>277.88</ele>
        <time>2021-09-18T14:17:18Z</time>
      </trkpt>
      <trkpt lat="45.65621" lon="4.79491">
        <ele>278.21</ele>
        <time>2021-09-18T14:17:19Z</time>
      </trkpt>
      <trkpt lat="45.65623" lon="4.79493">
        <ele>278.21</ele>
        <time>2021-09-18T14:17:20Z</time>
      </trkpt>
      <trkpt lat="45.65625" lon="4.79495">
        <ele>278.53</ele>
        <time>2021-09-18T14:17:21Z</time>
      </trkpt>
      <trkpt lat="45.65627" lon="4.79497">
        <ele>278.63</ele>
        <time>2021-09-18T14:17:22Z</time>
      </trkpt>
      <trkpt lat="45.65629" lon="4.795">
        <ele>278.76</ele>
        <time>2021-09-18T14:17:23Z</time>
      </trkpt>
      <trkpt lat="45.65631" lon="4.79502">
        <ele>278.91</ele>
        <time>2021-09-18T14:17:24Z</time>
      </trkpt>
      <trkpt lat="45.65633" lon="4.79504">
        <ele>279.14</ele>
        <time>2021-09-18T14:17:25Z</time>
      </trkpt>
      <trkpt lat="45.65635" lon="4.79506">
        <ele>279.31</ele>
        <time>2021-09-18T14:17:26Z</time>
      </trkpt>
      <trkpt lat="45.65636" lon="4.79509">
        <ele>279.41</ele>
        <time>2021-09-18T14:17:27Z</time>
      </trkpt>
      <trkpt lat="45.65638" lon="4.79511">
        <ele>279.51</ele>
        <time>2021-09-18T14:17:28Z</time>
      </trkpt>
      <trkpt lat="45.6564" lon="4.79513">
        <ele>279.75</ele>
        <time>2021-09-18T14:17:29Z</time>
      </trkpt>
      <trkpt lat="45.65642" lon="4.79516">
        <ele>279.93</ele>
        <time>2021-09-18T14:17:30Z</time>
      </trkpt>
      <trkpt lat="45.65643" lon="4.79519">
        <ele>280.12</ele>
        <time>2021-09-18T14:17:31Z</time>
      </trkpt>
      <trkpt lat="45.65645" lon="4.79522">
        <ele>280.31</ele>
        <time>2021-09-18T14:17:32Z</time>
      </trkpt>
      <trkpt lat="45.6566" lon="4.79541">
        <ele>281.09</ele>
        <time>2021-09-18T14:17:39Z</time>
      </trkpt>
      <trkpt lat="45.65674" lon="4.79561">
        <ele>281.34</ele>
        <time>2021-09-18T14:17:46Z</time>
      </trkpt>
      <trkpt lat="45.65691" lon="4.79585">
        <ele>281.35</ele>
        <time>2021-09-18T14:17:53Z</time>
      </trkpt>
      <trkpt lat="45.65705" lon="4.79606">
        <ele>281.4</ele>
        <time>2021-09-18T14:18:00Z</time>
      </trkpt>
      <trkpt lat="45.65707" lon="4.79606">
        <ele>281.41</ele>
        <time>2021-09-18T14:18:01Z</time>
      </trkpt>
      <trkpt lat="45.65709" lon="4.79606">
        <ele>281.41</ele>
        <time>2021-09-18T14:18:02Z</time>
      </trkpt>
      <trkpt lat="45.65711" lon="4.79604">
        <ele>281.41</ele>
        <time>2021-09-18T14:18:03Z</time>
      </trkpt>
      <trkpt lat="45.65713" lon="4.796">
        <ele>281.45</ele>
        <time>2021-09-18T14:18:04Z</time>
      </trkpt>
      <trkpt lat="45.65715" lon="4.79596">
        <ele>281.46</ele>
        <time>2021-09-18T14:18:05Z</time>
      </trkpt>
      <trkpt lat="45.65729" lon="4.79583">
        <ele>281.48</ele>
        <time>2021-09-18T14:18:10Z</time>
      </trkpt>
      <trkpt lat="45.65747" lon="4.7958">
        <ele>281.62</ele>
        <time>2021-09-18T14:18:16Z</time>
      </trkpt>
      <trkpt lat="45.65765" lon="4.79587">
        <ele>281.71</ele>
        <time>2021-09-18T14:18:23Z</time>
      </trkpt>
    </trkseg>
  </trk>
</gpx>